<?xml version="1.0" encoding="UTF-8" standalone="no" ?>
<gpx xmlns="http://www.topografix.com/GPX/1/1" xmlns:xsi="http://www.w3.org/2001/XMLSchema-instance" xsi:schemaLocation="http://www.topografix.com/GPX/1/1 http://www.topografix.com/GPX/1/1/gpx.xsd" version="1.1" creator="VisuGPX - https://www.visugpx.com">
  <metadata>
    <name>Diagonale du Doubs 2011 (50 kms)</name>
    <desc><![CDATA[Super randonnée qui a eut lieu le 17 Avril 2011 ]]></desc>
  </metadata>
  <wpt lat="47.15612" lon="6.26926">
    <ele>598</ele>
    <name><![CDATA[Start]]></name>
    <desc><![CDATA[2011-04-17 07:09:08]]></desc>
  </wpt>
  <wpt lat="47.22882" lon="6.11206">
    <ele>384.1</ele>
    <name><![CDATA[Lap 1]]></name>
    <desc><![CDATA[53.29km, 238:42, 13.4kph]]></desc>
  </wpt>
  <wpt lat="47.22574" lon="6.07791">
    <ele>427.2</ele>
    <name><![CDATA[Lap 2]]></name>
    <desc><![CDATA[3.32km, 11:46, 16.9kph]]></desc>
  </wpt>
  <trk>
    <name><![CDATA[2011-04-17-07-09-08]]></name>
    <desc><![CDATA[250:29 - 56.6km]]></desc>
    <trkseg>
      <trkpt lat="47.15612" lon="6.26926">
        <ele>541.373</ele>
        <time>2011-04-17T07:09:09Z</time>
      </trkpt>
      <trkpt lat="47.15612" lon="6.26926">
        <ele>541.373</ele>
        <time>2011-04-17T07:09:10Z</time>
      </trkpt>
      <trkpt lat="47.15608" lon="6.26927">
        <ele>541.798</ele>
        <time>2011-04-17T07:09:14Z</time>
      </trkpt>
      <trkpt lat="47.15601" lon="6.26938">
        <ele>541.484</ele>
        <time>2011-04-17T07:09:23Z</time>
      </trkpt>
      <trkpt lat="47.156" lon="6.26939">
        <ele>541.598</ele>
        <time>2011-04-17T07:09:24Z</time>
      </trkpt>
      <trkpt lat="47.15595" lon="6.26936">
        <ele>541.683</ele>
        <time>2011-04-17T07:09:33Z</time>
      </trkpt>
      <trkpt lat="47.15593" lon="6.26935">
        <ele>541.509</ele>
        <time>2011-04-17T07:09:35Z</time>
      </trkpt>
      <trkpt lat="47.15588" lon="6.26931">
        <ele>541.109</ele>
        <time>2011-04-17T07:09:42Z</time>
      </trkpt>
      <trkpt lat="47.15583" lon="6.26926">
        <ele>541.18</ele>
        <time>2011-04-17T07:09:50Z</time>
      </trkpt>
      <trkpt lat="47.15574" lon="6.26917">
        <ele>540.78</ele>
        <time>2011-04-17T07:10:00Z</time>
      </trkpt>
      <trkpt lat="47.15573" lon="6.26914">
        <ele>541.017</ele>
        <time>2011-04-17T07:10:04Z</time>
      </trkpt>
      <trkpt lat="47.15572" lon="6.26913">
        <ele>541.088</ele>
        <time>2011-04-17T07:10:07Z</time>
      </trkpt>
      <trkpt lat="47.15555" lon="6.26908">
        <ele>541.407</ele>
        <time>2011-04-17T07:10:34Z</time>
      </trkpt>
      <trkpt lat="47.15551" lon="6.26904">
        <ele>541.599</ele>
        <time>2011-04-17T07:10:37Z</time>
      </trkpt>
      <trkpt lat="47.15537" lon="6.26891">
        <ele>542.854</ele>
        <time>2011-04-17T07:10:45Z</time>
      </trkpt>
      <trkpt lat="47.15525" lon="6.2688">
        <ele>543.842</ele>
        <time>2011-04-17T07:10:51Z</time>
      </trkpt>
      <trkpt lat="47.15514" lon="6.26868">
        <ele>545.971</ele>
        <time>2011-04-17T07:10:57Z</time>
      </trkpt>
      <trkpt lat="47.15507" lon="6.26862">
        <ele>547.008</ele>
        <time>2011-04-17T07:11:01Z</time>
      </trkpt>
      <trkpt lat="47.15502" lon="6.26857">
        <ele>548.087</ele>
        <time>2011-04-17T07:11:04Z</time>
      </trkpt>
      <trkpt lat="47.15494" lon="6.26841">
        <ele>549.645</ele>
        <time>2011-04-17T07:11:12Z</time>
      </trkpt>
      <trkpt lat="47.15488" lon="6.26824">
        <ele>550.087</ele>
        <time>2011-04-17T07:11:19Z</time>
      </trkpt>
      <trkpt lat="47.15485" lon="6.26815">
        <ele>550.562</ele>
        <time>2011-04-17T07:11:23Z</time>
      </trkpt>
      <trkpt lat="47.15482" lon="6.26796">
        <ele>551.722</ele>
        <time>2011-04-17T07:11:31Z</time>
      </trkpt>
      <trkpt lat="47.15478" lon="6.26775">
        <ele>552.509</ele>
        <time>2011-04-17T07:11:39Z</time>
      </trkpt>
      <trkpt lat="47.15468" lon="6.26763">
        <ele>552.871</ele>
        <time>2011-04-17T07:11:46Z</time>
      </trkpt>
      <trkpt lat="47.1545" lon="6.26765">
        <ele>552.42</ele>
        <time>2011-04-17T07:11:53Z</time>
      </trkpt>
      <trkpt lat="47.15447" lon="6.26765">
        <ele>552.362</ele>
        <time>2011-04-17T07:11:54Z</time>
      </trkpt>
      <trkpt lat="47.15438" lon="6.26757">
        <ele>552.226</ele>
        <time>2011-04-17T07:11:58Z</time>
      </trkpt>
      <trkpt lat="47.15433" lon="6.26746">
        <ele>552.011</ele>
        <time>2011-04-17T07:12:01Z</time>
      </trkpt>
      <trkpt lat="47.15438" lon="6.2673">
        <ele>552.143</ele>
        <time>2011-04-17T07:12:05Z</time>
      </trkpt>
      <trkpt lat="47.15443" lon="6.26705">
        <ele>553.1</ele>
        <time>2011-04-17T07:12:11Z</time>
      </trkpt>
      <trkpt lat="47.1544" lon="6.26673">
        <ele>552.837</ele>
        <time>2011-04-17T07:12:17Z</time>
      </trkpt>
      <trkpt lat="47.15429" lon="6.26628">
        <ele>551.466</ele>
        <time>2011-04-17T07:12:23Z</time>
      </trkpt>
      <trkpt lat="47.15421" lon="6.26587">
        <ele>551.62</ele>
        <time>2011-04-17T07:12:29Z</time>
      </trkpt>
      <trkpt lat="47.15414" lon="6.2655">
        <ele>551.479</ele>
        <time>2011-04-17T07:12:36Z</time>
      </trkpt>
      <trkpt lat="47.15407" lon="6.26505">
        <ele>551.772</ele>
        <time>2011-04-17T07:12:44Z</time>
      </trkpt>
      <trkpt lat="47.15407" lon="6.26453">
        <ele>551.239</ele>
        <time>2011-04-17T07:12:51Z</time>
      </trkpt>
      <trkpt lat="47.1541" lon="6.26419">
        <ele>550.398</ele>
        <time>2011-04-17T07:12:55Z</time>
      </trkpt>
      <trkpt lat="47.15416" lon="6.26362">
        <ele>549.149</ele>
        <time>2011-04-17T07:13:01Z</time>
      </trkpt>
      <trkpt lat="47.15422" lon="6.26299">
        <ele>548.197</ele>
        <time>2011-04-17T07:13:07Z</time>
      </trkpt>
      <trkpt lat="47.15431" lon="6.2621">
        <ele>546.642</ele>
        <time>2011-04-17T07:13:15Z</time>
      </trkpt>
      <trkpt lat="47.15438" lon="6.26143">
        <ele>546.756</ele>
        <time>2011-04-17T07:13:22Z</time>
      </trkpt>
      <trkpt lat="47.15442" lon="6.26105">
        <ele>548.605</ele>
        <time>2011-04-17T07:13:27Z</time>
      </trkpt>
      <trkpt lat="47.15443" lon="6.26092">
        <ele>549.29</ele>
        <time>2011-04-17T07:13:29Z</time>
      </trkpt>
      <trkpt lat="47.15444" lon="6.2606">
        <ele>550.598</ele>
        <time>2011-04-17T07:13:34Z</time>
      </trkpt>
      <trkpt lat="47.15443" lon="6.26047">
        <ele>551.16</ele>
        <time>2011-04-17T07:13:36Z</time>
      </trkpt>
      <trkpt lat="47.15434" lon="6.26012">
        <ele>552.789</ele>
        <time>2011-04-17T07:13:42Z</time>
      </trkpt>
      <trkpt lat="47.1541" lon="6.25961">
        <ele>554.404</ele>
        <time>2011-04-17T07:13:51Z</time>
      </trkpt>
      <trkpt lat="47.1539" lon="6.25912">
        <ele>554.531</ele>
        <time>2011-04-17T07:13:59Z</time>
      </trkpt>
      <trkpt lat="47.15383" lon="6.25866">
        <ele>553.8</ele>
        <time>2011-04-17T07:14:05Z</time>
      </trkpt>
      <trkpt lat="47.1538" lon="6.25808">
        <ele>552.199</ele>
        <time>2011-04-17T07:14:11Z</time>
      </trkpt>
      <trkpt lat="47.15369" lon="6.25753">
        <ele>550.154</ele>
        <time>2011-04-17T07:14:16Z</time>
      </trkpt>
      <trkpt lat="47.15364" lon="6.2573">
        <ele>549.2</ele>
        <time>2011-04-17T07:14:18Z</time>
      </trkpt>
      <trkpt lat="47.15334" lon="6.25609">
        <ele>545.185</ele>
        <time>2011-04-17T07:14:28Z</time>
      </trkpt>
      <trkpt lat="47.15325" lon="6.25572">
        <ele>543.765</ele>
        <time>2011-04-17T07:14:31Z</time>
      </trkpt>
      <trkpt lat="47.15304" lon="6.25482">
        <ele>541.08</ele>
        <time>2011-04-17T07:14:39Z</time>
      </trkpt>
      <trkpt lat="47.153" lon="6.25463">
        <ele>540.719</ele>
        <time>2011-04-17T07:14:41Z</time>
      </trkpt>
      <trkpt lat="47.15288" lon="6.2544">
        <ele>539.463</ele>
        <time>2011-04-17T07:14:45Z</time>
      </trkpt>
      <trkpt lat="47.15268" lon="6.25437">
        <ele>539.188</ele>
        <time>2011-04-17T07:14:49Z</time>
      </trkpt>
      <trkpt lat="47.15264" lon="6.25439">
        <ele>539.271</ele>
        <time>2011-04-17T07:14:50Z</time>
      </trkpt>
      <trkpt lat="47.15257" lon="6.25442">
        <ele>539.773</ele>
        <time>2011-04-17T07:14:52Z</time>
      </trkpt>
      <trkpt lat="47.15239" lon="6.25459">
        <ele>541.512</ele>
        <time>2011-04-17T07:14:58Z</time>
      </trkpt>
      <trkpt lat="47.15231" lon="6.25469">
        <ele>542.462</ele>
        <time>2011-04-17T07:15:01Z</time>
      </trkpt>
      <trkpt lat="47.15224" lon="6.25477">
        <ele>543.43</ele>
        <time>2011-04-17T07:15:04Z</time>
      </trkpt>
      <trkpt lat="47.15222" lon="6.2548">
        <ele>543.837</ele>
        <time>2011-04-17T07:15:05Z</time>
      </trkpt>
      <trkpt lat="47.1522" lon="6.25483">
        <ele>544.138</ele>
        <time>2011-04-17T07:15:06Z</time>
      </trkpt>
      <trkpt lat="47.15211" lon="6.25493">
        <ele>544.641</ele>
        <time>2011-04-17T07:15:09Z</time>
      </trkpt>
      <trkpt lat="47.15208" lon="6.25496">
        <ele>545.065</ele>
        <time>2011-04-17T07:15:10Z</time>
      </trkpt>
      <trkpt lat="47.15187" lon="6.25492">
        <ele>546.035</ele>
        <time>2011-04-17T07:15:15Z</time>
      </trkpt>
      <trkpt lat="47.15183" lon="6.25489">
        <ele>546.218</ele>
        <time>2011-04-17T07:15:16Z</time>
      </trkpt>
      <trkpt lat="47.1515" lon="6.2545">
        <ele>545.917</ele>
        <time>2011-04-17T07:15:25Z</time>
      </trkpt>
      <trkpt lat="47.15131" lon="6.25425">
        <ele>545.485</ele>
        <time>2011-04-17T07:15:30Z</time>
      </trkpt>
      <trkpt lat="47.15106" lon="6.25389">
        <ele>544.604</ele>
        <time>2011-04-17T07:15:36Z</time>
      </trkpt>
      <trkpt lat="47.15086" lon="6.25367">
        <ele>543.925</ele>
        <time>2011-04-17T07:15:40Z</time>
      </trkpt>
      <trkpt lat="47.15051" lon="6.25336">
        <ele>542.451</ele>
        <time>2011-04-17T07:15:46Z</time>
      </trkpt>
      <trkpt lat="47.15041" lon="6.2532">
        <ele>541.613</ele>
        <time>2011-04-17T07:15:48Z</time>
      </trkpt>
      <trkpt lat="47.15025" lon="6.25273">
        <ele>540.972</ele>
        <time>2011-04-17T07:15:53Z</time>
      </trkpt>
      <trkpt lat="47.1502" lon="6.25254">
        <ele>540.342</ele>
        <time>2011-04-17T07:15:55Z</time>
      </trkpt>
      <trkpt lat="47.14997" lon="6.25214">
        <ele>539.509</ele>
        <time>2011-04-17T07:16:00Z</time>
      </trkpt>
      <trkpt lat="47.14981" lon="6.25195">
        <ele>539.462</ele>
        <time>2011-04-17T07:16:03Z</time>
      </trkpt>
      <trkpt lat="47.14952" lon="6.25145">
        <ele>538.188</ele>
        <time>2011-04-17T07:16:10Z</time>
      </trkpt>
      <trkpt lat="47.14925" lon="6.25118">
        <ele>537.183</ele>
        <time>2011-04-17T07:16:15Z</time>
      </trkpt>
      <trkpt lat="47.14898" lon="6.251">
        <ele>537.852</ele>
        <time>2011-04-17T07:16:21Z</time>
      </trkpt>
      <trkpt lat="47.14891" lon="6.25089">
        <ele>537.64</ele>
        <time>2011-04-17T07:16:23Z</time>
      </trkpt>
      <trkpt lat="47.14866" lon="6.25054">
        <ele>536.919</ele>
        <time>2011-04-17T07:16:30Z</time>
      </trkpt>
      <trkpt lat="47.14843" lon="6.2501">
        <ele>535.594</ele>
        <time>2011-04-17T07:16:37Z</time>
      </trkpt>
      <trkpt lat="47.14822" lon="6.24971">
        <ele>536.012</ele>
        <time>2011-04-17T07:16:44Z</time>
      </trkpt>
      <trkpt lat="47.14798" lon="6.24922">
        <ele>536.827</ele>
        <time>2011-04-17T07:16:53Z</time>
      </trkpt>
      <trkpt lat="47.14783" lon="6.24889">
        <ele>537.511</ele>
        <time>2011-04-17T07:16:59Z</time>
      </trkpt>
      <trkpt lat="47.1477" lon="6.24859">
        <ele>537.3</ele>
        <time>2011-04-17T07:17:05Z</time>
      </trkpt>
      <trkpt lat="47.14754" lon="6.24837">
        <ele>536.552</ele>
        <time>2011-04-17T07:17:10Z</time>
      </trkpt>
      <trkpt lat="47.14746" lon="6.24831">
        <ele>536.554</ele>
        <time>2011-04-17T07:17:12Z</time>
      </trkpt>
      <trkpt lat="47.1473" lon="6.24831">
        <ele>536.576</ele>
        <time>2011-04-17T07:17:16Z</time>
      </trkpt>
      <trkpt lat="47.1471" lon="6.2484">
        <ele>536.32</ele>
        <time>2011-04-17T07:17:21Z</time>
      </trkpt>
      <trkpt lat="47.14688" lon="6.24844">
        <ele>535.302</ele>
        <time>2011-04-17T07:17:25Z</time>
      </trkpt>
      <trkpt lat="47.14664" lon="6.2484">
        <ele>533.794</ele>
        <time>2011-04-17T07:17:29Z</time>
      </trkpt>
      <trkpt lat="47.14644" lon="6.24848">
        <ele>532.716</ele>
        <time>2011-04-17T07:17:33Z</time>
      </trkpt>
      <trkpt lat="47.14639" lon="6.24853">
        <ele>532.639</ele>
        <time>2011-04-17T07:17:34Z</time>
      </trkpt>
      <trkpt lat="47.14607" lon="6.24872">
        <ele>531.365</ele>
        <time>2011-04-17T07:17:40Z</time>
      </trkpt>
      <trkpt lat="47.1459" lon="6.24877">
        <ele>530.785</ele>
        <time>2011-04-17T07:17:43Z</time>
      </trkpt>
      <trkpt lat="47.14579" lon="6.24882">
        <ele>530.013</ele>
        <time>2011-04-17T07:17:45Z</time>
      </trkpt>
      <trkpt lat="47.14549" lon="6.24881">
        <ele>529.48</ele>
        <time>2011-04-17T07:17:51Z</time>
      </trkpt>
      <trkpt lat="47.14544" lon="6.2488">
        <ele>529.674</ele>
        <time>2011-04-17T07:17:52Z</time>
      </trkpt>
      <trkpt lat="47.14532" lon="6.24866">
        <ele>530.034</ele>
        <time>2011-04-17T07:17:55Z</time>
      </trkpt>
      <trkpt lat="47.14523" lon="6.24859">
        <ele>529.696</ele>
        <time>2011-04-17T07:17:58Z</time>
      </trkpt>
      <trkpt lat="47.14512" lon="6.24862">
        <ele>528.462</ele>
        <time>2011-04-17T07:18:02Z</time>
      </trkpt>
      <trkpt lat="47.14503" lon="6.24849">
        <ele>526.634</ele>
        <time>2011-04-17T07:18:06Z</time>
      </trkpt>
      <trkpt lat="47.14492" lon="6.2483">
        <ele>523.372</ele>
        <time>2011-04-17T07:18:10Z</time>
      </trkpt>
      <trkpt lat="47.14489" lon="6.24825">
        <ele>522.409</ele>
        <time>2011-04-17T07:18:11Z</time>
      </trkpt>
      <trkpt lat="47.14465" lon="6.2478">
        <ele>515.074</ele>
        <time>2011-04-17T07:18:18Z</time>
      </trkpt>
      <trkpt lat="47.14452" lon="6.24754">
        <ele>511.539</ele>
        <time>2011-04-17T07:18:22Z</time>
      </trkpt>
      <trkpt lat="47.14439" lon="6.24736">
        <ele>508.557</ele>
        <time>2011-04-17T07:18:25Z</time>
      </trkpt>
      <trkpt lat="47.14415" lon="6.24717">
        <ele>504</ele>
        <time>2011-04-17T07:18:30Z</time>
      </trkpt>
      <trkpt lat="47.14393" lon="6.24686">
        <ele>499.919</ele>
        <time>2011-04-17T07:18:35Z</time>
      </trkpt>
      <trkpt lat="47.14386" lon="6.24681">
        <ele>498.881</ele>
        <time>2011-04-17T07:18:36Z</time>
      </trkpt>
      <trkpt lat="47.14359" lon="6.24669">
        <ele>496.633</ele>
        <time>2011-04-17T07:18:40Z</time>
      </trkpt>
      <trkpt lat="47.14344" lon="6.24664">
        <ele>496.474</ele>
        <time>2011-04-17T07:18:43Z</time>
      </trkpt>
      <trkpt lat="47.1433" lon="6.24653">
        <ele>497.161</ele>
        <time>2011-04-17T07:18:48Z</time>
      </trkpt>
      <trkpt lat="47.14329" lon="6.24651">
        <ele>497.549</ele>
        <time>2011-04-17T07:18:49Z</time>
      </trkpt>
      <trkpt lat="47.14326" lon="6.24639">
        <ele>499.356</ele>
        <time>2011-04-17T07:18:53Z</time>
      </trkpt>
      <trkpt lat="47.14321" lon="6.24621">
        <ele>500.503</ele>
        <time>2011-04-17T07:18:58Z</time>
      </trkpt>
      <trkpt lat="47.14313" lon="6.24602">
        <ele>502.15</ele>
        <time>2011-04-17T07:19:03Z</time>
      </trkpt>
      <trkpt lat="47.14292" lon="6.24559">
        <ele>505.187</ele>
        <time>2011-04-17T07:19:14Z</time>
      </trkpt>
      <trkpt lat="47.14277" lon="6.24531">
        <ele>507.386</ele>
        <time>2011-04-17T07:19:23Z</time>
      </trkpt>
      <trkpt lat="47.14265" lon="6.2451">
        <ele>508.138</ele>
        <time>2011-04-17T07:19:29Z</time>
      </trkpt>
      <trkpt lat="47.14256" lon="6.24491">
        <ele>509.247</ele>
        <time>2011-04-17T07:19:35Z</time>
      </trkpt>
      <trkpt lat="47.14245" lon="6.2447">
        <ele>510.386</ele>
        <time>2011-04-17T07:19:40Z</time>
      </trkpt>
      <trkpt lat="47.14236" lon="6.2445">
        <ele>511.931</ele>
        <time>2011-04-17T07:19:45Z</time>
      </trkpt>
      <trkpt lat="47.14223" lon="6.24434">
        <ele>512.732</ele>
        <time>2011-04-17T07:19:50Z</time>
      </trkpt>
      <trkpt lat="47.14203" lon="6.2442">
        <ele>514.757</ele>
        <time>2011-04-17T07:19:57Z</time>
      </trkpt>
      <trkpt lat="47.14192" lon="6.24414">
        <ele>515.948</ele>
        <time>2011-04-17T07:20:02Z</time>
      </trkpt>
      <trkpt lat="47.14174" lon="6.24407">
        <ele>517.388</ele>
        <time>2011-04-17T07:20:09Z</time>
      </trkpt>
      <trkpt lat="47.14157" lon="6.24406">
        <ele>518.357</ele>
        <time>2011-04-17T07:20:15Z</time>
      </trkpt>
      <trkpt lat="47.14128" lon="6.24412">
        <ele>520.118</ele>
        <time>2011-04-17T07:20:25Z</time>
      </trkpt>
      <trkpt lat="47.141" lon="6.24417">
        <ele>520.89</ele>
        <time>2011-04-17T07:20:34Z</time>
      </trkpt>
      <trkpt lat="47.14069" lon="6.24424">
        <ele>521.955</ele>
        <time>2011-04-17T07:20:43Z</time>
      </trkpt>
      <trkpt lat="47.14036" lon="6.24435">
        <ele>522.885</ele>
        <time>2011-04-17T07:20:53Z</time>
      </trkpt>
      <trkpt lat="47.13995" lon="6.24446">
        <ele>523.556</ele>
        <time>2011-04-17T07:21:04Z</time>
      </trkpt>
      <trkpt lat="47.13965" lon="6.24449">
        <ele>522.26</ele>
        <time>2011-04-17T07:21:10Z</time>
      </trkpt>
      <trkpt lat="47.13928" lon="6.24453">
        <ele>521.708</ele>
        <time>2011-04-17T07:21:17Z</time>
      </trkpt>
      <trkpt lat="47.13892" lon="6.24469">
        <ele>520.917</ele>
        <time>2011-04-17T07:21:24Z</time>
      </trkpt>
      <trkpt lat="47.13865" lon="6.2447">
        <ele>520.668</ele>
        <time>2011-04-17T07:21:29Z</time>
      </trkpt>
      <trkpt lat="47.13855" lon="6.24464">
        <ele>520.778</ele>
        <time>2011-04-17T07:21:31Z</time>
      </trkpt>
      <trkpt lat="47.13813" lon="6.24432">
        <ele>522.308</ele>
        <time>2011-04-17T07:21:41Z</time>
      </trkpt>
      <trkpt lat="47.13779" lon="6.2441">
        <ele>523.292</ele>
        <time>2011-04-17T07:21:50Z</time>
      </trkpt>
      <trkpt lat="47.13755" lon="6.24408">
        <ele>523.757</ele>
        <time>2011-04-17T07:21:56Z</time>
      </trkpt>
      <trkpt lat="47.13719" lon="6.2443">
        <ele>525.963</ele>
        <time>2011-04-17T07:22:06Z</time>
      </trkpt>
      <trkpt lat="47.13692" lon="6.2445">
        <ele>527.68</ele>
        <time>2011-04-17T07:22:14Z</time>
      </trkpt>
      <trkpt lat="47.13668" lon="6.24456">
        <ele>529.293</ele>
        <time>2011-04-17T07:22:21Z</time>
      </trkpt>
      <trkpt lat="47.13648" lon="6.24456">
        <ele>530.111</ele>
        <time>2011-04-17T07:22:26Z</time>
      </trkpt>
      <trkpt lat="47.13622" lon="6.24466">
        <ele>531.689</ele>
        <time>2011-04-17T07:22:34Z</time>
      </trkpt>
      <trkpt lat="47.1359" lon="6.24488">
        <ele>533.79</ele>
        <time>2011-04-17T07:22:45Z</time>
      </trkpt>
      <trkpt lat="47.13577" lon="6.24499">
        <ele>534.713</ele>
        <time>2011-04-17T07:22:50Z</time>
      </trkpt>
      <trkpt lat="47.13564" lon="6.24509">
        <ele>535.787</ele>
        <time>2011-04-17T07:22:55Z</time>
      </trkpt>
      <trkpt lat="47.13546" lon="6.24528">
        <ele>537.387</ele>
        <time>2011-04-17T07:23:03Z</time>
      </trkpt>
      <trkpt lat="47.1353" lon="6.24546">
        <ele>538.903</ele>
        <time>2011-04-17T07:23:10Z</time>
      </trkpt>
      <trkpt lat="47.13517" lon="6.24559">
        <ele>540.668</ele>
        <time>2011-04-17T07:23:17Z</time>
      </trkpt>
      <trkpt lat="47.13501" lon="6.24565">
        <ele>543.06</ele>
        <time>2011-04-17T07:23:24Z</time>
      </trkpt>
      <trkpt lat="47.13483" lon="6.24576">
        <ele>544.357</ele>
        <time>2011-04-17T07:23:32Z</time>
      </trkpt>
      <trkpt lat="47.13482" lon="6.24592">
        <ele>544.846</ele>
        <time>2011-04-17T07:23:37Z</time>
      </trkpt>
      <trkpt lat="47.13485" lon="6.24624">
        <ele>545.433</ele>
        <time>2011-04-17T07:23:46Z</time>
      </trkpt>
      <trkpt lat="47.13491" lon="6.24639">
        <ele>545.811</ele>
        <time>2011-04-17T07:23:52Z</time>
      </trkpt>
      <trkpt lat="47.13501" lon="6.24654">
        <ele>546.039</ele>
        <time>2011-04-17T07:23:58Z</time>
      </trkpt>
      <trkpt lat="47.13518" lon="6.24676">
        <ele>545.54</ele>
        <time>2011-04-17T07:24:05Z</time>
      </trkpt>
      <trkpt lat="47.13526" lon="6.2469">
        <ele>544.921</ele>
        <time>2011-04-17T07:24:08Z</time>
      </trkpt>
      <trkpt lat="47.13533" lon="6.2472">
        <ele>544.543</ele>
        <time>2011-04-17T07:24:13Z</time>
      </trkpt>
      <trkpt lat="47.13529" lon="6.24763">
        <ele>546.76</ele>
        <time>2011-04-17T07:24:22Z</time>
      </trkpt>
      <trkpt lat="47.13526" lon="6.24787">
        <ele>548.161</ele>
        <time>2011-04-17T07:24:28Z</time>
      </trkpt>
      <trkpt lat="47.1353" lon="6.24808">
        <ele>548.339</ele>
        <time>2011-04-17T07:24:33Z</time>
      </trkpt>
      <trkpt lat="47.13544" lon="6.24838">
        <ele>548.377</ele>
        <time>2011-04-17T07:24:40Z</time>
      </trkpt>
      <trkpt lat="47.13547" lon="6.24863">
        <ele>548.667</ele>
        <time>2011-04-17T07:24:45Z</time>
      </trkpt>
      <trkpt lat="47.13548" lon="6.24874">
        <ele>548.398</ele>
        <time>2011-04-17T07:24:47Z</time>
      </trkpt>
      <trkpt lat="47.13556" lon="6.24892">
        <ele>547.764</ele>
        <time>2011-04-17T07:24:50Z</time>
      </trkpt>
      <trkpt lat="47.13565" lon="6.24904">
        <ele>546.684</ele>
        <time>2011-04-17T07:24:52Z</time>
      </trkpt>
      <trkpt lat="47.13594" lon="6.24943">
        <ele>544.844</ele>
        <time>2011-04-17T07:24:58Z</time>
      </trkpt>
      <trkpt lat="47.13621" lon="6.24981">
        <ele>544.985</ele>
        <time>2011-04-17T07:25:04Z</time>
      </trkpt>
      <trkpt lat="47.13642" lon="6.2502">
        <ele>545.377</ele>
        <time>2011-04-17T07:25:10Z</time>
      </trkpt>
      <trkpt lat="47.13658" lon="6.25064">
        <ele>546.504</ele>
        <time>2011-04-17T07:25:17Z</time>
      </trkpt>
      <trkpt lat="47.13663" lon="6.25075">
        <ele>546.895</ele>
        <time>2011-04-17T07:25:19Z</time>
      </trkpt>
      <trkpt lat="47.13684" lon="6.25119">
        <ele>548.383</ele>
        <time>2011-04-17T07:25:27Z</time>
      </trkpt>
      <trkpt lat="47.13702" lon="6.25159">
        <ele>549.877</ele>
        <time>2011-04-17T07:25:35Z</time>
      </trkpt>
      <trkpt lat="47.13723" lon="6.25197">
        <ele>550.411</ele>
        <time>2011-04-17T07:25:43Z</time>
      </trkpt>
      <trkpt lat="47.13731" lon="6.2521">
        <ele>550.017</ele>
        <time>2011-04-17T07:25:47Z</time>
      </trkpt>
      <trkpt lat="47.13732" lon="6.25221">
        <ele>550.042</ele>
        <time>2011-04-17T07:25:52Z</time>
      </trkpt>
      <trkpt lat="47.13728" lon="6.25226">
        <ele>550.318</ele>
        <time>2011-04-17T07:25:56Z</time>
      </trkpt>
      <trkpt lat="47.13723" lon="6.25232">
        <ele>550.441</ele>
        <time>2011-04-17T07:26:00Z</time>
      </trkpt>
      <trkpt lat="47.13711" lon="6.25246">
        <ele>550.258</ele>
        <time>2011-04-17T07:26:07Z</time>
      </trkpt>
      <trkpt lat="47.13711" lon="6.2525">
        <ele>550.442</ele>
        <time>2011-04-17T07:26:10Z</time>
      </trkpt>
      <trkpt lat="47.13713" lon="6.25252">
        <ele>550.608</ele>
        <time>2011-04-17T07:26:16Z</time>
      </trkpt>
      <trkpt lat="47.13713" lon="6.25252">
        <ele>550.681</ele>
        <time>2011-04-17T07:26:17Z</time>
      </trkpt>
      <trkpt lat="47.13719" lon="6.25263">
        <ele>550.905</ele>
        <time>2011-04-17T07:26:27Z</time>
      </trkpt>
      <trkpt lat="47.13721" lon="6.25265">
        <ele>550.898</ele>
        <time>2011-04-17T07:26:28Z</time>
      </trkpt>
      <trkpt lat="47.13726" lon="6.25274">
        <ele>550.839</ele>
        <time>2011-04-17T07:26:31Z</time>
      </trkpt>
      <trkpt lat="47.13732" lon="6.25296">
        <ele>550.602</ele>
        <time>2011-04-17T07:26:37Z</time>
      </trkpt>
      <trkpt lat="47.13739" lon="6.25308">
        <ele>550.096</ele>
        <time>2011-04-17T07:26:41Z</time>
      </trkpt>
      <trkpt lat="47.13744" lon="6.25326">
        <ele>549.779</ele>
        <time>2011-04-17T07:26:45Z</time>
      </trkpt>
      <trkpt lat="47.13757" lon="6.25341">
        <ele>548.958</ele>
        <time>2011-04-17T07:26:50Z</time>
      </trkpt>
      <trkpt lat="47.13771" lon="6.25338">
        <ele>548.696</ele>
        <time>2011-04-17T07:26:55Z</time>
      </trkpt>
      <trkpt lat="47.13782" lon="6.25344">
        <ele>548.985</ele>
        <time>2011-04-17T07:27:00Z</time>
      </trkpt>
      <trkpt lat="47.13791" lon="6.25352">
        <ele>548.685</ele>
        <time>2011-04-17T07:27:04Z</time>
      </trkpt>
      <trkpt lat="47.13804" lon="6.25363">
        <ele>548.279</ele>
        <time>2011-04-17T07:27:09Z</time>
      </trkpt>
      <trkpt lat="47.13812" lon="6.25385">
        <ele>547.241</ele>
        <time>2011-04-17T07:27:14Z</time>
      </trkpt>
      <trkpt lat="47.1382" lon="6.25408">
        <ele>546.159</ele>
        <time>2011-04-17T07:27:19Z</time>
      </trkpt>
      <trkpt lat="47.13826" lon="6.2543">
        <ele>544.852</ele>
        <time>2011-04-17T07:27:23Z</time>
      </trkpt>
      <trkpt lat="47.13836" lon="6.25461">
        <ele>542.156</ele>
        <time>2011-04-17T07:27:28Z</time>
      </trkpt>
      <trkpt lat="47.13843" lon="6.25484">
        <ele>540.449</ele>
        <time>2011-04-17T07:27:31Z</time>
      </trkpt>
      <trkpt lat="47.13856" lon="6.25528">
        <ele>539.219</ele>
        <time>2011-04-17T07:27:38Z</time>
      </trkpt>
      <trkpt lat="47.13863" lon="6.25552">
        <ele>539.439</ele>
        <time>2011-04-17T07:27:44Z</time>
      </trkpt>
      <trkpt lat="47.13869" lon="6.2557">
        <ele>539.942</ele>
        <time>2011-04-17T07:27:51Z</time>
      </trkpt>
      <trkpt lat="47.13873" lon="6.25583">
        <ele>540.244</ele>
        <time>2011-04-17T07:27:57Z</time>
      </trkpt>
      <trkpt lat="47.13877" lon="6.25592">
        <ele>540.528</ele>
        <time>2011-04-17T07:28:03Z</time>
      </trkpt>
      <trkpt lat="47.1388" lon="6.25596">
        <ele>540.691</ele>
        <time>2011-04-17T07:28:08Z</time>
      </trkpt>
      <trkpt lat="47.13881" lon="6.25599">
        <ele>540.82</ele>
        <time>2011-04-17T07:28:12Z</time>
      </trkpt>
      <trkpt lat="47.13881" lon="6.25601">
        <ele>540.882</ele>
        <time>2011-04-17T07:28:15Z</time>
      </trkpt>
      <trkpt lat="47.13886" lon="6.25605">
        <ele>540.936</ele>
        <time>2011-04-17T07:28:23Z</time>
      </trkpt>
      <trkpt lat="47.13888" lon="6.25611">
        <ele>540.94</ele>
        <time>2011-04-17T07:28:31Z</time>
      </trkpt>
      <trkpt lat="47.13888" lon="6.2562">
        <ele>541.42</ele>
        <time>2011-04-17T07:28:40Z</time>
      </trkpt>
      <trkpt lat="47.13888" lon="6.25621">
        <ele>541.57</ele>
        <time>2011-04-17T07:28:42Z</time>
      </trkpt>
      <trkpt lat="47.1389" lon="6.25627">
        <ele>541.503</ele>
        <time>2011-04-17T07:28:47Z</time>
      </trkpt>
      <trkpt lat="47.13892" lon="6.25633">
        <ele>541.823</ele>
        <time>2011-04-17T07:28:54Z</time>
      </trkpt>
      <trkpt lat="47.13893" lon="6.2564">
        <ele>542.514</ele>
        <time>2011-04-17T07:29:01Z</time>
      </trkpt>
      <trkpt lat="47.13895" lon="6.25655">
        <ele>543.023</ele>
        <time>2011-04-17T07:29:12Z</time>
      </trkpt>
      <trkpt lat="47.13896" lon="6.25662">
        <ele>543.471</ele>
        <time>2011-04-17T07:29:18Z</time>
      </trkpt>
      <trkpt lat="47.13897" lon="6.25668">
        <ele>543.853</ele>
        <time>2011-04-17T07:29:23Z</time>
      </trkpt>
      <trkpt lat="47.13899" lon="6.25674">
        <ele>544.652</ele>
        <time>2011-04-17T07:29:30Z</time>
      </trkpt>
      <trkpt lat="47.13903" lon="6.25683">
        <ele>544.925</ele>
        <time>2011-04-17T07:29:37Z</time>
      </trkpt>
      <trkpt lat="47.13906" lon="6.25692">
        <ele>545.304</ele>
        <time>2011-04-17T07:29:45Z</time>
      </trkpt>
      <trkpt lat="47.1391" lon="6.25699">
        <ele>545.773</ele>
        <time>2011-04-17T07:29:53Z</time>
      </trkpt>
      <trkpt lat="47.13913" lon="6.25705">
        <ele>545.781</ele>
        <time>2011-04-17T07:30:00Z</time>
      </trkpt>
      <trkpt lat="47.13913" lon="6.25709">
        <ele>546.299</ele>
        <time>2011-04-17T07:30:06Z</time>
      </trkpt>
      <trkpt lat="47.13914" lon="6.25713">
        <ele>546.381</ele>
        <time>2011-04-17T07:30:10Z</time>
      </trkpt>
      <trkpt lat="47.13914" lon="6.25718">
        <ele>546.411</ele>
        <time>2011-04-17T07:30:13Z</time>
      </trkpt>
      <trkpt lat="47.1391" lon="6.25723">
        <ele>546.62</ele>
        <time>2011-04-17T07:30:17Z</time>
      </trkpt>
      <trkpt lat="47.13904" lon="6.2573">
        <ele>547.303</ele>
        <time>2011-04-17T07:30:21Z</time>
      </trkpt>
      <trkpt lat="47.13899" lon="6.25733">
        <ele>547.666</ele>
        <time>2011-04-17T07:30:25Z</time>
      </trkpt>
      <trkpt lat="47.13892" lon="6.2574">
        <ele>548.328</ele>
        <time>2011-04-17T07:30:31Z</time>
      </trkpt>
      <trkpt lat="47.13883" lon="6.25745">
        <ele>548.838</ele>
        <time>2011-04-17T07:30:37Z</time>
      </trkpt>
      <trkpt lat="47.1388" lon="6.25747">
        <ele>548.962</ele>
        <time>2011-04-17T07:30:39Z</time>
      </trkpt>
      <trkpt lat="47.13866" lon="6.25759">
        <ele>549.405</ele>
        <time>2011-04-17T07:30:46Z</time>
      </trkpt>
      <trkpt lat="47.13857" lon="6.25764">
        <ele>549.427</ele>
        <time>2011-04-17T07:30:50Z</time>
      </trkpt>
      <trkpt lat="47.1384" lon="6.25773">
        <ele>549.611</ele>
        <time>2011-04-17T07:30:56Z</time>
      </trkpt>
      <trkpt lat="47.13823" lon="6.25785">
        <ele>549.456</ele>
        <time>2011-04-17T07:31:03Z</time>
      </trkpt>
      <trkpt lat="47.13816" lon="6.25789">
        <ele>549.621</ele>
        <time>2011-04-17T07:31:08Z</time>
      </trkpt>
      <trkpt lat="47.13811" lon="6.25793">
        <ele>549.872</ele>
        <time>2011-04-17T07:31:12Z</time>
      </trkpt>
      <trkpt lat="47.13801" lon="6.25798">
        <ele>550.472</ele>
        <time>2011-04-17T07:31:17Z</time>
      </trkpt>
      <trkpt lat="47.13788" lon="6.25807">
        <ele>550.88</ele>
        <time>2011-04-17T07:31:24Z</time>
      </trkpt>
      <trkpt lat="47.13778" lon="6.25815">
        <ele>550.598</ele>
        <time>2011-04-17T07:31:28Z</time>
      </trkpt>
      <trkpt lat="47.13762" lon="6.25824">
        <ele>550.397</ele>
        <time>2011-04-17T07:31:34Z</time>
      </trkpt>
      <trkpt lat="47.13744" lon="6.25836">
        <ele>550.103</ele>
        <time>2011-04-17T07:31:41Z</time>
      </trkpt>
      <trkpt lat="47.13727" lon="6.25845">
        <ele>549.261</ele>
        <time>2011-04-17T07:31:46Z</time>
      </trkpt>
      <trkpt lat="47.13706" lon="6.25854">
        <ele>549.292</ele>
        <time>2011-04-17T07:31:52Z</time>
      </trkpt>
      <trkpt lat="47.13696" lon="6.25859">
        <ele>550.261</ele>
        <time>2011-04-17T07:31:56Z</time>
      </trkpt>
      <trkpt lat="47.13684" lon="6.25866">
        <ele>551.208</ele>
        <time>2011-04-17T07:32:01Z</time>
      </trkpt>
      <trkpt lat="47.1367" lon="6.25875">
        <ele>551.34</ele>
        <time>2011-04-17T07:32:05Z</time>
      </trkpt>
      <trkpt lat="47.13656" lon="6.25882">
        <ele>551.683</ele>
        <time>2011-04-17T07:32:10Z</time>
      </trkpt>
      <trkpt lat="47.13641" lon="6.25891">
        <ele>552.391</ele>
        <time>2011-04-17T07:32:16Z</time>
      </trkpt>
      <trkpt lat="47.13628" lon="6.25897">
        <ele>553.074</ele>
        <time>2011-04-17T07:32:20Z</time>
      </trkpt>
      <trkpt lat="47.13614" lon="6.25904">
        <ele>553.54</ele>
        <time>2011-04-17T07:32:24Z</time>
      </trkpt>
      <trkpt lat="47.13603" lon="6.2591">
        <ele>554.06</ele>
        <time>2011-04-17T07:32:28Z</time>
      </trkpt>
      <trkpt lat="47.13586" lon="6.25918">
        <ele>555.017</ele>
        <time>2011-04-17T07:32:34Z</time>
      </trkpt>
      <trkpt lat="47.13579" lon="6.25922">
        <ele>555.259</ele>
        <time>2011-04-17T07:32:37Z</time>
      </trkpt>
      <trkpt lat="47.13572" lon="6.25913">
        <ele>555.348</ele>
        <time>2011-04-17T07:32:41Z</time>
      </trkpt>
      <trkpt lat="47.1357" lon="6.25903">
        <ele>555.063</ele>
        <time>2011-04-17T07:32:43Z</time>
      </trkpt>
      <trkpt lat="47.13561" lon="6.25869">
        <ele>553.672</ele>
        <time>2011-04-17T07:32:48Z</time>
      </trkpt>
      <trkpt lat="47.13558" lon="6.25855">
        <ele>553.241</ele>
        <time>2011-04-17T07:32:50Z</time>
      </trkpt>
      <trkpt lat="47.13557" lon="6.25828">
        <ele>553.88</ele>
        <time>2011-04-17T07:32:55Z</time>
      </trkpt>
      <trkpt lat="47.13547" lon="6.25817">
        <ele>555.506</ele>
        <time>2011-04-17T07:33:00Z</time>
      </trkpt>
      <trkpt lat="47.13542" lon="6.25816">
        <ele>556.143</ele>
        <time>2011-04-17T07:33:02Z</time>
      </trkpt>
      <trkpt lat="47.13537" lon="6.25814">
        <ele>556.732</ele>
        <time>2011-04-17T07:33:04Z</time>
      </trkpt>
      <trkpt lat="47.13525" lon="6.25815">
        <ele>558.192</ele>
        <time>2011-04-17T07:33:09Z</time>
      </trkpt>
      <trkpt lat="47.13519" lon="6.25814">
        <ele>558.739</ele>
        <time>2011-04-17T07:33:12Z</time>
      </trkpt>
      <trkpt lat="47.13505" lon="6.25816">
        <ele>560.263</ele>
        <time>2011-04-17T07:33:18Z</time>
      </trkpt>
      <trkpt lat="47.1349" lon="6.2582">
        <ele>561.612</ele>
        <time>2011-04-17T07:33:25Z</time>
      </trkpt>
      <trkpt lat="47.13487" lon="6.25821">
        <ele>561.797</ele>
        <time>2011-04-17T07:33:26Z</time>
      </trkpt>
      <trkpt lat="47.13479" lon="6.25816">
        <ele>562.522</ele>
        <time>2011-04-17T07:33:30Z</time>
      </trkpt>
      <trkpt lat="47.13463" lon="6.25804">
        <ele>562.882</ele>
        <time>2011-04-17T07:33:37Z</time>
      </trkpt>
      <trkpt lat="47.13447" lon="6.25796">
        <ele>564.04</ele>
        <time>2011-04-17T07:33:44Z</time>
      </trkpt>
      <trkpt lat="47.13433" lon="6.25777">
        <ele>564.798</ele>
        <time>2011-04-17T07:33:52Z</time>
      </trkpt>
      <trkpt lat="47.13423" lon="6.25761">
        <ele>565.964</ele>
        <time>2011-04-17T07:33:58Z</time>
      </trkpt>
      <trkpt lat="47.13414" lon="6.25752">
        <ele>566.935</ele>
        <time>2011-04-17T07:34:03Z</time>
      </trkpt>
      <trkpt lat="47.13404" lon="6.25741">
        <ele>567.344</ele>
        <time>2011-04-17T07:34:08Z</time>
      </trkpt>
      <trkpt lat="47.13389" lon="6.25728">
        <ele>567.906</ele>
        <time>2011-04-17T07:34:14Z</time>
      </trkpt>
      <trkpt lat="47.13374" lon="6.25722">
        <ele>568.033</ele>
        <time>2011-04-17T07:34:20Z</time>
      </trkpt>
      <trkpt lat="47.13359" lon="6.25727">
        <ele>568.605</ele>
        <time>2011-04-17T07:34:26Z</time>
      </trkpt>
      <trkpt lat="47.13344" lon="6.25724">
        <ele>568.627</ele>
        <time>2011-04-17T07:34:31Z</time>
      </trkpt>
      <trkpt lat="47.13326" lon="6.25706">
        <ele>568.781</ele>
        <time>2011-04-17T07:34:38Z</time>
      </trkpt>
      <trkpt lat="47.13305" lon="6.25693">
        <ele>567.402</ele>
        <time>2011-04-17T07:34:44Z</time>
      </trkpt>
      <trkpt lat="47.13293" lon="6.25687">
        <ele>567.029</ele>
        <time>2011-04-17T07:34:47Z</time>
      </trkpt>
      <trkpt lat="47.13286" lon="6.25681">
        <ele>567.321</ele>
        <time>2011-04-17T07:34:49Z</time>
      </trkpt>
      <trkpt lat="47.13269" lon="6.25674">
        <ele>568.17</ele>
        <time>2011-04-17T07:34:54Z</time>
      </trkpt>
      <trkpt lat="47.13253" lon="6.25677">
        <ele>570.111</ele>
        <time>2011-04-17T07:35:00Z</time>
      </trkpt>
      <trkpt lat="47.1324" lon="6.25669">
        <ele>571.116</ele>
        <time>2011-04-17T07:35:05Z</time>
      </trkpt>
      <trkpt lat="47.13225" lon="6.25659">
        <ele>572.408</ele>
        <time>2011-04-17T07:35:10Z</time>
      </trkpt>
      <trkpt lat="47.13207" lon="6.25644">
        <ele>572.917</ele>
        <time>2011-04-17T07:35:16Z</time>
      </trkpt>
      <trkpt lat="47.13189" lon="6.2563">
        <ele>572.72</ele>
        <time>2011-04-17T07:35:22Z</time>
      </trkpt>
      <trkpt lat="47.13172" lon="6.25624">
        <ele>572.878</ele>
        <time>2011-04-17T07:35:27Z</time>
      </trkpt>
      <trkpt lat="47.13148" lon="6.2562">
        <ele>573.626</ele>
        <time>2011-04-17T07:35:34Z</time>
      </trkpt>
      <trkpt lat="47.13131" lon="6.25624">
        <ele>573.847</ele>
        <time>2011-04-17T07:35:39Z</time>
      </trkpt>
      <trkpt lat="47.13109" lon="6.25641">
        <ele>574.82</ele>
        <time>2011-04-17T07:35:47Z</time>
      </trkpt>
      <trkpt lat="47.13097" lon="6.25656">
        <ele>575.74</ele>
        <time>2011-04-17T07:35:52Z</time>
      </trkpt>
      <trkpt lat="47.13073" lon="6.25687">
        <ele>577.53</ele>
        <time>2011-04-17T07:36:02Z</time>
      </trkpt>
      <trkpt lat="47.1306" lon="6.25701">
        <ele>577.873</ele>
        <time>2011-04-17T07:36:08Z</time>
      </trkpt>
      <trkpt lat="47.13049" lon="6.25702">
        <ele>578.612</ele>
        <time>2011-04-17T07:36:12Z</time>
      </trkpt>
      <trkpt lat="47.13023" lon="6.25696">
        <ele>579.555</ele>
        <time>2011-04-17T07:36:20Z</time>
      </trkpt>
      <trkpt lat="47.12993" lon="6.25684">
        <ele>580.054</ele>
        <time>2011-04-17T07:36:29Z</time>
      </trkpt>
      <trkpt lat="47.12972" lon="6.2567">
        <ele>580.771</ele>
        <time>2011-04-17T07:36:36Z</time>
      </trkpt>
      <trkpt lat="47.12947" lon="6.25642">
        <ele>581.387</ele>
        <time>2011-04-17T07:36:45Z</time>
      </trkpt>
      <trkpt lat="47.12924" lon="6.25618">
        <ele>581.824</ele>
        <time>2011-04-17T07:36:53Z</time>
      </trkpt>
      <trkpt lat="47.12894" lon="6.25585">
        <ele>581.811</ele>
        <time>2011-04-17T07:37:03Z</time>
      </trkpt>
      <trkpt lat="47.12862" lon="6.25556">
        <ele>581.634</ele>
        <time>2011-04-17T07:37:13Z</time>
      </trkpt>
      <trkpt lat="47.12836" lon="6.25537">
        <ele>581.217</ele>
        <time>2011-04-17T07:37:20Z</time>
      </trkpt>
      <trkpt lat="47.12803" lon="6.25509">
        <ele>581.211</ele>
        <time>2011-04-17T07:37:29Z</time>
      </trkpt>
      <trkpt lat="47.12773" lon="6.2548">
        <ele>580.135</ele>
        <time>2011-04-17T07:37:36Z</time>
      </trkpt>
      <trkpt lat="47.12732" lon="6.25446">
        <ele>578.585</ele>
        <time>2011-04-17T07:37:44Z</time>
      </trkpt>
      <trkpt lat="47.12687" lon="6.25407">
        <ele>576.262</ele>
        <time>2011-04-17T07:37:51Z</time>
      </trkpt>
      <trkpt lat="47.12647" lon="6.25364">
        <ele>574.465</ele>
        <time>2011-04-17T07:37:57Z</time>
      </trkpt>
      <trkpt lat="47.1262" lon="6.25325">
        <ele>573.428</ele>
        <time>2011-04-17T07:38:02Z</time>
      </trkpt>
      <trkpt lat="47.12612" lon="6.25312">
        <ele>573.313</ele>
        <time>2011-04-17T07:38:04Z</time>
      </trkpt>
      <trkpt lat="47.12598" lon="6.2531">
        <ele>573.407</ele>
        <time>2011-04-17T07:38:08Z</time>
      </trkpt>
      <trkpt lat="47.12597" lon="6.25328">
        <ele>573.31</ele>
        <time>2011-04-17T07:38:11Z</time>
      </trkpt>
      <trkpt lat="47.12604" lon="6.25398">
        <ele>574.328</ele>
        <time>2011-04-17T07:38:21Z</time>
      </trkpt>
      <trkpt lat="47.12607" lon="6.25449">
        <ele>575.49</ele>
        <time>2011-04-17T07:38:29Z</time>
      </trkpt>
      <trkpt lat="47.12608" lon="6.25453">
        <ele>575.497</ele>
        <time>2011-04-17T07:38:30Z</time>
      </trkpt>
      <trkpt lat="47.12608" lon="6.25455">
        <ele>575.693</ele>
        <time>2011-04-17T07:38:32Z</time>
      </trkpt>
      <trkpt lat="47.12613" lon="6.25475">
        <ele>576.249</ele>
        <time>2011-04-17T07:39:27Z</time>
      </trkpt>
      <trkpt lat="47.12617" lon="6.25532">
        <ele>576.837</ele>
        <time>2011-04-17T07:39:35Z</time>
      </trkpt>
      <trkpt lat="47.1262" lon="6.25583">
        <ele>576.579</ele>
        <time>2011-04-17T07:39:41Z</time>
      </trkpt>
      <trkpt lat="47.12622" lon="6.25657">
        <ele>574.908</ele>
        <time>2011-04-17T07:39:48Z</time>
      </trkpt>
      <trkpt lat="47.12624" lon="6.25713">
        <ele>574.404</ele>
        <time>2011-04-17T07:39:54Z</time>
      </trkpt>
      <trkpt lat="47.12628" lon="6.25746">
        <ele>574.569</ele>
        <time>2011-04-17T07:39:58Z</time>
      </trkpt>
      <trkpt lat="47.12636" lon="6.25779">
        <ele>574.129</ele>
        <time>2011-04-17T07:40:02Z</time>
      </trkpt>
      <trkpt lat="47.12631" lon="6.25811">
        <ele>573.426</ele>
        <time>2011-04-17T07:40:06Z</time>
      </trkpt>
      <trkpt lat="47.12628" lon="6.2582">
        <ele>573.076</ele>
        <time>2011-04-17T07:40:07Z</time>
      </trkpt>
      <trkpt lat="47.1262" lon="6.25839">
        <ele>572.591</ele>
        <time>2011-04-17T07:40:10Z</time>
      </trkpt>
      <trkpt lat="47.12619" lon="6.25843">
        <ele>572.826</ele>
        <time>2011-04-17T07:40:11Z</time>
      </trkpt>
      <trkpt lat="47.12617" lon="6.25845">
        <ele>573.517</ele>
        <time>2011-04-17T07:40:13Z</time>
      </trkpt>
      <trkpt lat="47.12615" lon="6.25849">
        <ele>573.77</ele>
        <time>2011-04-17T07:40:16Z</time>
      </trkpt>
      <trkpt lat="47.1261" lon="6.25859">
        <ele>575.718</ele>
        <time>2011-04-17T07:40:22Z</time>
      </trkpt>
      <trkpt lat="47.12609" lon="6.25864">
        <ele>577.068</ele>
        <time>2011-04-17T07:40:25Z</time>
      </trkpt>
      <trkpt lat="47.12604" lon="6.25869">
        <ele>578.694</ele>
        <time>2011-04-17T07:40:29Z</time>
      </trkpt>
      <trkpt lat="47.12602" lon="6.25873">
        <ele>579.24</ele>
        <time>2011-04-17T07:40:33Z</time>
      </trkpt>
      <trkpt lat="47.12599" lon="6.25877">
        <ele>580.143</ele>
        <time>2011-04-17T07:40:38Z</time>
      </trkpt>
      <trkpt lat="47.12598" lon="6.25885">
        <ele>581.495</ele>
        <time>2011-04-17T07:40:47Z</time>
      </trkpt>
      <trkpt lat="47.12596" lon="6.25889">
        <ele>581.811</ele>
        <time>2011-04-17T07:40:50Z</time>
      </trkpt>
      <trkpt lat="47.1259" lon="6.25899">
        <ele>582.822</ele>
        <time>2011-04-17T07:40:57Z</time>
      </trkpt>
      <trkpt lat="47.12586" lon="6.25907">
        <ele>584.374</ele>
        <time>2011-04-17T07:41:04Z</time>
      </trkpt>
      <trkpt lat="47.12585" lon="6.25915">
        <ele>585.248</ele>
        <time>2011-04-17T07:41:09Z</time>
      </trkpt>
      <trkpt lat="47.12585" lon="6.25916">
        <ele>585.527</ele>
        <time>2011-04-17T07:41:10Z</time>
      </trkpt>
      <trkpt lat="47.12582" lon="6.25922">
        <ele>585.772</ele>
        <time>2011-04-17T07:41:16Z</time>
      </trkpt>
      <trkpt lat="47.12579" lon="6.2593">
        <ele>586.522</ele>
        <time>2011-04-17T07:41:24Z</time>
      </trkpt>
      <trkpt lat="47.12576" lon="6.25937">
        <ele>587.279</ele>
        <time>2011-04-17T07:41:32Z</time>
      </trkpt>
      <trkpt lat="47.12578" lon="6.2594">
        <ele>587.64</ele>
        <time>2011-04-17T07:41:36Z</time>
      </trkpt>
      <trkpt lat="47.12577" lon="6.25947">
        <ele>587.663</ele>
        <time>2011-04-17T07:41:39Z</time>
      </trkpt>
      <trkpt lat="47.12575" lon="6.25955">
        <ele>587.752</ele>
        <time>2011-04-17T07:41:44Z</time>
      </trkpt>
      <trkpt lat="47.12571" lon="6.25967">
        <ele>587.878</ele>
        <time>2011-04-17T07:41:51Z</time>
      </trkpt>
      <trkpt lat="47.12566" lon="6.25978">
        <ele>587.534</ele>
        <time>2011-04-17T07:41:57Z</time>
      </trkpt>
      <trkpt lat="47.12565" lon="6.25983">
        <ele>587.251</ele>
        <time>2011-04-17T07:42:02Z</time>
      </trkpt>
      <trkpt lat="47.12563" lon="6.25986">
        <ele>587.165</ele>
        <time>2011-04-17T07:42:07Z</time>
      </trkpt>
      <trkpt lat="47.12557" lon="6.25993">
        <ele>586.902</ele>
        <time>2011-04-17T07:42:15Z</time>
      </trkpt>
      <trkpt lat="47.12556" lon="6.25994">
        <ele>586.887</ele>
        <time>2011-04-17T07:42:16Z</time>
      </trkpt>
      <trkpt lat="47.12556" lon="6.25996">
        <ele>586.723</ele>
        <time>2011-04-17T07:42:21Z</time>
      </trkpt>
      <trkpt lat="47.12554" lon="6.26003">
        <ele>586.575</ele>
        <time>2011-04-17T07:42:28Z</time>
      </trkpt>
      <trkpt lat="47.12553" lon="6.26004">
        <ele>586.652</ele>
        <time>2011-04-17T07:42:31Z</time>
      </trkpt>
      <trkpt lat="47.12546" lon="6.26012">
        <ele>586.698</ele>
        <time>2011-04-17T07:42:51Z</time>
      </trkpt>
      <trkpt lat="47.12546" lon="6.26013">
        <ele>586.6</ele>
        <time>2011-04-17T07:42:52Z</time>
      </trkpt>
      <trkpt lat="47.12546" lon="6.26013">
        <ele>586.57</ele>
        <time>2011-04-17T07:42:54Z</time>
      </trkpt>
      <trkpt lat="47.12547" lon="6.26034">
        <ele>584.044</ele>
        <time>2011-04-17T07:46:05Z</time>
      </trkpt>
      <trkpt lat="47.12547" lon="6.26034">
        <ele>583.714</ele>
        <time>2011-04-17T07:46:07Z</time>
      </trkpt>
      <trkpt lat="47.12547" lon="6.26035">
        <ele>583.373</ele>
        <time>2011-04-17T07:46:14Z</time>
      </trkpt>
      <trkpt lat="47.12541" lon="6.26049">
        <ele>582.946</ele>
        <time>2011-04-17T07:46:32Z</time>
      </trkpt>
      <trkpt lat="47.1254" lon="6.26051">
        <ele>582.378</ele>
        <time>2011-04-17T07:46:38Z</time>
      </trkpt>
      <trkpt lat="47.1254" lon="6.26052">
        <ele>582.052</ele>
        <time>2011-04-17T07:46:41Z</time>
      </trkpt>
      <trkpt lat="47.12538" lon="6.26056">
        <ele>580.407</ele>
        <time>2011-04-17T07:46:58Z</time>
      </trkpt>
      <trkpt lat="47.12537" lon="6.26059">
        <ele>580.218</ele>
        <time>2011-04-17T07:46:59Z</time>
      </trkpt>
      <trkpt lat="47.12536" lon="6.2606">
        <ele>580.029</ele>
        <time>2011-04-17T07:47:01Z</time>
      </trkpt>
      <trkpt lat="47.12534" lon="6.26069">
        <ele>579.003</ele>
        <time>2011-04-17T07:47:10Z</time>
      </trkpt>
      <trkpt lat="47.1253" lon="6.26079">
        <ele>578.844</ele>
        <time>2011-04-17T07:47:18Z</time>
      </trkpt>
      <trkpt lat="47.12525" lon="6.26091">
        <ele>580.165</ele>
        <time>2011-04-17T07:47:25Z</time>
      </trkpt>
      <trkpt lat="47.12522" lon="6.26099">
        <ele>581.119</ele>
        <time>2011-04-17T07:47:31Z</time>
      </trkpt>
      <trkpt lat="47.12517" lon="6.26111">
        <ele>581.839</ele>
        <time>2011-04-17T07:47:38Z</time>
      </trkpt>
      <trkpt lat="47.12516" lon="6.26114">
        <ele>582.048</ele>
        <time>2011-04-17T07:47:40Z</time>
      </trkpt>
      <trkpt lat="47.12513" lon="6.26118">
        <ele>582.207</ele>
        <time>2011-04-17T07:47:43Z</time>
      </trkpt>
      <trkpt lat="47.12513" lon="6.26122">
        <ele>582.192</ele>
        <time>2011-04-17T07:47:46Z</time>
      </trkpt>
      <trkpt lat="47.12509" lon="6.26134">
        <ele>581.999</ele>
        <time>2011-04-17T07:47:50Z</time>
      </trkpt>
      <trkpt lat="47.12499" lon="6.26133">
        <ele>581.64</ele>
        <time>2011-04-17T07:47:54Z</time>
      </trkpt>
      <trkpt lat="47.12497" lon="6.2613">
        <ele>581.69</ele>
        <time>2011-04-17T07:47:55Z</time>
      </trkpt>
      <trkpt lat="47.12482" lon="6.26114">
        <ele>581.146</ele>
        <time>2011-04-17T07:48:02Z</time>
      </trkpt>
      <trkpt lat="47.12479" lon="6.26111">
        <ele>580.928</ele>
        <time>2011-04-17T07:48:04Z</time>
      </trkpt>
      <trkpt lat="47.12472" lon="6.26113">
        <ele>580.552</ele>
        <time>2011-04-17T07:48:07Z</time>
      </trkpt>
      <trkpt lat="47.12466" lon="6.2613">
        <ele>580.281</ele>
        <time>2011-04-17T07:48:12Z</time>
      </trkpt>
      <trkpt lat="47.12463" lon="6.2615">
        <ele>580.532</ele>
        <time>2011-04-17T07:48:18Z</time>
      </trkpt>
      <trkpt lat="47.12457" lon="6.26168">
        <ele>580.612</ele>
        <time>2011-04-17T07:48:23Z</time>
      </trkpt>
      <trkpt lat="47.12452" lon="6.26193">
        <ele>580.449</ele>
        <time>2011-04-17T07:48:28Z</time>
      </trkpt>
      <trkpt lat="47.12444" lon="6.26239">
        <ele>580.483</ele>
        <time>2011-04-17T07:48:36Z</time>
      </trkpt>
      <trkpt lat="47.12437" lon="6.26291">
        <ele>580.058</ele>
        <time>2011-04-17T07:48:43Z</time>
      </trkpt>
      <trkpt lat="47.12437" lon="6.26344">
        <ele>580.034</ele>
        <time>2011-04-17T07:48:50Z</time>
      </trkpt>
      <trkpt lat="47.12436" lon="6.26413">
        <ele>580.892</ele>
        <time>2011-04-17T07:49:00Z</time>
      </trkpt>
      <trkpt lat="47.12437" lon="6.26466">
        <ele>581.905</ele>
        <time>2011-04-17T07:49:08Z</time>
      </trkpt>
      <trkpt lat="47.12448" lon="6.26522">
        <ele>581.582</ele>
        <time>2011-04-17T07:49:16Z</time>
      </trkpt>
      <trkpt lat="47.12463" lon="6.26583">
        <ele>580.794</ele>
        <time>2011-04-17T07:49:24Z</time>
      </trkpt>
      <trkpt lat="47.1247" lon="6.2664">
        <ele>580.433</ele>
        <time>2011-04-17T07:49:31Z</time>
      </trkpt>
      <trkpt lat="47.12475" lon="6.26713">
        <ele>580.754</ele>
        <time>2011-04-17T07:49:40Z</time>
      </trkpt>
      <trkpt lat="47.12471" lon="6.2679">
        <ele>581.174</ele>
        <time>2011-04-17T07:49:50Z</time>
      </trkpt>
      <trkpt lat="47.1247" lon="6.26805">
        <ele>581.407</ele>
        <time>2011-04-17T07:49:52Z</time>
      </trkpt>
      <trkpt lat="47.12471" lon="6.26825">
        <ele>581.928</ele>
        <time>2011-04-17T07:49:55Z</time>
      </trkpt>
      <trkpt lat="47.12471" lon="6.26831">
        <ele>582.177</ele>
        <time>2011-04-17T07:49:56Z</time>
      </trkpt>
      <trkpt lat="47.12472" lon="6.26869">
        <ele>584.337</ele>
        <time>2011-04-17T07:50:03Z</time>
      </trkpt>
      <trkpt lat="47.12475" lon="6.26899">
        <ele>585.705</ele>
        <time>2011-04-17T07:50:09Z</time>
      </trkpt>
      <trkpt lat="47.12478" lon="6.26924">
        <ele>586.779</ele>
        <time>2011-04-17T07:50:14Z</time>
      </trkpt>
      <trkpt lat="47.12488" lon="6.26968">
        <ele>588.23</ele>
        <time>2011-04-17T07:50:22Z</time>
      </trkpt>
      <trkpt lat="47.12495" lon="6.27004">
        <ele>589.288</ele>
        <time>2011-04-17T07:50:29Z</time>
      </trkpt>
      <trkpt lat="47.12496" lon="6.27037">
        <ele>590.032</ele>
        <time>2011-04-17T07:50:35Z</time>
      </trkpt>
      <trkpt lat="47.12493" lon="6.27079">
        <ele>591.567</ele>
        <time>2011-04-17T07:50:43Z</time>
      </trkpt>
      <trkpt lat="47.12494" lon="6.27116">
        <ele>593.688</ele>
        <time>2011-04-17T07:50:51Z</time>
      </trkpt>
      <trkpt lat="47.12498" lon="6.27164">
        <ele>595.848</ele>
        <time>2011-04-17T07:51:01Z</time>
      </trkpt>
      <trkpt lat="47.12507" lon="6.27201">
        <ele>596.916</ele>
        <time>2011-04-17T07:51:09Z</time>
      </trkpt>
      <trkpt lat="47.12519" lon="6.27237">
        <ele>597.096</ele>
        <time>2011-04-17T07:51:16Z</time>
      </trkpt>
      <trkpt lat="47.12524" lon="6.27261">
        <ele>596.916</ele>
        <time>2011-04-17T07:51:20Z</time>
      </trkpt>
      <trkpt lat="47.12523" lon="6.27292">
        <ele>596.874</ele>
        <time>2011-04-17T07:51:25Z</time>
      </trkpt>
      <trkpt lat="47.12508" lon="6.27337">
        <ele>597.186</ele>
        <time>2011-04-17T07:51:33Z</time>
      </trkpt>
      <trkpt lat="47.12485" lon="6.27378">
        <ele>597.491</ele>
        <time>2011-04-17T07:51:41Z</time>
      </trkpt>
      <trkpt lat="47.12475" lon="6.27399">
        <ele>597.985</ele>
        <time>2011-04-17T07:51:45Z</time>
      </trkpt>
      <trkpt lat="47.12469" lon="6.27425">
        <ele>598.276</ele>
        <time>2011-04-17T07:51:49Z</time>
      </trkpt>
      <trkpt lat="47.12471" lon="6.27459">
        <ele>598.17</ele>
        <time>2011-04-17T07:51:54Z</time>
      </trkpt>
      <trkpt lat="47.12489" lon="6.27514">
        <ele>598.577</ele>
        <time>2011-04-17T07:52:03Z</time>
      </trkpt>
      <trkpt lat="47.12499" lon="6.27556">
        <ele>599.657</ele>
        <time>2011-04-17T07:52:10Z</time>
      </trkpt>
      <trkpt lat="47.12505" lon="6.27593">
        <ele>601.223</ele>
        <time>2011-04-17T07:52:17Z</time>
      </trkpt>
      <trkpt lat="47.12507" lon="6.27603">
        <ele>601.754</ele>
        <time>2011-04-17T07:52:19Z</time>
      </trkpt>
      <trkpt lat="47.12511" lon="6.27635">
        <ele>603.217</ele>
        <time>2011-04-17T07:52:25Z</time>
      </trkpt>
      <trkpt lat="47.1251" lon="6.27672">
        <ele>604.294</ele>
        <time>2011-04-17T07:52:32Z</time>
      </trkpt>
      <trkpt lat="47.12508" lon="6.27702">
        <ele>604.324</ele>
        <time>2011-04-17T07:52:37Z</time>
      </trkpt>
      <trkpt lat="47.12509" lon="6.27738">
        <ele>604.228</ele>
        <time>2011-04-17T07:52:43Z</time>
      </trkpt>
      <trkpt lat="47.125" lon="6.2775">
        <ele>604.513</ele>
        <time>2011-04-17T07:52:47Z</time>
      </trkpt>
      <trkpt lat="47.12488" lon="6.27741">
        <ele>604.904</ele>
        <time>2011-04-17T07:52:51Z</time>
      </trkpt>
      <trkpt lat="47.12485" lon="6.27736">
        <ele>604.98</ele>
        <time>2011-04-17T07:52:52Z</time>
      </trkpt>
      <trkpt lat="47.12458" lon="6.27694">
        <ele>605.57</ele>
        <time>2011-04-17T07:53:01Z</time>
      </trkpt>
      <trkpt lat="47.12439" lon="6.27664">
        <ele>605.557</ele>
        <time>2011-04-17T07:53:07Z</time>
      </trkpt>
      <trkpt lat="47.12422" lon="6.27655">
        <ele>605.383</ele>
        <time>2011-04-17T07:53:11Z</time>
      </trkpt>
      <trkpt lat="47.12414" lon="6.27659">
        <ele>605.429</ele>
        <time>2011-04-17T07:53:13Z</time>
      </trkpt>
      <trkpt lat="47.12376" lon="6.27692">
        <ele>606.789</ele>
        <time>2011-04-17T07:53:24Z</time>
      </trkpt>
      <trkpt lat="47.1235" lon="6.27714">
        <ele>607.882</ele>
        <time>2011-04-17T07:53:31Z</time>
      </trkpt>
      <trkpt lat="47.12346" lon="6.27716">
        <ele>608.078</ele>
        <time>2011-04-17T07:53:32Z</time>
      </trkpt>
      <trkpt lat="47.12322" lon="6.27738">
        <ele>609.73</ele>
        <time>2011-04-17T07:53:39Z</time>
      </trkpt>
      <trkpt lat="47.12292" lon="6.27759">
        <ele>611.034</ele>
        <time>2011-04-17T07:53:47Z</time>
      </trkpt>
      <trkpt lat="47.12287" lon="6.27761">
        <ele>611.222</ele>
        <time>2011-04-17T07:53:48Z</time>
      </trkpt>
      <trkpt lat="47.1227" lon="6.27781">
        <ele>611.63</ele>
        <time>2011-04-17T07:53:53Z</time>
      </trkpt>
      <trkpt lat="47.12264" lon="6.27791">
        <ele>611.91</ele>
        <time>2011-04-17T07:53:55Z</time>
      </trkpt>
      <trkpt lat="47.12251" lon="6.27809">
        <ele>612.579</ele>
        <time>2011-04-17T07:53:59Z</time>
      </trkpt>
      <trkpt lat="47.12248" lon="6.27814">
        <ele>612.653</ele>
        <time>2011-04-17T07:54:00Z</time>
      </trkpt>
      <trkpt lat="47.1222" lon="6.2785">
        <ele>613.738</ele>
        <time>2011-04-17T07:54:09Z</time>
      </trkpt>
      <trkpt lat="47.12185" lon="6.27895">
        <ele>615.487</ele>
        <time>2011-04-17T07:54:21Z</time>
      </trkpt>
      <trkpt lat="47.12156" lon="6.27929">
        <ele>617.023</ele>
        <time>2011-04-17T07:54:31Z</time>
      </trkpt>
      <trkpt lat="47.12129" lon="6.27958">
        <ele>618.455</ele>
        <time>2011-04-17T07:54:40Z</time>
      </trkpt>
      <trkpt lat="47.12102" lon="6.27984">
        <ele>619.974</ele>
        <time>2011-04-17T07:54:49Z</time>
      </trkpt>
      <trkpt lat="47.12089" lon="6.27999">
        <ele>621.268</ele>
        <time>2011-04-17T07:54:54Z</time>
      </trkpt>
      <trkpt lat="47.12069" lon="6.28027">
        <ele>622.334</ele>
        <time>2011-04-17T07:55:02Z</time>
      </trkpt>
      <trkpt lat="47.1206" lon="6.28056">
        <ele>624.087</ele>
        <time>2011-04-17T07:55:09Z</time>
      </trkpt>
      <trkpt lat="47.12054" lon="6.28077">
        <ele>625.532</ele>
        <time>2011-04-17T07:55:15Z</time>
      </trkpt>
      <trkpt lat="47.12053" lon="6.2808">
        <ele>625.702</ele>
        <time>2011-04-17T07:55:16Z</time>
      </trkpt>
      <trkpt lat="47.12041" lon="6.28085">
        <ele>626.477</ele>
        <time>2011-04-17T07:55:21Z</time>
      </trkpt>
      <trkpt lat="47.12032" lon="6.28074">
        <ele>626.434</ele>
        <time>2011-04-17T07:55:25Z</time>
      </trkpt>
      <trkpt lat="47.12029" lon="6.28058">
        <ele>625.789</ele>
        <time>2011-04-17T07:55:28Z</time>
      </trkpt>
      <trkpt lat="47.12022" lon="6.28047">
        <ele>625.384</ele>
        <time>2011-04-17T07:55:31Z</time>
      </trkpt>
      <trkpt lat="47.12006" lon="6.28025">
        <ele>625.507</ele>
        <time>2011-04-17T07:55:37Z</time>
      </trkpt>
      <trkpt lat="47.11992" lon="6.28006">
        <ele>625.081</ele>
        <time>2011-04-17T07:55:42Z</time>
      </trkpt>
      <trkpt lat="47.1197" lon="6.27976">
        <ele>624.225</ele>
        <time>2011-04-17T07:55:49Z</time>
      </trkpt>
      <trkpt lat="47.1196" lon="6.27957">
        <ele>623.895</ele>
        <time>2011-04-17T07:55:54Z</time>
      </trkpt>
      <trkpt lat="47.11955" lon="6.27942">
        <ele>623.006</ele>
        <time>2011-04-17T07:56:00Z</time>
      </trkpt>
      <trkpt lat="47.11954" lon="6.27938">
        <ele>622.864</ele>
        <time>2011-04-17T07:56:02Z</time>
      </trkpt>
      <trkpt lat="47.1195" lon="6.27932">
        <ele>622.779</ele>
        <time>2011-04-17T07:56:06Z</time>
      </trkpt>
      <trkpt lat="47.11941" lon="6.27914">
        <ele>621.868</ele>
        <time>2011-04-17T07:56:11Z</time>
      </trkpt>
      <trkpt lat="47.11932" lon="6.27904">
        <ele>621.477</ele>
        <time>2011-04-17T07:56:15Z</time>
      </trkpt>
      <trkpt lat="47.11928" lon="6.27887">
        <ele>621.912</ele>
        <time>2011-04-17T07:56:19Z</time>
      </trkpt>
      <trkpt lat="47.11926" lon="6.27862">
        <ele>623.587</ele>
        <time>2011-04-17T07:56:25Z</time>
      </trkpt>
      <trkpt lat="47.11917" lon="6.27848">
        <ele>624.392</ele>
        <time>2011-04-17T07:56:30Z</time>
      </trkpt>
      <trkpt lat="47.11907" lon="6.27832">
        <ele>624.441</ele>
        <time>2011-04-17T07:56:35Z</time>
      </trkpt>
      <trkpt lat="47.11891" lon="6.27813">
        <ele>624.795</ele>
        <time>2011-04-17T07:56:42Z</time>
      </trkpt>
      <trkpt lat="47.11872" lon="6.27789">
        <ele>624.933</ele>
        <time>2011-04-17T07:56:50Z</time>
      </trkpt>
      <trkpt lat="47.11865" lon="6.2777">
        <ele>625.353</ele>
        <time>2011-04-17T07:56:55Z</time>
      </trkpt>
      <trkpt lat="47.11865" lon="6.27757">
        <ele>624.683</ele>
        <time>2011-04-17T07:56:57Z</time>
      </trkpt>
      <trkpt lat="47.11862" lon="6.27734">
        <ele>623.399</ele>
        <time>2011-04-17T07:57:00Z</time>
      </trkpt>
      <trkpt lat="47.1186" lon="6.27728">
        <ele>623.19</ele>
        <time>2011-04-17T07:57:01Z</time>
      </trkpt>
      <trkpt lat="47.11849" lon="6.27708">
        <ele>623.059</ele>
        <time>2011-04-17T07:57:07Z</time>
      </trkpt>
      <trkpt lat="47.11838" lon="6.27694">
        <ele>623.121</ele>
        <time>2011-04-17T07:57:13Z</time>
      </trkpt>
      <trkpt lat="47.11826" lon="6.27674">
        <ele>622.679</ele>
        <time>2011-04-17T07:57:19Z</time>
      </trkpt>
      <trkpt lat="47.11823" lon="6.27647">
        <ele>621.372</ele>
        <time>2011-04-17T07:57:23Z</time>
      </trkpt>
      <trkpt lat="47.11815" lon="6.27634">
        <ele>620.866</ele>
        <time>2011-04-17T07:57:26Z</time>
      </trkpt>
      <trkpt lat="47.11807" lon="6.2762">
        <ele>620.835</ele>
        <time>2011-04-17T07:57:29Z</time>
      </trkpt>
      <trkpt lat="47.11795" lon="6.27603">
        <ele>620.485</ele>
        <time>2011-04-17T07:57:34Z</time>
      </trkpt>
      <trkpt lat="47.11791" lon="6.27595">
        <ele>621.602</ele>
        <time>2011-04-17T07:57:38Z</time>
      </trkpt>
      <trkpt lat="47.11786" lon="6.27587">
        <ele>622.371</ele>
        <time>2011-04-17T07:57:41Z</time>
      </trkpt>
      <trkpt lat="47.11774" lon="6.27568">
        <ele>623.36</ele>
        <time>2011-04-17T07:57:48Z</time>
      </trkpt>
      <trkpt lat="47.11768" lon="6.27556">
        <ele>623.363</ele>
        <time>2011-04-17T07:57:52Z</time>
      </trkpt>
      <trkpt lat="47.11753" lon="6.27542">
        <ele>623.938</ele>
        <time>2011-04-17T07:57:58Z</time>
      </trkpt>
      <trkpt lat="47.11746" lon="6.27542">
        <ele>624.329</ele>
        <time>2011-04-17T07:58:01Z</time>
      </trkpt>
      <trkpt lat="47.11738" lon="6.27531">
        <ele>625.028</ele>
        <time>2011-04-17T07:58:06Z</time>
      </trkpt>
      <trkpt lat="47.11725" lon="6.27506">
        <ele>624.654</ele>
        <time>2011-04-17T07:58:13Z</time>
      </trkpt>
      <trkpt lat="47.11714" lon="6.27487">
        <ele>624.188</ele>
        <time>2011-04-17T07:58:18Z</time>
      </trkpt>
      <trkpt lat="47.11702" lon="6.27464">
        <ele>623.569</ele>
        <time>2011-04-17T07:58:23Z</time>
      </trkpt>
      <trkpt lat="47.11686" lon="6.27434">
        <ele>622.306</ele>
        <time>2011-04-17T07:58:29Z</time>
      </trkpt>
      <trkpt lat="47.11675" lon="6.27411">
        <ele>621.043</ele>
        <time>2011-04-17T07:58:33Z</time>
      </trkpt>
      <trkpt lat="47.11672" lon="6.27405">
        <ele>620.477</ele>
        <time>2011-04-17T07:58:34Z</time>
      </trkpt>
      <trkpt lat="47.11665" lon="6.2739">
        <ele>619.39</ele>
        <time>2011-04-17T07:58:36Z</time>
      </trkpt>
      <trkpt lat="47.11661" lon="6.27383">
        <ele>618.884</ele>
        <time>2011-04-17T07:58:37Z</time>
      </trkpt>
      <trkpt lat="47.11649" lon="6.27363">
        <ele>617.376</ele>
        <time>2011-04-17T07:58:41Z</time>
      </trkpt>
      <trkpt lat="47.11647" lon="6.27359">
        <ele>617.034</ele>
        <time>2011-04-17T07:58:42Z</time>
      </trkpt>
      <trkpt lat="47.11642" lon="6.2735">
        <ele>615.481</ele>
        <time>2011-04-17T07:58:46Z</time>
      </trkpt>
      <trkpt lat="47.1164" lon="6.27347">
        <ele>615.339</ele>
        <time>2011-04-17T07:58:48Z</time>
      </trkpt>
      <trkpt lat="47.11635" lon="6.27335">
        <ele>614.806</ele>
        <time>2011-04-17T07:58:53Z</time>
      </trkpt>
      <trkpt lat="47.1163" lon="6.27333">
        <ele>614.878</ele>
        <time>2011-04-17T07:58:57Z</time>
      </trkpt>
      <trkpt lat="47.11628" lon="6.27326">
        <ele>615.214</ele>
        <time>2011-04-17T07:59:01Z</time>
      </trkpt>
      <trkpt lat="47.11623" lon="6.27304">
        <ele>615.003</ele>
        <time>2011-04-17T07:59:07Z</time>
      </trkpt>
      <trkpt lat="47.11615" lon="6.2729">
        <ele>615.012</ele>
        <time>2011-04-17T07:59:12Z</time>
      </trkpt>
      <trkpt lat="47.11606" lon="6.27275">
        <ele>614.787</ele>
        <time>2011-04-17T07:59:17Z</time>
      </trkpt>
      <trkpt lat="47.11601" lon="6.27267">
        <ele>614.646</ele>
        <time>2011-04-17T07:59:22Z</time>
      </trkpt>
      <trkpt lat="47.11595" lon="6.27253">
        <ele>614.091</ele>
        <time>2011-04-17T07:59:28Z</time>
      </trkpt>
      <trkpt lat="47.11591" lon="6.27245">
        <ele>613.749</ele>
        <time>2011-04-17T07:59:30Z</time>
      </trkpt>
      <trkpt lat="47.11585" lon="6.2723">
        <ele>612.509</ele>
        <time>2011-04-17T07:59:33Z</time>
      </trkpt>
      <trkpt lat="47.11581" lon="6.27221">
        <ele>612.15</ele>
        <time>2011-04-17T07:59:36Z</time>
      </trkpt>
      <trkpt lat="47.11578" lon="6.27212">
        <ele>612.927</ele>
        <time>2011-04-17T07:59:40Z</time>
      </trkpt>
      <trkpt lat="47.11575" lon="6.27205">
        <ele>613.943</ele>
        <time>2011-04-17T07:59:43Z</time>
      </trkpt>
      <trkpt lat="47.11571" lon="6.27196">
        <ele>614.737</ele>
        <time>2011-04-17T07:59:47Z</time>
      </trkpt>
      <trkpt lat="47.11568" lon="6.2719">
        <ele>614.687</ele>
        <time>2011-04-17T07:59:49Z</time>
      </trkpt>
      <trkpt lat="47.11562" lon="6.27177">
        <ele>614.416</ele>
        <time>2011-04-17T07:59:53Z</time>
      </trkpt>
      <trkpt lat="47.11552" lon="6.27156">
        <ele>613.995</ele>
        <time>2011-04-17T07:59:58Z</time>
      </trkpt>
      <trkpt lat="47.1154" lon="6.27134">
        <ele>613.445</ele>
        <time>2011-04-17T08:00:03Z</time>
      </trkpt>
      <trkpt lat="47.11527" lon="6.2711">
        <ele>612.552</ele>
        <time>2011-04-17T08:00:08Z</time>
      </trkpt>
      <trkpt lat="47.1151" lon="6.27075">
        <ele>610.794</ele>
        <time>2011-04-17T08:00:14Z</time>
      </trkpt>
      <trkpt lat="47.11502" lon="6.27062">
        <ele>610.129</ele>
        <time>2011-04-17T08:00:16Z</time>
      </trkpt>
      <trkpt lat="47.1149" lon="6.27034">
        <ele>608.696</ele>
        <time>2011-04-17T08:00:20Z</time>
      </trkpt>
      <trkpt lat="47.11481" lon="6.27017">
        <ele>608.319</ele>
        <time>2011-04-17T08:00:23Z</time>
      </trkpt>
      <trkpt lat="47.11469" lon="6.26996">
        <ele>608.855</ele>
        <time>2011-04-17T08:00:29Z</time>
      </trkpt>
      <trkpt lat="47.11453" lon="6.26969">
        <ele>608.417</ele>
        <time>2011-04-17T08:00:35Z</time>
      </trkpt>
      <trkpt lat="47.11444" lon="6.2695">
        <ele>607.908</ele>
        <time>2011-04-17T08:00:39Z</time>
      </trkpt>
      <trkpt lat="47.11429" lon="6.26921">
        <ele>606.492</ele>
        <time>2011-04-17T08:00:43Z</time>
      </trkpt>
      <trkpt lat="47.11414" lon="6.26889">
        <ele>604.224</ele>
        <time>2011-04-17T08:00:47Z</time>
      </trkpt>
      <trkpt lat="47.11409" lon="6.26878">
        <ele>604.49</ele>
        <time>2011-04-17T08:00:49Z</time>
      </trkpt>
      <trkpt lat="47.11407" lon="6.26875">
        <ele>604.504</ele>
        <time>2011-04-17T08:00:50Z</time>
      </trkpt>
      <trkpt lat="47.114" lon="6.26866">
        <ele>605.438</ele>
        <time>2011-04-17T08:00:53Z</time>
      </trkpt>
      <trkpt lat="47.11389" lon="6.26869">
        <ele>605.53</ele>
        <time>2011-04-17T08:00:57Z</time>
      </trkpt>
      <trkpt lat="47.11374" lon="6.26886">
        <ele>607.174</ele>
        <time>2011-04-17T08:01:04Z</time>
      </trkpt>
      <trkpt lat="47.11364" lon="6.26899">
        <ele>608.201</ele>
        <time>2011-04-17T08:01:09Z</time>
      </trkpt>
      <trkpt lat="47.11353" lon="6.26913">
        <ele>609.5</ele>
        <time>2011-04-17T08:01:15Z</time>
      </trkpt>
      <trkpt lat="47.11346" lon="6.2692">
        <ele>610.451</ele>
        <time>2011-04-17T08:01:19Z</time>
      </trkpt>
      <trkpt lat="47.11332" lon="6.26937">
        <ele>612.25</ele>
        <time>2011-04-17T08:01:27Z</time>
      </trkpt>
      <trkpt lat="47.11314" lon="6.26957">
        <ele>614.237</ele>
        <time>2011-04-17T08:01:35Z</time>
      </trkpt>
      <trkpt lat="47.11299" lon="6.26969">
        <ele>615.299</ele>
        <time>2011-04-17T08:01:42Z</time>
      </trkpt>
      <trkpt lat="47.11283" lon="6.2697">
        <ele>615.629</ele>
        <time>2011-04-17T08:01:48Z</time>
      </trkpt>
      <trkpt lat="47.11271" lon="6.26964">
        <ele>615.066</ele>
        <time>2011-04-17T08:01:52Z</time>
      </trkpt>
      <trkpt lat="47.11264" lon="6.26958">
        <ele>614.551</ele>
        <time>2011-04-17T08:01:54Z</time>
      </trkpt>
      <trkpt lat="47.11249" lon="6.26935">
        <ele>612.783</ele>
        <time>2011-04-17T08:01:58Z</time>
      </trkpt>
      <trkpt lat="47.11233" lon="6.26906">
        <ele>610.144</ele>
        <time>2011-04-17T08:02:01Z</time>
      </trkpt>
      <trkpt lat="47.11211" lon="6.26865">
        <ele>607.563</ele>
        <time>2011-04-17T08:02:05Z</time>
      </trkpt>
      <trkpt lat="47.11179" lon="6.26801">
        <ele>603.269</ele>
        <time>2011-04-17T08:02:10Z</time>
      </trkpt>
      <trkpt lat="47.11158" lon="6.26756">
        <ele>600.585</ele>
        <time>2011-04-17T08:02:14Z</time>
      </trkpt>
      <trkpt lat="47.11153" lon="6.26747">
        <ele>600.334</ele>
        <time>2011-04-17T08:02:15Z</time>
      </trkpt>
      <trkpt lat="47.11149" lon="6.26739">
        <ele>600.176</ele>
        <time>2011-04-17T08:02:16Z</time>
      </trkpt>
      <trkpt lat="47.11136" lon="6.26712">
        <ele>599.867</ele>
        <time>2011-04-17T08:02:20Z</time>
      </trkpt>
      <trkpt lat="47.11116" lon="6.26672">
        <ele>599.876</ele>
        <time>2011-04-17T08:02:27Z</time>
      </trkpt>
      <trkpt lat="47.11104" lon="6.26646">
        <ele>600.082</ele>
        <time>2011-04-17T08:02:32Z</time>
      </trkpt>
      <trkpt lat="47.11094" lon="6.26641">
        <ele>600.238</ele>
        <time>2011-04-17T08:02:36Z</time>
      </trkpt>
      <trkpt lat="47.11085" lon="6.26653">
        <ele>600.414</ele>
        <time>2011-04-17T08:02:39Z</time>
      </trkpt>
      <trkpt lat="47.11079" lon="6.26661">
        <ele>600.47</ele>
        <time>2011-04-17T08:02:41Z</time>
      </trkpt>
      <trkpt lat="47.11054" lon="6.26689">
        <ele>601.491</ele>
        <time>2011-04-17T08:02:49Z</time>
      </trkpt>
      <trkpt lat="47.11032" lon="6.26701">
        <ele>602.011</ele>
        <time>2011-04-17T08:02:55Z</time>
      </trkpt>
      <trkpt lat="47.11003" lon="6.26712">
        <ele>602.905</ele>
        <time>2011-04-17T08:03:02Z</time>
      </trkpt>
      <trkpt lat="47.10996" lon="6.26713">
        <ele>603.157</ele>
        <time>2011-04-17T08:03:04Z</time>
      </trkpt>
      <trkpt lat="47.10973" lon="6.26723">
        <ele>603.691</ele>
        <time>2011-04-17T08:03:10Z</time>
      </trkpt>
      <trkpt lat="47.10956" lon="6.26728">
        <ele>603.798</ele>
        <time>2011-04-17T08:03:14Z</time>
      </trkpt>
      <trkpt lat="47.10931" lon="6.26741">
        <ele>604.608</ele>
        <time>2011-04-17T08:03:21Z</time>
      </trkpt>
      <trkpt lat="47.10896" lon="6.26774">
        <ele>605.594</ele>
        <time>2011-04-17T08:03:31Z</time>
      </trkpt>
      <trkpt lat="47.1087" lon="6.26799">
        <ele>606.219</ele>
        <time>2011-04-17T08:03:39Z</time>
      </trkpt>
      <trkpt lat="47.10852" lon="6.26827">
        <ele>607.168</ele>
        <time>2011-04-17T08:03:46Z</time>
      </trkpt>
      <trkpt lat="47.10842" lon="6.26853">
        <ele>608.394</ele>
        <time>2011-04-17T08:03:52Z</time>
      </trkpt>
      <trkpt lat="47.10834" lon="6.2688">
        <ele>609.355</ele>
        <time>2011-04-17T08:03:58Z</time>
      </trkpt>
      <trkpt lat="47.10824" lon="6.26912">
        <ele>610.086</ele>
        <time>2011-04-17T08:04:05Z</time>
      </trkpt>
      <trkpt lat="47.10816" lon="6.26942">
        <ele>610.593</ele>
        <time>2011-04-17T08:04:11Z</time>
      </trkpt>
      <trkpt lat="47.10811" lon="6.26972">
        <ele>610.704</ele>
        <time>2011-04-17T08:04:17Z</time>
      </trkpt>
      <trkpt lat="47.10799" lon="6.27014">
        <ele>611.993</ele>
        <time>2011-04-17T08:04:25Z</time>
      </trkpt>
      <trkpt lat="47.10788" lon="6.27044">
        <ele>613.13</ele>
        <time>2011-04-17T08:04:32Z</time>
      </trkpt>
      <trkpt lat="47.10773" lon="6.27076">
        <ele>614.018</ele>
        <time>2011-04-17T08:04:39Z</time>
      </trkpt>
      <trkpt lat="47.10754" lon="6.27115">
        <ele>614.215</ele>
        <time>2011-04-17T08:04:48Z</time>
      </trkpt>
      <trkpt lat="47.10743" lon="6.2714">
        <ele>616.083</ele>
        <time>2011-04-17T08:04:55Z</time>
      </trkpt>
      <trkpt lat="47.1073" lon="6.2717">
        <ele>617.316</ele>
        <time>2011-04-17T08:05:03Z</time>
      </trkpt>
      <trkpt lat="47.10719" lon="6.27193">
        <ele>618.281</ele>
        <time>2011-04-17T08:05:09Z</time>
      </trkpt>
      <trkpt lat="47.10703" lon="6.2721">
        <ele>618.973</ele>
        <time>2011-04-17T08:05:15Z</time>
      </trkpt>
      <trkpt lat="47.1068" lon="6.27231">
        <ele>619.285</ele>
        <time>2011-04-17T08:05:23Z</time>
      </trkpt>
      <trkpt lat="47.10667" lon="6.27258">
        <ele>619.357</ele>
        <time>2011-04-17T08:05:29Z</time>
      </trkpt>
      <trkpt lat="47.10667" lon="6.27263">
        <ele>619.27</ele>
        <time>2011-04-17T08:05:30Z</time>
      </trkpt>
      <trkpt lat="47.10671" lon="6.27286">
        <ele>619.039</ele>
        <time>2011-04-17T08:05:34Z</time>
      </trkpt>
      <trkpt lat="47.10675" lon="6.27301">
        <ele>619.398</ele>
        <time>2011-04-17T08:05:37Z</time>
      </trkpt>
      <trkpt lat="47.10676" lon="6.27313">
        <ele>619.995</ele>
        <time>2011-04-17T08:05:40Z</time>
      </trkpt>
      <trkpt lat="47.1067" lon="6.27314">
        <ele>620.682</ele>
        <time>2011-04-17T08:05:44Z</time>
      </trkpt>
      <trkpt lat="47.10664" lon="6.27307">
        <ele>620.641</ele>
        <time>2011-04-17T08:05:46Z</time>
      </trkpt>
      <trkpt lat="47.10643" lon="6.27284">
        <ele>620.282</ele>
        <time>2011-04-17T08:05:54Z</time>
      </trkpt>
      <trkpt lat="47.10629" lon="6.27269">
        <ele>620.333</ele>
        <time>2011-04-17T08:06:00Z</time>
      </trkpt>
      <trkpt lat="47.10614" lon="6.27251">
        <ele>619.793</ele>
        <time>2011-04-17T08:06:05Z</time>
      </trkpt>
      <trkpt lat="47.10601" lon="6.27232">
        <ele>619.338</ele>
        <time>2011-04-17T08:06:10Z</time>
      </trkpt>
      <trkpt lat="47.10592" lon="6.27217">
        <ele>618.981</ele>
        <time>2011-04-17T08:06:14Z</time>
      </trkpt>
      <trkpt lat="47.1058" lon="6.272">
        <ele>618.238</ele>
        <time>2011-04-17T08:06:18Z</time>
      </trkpt>
      <trkpt lat="47.1056" lon="6.27181">
        <ele>617.866</ele>
        <time>2011-04-17T08:06:23Z</time>
      </trkpt>
      <trkpt lat="47.10547" lon="6.27176">
        <ele>618.107</ele>
        <time>2011-04-17T08:06:26Z</time>
      </trkpt>
      <trkpt lat="47.10532" lon="6.27163">
        <ele>618.075</ele>
        <time>2011-04-17T08:06:30Z</time>
      </trkpt>
      <trkpt lat="47.10517" lon="6.27141">
        <ele>617.982</ele>
        <time>2011-04-17T08:06:36Z</time>
      </trkpt>
      <trkpt lat="47.10504" lon="6.2711">
        <ele>618.083</ele>
        <time>2011-04-17T08:06:43Z</time>
      </trkpt>
      <trkpt lat="47.10493" lon="6.27086">
        <ele>618.464</ele>
        <time>2011-04-17T08:06:48Z</time>
      </trkpt>
      <trkpt lat="47.10477" lon="6.27059">
        <ele>618.961</ele>
        <time>2011-04-17T08:06:54Z</time>
      </trkpt>
      <trkpt lat="47.10471" lon="6.27047">
        <ele>618.834</ele>
        <time>2011-04-17T08:06:56Z</time>
      </trkpt>
      <trkpt lat="47.10456" lon="6.27017">
        <ele>618.955</ele>
        <time>2011-04-17T08:07:01Z</time>
      </trkpt>
      <trkpt lat="47.10451" lon="6.27006">
        <ele>619.711</ele>
        <time>2011-04-17T08:07:03Z</time>
      </trkpt>
      <trkpt lat="47.10441" lon="6.26987">
        <ele>620.617</ele>
        <time>2011-04-17T08:07:07Z</time>
      </trkpt>
      <trkpt lat="47.10433" lon="6.2697">
        <ele>620.69</ele>
        <time>2011-04-17T08:07:10Z</time>
      </trkpt>
      <trkpt lat="47.10417" lon="6.26946">
        <ele>620.901</ele>
        <time>2011-04-17T08:07:15Z</time>
      </trkpt>
      <trkpt lat="47.1041" lon="6.26942">
        <ele>621.288</ele>
        <time>2011-04-17T08:07:17Z</time>
      </trkpt>
      <trkpt lat="47.10392" lon="6.26934">
        <ele>622.675</ele>
        <time>2011-04-17T08:07:23Z</time>
      </trkpt>
      <trkpt lat="47.10377" lon="6.26922">
        <ele>624.132</ele>
        <time>2011-04-17T08:07:28Z</time>
      </trkpt>
      <trkpt lat="47.1037" lon="6.26912">
        <ele>625.632</ele>
        <time>2011-04-17T08:07:32Z</time>
      </trkpt>
      <trkpt lat="47.10362" lon="6.26904">
        <ele>626.284</ele>
        <time>2011-04-17T08:07:36Z</time>
      </trkpt>
      <trkpt lat="47.10345" lon="6.26901">
        <ele>628.349</ele>
        <time>2011-04-17T08:07:44Z</time>
      </trkpt>
      <trkpt lat="47.10335" lon="6.26892">
        <ele>629.542</ele>
        <time>2011-04-17T08:07:50Z</time>
      </trkpt>
      <trkpt lat="47.10326" lon="6.26872">
        <ele>629.998</ele>
        <time>2011-04-17T08:07:56Z</time>
      </trkpt>
      <trkpt lat="47.10314" lon="6.26859">
        <ele>630.247</ele>
        <time>2011-04-17T08:08:02Z</time>
      </trkpt>
      <trkpt lat="47.10303" lon="6.26843">
        <ele>631.008</ele>
        <time>2011-04-17T08:08:08Z</time>
      </trkpt>
      <trkpt lat="47.10291" lon="6.26829">
        <ele>632.156</ele>
        <time>2011-04-17T08:08:14Z</time>
      </trkpt>
      <trkpt lat="47.10276" lon="6.26815">
        <ele>632.905</ele>
        <time>2011-04-17T08:08:21Z</time>
      </trkpt>
      <trkpt lat="47.10264" lon="6.26803">
        <ele>633.322</ele>
        <time>2011-04-17T08:08:27Z</time>
      </trkpt>
      <trkpt lat="47.1025" lon="6.26792">
        <ele>633.432</ele>
        <time>2011-04-17T08:08:33Z</time>
      </trkpt>
      <trkpt lat="47.10237" lon="6.26791">
        <ele>633.559</ele>
        <time>2011-04-17T08:08:39Z</time>
      </trkpt>
      <trkpt lat="47.10235" lon="6.26792">
        <ele>633.648</ele>
        <time>2011-04-17T08:08:40Z</time>
      </trkpt>
      <trkpt lat="47.10226" lon="6.26807">
        <ele>634.266</ele>
        <time>2011-04-17T08:08:46Z</time>
      </trkpt>
      <trkpt lat="47.10224" lon="6.26809">
        <ele>634.363</ele>
        <time>2011-04-17T08:08:47Z</time>
      </trkpt>
      <trkpt lat="47.1021" lon="6.26815">
        <ele>635.301</ele>
        <time>2011-04-17T08:08:55Z</time>
      </trkpt>
      <trkpt lat="47.10199" lon="6.26823">
        <ele>636.795</ele>
        <time>2011-04-17T08:09:02Z</time>
      </trkpt>
      <trkpt lat="47.10189" lon="6.26832">
        <ele>638.088</ele>
        <time>2011-04-17T08:09:08Z</time>
      </trkpt>
      <trkpt lat="47.10179" lon="6.26847">
        <ele>639.422</ele>
        <time>2011-04-17T08:09:15Z</time>
      </trkpt>
      <trkpt lat="47.10169" lon="6.2686">
        <ele>640.703</ele>
        <time>2011-04-17T08:09:22Z</time>
      </trkpt>
      <trkpt lat="47.10162" lon="6.26867">
        <ele>641.695</ele>
        <time>2011-04-17T08:09:27Z</time>
      </trkpt>
      <trkpt lat="47.10152" lon="6.2688">
        <ele>642.911</ele>
        <time>2011-04-17T08:09:34Z</time>
      </trkpt>
      <trkpt lat="47.10147" lon="6.26883">
        <ele>643.524</ele>
        <time>2011-04-17T08:09:41Z</time>
      </trkpt>
      <trkpt lat="47.10143" lon="6.26883">
        <ele>643.925</ele>
        <time>2011-04-17T08:09:48Z</time>
      </trkpt>
      <trkpt lat="47.10141" lon="6.26876">
        <ele>644.458</ele>
        <time>2011-04-17T08:09:55Z</time>
      </trkpt>
      <trkpt lat="47.1014" lon="6.26866">
        <ele>645.174</ele>
        <time>2011-04-17T08:10:00Z</time>
      </trkpt>
      <trkpt lat="47.10138" lon="6.26859">
        <ele>646.121</ele>
        <time>2011-04-17T08:10:03Z</time>
      </trkpt>
      <trkpt lat="47.10129" lon="6.26842">
        <ele>647.904</ele>
        <time>2011-04-17T08:10:11Z</time>
      </trkpt>
      <trkpt lat="47.1012" lon="6.2683">
        <ele>649.106</ele>
        <time>2011-04-17T08:10:17Z</time>
      </trkpt>
      <trkpt lat="47.1011" lon="6.26817">
        <ele>650.111</ele>
        <time>2011-04-17T08:10:24Z</time>
      </trkpt>
      <trkpt lat="47.101" lon="6.268">
        <ele>650.553</ele>
        <time>2011-04-17T08:10:31Z</time>
      </trkpt>
      <trkpt lat="47.10088" lon="6.26782">
        <ele>651.449</ele>
        <time>2011-04-17T08:10:37Z</time>
      </trkpt>
      <trkpt lat="47.10081" lon="6.26768">
        <ele>651.67</ele>
        <time>2011-04-17T08:10:42Z</time>
      </trkpt>
      <trkpt lat="47.10073" lon="6.26753">
        <ele>651.868</ele>
        <time>2011-04-17T08:10:47Z</time>
      </trkpt>
      <trkpt lat="47.10065" lon="6.26735">
        <ele>652.137</ele>
        <time>2011-04-17T08:10:52Z</time>
      </trkpt>
      <trkpt lat="47.10054" lon="6.26717">
        <ele>652.418</ele>
        <time>2011-04-17T08:10:58Z</time>
      </trkpt>
      <trkpt lat="47.10044" lon="6.267">
        <ele>651.799</ele>
        <time>2011-04-17T08:11:04Z</time>
      </trkpt>
      <trkpt lat="47.10034" lon="6.26681">
        <ele>651.212</ele>
        <time>2011-04-17T08:11:09Z</time>
      </trkpt>
      <trkpt lat="47.1003" lon="6.26667">
        <ele>650.803</ele>
        <time>2011-04-17T08:11:12Z</time>
      </trkpt>
      <trkpt lat="47.10015" lon="6.26641">
        <ele>649.612</ele>
        <time>2011-04-17T08:11:17Z</time>
      </trkpt>
      <trkpt lat="47.09992" lon="6.26605">
        <ele>648.527</ele>
        <time>2011-04-17T08:11:23Z</time>
      </trkpt>
      <trkpt lat="47.09979" lon="6.26585">
        <ele>647.669</ele>
        <time>2011-04-17T08:11:26Z</time>
      </trkpt>
      <trkpt lat="47.0994" lon="6.2654">
        <ele>645.874</ele>
        <time>2011-04-17T08:11:33Z</time>
      </trkpt>
      <trkpt lat="47.09909" lon="6.26495">
        <ele>643.825</ele>
        <time>2011-04-17T08:11:39Z</time>
      </trkpt>
      <trkpt lat="47.09882" lon="6.26453">
        <ele>643.682</ele>
        <time>2011-04-17T08:11:45Z</time>
      </trkpt>
      <trkpt lat="47.09854" lon="6.26404">
        <ele>642.856</ele>
        <time>2011-04-17T08:11:52Z</time>
      </trkpt>
      <trkpt lat="47.0985" lon="6.26397">
        <ele>642.457</ele>
        <time>2011-04-17T08:11:53Z</time>
      </trkpt>
      <trkpt lat="47.09826" lon="6.26349">
        <ele>641.948</ele>
        <time>2011-04-17T08:12:00Z</time>
      </trkpt>
      <trkpt lat="47.09809" lon="6.26316">
        <ele>642.758</ele>
        <time>2011-04-17T08:12:06Z</time>
      </trkpt>
      <trkpt lat="47.098" lon="6.26299">
        <ele>643.371</ele>
        <time>2011-04-17T08:12:10Z</time>
      </trkpt>
      <trkpt lat="47.09789" lon="6.26274">
        <ele>644.664</ele>
        <time>2011-04-17T08:12:17Z</time>
      </trkpt>
      <trkpt lat="47.0978" lon="6.26258">
        <ele>645.461</ele>
        <time>2011-04-17T08:12:23Z</time>
      </trkpt>
      <trkpt lat="47.09768" lon="6.26253">
        <ele>645.915</ele>
        <time>2011-04-17T08:12:29Z</time>
      </trkpt>
      <trkpt lat="47.0976" lon="6.26249">
        <ele>646.436</ele>
        <time>2011-04-17T08:12:35Z</time>
      </trkpt>
      <trkpt lat="47.09756" lon="6.26247">
        <ele>647.579</ele>
        <time>2011-04-17T08:12:40Z</time>
      </trkpt>
      <trkpt lat="47.09754" lon="6.26246">
        <ele>647.965</ele>
        <time>2011-04-17T08:12:43Z</time>
      </trkpt>
      <trkpt lat="47.09748" lon="6.26243">
        <ele>649.793</ele>
        <time>2011-04-17T08:12:53Z</time>
      </trkpt>
      <trkpt lat="47.09746" lon="6.26238">
        <ele>651.258</ele>
        <time>2011-04-17T08:12:59Z</time>
      </trkpt>
      <trkpt lat="47.09741" lon="6.26234">
        <ele>652.151</ele>
        <time>2011-04-17T08:13:06Z</time>
      </trkpt>
      <trkpt lat="47.09735" lon="6.26226">
        <ele>654.074</ele>
        <time>2011-04-17T08:13:15Z</time>
      </trkpt>
      <trkpt lat="47.0973" lon="6.26217">
        <ele>655.228</ele>
        <time>2011-04-17T08:13:24Z</time>
      </trkpt>
      <trkpt lat="47.09729" lon="6.26216">
        <ele>655.298</ele>
        <time>2011-04-17T08:13:29Z</time>
      </trkpt>
      <trkpt lat="47.09728" lon="6.26216">
        <ele>655.274</ele>
        <time>2011-04-17T08:13:31Z</time>
      </trkpt>
      <trkpt lat="47.09727" lon="6.26216">
        <ele>655.337</ele>
        <time>2011-04-17T08:13:33Z</time>
      </trkpt>
      <trkpt lat="47.0972" lon="6.26209">
        <ele>655.834</ele>
        <time>2011-04-17T08:13:39Z</time>
      </trkpt>
      <trkpt lat="47.0971" lon="6.26203">
        <ele>656.984</ele>
        <time>2011-04-17T08:13:46Z</time>
      </trkpt>
      <trkpt lat="47.09706" lon="6.26197">
        <ele>657.525</ele>
        <time>2011-04-17T08:13:50Z</time>
      </trkpt>
      <trkpt lat="47.09695" lon="6.26187">
        <ele>657.685</ele>
        <time>2011-04-17T08:13:56Z</time>
      </trkpt>
      <trkpt lat="47.09685" lon="6.26176">
        <ele>659.001</ele>
        <time>2011-04-17T08:14:02Z</time>
      </trkpt>
      <trkpt lat="47.09673" lon="6.26163">
        <ele>659.631</ele>
        <time>2011-04-17T08:14:08Z</time>
      </trkpt>
      <trkpt lat="47.09662" lon="6.26151">
        <ele>660.276</ele>
        <time>2011-04-17T08:14:14Z</time>
      </trkpt>
      <trkpt lat="47.09643" lon="6.26136">
        <ele>661.012</ele>
        <time>2011-04-17T08:14:22Z</time>
      </trkpt>
      <trkpt lat="47.09639" lon="6.26122">
        <ele>661.211</ele>
        <time>2011-04-17T08:14:26Z</time>
      </trkpt>
      <trkpt lat="47.09637" lon="6.26097">
        <ele>661.797</ele>
        <time>2011-04-17T08:14:33Z</time>
      </trkpt>
      <trkpt lat="47.09636" lon="6.26073">
        <ele>662.293</ele>
        <time>2011-04-17T08:14:39Z</time>
      </trkpt>
      <trkpt lat="47.09635" lon="6.26053">
        <ele>662.953</ele>
        <time>2011-04-17T08:14:44Z</time>
      </trkpt>
      <trkpt lat="47.09632" lon="6.26035">
        <ele>663.616</ele>
        <time>2011-04-17T08:14:49Z</time>
      </trkpt>
      <trkpt lat="47.09628" lon="6.26015">
        <ele>664.308</ele>
        <time>2011-04-17T08:14:55Z</time>
      </trkpt>
      <trkpt lat="47.09619" lon="6.25992">
        <ele>665.288</ele>
        <time>2011-04-17T08:15:02Z</time>
      </trkpt>
      <trkpt lat="47.09612" lon="6.25969">
        <ele>665.838</ele>
        <time>2011-04-17T08:15:09Z</time>
      </trkpt>
      <trkpt lat="47.09605" lon="6.25946">
        <ele>666.737</ele>
        <time>2011-04-17T08:15:16Z</time>
      </trkpt>
      <trkpt lat="47.09599" lon="6.25925">
        <ele>666.864</ele>
        <time>2011-04-17T08:15:21Z</time>
      </trkpt>
      <trkpt lat="47.09599" lon="6.25905">
        <ele>667.315</ele>
        <time>2011-04-17T08:15:26Z</time>
      </trkpt>
      <trkpt lat="47.09599" lon="6.25888">
        <ele>667.585</ele>
        <time>2011-04-17T08:15:30Z</time>
      </trkpt>
      <trkpt lat="47.096" lon="6.25856">
        <ele>667.6</ele>
        <time>2011-04-17T08:15:36Z</time>
      </trkpt>
      <trkpt lat="47.09601" lon="6.25811">
        <ele>667.303</ele>
        <time>2011-04-17T08:15:44Z</time>
      </trkpt>
      <trkpt lat="47.09603" lon="6.25787">
        <ele>667.16</ele>
        <time>2011-04-17T08:15:49Z</time>
      </trkpt>
      <trkpt lat="47.09618" lon="6.25768">
        <ele>666.27</ele>
        <time>2011-04-17T08:15:54Z</time>
      </trkpt>
      <trkpt lat="47.09621" lon="6.25763">
        <ele>665.991</ele>
        <time>2011-04-17T08:15:55Z</time>
      </trkpt>
      <trkpt lat="47.09645" lon="6.25725">
        <ele>664.213</ele>
        <time>2011-04-17T08:16:01Z</time>
      </trkpt>
      <trkpt lat="47.09658" lon="6.25694">
        <ele>663.08</ele>
        <time>2011-04-17T08:16:05Z</time>
      </trkpt>
      <trkpt lat="47.09677" lon="6.25622">
        <ele>660.297</ele>
        <time>2011-04-17T08:16:13Z</time>
      </trkpt>
      <trkpt lat="47.09692" lon="6.25561">
        <ele>657.335</ele>
        <time>2011-04-17T08:16:19Z</time>
      </trkpt>
      <trkpt lat="47.09714" lon="6.25491">
        <ele>654.248</ele>
        <time>2011-04-17T08:16:25Z</time>
      </trkpt>
      <trkpt lat="47.09719" lon="6.25478">
        <ele>653.456</ele>
        <time>2011-04-17T08:16:26Z</time>
      </trkpt>
      <trkpt lat="47.09738" lon="6.25405">
        <ele>647.69</ele>
        <time>2011-04-17T08:16:31Z</time>
      </trkpt>
      <trkpt lat="47.09771" lon="6.25316">
        <ele>640.801</ele>
        <time>2011-04-17T08:16:37Z</time>
      </trkpt>
      <trkpt lat="47.09793" lon="6.25262">
        <ele>636.367</ele>
        <time>2011-04-17T08:16:41Z</time>
      </trkpt>
      <trkpt lat="47.09809" lon="6.25234">
        <ele>633.968</ele>
        <time>2011-04-17T08:16:44Z</time>
      </trkpt>
      <trkpt lat="47.09812" lon="6.25223">
        <ele>633.466</ele>
        <time>2011-04-17T08:16:46Z</time>
      </trkpt>
      <trkpt lat="47.09809" lon="6.25218">
        <ele>633.206</ele>
        <time>2011-04-17T08:16:47Z</time>
      </trkpt>
      <trkpt lat="47.09807" lon="6.25214">
        <ele>632.934</ele>
        <time>2011-04-17T08:16:48Z</time>
      </trkpt>
      <trkpt lat="47.09795" lon="6.25206">
        <ele>631.949</ele>
        <time>2011-04-17T08:16:50Z</time>
      </trkpt>
      <trkpt lat="47.09789" lon="6.25203">
        <ele>631.275</ele>
        <time>2011-04-17T08:16:51Z</time>
      </trkpt>
      <trkpt lat="47.09782" lon="6.25199">
        <ele>630.611</ele>
        <time>2011-04-17T08:16:52Z</time>
      </trkpt>
      <trkpt lat="47.09764" lon="6.2516">
        <ele>627.474</ele>
        <time>2011-04-17T08:16:56Z</time>
      </trkpt>
      <trkpt lat="47.09758" lon="6.25124">
        <ele>624.327</ele>
        <time>2011-04-17T08:16:59Z</time>
      </trkpt>
      <trkpt lat="47.09761" lon="6.25065">
        <ele>619.726</ele>
        <time>2011-04-17T08:17:04Z</time>
      </trkpt>
      <trkpt lat="47.09764" lon="6.25018">
        <ele>615.12</ele>
        <time>2011-04-17T08:17:08Z</time>
      </trkpt>
      <trkpt lat="47.09773" lon="6.24983">
        <ele>613.167</ele>
        <time>2011-04-17T08:17:11Z</time>
      </trkpt>
      <trkpt lat="47.09777" lon="6.24972">
        <ele>612.147</ele>
        <time>2011-04-17T08:17:12Z</time>
      </trkpt>
      <trkpt lat="47.09793" lon="6.24956">
        <ele>609.289</ele>
        <time>2011-04-17T08:17:15Z</time>
      </trkpt>
      <trkpt lat="47.09798" lon="6.24953">
        <ele>607.725</ele>
        <time>2011-04-17T08:17:18Z</time>
      </trkpt>
      <trkpt lat="47.0981" lon="6.24945">
        <ele>606.829</ele>
        <time>2011-04-17T08:17:23Z</time>
      </trkpt>
      <trkpt lat="47.09826" lon="6.24941">
        <ele>605.961</ele>
        <time>2011-04-17T08:17:26Z</time>
      </trkpt>
      <trkpt lat="47.0985" lon="6.24933">
        <ele>604.224</ele>
        <time>2011-04-17T08:17:30Z</time>
      </trkpt>
      <trkpt lat="47.09864" lon="6.24917">
        <ele>604.066</ele>
        <time>2011-04-17T08:17:33Z</time>
      </trkpt>
      <trkpt lat="47.09898" lon="6.24866">
        <ele>604.579</ele>
        <time>2011-04-17T08:17:42Z</time>
      </trkpt>
      <trkpt lat="47.09902" lon="6.24861">
        <ele>604.543</ele>
        <time>2011-04-17T08:17:43Z</time>
      </trkpt>
      <trkpt lat="47.0992" lon="6.24846">
        <ele>604.295</ele>
        <time>2011-04-17T08:17:47Z</time>
      </trkpt>
      <trkpt lat="47.09963" lon="6.24816">
        <ele>603.852</ele>
        <time>2011-04-17T08:17:56Z</time>
      </trkpt>
      <trkpt lat="47.09986" lon="6.24784">
        <ele>603.827</ele>
        <time>2011-04-17T08:18:02Z</time>
      </trkpt>
      <trkpt lat="47.10017" lon="6.24728">
        <ele>604.077</ele>
        <time>2011-04-17T08:18:11Z</time>
      </trkpt>
      <trkpt lat="47.10042" lon="6.24663">
        <ele>603.709</ele>
        <time>2011-04-17T08:18:20Z</time>
      </trkpt>
      <trkpt lat="47.10059" lon="6.2463">
        <ele>603.282</ele>
        <time>2011-04-17T08:18:25Z</time>
      </trkpt>
      <trkpt lat="47.10092" lon="6.2458">
        <ele>602.393</ele>
        <time>2011-04-17T08:18:33Z</time>
      </trkpt>
      <trkpt lat="47.10134" lon="6.24517">
        <ele>601.413</ele>
        <time>2011-04-17T08:18:43Z</time>
      </trkpt>
      <trkpt lat="47.10168" lon="6.24466">
        <ele>600.543</ele>
        <time>2011-04-17T08:18:51Z</time>
      </trkpt>
      <trkpt lat="47.10198" lon="6.2441">
        <ele>599.25</ele>
        <time>2011-04-17T08:18:59Z</time>
      </trkpt>
      <trkpt lat="47.10211" lon="6.2438">
        <ele>598.301</ele>
        <time>2011-04-17T08:19:03Z</time>
      </trkpt>
      <trkpt lat="47.10251" lon="6.2433">
        <ele>597.036</ele>
        <time>2011-04-17T08:19:11Z</time>
      </trkpt>
      <trkpt lat="47.10261" lon="6.24319">
        <ele>596.784</ele>
        <time>2011-04-17T08:19:13Z</time>
      </trkpt>
      <trkpt lat="47.10284" lon="6.2431">
        <ele>596.295</ele>
        <time>2011-04-17T08:19:17Z</time>
      </trkpt>
      <trkpt lat="47.10318" lon="6.2431">
        <ele>596.5</ele>
        <time>2011-04-17T08:19:24Z</time>
      </trkpt>
      <trkpt lat="47.10351" lon="6.24307">
        <ele>595.93</ele>
        <time>2011-04-17T08:19:31Z</time>
      </trkpt>
      <trkpt lat="47.10369" lon="6.24298">
        <ele>595.46</ele>
        <time>2011-04-17T08:19:35Z</time>
      </trkpt>
      <trkpt lat="47.10382" lon="6.24287">
        <ele>595.304</ele>
        <time>2011-04-17T08:19:38Z</time>
      </trkpt>
      <trkpt lat="47.10414" lon="6.24276">
        <ele>594.601</ele>
        <time>2011-04-17T08:19:45Z</time>
      </trkpt>
      <trkpt lat="47.10443" lon="6.24269">
        <ele>594.949</ele>
        <time>2011-04-17T08:19:52Z</time>
      </trkpt>
      <trkpt lat="47.10459" lon="6.24266">
        <ele>595.201</ele>
        <time>2011-04-17T08:19:56Z</time>
      </trkpt>
      <trkpt lat="47.10493" lon="6.24263">
        <ele>595.045</ele>
        <time>2011-04-17T08:20:04Z</time>
      </trkpt>
      <trkpt lat="47.10513" lon="6.24262">
        <ele>595</ele>
        <time>2011-04-17T08:20:09Z</time>
      </trkpt>
      <trkpt lat="47.1054" lon="6.24267">
        <ele>595.296</ele>
        <time>2011-04-17T08:20:16Z</time>
      </trkpt>
      <trkpt lat="47.10579" lon="6.24279">
        <ele>594.395</ele>
        <time>2011-04-17T08:20:25Z</time>
      </trkpt>
      <trkpt lat="47.10615" lon="6.24288">
        <ele>593.333</ele>
        <time>2011-04-17T08:20:33Z</time>
      </trkpt>
      <trkpt lat="47.1063" lon="6.2428">
        <ele>593.294</ele>
        <time>2011-04-17T08:20:37Z</time>
      </trkpt>
      <trkpt lat="47.10634" lon="6.24261">
        <ele>593.767</ele>
        <time>2011-04-17T08:20:41Z</time>
      </trkpt>
      <trkpt lat="47.1064" lon="6.24227">
        <ele>594.09</ele>
        <time>2011-04-17T08:20:47Z</time>
      </trkpt>
      <trkpt lat="47.10652" lon="6.24171">
        <ele>593.547</ele>
        <time>2011-04-17T08:20:55Z</time>
      </trkpt>
      <trkpt lat="47.10661" lon="6.24126">
        <ele>594.01</ele>
        <time>2011-04-17T08:21:02Z</time>
      </trkpt>
      <trkpt lat="47.10671" lon="6.24079">
        <ele>594.022</ele>
        <time>2011-04-17T08:21:09Z</time>
      </trkpt>
      <trkpt lat="47.10688" lon="6.2401">
        <ele>593.173</ele>
        <time>2011-04-17T08:21:18Z</time>
      </trkpt>
      <trkpt lat="47.10714" lon="6.23922">
        <ele>593.734</ele>
        <time>2011-04-17T08:21:31Z</time>
      </trkpt>
      <trkpt lat="47.10733" lon="6.23854">
        <ele>594.774</ele>
        <time>2011-04-17T08:21:41Z</time>
      </trkpt>
      <trkpt lat="47.10757" lon="6.23788">
        <ele>594.853</ele>
        <time>2011-04-17T08:21:51Z</time>
      </trkpt>
      <trkpt lat="47.10778" lon="6.23728">
        <ele>593.831</ele>
        <time>2011-04-17T08:21:59Z</time>
      </trkpt>
      <trkpt lat="47.10789" lon="6.23695">
        <ele>593.188</ele>
        <time>2011-04-17T08:22:03Z</time>
      </trkpt>
      <trkpt lat="47.10797" lon="6.23646">
        <ele>592.164</ele>
        <time>2011-04-17T08:22:08Z</time>
      </trkpt>
      <trkpt lat="47.108" lon="6.23601">
        <ele>590.824</ele>
        <time>2011-04-17T08:22:12Z</time>
      </trkpt>
      <trkpt lat="47.10793" lon="6.23539">
        <ele>590.43</ele>
        <time>2011-04-17T08:22:18Z</time>
      </trkpt>
      <trkpt lat="47.10773" lon="6.23474">
        <ele>589.45</ele>
        <time>2011-04-17T08:22:25Z</time>
      </trkpt>
      <trkpt lat="47.1075" lon="6.23396">
        <ele>587.738</ele>
        <time>2011-04-17T08:22:33Z</time>
      </trkpt>
      <trkpt lat="47.10726" lon="6.2333">
        <ele>586.487</ele>
        <time>2011-04-17T08:22:40Z</time>
      </trkpt>
      <trkpt lat="47.10719" lon="6.23313">
        <ele>585.987</ele>
        <time>2011-04-17T08:22:42Z</time>
      </trkpt>
      <trkpt lat="47.10718" lon="6.23271">
        <ele>584.502</ele>
        <time>2011-04-17T08:22:46Z</time>
      </trkpt>
      <trkpt lat="47.10733" lon="6.23212">
        <ele>582.825</ele>
        <time>2011-04-17T08:22:52Z</time>
      </trkpt>
      <trkpt lat="47.10739" lon="6.23139">
        <ele>583.252</ele>
        <time>2011-04-17T08:23:00Z</time>
      </trkpt>
      <trkpt lat="47.10742" lon="6.23085">
        <ele>583.9</ele>
        <time>2011-04-17T08:23:07Z</time>
      </trkpt>
      <trkpt lat="47.10738" lon="6.23061">
        <ele>584.898</ele>
        <time>2011-04-17T08:23:11Z</time>
      </trkpt>
      <trkpt lat="47.10725" lon="6.23038">
        <ele>585.793</ele>
        <time>2011-04-17T08:23:16Z</time>
      </trkpt>
      <trkpt lat="47.10696" lon="6.23015">
        <ele>587.13</ele>
        <time>2011-04-17T08:23:24Z</time>
      </trkpt>
      <trkpt lat="47.10663" lon="6.22991">
        <ele>587.101</ele>
        <time>2011-04-17T08:23:32Z</time>
      </trkpt>
      <trkpt lat="47.10659" lon="6.22972">
        <ele>586.705</ele>
        <time>2011-04-17T08:23:36Z</time>
      </trkpt>
      <trkpt lat="47.10662" lon="6.22968">
        <ele>586.682</ele>
        <time>2011-04-17T08:23:37Z</time>
      </trkpt>
      <trkpt lat="47.10685" lon="6.22924">
        <ele>585.704</ele>
        <time>2011-04-17T08:23:46Z</time>
      </trkpt>
      <trkpt lat="47.1069" lon="6.22896">
        <ele>584.3</ele>
        <time>2011-04-17T08:23:50Z</time>
      </trkpt>
      <trkpt lat="47.10687" lon="6.22849">
        <ele>581.83</ele>
        <time>2011-04-17T08:23:56Z</time>
      </trkpt>
      <trkpt lat="47.10696" lon="6.22832">
        <ele>579.126</ele>
        <time>2011-04-17T08:24:00Z</time>
      </trkpt>
      <trkpt lat="47.10702" lon="6.22833">
        <ele>578.392</ele>
        <time>2011-04-17T08:24:01Z</time>
      </trkpt>
      <trkpt lat="47.10708" lon="6.22833">
        <ele>577.298</ele>
        <time>2011-04-17T08:24:02Z</time>
      </trkpt>
      <trkpt lat="47.10726" lon="6.22832">
        <ele>574.751</ele>
        <time>2011-04-17T08:24:04Z</time>
      </trkpt>
      <trkpt lat="47.10742" lon="6.22831">
        <ele>572.623</ele>
        <time>2011-04-17T08:24:06Z</time>
      </trkpt>
      <trkpt lat="47.10776" lon="6.22822">
        <ele>569.018</ele>
        <time>2011-04-17T08:24:11Z</time>
      </trkpt>
      <trkpt lat="47.1078" lon="6.22819">
        <ele>568.317</ele>
        <time>2011-04-17T08:24:12Z</time>
      </trkpt>
      <trkpt lat="47.10786" lon="6.22803">
        <ele>566.498</ele>
        <time>2011-04-17T08:24:15Z</time>
      </trkpt>
      <trkpt lat="47.10783" lon="6.2279">
        <ele>565.543</ele>
        <time>2011-04-17T08:24:17Z</time>
      </trkpt>
      <trkpt lat="47.10766" lon="6.2276">
        <ele>564.41</ele>
        <time>2011-04-17T08:24:22Z</time>
      </trkpt>
      <trkpt lat="47.10758" lon="6.22743">
        <ele>565.391</ele>
        <time>2011-04-17T08:24:26Z</time>
      </trkpt>
      <trkpt lat="47.10752" lon="6.2273">
        <ele>567.004</ele>
        <time>2011-04-17T08:24:30Z</time>
      </trkpt>
      <trkpt lat="47.10749" lon="6.22724">
        <ele>567.882</ele>
        <time>2011-04-17T08:24:32Z</time>
      </trkpt>
      <trkpt lat="47.10739" lon="6.22706">
        <ele>569.844</ele>
        <time>2011-04-17T08:24:38Z</time>
      </trkpt>
      <trkpt lat="47.10736" lon="6.22699">
        <ele>570.445</ele>
        <time>2011-04-17T08:24:40Z</time>
      </trkpt>
      <trkpt lat="47.10728" lon="6.22679">
        <ele>571.552</ele>
        <time>2011-04-17T08:24:46Z</time>
      </trkpt>
      <trkpt lat="47.10718" lon="6.22659">
        <ele>572.771</ele>
        <time>2011-04-17T08:24:53Z</time>
      </trkpt>
      <trkpt lat="47.10708" lon="6.22636">
        <ele>573.887</ele>
        <time>2011-04-17T08:25:00Z</time>
      </trkpt>
      <trkpt lat="47.10698" lon="6.22619">
        <ele>574.582</ele>
        <time>2011-04-17T08:25:06Z</time>
      </trkpt>
      <trkpt lat="47.10685" lon="6.22598">
        <ele>575.411</ele>
        <time>2011-04-17T08:25:13Z</time>
      </trkpt>
      <trkpt lat="47.10672" lon="6.22574">
        <ele>576.3</ele>
        <time>2011-04-17T08:25:20Z</time>
      </trkpt>
      <trkpt lat="47.10661" lon="6.22555">
        <ele>576.814</ele>
        <time>2011-04-17T08:25:26Z</time>
      </trkpt>
      <trkpt lat="47.10656" lon="6.2253">
        <ele>577.737</ele>
        <time>2011-04-17T08:25:33Z</time>
      </trkpt>
      <trkpt lat="47.10654" lon="6.22503">
        <ele>579.608</ele>
        <time>2011-04-17T08:25:40Z</time>
      </trkpt>
      <trkpt lat="47.10657" lon="6.2247">
        <ele>581.276</ele>
        <time>2011-04-17T08:25:49Z</time>
      </trkpt>
      <trkpt lat="47.10661" lon="6.22456">
        <ele>582.486</ele>
        <time>2011-04-17T08:25:54Z</time>
      </trkpt>
      <trkpt lat="47.10666" lon="6.22437">
        <ele>582.828</ele>
        <time>2011-04-17T08:26:00Z</time>
      </trkpt>
      <trkpt lat="47.10672" lon="6.22421">
        <ele>582.892</ele>
        <time>2011-04-17T08:26:04Z</time>
      </trkpt>
      <trkpt lat="47.10684" lon="6.22395">
        <ele>583.216</ele>
        <time>2011-04-17T08:26:11Z</time>
      </trkpt>
      <trkpt lat="47.10695" lon="6.22379">
        <ele>583.547</ele>
        <time>2011-04-17T08:26:16Z</time>
      </trkpt>
      <trkpt lat="47.10708" lon="6.22362">
        <ele>584.053</ele>
        <time>2011-04-17T08:26:21Z</time>
      </trkpt>
      <trkpt lat="47.1072" lon="6.22346">
        <ele>584.533</ele>
        <time>2011-04-17T08:26:26Z</time>
      </trkpt>
      <trkpt lat="47.10731" lon="6.22328">
        <ele>585.264</ele>
        <time>2011-04-17T08:26:32Z</time>
      </trkpt>
      <trkpt lat="47.1074" lon="6.22309">
        <ele>585.531</ele>
        <time>2011-04-17T08:26:37Z</time>
      </trkpt>
      <trkpt lat="47.10751" lon="6.22295">
        <ele>586.125</ele>
        <time>2011-04-17T08:26:42Z</time>
      </trkpt>
      <trkpt lat="47.10765" lon="6.22304">
        <ele>586.519</ele>
        <time>2011-04-17T08:26:47Z</time>
      </trkpt>
      <trkpt lat="47.10783" lon="6.22326">
        <ele>586.713</ele>
        <time>2011-04-17T08:26:53Z</time>
      </trkpt>
      <trkpt lat="47.10804" lon="6.22362">
        <ele>587.215</ele>
        <time>2011-04-17T08:27:00Z</time>
      </trkpt>
      <trkpt lat="47.10834" lon="6.22416">
        <ele>588.49</ele>
        <time>2011-04-17T08:27:10Z</time>
      </trkpt>
      <trkpt lat="47.10865" lon="6.22464">
        <ele>589.518</ele>
        <time>2011-04-17T08:27:19Z</time>
      </trkpt>
      <trkpt lat="47.10881" lon="6.22506">
        <ele>589.812</ele>
        <time>2011-04-17T08:27:26Z</time>
      </trkpt>
      <trkpt lat="47.10897" lon="6.22562">
        <ele>590.723</ele>
        <time>2011-04-17T08:27:35Z</time>
      </trkpt>
      <trkpt lat="47.10921" lon="6.22616">
        <ele>590.817</ele>
        <time>2011-04-17T08:27:44Z</time>
      </trkpt>
      <trkpt lat="47.10941" lon="6.22657">
        <ele>590.838</ele>
        <time>2011-04-17T08:27:51Z</time>
      </trkpt>
      <trkpt lat="47.10962" lon="6.22709">
        <ele>590.565</ele>
        <time>2011-04-17T08:27:59Z</time>
      </trkpt>
      <trkpt lat="47.10977" lon="6.22758">
        <ele>590.463</ele>
        <time>2011-04-17T08:28:06Z</time>
      </trkpt>
      <trkpt lat="47.10987" lon="6.22771">
        <ele>590.306</ele>
        <time>2011-04-17T08:28:09Z</time>
      </trkpt>
      <trkpt lat="47.10994" lon="6.22764">
        <ele>590.14</ele>
        <time>2011-04-17T08:28:11Z</time>
      </trkpt>
      <trkpt lat="47.10997" lon="6.22759">
        <ele>590.18</ele>
        <time>2011-04-17T08:28:12Z</time>
      </trkpt>
      <trkpt lat="47.11018" lon="6.22727">
        <ele>590.555</ele>
        <time>2011-04-17T08:28:18Z</time>
      </trkpt>
      <trkpt lat="47.11048" lon="6.22671">
        <ele>591.32</ele>
        <time>2011-04-17T08:28:28Z</time>
      </trkpt>
      <trkpt lat="47.11078" lon="6.22615">
        <ele>590.718</ele>
        <time>2011-04-17T08:28:37Z</time>
      </trkpt>
      <trkpt lat="47.11104" lon="6.22563">
        <ele>589.859</ele>
        <time>2011-04-17T08:28:44Z</time>
      </trkpt>
      <trkpt lat="47.1112" lon="6.22531">
        <ele>588.97</ele>
        <time>2011-04-17T08:28:48Z</time>
      </trkpt>
      <trkpt lat="47.11124" lon="6.22523">
        <ele>588.779</ele>
        <time>2011-04-17T08:28:49Z</time>
      </trkpt>
      <trkpt lat="47.11131" lon="6.22506">
        <ele>588.782</ele>
        <time>2011-04-17T08:28:51Z</time>
      </trkpt>
      <trkpt lat="47.11136" lon="6.22461">
        <ele>588.954</ele>
        <time>2011-04-17T08:28:56Z</time>
      </trkpt>
      <trkpt lat="47.11135" lon="6.22452">
        <ele>589.007</ele>
        <time>2011-04-17T08:28:57Z</time>
      </trkpt>
      <trkpt lat="47.11123" lon="6.22372">
        <ele>588.532</ele>
        <time>2011-04-17T08:29:06Z</time>
      </trkpt>
      <trkpt lat="47.11128" lon="6.22308">
        <ele>588.262</ele>
        <time>2011-04-17T08:29:13Z</time>
      </trkpt>
      <trkpt lat="47.11141" lon="6.22223">
        <ele>587.514</ele>
        <time>2011-04-17T08:29:22Z</time>
      </trkpt>
      <trkpt lat="47.11153" lon="6.22141">
        <ele>586.43</ele>
        <time>2011-04-17T08:29:30Z</time>
      </trkpt>
      <trkpt lat="47.11171" lon="6.22024">
        <ele>586.465</ele>
        <time>2011-04-17T08:29:42Z</time>
      </trkpt>
      <trkpt lat="47.11182" lon="6.21952">
        <ele>587.395</ele>
        <time>2011-04-17T08:29:50Z</time>
      </trkpt>
      <trkpt lat="47.11196" lon="6.2187">
        <ele>586.795</ele>
        <time>2011-04-17T08:29:59Z</time>
      </trkpt>
      <trkpt lat="47.11214" lon="6.21804">
        <ele>585.451</ele>
        <time>2011-04-17T08:30:06Z</time>
      </trkpt>
      <trkpt lat="47.11229" lon="6.21753">
        <ele>584.003</ele>
        <time>2011-04-17T08:30:11Z</time>
      </trkpt>
      <trkpt lat="47.11249" lon="6.21667">
        <ele>581.242</ele>
        <time>2011-04-17T08:30:18Z</time>
      </trkpt>
      <trkpt lat="47.11255" lon="6.21633">
        <ele>579.779</ele>
        <time>2011-04-17T08:30:21Z</time>
      </trkpt>
      <trkpt lat="47.11251" lon="6.21603">
        <ele>578.737</ele>
        <time>2011-04-17T08:30:25Z</time>
      </trkpt>
      <trkpt lat="47.11242" lon="6.21591">
        <ele>577.735</ele>
        <time>2011-04-17T08:30:28Z</time>
      </trkpt>
      <trkpt lat="47.1124" lon="6.21586">
        <ele>576.961</ele>
        <time>2011-04-17T08:30:30Z</time>
      </trkpt>
      <trkpt lat="47.11232" lon="6.21582">
        <ele>575.452</ele>
        <time>2011-04-17T08:30:36Z</time>
      </trkpt>
      <trkpt lat="47.11227" lon="6.21582">
        <ele>574.847</ele>
        <time>2011-04-17T08:30:38Z</time>
      </trkpt>
      <trkpt lat="47.11215" lon="6.21579">
        <ele>571.734</ele>
        <time>2011-04-17T08:30:41Z</time>
      </trkpt>
      <trkpt lat="47.11207" lon="6.21576">
        <ele>568.427</ele>
        <time>2011-04-17T08:30:43Z</time>
      </trkpt>
      <trkpt lat="47.11194" lon="6.21569">
        <ele>562.535</ele>
        <time>2011-04-17T08:30:46Z</time>
      </trkpt>
      <trkpt lat="47.11185" lon="6.21562">
        <ele>560.577</ele>
        <time>2011-04-17T08:30:49Z</time>
      </trkpt>
      <trkpt lat="47.11178" lon="6.21558">
        <ele>559.17</ele>
        <time>2011-04-17T08:30:51Z</time>
      </trkpt>
      <trkpt lat="47.11162" lon="6.21549">
        <ele>555.813</ele>
        <time>2011-04-17T08:30:55Z</time>
      </trkpt>
      <trkpt lat="47.11147" lon="6.21538">
        <ele>551.175</ele>
        <time>2011-04-17T08:30:59Z</time>
      </trkpt>
      <trkpt lat="47.11135" lon="6.21531">
        <ele>549.777</ele>
        <time>2011-04-17T08:31:01Z</time>
      </trkpt>
      <trkpt lat="47.11128" lon="6.21527">
        <ele>548.32</ele>
        <time>2011-04-17T08:31:02Z</time>
      </trkpt>
      <trkpt lat="47.11122" lon="6.21524">
        <ele>546.576</ele>
        <time>2011-04-17T08:31:03Z</time>
      </trkpt>
      <trkpt lat="47.11116" lon="6.2152">
        <ele>544.824</ele>
        <time>2011-04-17T08:31:04Z</time>
      </trkpt>
      <trkpt lat="47.11109" lon="6.21516">
        <ele>543.367</ele>
        <time>2011-04-17T08:31:05Z</time>
      </trkpt>
      <trkpt lat="47.11096" lon="6.21506">
        <ele>540.818</ele>
        <time>2011-04-17T08:31:07Z</time>
      </trkpt>
      <trkpt lat="47.11069" lon="6.21493">
        <ele>537.638</ele>
        <time>2011-04-17T08:31:11Z</time>
      </trkpt>
      <trkpt lat="47.1105" lon="6.21484">
        <ele>535.36</ele>
        <time>2011-04-17T08:31:14Z</time>
      </trkpt>
      <trkpt lat="47.11024" lon="6.21474">
        <ele>532.523</ele>
        <time>2011-04-17T08:31:18Z</time>
      </trkpt>
      <trkpt lat="47.11009" lon="6.2147">
        <ele>530.637</ele>
        <time>2011-04-17T08:31:22Z</time>
      </trkpt>
      <trkpt lat="47.11005" lon="6.21467">
        <ele>529.768</ele>
        <time>2011-04-17T08:31:25Z</time>
      </trkpt>
      <trkpt lat="47.11006" lon="6.21459">
        <ele>527.727</ele>
        <time>2011-04-17T08:31:29Z</time>
      </trkpt>
      <trkpt lat="47.11026" lon="6.2145">
        <ele>526.778</ele>
        <time>2011-04-17T08:31:35Z</time>
      </trkpt>
      <trkpt lat="47.11034" lon="6.21449">
        <ele>526.625</ele>
        <time>2011-04-17T08:31:37Z</time>
      </trkpt>
      <trkpt lat="47.11043" lon="6.2145">
        <ele>526.414</ele>
        <time>2011-04-17T08:31:39Z</time>
      </trkpt>
      <trkpt lat="47.1107" lon="6.21451">
        <ele>526.853</ele>
        <time>2011-04-17T08:31:46Z</time>
      </trkpt>
      <trkpt lat="47.11088" lon="6.21452">
        <ele>527.366</ele>
        <time>2011-04-17T08:31:51Z</time>
      </trkpt>
      <trkpt lat="47.11096" lon="6.2145">
        <ele>527.537</ele>
        <time>2011-04-17T08:31:53Z</time>
      </trkpt>
      <trkpt lat="47.11116" lon="6.21446">
        <ele>527.736</ele>
        <time>2011-04-17T08:31:58Z</time>
      </trkpt>
      <trkpt lat="47.11131" lon="6.2142">
        <ele>528.001</ele>
        <time>2011-04-17T08:32:05Z</time>
      </trkpt>
      <trkpt lat="47.11132" lon="6.21414">
        <ele>528.022</ele>
        <time>2011-04-17T08:32:06Z</time>
      </trkpt>
      <trkpt lat="47.11128" lon="6.21367">
        <ele>524.778</ele>
        <time>2011-04-17T08:32:12Z</time>
      </trkpt>
      <trkpt lat="47.11127" lon="6.21358">
        <ele>524.147</ele>
        <time>2011-04-17T08:32:13Z</time>
      </trkpt>
      <trkpt lat="47.11123" lon="6.21338">
        <ele>523.55</ele>
        <time>2011-04-17T08:32:15Z</time>
      </trkpt>
      <trkpt lat="47.11105" lon="6.21281">
        <ele>519.897</ele>
        <time>2011-04-17T08:32:20Z</time>
      </trkpt>
      <trkpt lat="47.11091" lon="6.21253">
        <ele>518.212</ele>
        <time>2011-04-17T08:32:23Z</time>
      </trkpt>
      <trkpt lat="47.11083" lon="6.21235">
        <ele>517.771</ele>
        <time>2011-04-17T08:32:25Z</time>
      </trkpt>
      <trkpt lat="47.11079" lon="6.21219">
        <ele>517.766</ele>
        <time>2011-04-17T08:32:27Z</time>
      </trkpt>
      <trkpt lat="47.11078" lon="6.21183">
        <ele>520.002</ele>
        <time>2011-04-17T08:32:33Z</time>
      </trkpt>
      <trkpt lat="47.11077" lon="6.21169">
        <ele>520.761</ele>
        <time>2011-04-17T08:32:36Z</time>
      </trkpt>
      <trkpt lat="47.11075" lon="6.2116">
        <ele>520.749</ele>
        <time>2011-04-17T08:32:38Z</time>
      </trkpt>
      <trkpt lat="47.11074" lon="6.21139">
        <ele>520.436</ele>
        <time>2011-04-17T08:32:42Z</time>
      </trkpt>
      <trkpt lat="47.11074" lon="6.21115">
        <ele>520.428</ele>
        <time>2011-04-17T08:32:48Z</time>
      </trkpt>
      <trkpt lat="47.11077" lon="6.21097">
        <ele>521.564</ele>
        <time>2011-04-17T08:32:54Z</time>
      </trkpt>
      <trkpt lat="47.11081" lon="6.21079">
        <ele>522.748</ele>
        <time>2011-04-17T08:33:00Z</time>
      </trkpt>
      <trkpt lat="47.11083" lon="6.21073">
        <ele>523.358</ele>
        <time>2011-04-17T08:33:02Z</time>
      </trkpt>
      <trkpt lat="47.11085" lon="6.21064">
        <ele>524.35</ele>
        <time>2011-04-17T08:33:06Z</time>
      </trkpt>
      <trkpt lat="47.11089" lon="6.21053">
        <ele>525.81</ele>
        <time>2011-04-17T08:33:11Z</time>
      </trkpt>
      <trkpt lat="47.11094" lon="6.21038">
        <ele>527.857</ele>
        <time>2011-04-17T08:33:17Z</time>
      </trkpt>
      <trkpt lat="47.11098" lon="6.21024">
        <ele>529.189</ele>
        <time>2011-04-17T08:33:22Z</time>
      </trkpt>
      <trkpt lat="47.11102" lon="6.21003">
        <ele>530.432</ele>
        <time>2011-04-17T08:33:29Z</time>
      </trkpt>
      <trkpt lat="47.11103" lon="6.2099">
        <ele>531.101</ele>
        <time>2011-04-17T08:33:34Z</time>
      </trkpt>
      <trkpt lat="47.11108" lon="6.2097">
        <ele>531.98</ele>
        <time>2011-04-17T08:33:41Z</time>
      </trkpt>
      <trkpt lat="47.1111" lon="6.20954">
        <ele>532.858</ele>
        <time>2011-04-17T08:33:47Z</time>
      </trkpt>
      <trkpt lat="47.11111" lon="6.20939">
        <ele>533.076</ele>
        <time>2011-04-17T08:33:52Z</time>
      </trkpt>
      <trkpt lat="47.11114" lon="6.20923">
        <ele>533.772</ele>
        <time>2011-04-17T08:33:59Z</time>
      </trkpt>
      <trkpt lat="47.11117" lon="6.20905">
        <ele>534.64</ele>
        <time>2011-04-17T08:34:07Z</time>
      </trkpt>
      <trkpt lat="47.11125" lon="6.20884">
        <ele>535.778</ele>
        <time>2011-04-17T08:34:16Z</time>
      </trkpt>
      <trkpt lat="47.11133" lon="6.20868">
        <ele>535.979</ele>
        <time>2011-04-17T08:34:22Z</time>
      </trkpt>
      <trkpt lat="47.11142" lon="6.20852">
        <ele>536.718</ele>
        <time>2011-04-17T08:34:29Z</time>
      </trkpt>
      <trkpt lat="47.11151" lon="6.20837">
        <ele>537.45</ele>
        <time>2011-04-17T08:34:36Z</time>
      </trkpt>
      <trkpt lat="47.11169" lon="6.20821">
        <ele>538.014</ele>
        <time>2011-04-17T08:34:44Z</time>
      </trkpt>
      <trkpt lat="47.11182" lon="6.20816">
        <ele>538.411</ele>
        <time>2011-04-17T08:34:50Z</time>
      </trkpt>
      <trkpt lat="47.11197" lon="6.20826">
        <ele>540.237</ele>
        <time>2011-04-17T08:34:58Z</time>
      </trkpt>
      <trkpt lat="47.11204" lon="6.20837">
        <ele>542.458</ele>
        <time>2011-04-17T08:35:04Z</time>
      </trkpt>
      <trkpt lat="47.11213" lon="6.20854">
        <ele>544.202</ele>
        <time>2011-04-17T08:35:11Z</time>
      </trkpt>
      <trkpt lat="47.1122" lon="6.20866">
        <ele>545.165</ele>
        <time>2011-04-17T08:35:17Z</time>
      </trkpt>
      <trkpt lat="47.11229" lon="6.20884">
        <ele>545.498</ele>
        <time>2011-04-17T08:35:23Z</time>
      </trkpt>
      <trkpt lat="47.11238" lon="6.20903">
        <ele>545.44</ele>
        <time>2011-04-17T08:35:28Z</time>
      </trkpt>
      <trkpt lat="47.11249" lon="6.20929">
        <ele>545.203</ele>
        <time>2011-04-17T08:35:33Z</time>
      </trkpt>
      <trkpt lat="47.11255" lon="6.20955">
        <ele>545.434</ele>
        <time>2011-04-17T08:35:39Z</time>
      </trkpt>
      <trkpt lat="47.11258" lon="6.20976">
        <ele>546.265</ele>
        <time>2011-04-17T08:35:44Z</time>
      </trkpt>
      <trkpt lat="47.11259" lon="6.20989">
        <ele>547.554</ele>
        <time>2011-04-17T08:35:48Z</time>
      </trkpt>
      <trkpt lat="47.1126" lon="6.21012">
        <ele>548.892</ele>
        <time>2011-04-17T08:35:54Z</time>
      </trkpt>
      <trkpt lat="47.11266" lon="6.21033">
        <ele>549.421</ele>
        <time>2011-04-17T08:36:00Z</time>
      </trkpt>
      <trkpt lat="47.11263" lon="6.21049">
        <ele>549.89</ele>
        <time>2011-04-17T08:36:05Z</time>
      </trkpt>
      <trkpt lat="47.11258" lon="6.21066">
        <ele>551.786</ele>
        <time>2011-04-17T08:36:13Z</time>
      </trkpt>
      <trkpt lat="47.11253" lon="6.21083">
        <ele>554.44</ele>
        <time>2011-04-17T08:36:23Z</time>
      </trkpt>
      <trkpt lat="47.11247" lon="6.21099">
        <ele>555.999</ele>
        <time>2011-04-17T08:36:31Z</time>
      </trkpt>
      <trkpt lat="47.11244" lon="6.21111">
        <ele>557.251</ele>
        <time>2011-04-17T08:36:38Z</time>
      </trkpt>
      <trkpt lat="47.11242" lon="6.21118">
        <ele>558.045</ele>
        <time>2011-04-17T08:36:42Z</time>
      </trkpt>
      <trkpt lat="47.11245" lon="6.21125">
        <ele>558.674</ele>
        <time>2011-04-17T08:36:46Z</time>
      </trkpt>
      <trkpt lat="47.11257" lon="6.21135">
        <ele>558.227</ele>
        <time>2011-04-17T08:36:51Z</time>
      </trkpt>
      <trkpt lat="47.11262" lon="6.21138">
        <ele>558.23</ele>
        <time>2011-04-17T08:36:52Z</time>
      </trkpt>
      <trkpt lat="47.11276" lon="6.21158">
        <ele>556.694</ele>
        <time>2011-04-17T08:36:56Z</time>
      </trkpt>
      <trkpt lat="47.11284" lon="6.21171">
        <ele>555.974</ele>
        <time>2011-04-17T08:36:58Z</time>
      </trkpt>
      <trkpt lat="47.11296" lon="6.21204">
        <ele>555.456</ele>
        <time>2011-04-17T08:37:02Z</time>
      </trkpt>
      <trkpt lat="47.11311" lon="6.21244">
        <ele>556.037</ele>
        <time>2011-04-17T08:37:08Z</time>
      </trkpt>
      <trkpt lat="47.11319" lon="6.21275">
        <ele>556.313</ele>
        <time>2011-04-17T08:37:14Z</time>
      </trkpt>
      <trkpt lat="47.11329" lon="6.213">
        <ele>556.494</ele>
        <time>2011-04-17T08:37:20Z</time>
      </trkpt>
      <trkpt lat="47.11338" lon="6.2132">
        <ele>555.776</ele>
        <time>2011-04-17T08:37:25Z</time>
      </trkpt>
      <trkpt lat="47.11343" lon="6.21336">
        <ele>555.457</ele>
        <time>2011-04-17T08:37:28Z</time>
      </trkpt>
      <trkpt lat="47.11354" lon="6.21373">
        <ele>554.588</ele>
        <time>2011-04-17T08:37:34Z</time>
      </trkpt>
      <trkpt lat="47.11357" lon="6.21391">
        <ele>554.441</ele>
        <time>2011-04-17T08:37:38Z</time>
      </trkpt>
      <trkpt lat="47.11362" lon="6.21415">
        <ele>554.742</ele>
        <time>2011-04-17T08:37:43Z</time>
      </trkpt>
      <trkpt lat="47.11368" lon="6.21435">
        <ele>554.94</ele>
        <time>2011-04-17T08:37:47Z</time>
      </trkpt>
      <trkpt lat="47.11373" lon="6.21465">
        <ele>555.018</ele>
        <time>2011-04-17T08:37:53Z</time>
      </trkpt>
      <trkpt lat="47.11376" lon="6.21489">
        <ele>555.368</ele>
        <time>2011-04-17T08:37:59Z</time>
      </trkpt>
      <trkpt lat="47.11378" lon="6.21508">
        <ele>554.985</ele>
        <time>2011-04-17T08:38:04Z</time>
      </trkpt>
      <trkpt lat="47.1138" lon="6.21527">
        <ele>554.862</ele>
        <time>2011-04-17T08:38:09Z</time>
      </trkpt>
      <trkpt lat="47.1138" lon="6.21546">
        <ele>554.182</ele>
        <time>2011-04-17T08:38:14Z</time>
      </trkpt>
      <trkpt lat="47.11379" lon="6.21565">
        <ele>553.707</ele>
        <time>2011-04-17T08:38:19Z</time>
      </trkpt>
      <trkpt lat="47.11377" lon="6.21582">
        <ele>554.163</ele>
        <time>2011-04-17T08:38:24Z</time>
      </trkpt>
      <trkpt lat="47.11375" lon="6.21594">
        <ele>554.893</ele>
        <time>2011-04-17T08:38:28Z</time>
      </trkpt>
      <trkpt lat="47.11373" lon="6.21612">
        <ele>554.851</ele>
        <time>2011-04-17T08:38:34Z</time>
      </trkpt>
      <trkpt lat="47.11374" lon="6.21625">
        <ele>555.687</ele>
        <time>2011-04-17T08:38:41Z</time>
      </trkpt>
      <trkpt lat="47.11374" lon="6.2163">
        <ele>555.847</ele>
        <time>2011-04-17T08:38:43Z</time>
      </trkpt>
      <trkpt lat="47.11376" lon="6.21656">
        <ele>556.631</ele>
        <time>2011-04-17T08:38:49Z</time>
      </trkpt>
      <trkpt lat="47.11378" lon="6.21665">
        <ele>556.663</ele>
        <time>2011-04-17T08:38:51Z</time>
      </trkpt>
      <trkpt lat="47.11381" lon="6.21694">
        <ele>556.448</ele>
        <time>2011-04-17T08:38:56Z</time>
      </trkpt>
      <trkpt lat="47.11388" lon="6.21727">
        <ele>556.309</ele>
        <time>2011-04-17T08:39:01Z</time>
      </trkpt>
      <trkpt lat="47.1139" lon="6.21734">
        <ele>556.251</ele>
        <time>2011-04-17T08:39:02Z</time>
      </trkpt>
      <trkpt lat="47.11398" lon="6.21767">
        <ele>556.088</ele>
        <time>2011-04-17T08:39:08Z</time>
      </trkpt>
      <trkpt lat="47.114" lon="6.21795">
        <ele>556.97</ele>
        <time>2011-04-17T08:39:15Z</time>
      </trkpt>
      <trkpt lat="47.11401" lon="6.21801">
        <ele>556.796</ele>
        <time>2011-04-17T08:39:18Z</time>
      </trkpt>
      <trkpt lat="47.11408" lon="6.21805">
        <ele>555.149</ele>
        <time>2011-04-17T08:39:23Z</time>
      </trkpt>
      <trkpt lat="47.1141" lon="6.21808">
        <ele>554.118</ele>
        <time>2011-04-17T08:39:25Z</time>
      </trkpt>
      <trkpt lat="47.11412" lon="6.21812">
        <ele>553.505</ele>
        <time>2011-04-17T08:39:27Z</time>
      </trkpt>
      <trkpt lat="47.11415" lon="6.21816">
        <ele>552.194</ele>
        <time>2011-04-17T08:39:32Z</time>
      </trkpt>
      <trkpt lat="47.11418" lon="6.21816">
        <ele>551.334</ele>
        <time>2011-04-17T08:39:34Z</time>
      </trkpt>
      <trkpt lat="47.11423" lon="6.2181">
        <ele>548.704</ele>
        <time>2011-04-17T08:39:38Z</time>
      </trkpt>
      <trkpt lat="47.11425" lon="6.21804">
        <ele>546.306</ele>
        <time>2011-04-17T08:39:42Z</time>
      </trkpt>
      <trkpt lat="47.11432" lon="6.21799">
        <ele>542.723</ele>
        <time>2011-04-17T08:39:48Z</time>
      </trkpt>
      <trkpt lat="47.11438" lon="6.21803">
        <ele>540.75</ele>
        <time>2011-04-17T08:39:52Z</time>
      </trkpt>
      <trkpt lat="47.11441" lon="6.21806">
        <ele>540.136</ele>
        <time>2011-04-17T08:39:55Z</time>
      </trkpt>
      <trkpt lat="47.11442" lon="6.21806">
        <ele>539.296</ele>
        <time>2011-04-17T08:40:00Z</time>
      </trkpt>
      <trkpt lat="47.11442" lon="6.21807">
        <ele>539.158</ele>
        <time>2011-04-17T08:40:03Z</time>
      </trkpt>
      <trkpt lat="47.11442" lon="6.21808">
        <ele>539.111</ele>
        <time>2011-04-17T08:40:04Z</time>
      </trkpt>
      <trkpt lat="47.11442" lon="6.21808">
        <ele>539.103</ele>
        <time>2011-04-17T08:40:05Z</time>
      </trkpt>
      <trkpt lat="47.1145" lon="6.2181">
        <ele>539.539</ele>
        <time>2011-04-17T08:40:24Z</time>
      </trkpt>
      <trkpt lat="47.1145" lon="6.21811">
        <ele>539.884</ele>
        <time>2011-04-17T08:40:25Z</time>
      </trkpt>
      <trkpt lat="47.11447" lon="6.21817">
        <ele>540.482</ele>
        <time>2011-04-17T08:40:40Z</time>
      </trkpt>
      <trkpt lat="47.11444" lon="6.21824">
        <ele>540.198</ele>
        <time>2011-04-17T08:40:49Z</time>
      </trkpt>
      <trkpt lat="47.11448" lon="6.2183">
        <ele>540.19</ele>
        <time>2011-04-17T08:41:08Z</time>
      </trkpt>
      <trkpt lat="47.11448" lon="6.21833">
        <ele>540.282</ele>
        <time>2011-04-17T08:41:11Z</time>
      </trkpt>
      <trkpt lat="47.11449" lon="6.21841">
        <ele>540.149</ele>
        <time>2011-04-17T08:41:18Z</time>
      </trkpt>
      <trkpt lat="47.11449" lon="6.21849">
        <ele>540.434</ele>
        <time>2011-04-17T08:41:25Z</time>
      </trkpt>
      <trkpt lat="47.11449" lon="6.2185">
        <ele>540.536</ele>
        <time>2011-04-17T08:41:27Z</time>
      </trkpt>
      <trkpt lat="47.11449" lon="6.21853">
        <ele>540.658</ele>
        <time>2011-04-17T08:41:32Z</time>
      </trkpt>
      <trkpt lat="47.11448" lon="6.21869">
        <ele>541.027</ele>
        <time>2011-04-17T08:41:38Z</time>
      </trkpt>
      <trkpt lat="47.11447" lon="6.21875">
        <ele>541.43</ele>
        <time>2011-04-17T08:41:40Z</time>
      </trkpt>
      <trkpt lat="47.11445" lon="6.2188">
        <ele>541.908</ele>
        <time>2011-04-17T08:41:42Z</time>
      </trkpt>
      <trkpt lat="47.1144" lon="6.21895">
        <ele>543.544</ele>
        <time>2011-04-17T08:41:48Z</time>
      </trkpt>
      <trkpt lat="47.1144" lon="6.219">
        <ele>543.824</ele>
        <time>2011-04-17T08:41:50Z</time>
      </trkpt>
      <trkpt lat="47.11437" lon="6.21915">
        <ele>543.569</ele>
        <time>2011-04-17T08:41:54Z</time>
      </trkpt>
      <trkpt lat="47.11433" lon="6.21941">
        <ele>543.302</ele>
        <time>2011-04-17T08:42:00Z</time>
      </trkpt>
      <trkpt lat="47.11432" lon="6.21947">
        <ele>543.648</ele>
        <time>2011-04-17T08:42:02Z</time>
      </trkpt>
      <trkpt lat="47.11433" lon="6.2196">
        <ele>543.747</ele>
        <time>2011-04-17T08:42:06Z</time>
      </trkpt>
      <trkpt lat="47.11431" lon="6.21983">
        <ele>544.108</ele>
        <time>2011-04-17T08:42:14Z</time>
      </trkpt>
      <trkpt lat="47.1143" lon="6.22004">
        <ele>543.629</ele>
        <time>2011-04-17T08:42:20Z</time>
      </trkpt>
      <trkpt lat="47.11424" lon="6.22022">
        <ele>543.86</ele>
        <time>2011-04-17T08:42:26Z</time>
      </trkpt>
      <trkpt lat="47.11419" lon="6.22034">
        <ele>544.801</ele>
        <time>2011-04-17T08:42:32Z</time>
      </trkpt>
      <trkpt lat="47.11415" lon="6.22044">
        <ele>545.516</ele>
        <time>2011-04-17T08:42:37Z</time>
      </trkpt>
      <trkpt lat="47.1141" lon="6.22054">
        <ele>546.518</ele>
        <time>2011-04-17T08:42:43Z</time>
      </trkpt>
      <trkpt lat="47.11405" lon="6.22068">
        <ele>547.338</ele>
        <time>2011-04-17T08:42:49Z</time>
      </trkpt>
      <trkpt lat="47.114" lon="6.22084">
        <ele>548.411</ele>
        <time>2011-04-17T08:42:56Z</time>
      </trkpt>
      <trkpt lat="47.11397" lon="6.221">
        <ele>549.257</ele>
        <time>2011-04-17T08:43:03Z</time>
      </trkpt>
      <trkpt lat="47.11396" lon="6.22105">
        <ele>549.689</ele>
        <time>2011-04-17T08:43:06Z</time>
      </trkpt>
      <trkpt lat="47.11393" lon="6.2213">
        <ele>549.952</ele>
        <time>2011-04-17T08:43:13Z</time>
      </trkpt>
      <trkpt lat="47.1139" lon="6.22147">
        <ele>549.375</ele>
        <time>2011-04-17T08:43:17Z</time>
      </trkpt>
      <trkpt lat="47.11386" lon="6.22183">
        <ele>548.441</ele>
        <time>2011-04-17T08:43:23Z</time>
      </trkpt>
      <trkpt lat="47.1138" lon="6.22206">
        <ele>547.59</ele>
        <time>2011-04-17T08:43:26Z</time>
      </trkpt>
      <trkpt lat="47.11373" lon="6.22235">
        <ele>546.852</ele>
        <time>2011-04-17T08:43:31Z</time>
      </trkpt>
      <trkpt lat="47.11373" lon="6.2224">
        <ele>546.772</ele>
        <time>2011-04-17T08:43:32Z</time>
      </trkpt>
      <trkpt lat="47.11369" lon="6.22263">
        <ele>546.706</ele>
        <time>2011-04-17T08:43:37Z</time>
      </trkpt>
      <trkpt lat="47.11363" lon="6.22288">
        <ele>546.877</ele>
        <time>2011-04-17T08:43:43Z</time>
      </trkpt>
      <trkpt lat="47.11361" lon="6.22308">
        <ele>547.062</ele>
        <time>2011-04-17T08:43:48Z</time>
      </trkpt>
      <trkpt lat="47.11357" lon="6.22321">
        <ele>547.467</ele>
        <time>2011-04-17T08:43:52Z</time>
      </trkpt>
      <trkpt lat="47.11354" lon="6.2234">
        <ele>547.437</ele>
        <time>2011-04-17T08:43:59Z</time>
      </trkpt>
      <trkpt lat="47.11352" lon="6.22342">
        <ele>547.413</ele>
        <time>2011-04-17T08:44:00Z</time>
      </trkpt>
      <trkpt lat="47.1135" lon="6.22354">
        <ele>547.443</ele>
        <time>2011-04-17T08:44:04Z</time>
      </trkpt>
      <trkpt lat="47.1135" lon="6.22366">
        <ele>547.264</ele>
        <time>2011-04-17T08:44:07Z</time>
      </trkpt>
      <trkpt lat="47.11351" lon="6.22378">
        <ele>547.035</ele>
        <time>2011-04-17T08:44:10Z</time>
      </trkpt>
      <trkpt lat="47.11366" lon="6.22389">
        <ele>547.933</ele>
        <time>2011-04-17T08:44:15Z</time>
      </trkpt>
      <trkpt lat="47.11378" lon="6.22402">
        <ele>548.981</ele>
        <time>2011-04-17T08:44:20Z</time>
      </trkpt>
      <trkpt lat="47.11391" lon="6.22408">
        <ele>549.016</ele>
        <time>2011-04-17T08:44:25Z</time>
      </trkpt>
      <trkpt lat="47.11393" lon="6.2241">
        <ele>548.978</ele>
        <time>2011-04-17T08:44:28Z</time>
      </trkpt>
      <trkpt lat="47.11399" lon="6.22421">
        <ele>549.188</ele>
        <time>2011-04-17T08:44:47Z</time>
      </trkpt>
      <trkpt lat="47.11403" lon="6.22422">
        <ele>549.432</ele>
        <time>2011-04-17T08:44:54Z</time>
      </trkpt>
      <trkpt lat="47.11404" lon="6.22422">
        <ele>549.556</ele>
        <time>2011-04-17T08:44:56Z</time>
      </trkpt>
      <trkpt lat="47.11406" lon="6.22427">
        <ele>549.742</ele>
        <time>2011-04-17T08:45:02Z</time>
      </trkpt>
      <trkpt lat="47.11409" lon="6.2243">
        <ele>549.883</ele>
        <time>2011-04-17T08:45:06Z</time>
      </trkpt>
      <trkpt lat="47.1141" lon="6.22437">
        <ele>551.042</ele>
        <time>2011-04-17T08:45:13Z</time>
      </trkpt>
      <trkpt lat="47.11413" lon="6.22444">
        <ele>552.066</ele>
        <time>2011-04-17T08:45:20Z</time>
      </trkpt>
      <trkpt lat="47.11415" lon="6.22447">
        <ele>552.652</ele>
        <time>2011-04-17T08:45:23Z</time>
      </trkpt>
      <trkpt lat="47.11418" lon="6.22455">
        <ele>553.609</ele>
        <time>2011-04-17T08:45:30Z</time>
      </trkpt>
      <trkpt lat="47.11421" lon="6.22462">
        <ele>554.769</ele>
        <time>2011-04-17T08:45:37Z</time>
      </trkpt>
      <trkpt lat="47.11425" lon="6.22468">
        <ele>556.197</ele>
        <time>2011-04-17T08:45:44Z</time>
      </trkpt>
      <trkpt lat="47.11427" lon="6.22472">
        <ele>557.032</ele>
        <time>2011-04-17T08:45:48Z</time>
      </trkpt>
      <trkpt lat="47.1143" lon="6.22476">
        <ele>558.561</ele>
        <time>2011-04-17T08:45:54Z</time>
      </trkpt>
      <trkpt lat="47.11435" lon="6.22486">
        <ele>559.964</ele>
        <time>2011-04-17T08:46:03Z</time>
      </trkpt>
      <trkpt lat="47.11436" lon="6.22489">
        <ele>560.45</ele>
        <time>2011-04-17T08:46:07Z</time>
      </trkpt>
      <trkpt lat="47.11438" lon="6.22497">
        <ele>561.063</ele>
        <time>2011-04-17T08:46:13Z</time>
      </trkpt>
      <trkpt lat="47.11441" lon="6.22507">
        <ele>562.091</ele>
        <time>2011-04-17T08:46:20Z</time>
      </trkpt>
      <trkpt lat="47.11441" lon="6.22512">
        <ele>562.524</ele>
        <time>2011-04-17T08:46:24Z</time>
      </trkpt>
      <trkpt lat="47.11444" lon="6.22525">
        <ele>563.332</ele>
        <time>2011-04-17T08:46:32Z</time>
      </trkpt>
      <trkpt lat="47.11445" lon="6.22531">
        <ele>563.883</ele>
        <time>2011-04-17T08:46:35Z</time>
      </trkpt>
      <trkpt lat="47.11448" lon="6.22538">
        <ele>564.46</ele>
        <time>2011-04-17T08:46:40Z</time>
      </trkpt>
      <trkpt lat="47.1145" lon="6.22542">
        <ele>564.967</ele>
        <time>2011-04-17T08:46:43Z</time>
      </trkpt>
      <trkpt lat="47.11453" lon="6.22554">
        <ele>565.868</ele>
        <time>2011-04-17T08:46:50Z</time>
      </trkpt>
      <trkpt lat="47.11457" lon="6.22564">
        <ele>567.14</ele>
        <time>2011-04-17T08:46:57Z</time>
      </trkpt>
      <trkpt lat="47.11457" lon="6.22566">
        <ele>567.527</ele>
        <time>2011-04-17T08:46:59Z</time>
      </trkpt>
      <trkpt lat="47.11459" lon="6.22579">
        <ele>568.928</ele>
        <time>2011-04-17T08:47:08Z</time>
      </trkpt>
      <trkpt lat="47.11459" lon="6.22581">
        <ele>569.076</ele>
        <time>2011-04-17T08:47:09Z</time>
      </trkpt>
      <trkpt lat="47.11462" lon="6.22586">
        <ele>569.744</ele>
        <time>2011-04-17T08:47:13Z</time>
      </trkpt>
      <trkpt lat="47.11463" lon="6.22593">
        <ele>570.627</ele>
        <time>2011-04-17T08:47:18Z</time>
      </trkpt>
      <trkpt lat="47.11465" lon="6.22608">
        <ele>572.102</ele>
        <time>2011-04-17T08:47:28Z</time>
      </trkpt>
      <trkpt lat="47.11467" lon="6.2262">
        <ele>573.492</ele>
        <time>2011-04-17T08:47:37Z</time>
      </trkpt>
      <trkpt lat="47.11468" lon="6.22623">
        <ele>573.692</ele>
        <time>2011-04-17T08:47:39Z</time>
      </trkpt>
      <trkpt lat="47.11472" lon="6.22635">
        <ele>574.779</ele>
        <time>2011-04-17T08:47:48Z</time>
      </trkpt>
      <trkpt lat="47.11473" lon="6.22638">
        <ele>575.136</ele>
        <time>2011-04-17T08:47:50Z</time>
      </trkpt>
      <trkpt lat="47.11477" lon="6.22648">
        <ele>576.067</ele>
        <time>2011-04-17T08:47:58Z</time>
      </trkpt>
      <trkpt lat="47.11479" lon="6.22648">
        <ele>576.258</ele>
        <time>2011-04-17T08:48:01Z</time>
      </trkpt>
      <trkpt lat="47.11481" lon="6.22651">
        <ele>576.395</ele>
        <time>2011-04-17T08:48:11Z</time>
      </trkpt>
      <trkpt lat="47.11482" lon="6.22654">
        <ele>576.815</ele>
        <time>2011-04-17T08:48:17Z</time>
      </trkpt>
      <trkpt lat="47.11485" lon="6.22665">
        <ele>578.239</ele>
        <time>2011-04-17T08:48:27Z</time>
      </trkpt>
      <trkpt lat="47.11487" lon="6.22668">
        <ele>578.673</ele>
        <time>2011-04-17T08:48:29Z</time>
      </trkpt>
      <trkpt lat="47.11489" lon="6.22675">
        <ele>579.844</ele>
        <time>2011-04-17T08:48:34Z</time>
      </trkpt>
      <trkpt lat="47.11492" lon="6.22686">
        <ele>581.501</ele>
        <time>2011-04-17T08:48:42Z</time>
      </trkpt>
      <trkpt lat="47.11493" lon="6.2269">
        <ele>582.009</ele>
        <time>2011-04-17T08:48:44Z</time>
      </trkpt>
      <trkpt lat="47.11496" lon="6.22697">
        <ele>583.034</ele>
        <time>2011-04-17T08:48:51Z</time>
      </trkpt>
      <trkpt lat="47.11496" lon="6.227">
        <ele>583.586</ele>
        <time>2011-04-17T08:48:54Z</time>
      </trkpt>
      <trkpt lat="47.11499" lon="6.22706">
        <ele>584.835</ele>
        <time>2011-04-17T08:49:00Z</time>
      </trkpt>
      <trkpt lat="47.11501" lon="6.22715">
        <ele>585.698</ele>
        <time>2011-04-17T08:49:07Z</time>
      </trkpt>
      <trkpt lat="47.11501" lon="6.22728">
        <ele>587.199</ele>
        <time>2011-04-17T08:49:15Z</time>
      </trkpt>
      <trkpt lat="47.115" lon="6.22741">
        <ele>588.862</ele>
        <time>2011-04-17T08:49:25Z</time>
      </trkpt>
      <trkpt lat="47.11501" lon="6.22748">
        <ele>589.904</ele>
        <time>2011-04-17T08:49:32Z</time>
      </trkpt>
      <trkpt lat="47.115" lon="6.22759">
        <ele>591.34</ele>
        <time>2011-04-17T08:49:41Z</time>
      </trkpt>
      <trkpt lat="47.11501" lon="6.22763">
        <ele>592.13</ele>
        <time>2011-04-17T08:49:45Z</time>
      </trkpt>
      <trkpt lat="47.11503" lon="6.22766">
        <ele>592.582</ele>
        <time>2011-04-17T08:49:48Z</time>
      </trkpt>
      <trkpt lat="47.11505" lon="6.22768">
        <ele>592.865</ele>
        <time>2011-04-17T08:49:52Z</time>
      </trkpt>
      <trkpt lat="47.11511" lon="6.22772">
        <ele>593.829</ele>
        <time>2011-04-17T08:49:59Z</time>
      </trkpt>
      <trkpt lat="47.11517" lon="6.22778">
        <ele>595.188</ele>
        <time>2011-04-17T08:50:08Z</time>
      </trkpt>
      <trkpt lat="47.11523" lon="6.22782">
        <ele>596.447</ele>
        <time>2011-04-17T08:50:16Z</time>
      </trkpt>
      <trkpt lat="47.11535" lon="6.22788">
        <ele>598.262</ele>
        <time>2011-04-17T08:50:27Z</time>
      </trkpt>
      <trkpt lat="47.11545" lon="6.22791">
        <ele>599.523</ele>
        <time>2011-04-17T08:50:36Z</time>
      </trkpt>
      <trkpt lat="47.11552" lon="6.22793">
        <ele>600.004</ele>
        <time>2011-04-17T08:50:44Z</time>
      </trkpt>
      <trkpt lat="47.1156" lon="6.22794">
        <ele>600.582</ele>
        <time>2011-04-17T08:50:52Z</time>
      </trkpt>
      <trkpt lat="47.11567" lon="6.22793">
        <ele>601.368</ele>
        <time>2011-04-17T08:51:00Z</time>
      </trkpt>
      <trkpt lat="47.11568" lon="6.22793">
        <ele>601.702</ele>
        <time>2011-04-17T08:51:02Z</time>
      </trkpt>
      <trkpt lat="47.11574" lon="6.22779">
        <ele>602.036</ele>
        <time>2011-04-17T08:51:10Z</time>
      </trkpt>
      <trkpt lat="47.11578" lon="6.2275">
        <ele>602.508</ele>
        <time>2011-04-17T08:51:17Z</time>
      </trkpt>
      <trkpt lat="47.11584" lon="6.22711">
        <ele>602.121</ele>
        <time>2011-04-17T08:51:24Z</time>
      </trkpt>
      <trkpt lat="47.11585" lon="6.22705">
        <ele>601.965</ele>
        <time>2011-04-17T08:51:25Z</time>
      </trkpt>
      <trkpt lat="47.11595" lon="6.22647">
        <ele>601.473</ele>
        <time>2011-04-17T08:51:35Z</time>
      </trkpt>
      <trkpt lat="47.11603" lon="6.22599">
        <ele>601.533</ele>
        <time>2011-04-17T08:51:43Z</time>
      </trkpt>
      <trkpt lat="47.11618" lon="6.22554">
        <ele>602.035</ele>
        <time>2011-04-17T08:51:51Z</time>
      </trkpt>
      <trkpt lat="47.11629" lon="6.22525">
        <ele>602.479</ele>
        <time>2011-04-17T08:51:56Z</time>
      </trkpt>
      <trkpt lat="47.11646" lon="6.22474">
        <ele>602.33</ele>
        <time>2011-04-17T08:52:05Z</time>
      </trkpt>
      <trkpt lat="47.11666" lon="6.22423">
        <ele>602.169</ele>
        <time>2011-04-17T08:52:14Z</time>
      </trkpt>
      <trkpt lat="47.11683" lon="6.22373">
        <ele>601.956</ele>
        <time>2011-04-17T08:52:23Z</time>
      </trkpt>
      <trkpt lat="47.11698" lon="6.22358">
        <ele>601.122</ele>
        <time>2011-04-17T08:52:27Z</time>
      </trkpt>
      <trkpt lat="47.11703" lon="6.22356">
        <ele>600.815</ele>
        <time>2011-04-17T08:52:28Z</time>
      </trkpt>
      <trkpt lat="47.11718" lon="6.22358">
        <ele>599.209</ele>
        <time>2011-04-17T08:52:31Z</time>
      </trkpt>
      <trkpt lat="47.11733" lon="6.22364">
        <ele>597.134</ele>
        <time>2011-04-17T08:52:33Z</time>
      </trkpt>
      <trkpt lat="47.11774" lon="6.22376">
        <ele>590.874</ele>
        <time>2011-04-17T08:52:37Z</time>
      </trkpt>
      <trkpt lat="47.1181" lon="6.22394">
        <ele>586.454</ele>
        <time>2011-04-17T08:52:41Z</time>
      </trkpt>
      <trkpt lat="47.11818" lon="6.22399">
        <ele>585.939</ele>
        <time>2011-04-17T08:52:42Z</time>
      </trkpt>
      <trkpt lat="47.11842" lon="6.22419">
        <ele>584.65</ele>
        <time>2011-04-17T08:52:46Z</time>
      </trkpt>
      <trkpt lat="47.11851" lon="6.22426">
        <ele>584.665</ele>
        <time>2011-04-17T08:52:48Z</time>
      </trkpt>
      <trkpt lat="47.11867" lon="6.22443">
        <ele>584.544</ele>
        <time>2011-04-17T08:52:53Z</time>
      </trkpt>
      <trkpt lat="47.1187" lon="6.22447">
        <ele>584.531</ele>
        <time>2011-04-17T08:52:54Z</time>
      </trkpt>
      <trkpt lat="47.11887" lon="6.22478">
        <ele>583.946</ele>
        <time>2011-04-17T08:53:00Z</time>
      </trkpt>
      <trkpt lat="47.119" lon="6.22491">
        <ele>583.223</ele>
        <time>2011-04-17T08:53:03Z</time>
      </trkpt>
      <trkpt lat="47.11904" lon="6.22496">
        <ele>582.954</ele>
        <time>2011-04-17T08:53:04Z</time>
      </trkpt>
      <trkpt lat="47.11921" lon="6.22522">
        <ele>582.391</ele>
        <time>2011-04-17T08:53:09Z</time>
      </trkpt>
      <trkpt lat="47.11935" lon="6.2255">
        <ele>582.868</ele>
        <time>2011-04-17T08:53:14Z</time>
      </trkpt>
      <trkpt lat="47.1194" lon="6.22561">
        <ele>583.006</ele>
        <time>2011-04-17T08:53:16Z</time>
      </trkpt>
      <trkpt lat="47.11953" lon="6.22592">
        <ele>583.953</ele>
        <time>2011-04-17T08:53:22Z</time>
      </trkpt>
      <trkpt lat="47.11961" lon="6.22607">
        <ele>584.517</ele>
        <time>2011-04-17T08:53:26Z</time>
      </trkpt>
      <trkpt lat="47.11974" lon="6.22626">
        <ele>584.821</ele>
        <time>2011-04-17T08:53:32Z</time>
      </trkpt>
      <trkpt lat="47.11984" lon="6.22641">
        <ele>584.734</ele>
        <time>2011-04-17T08:53:36Z</time>
      </trkpt>
      <trkpt lat="47.1199" lon="6.22648">
        <ele>584.729</ele>
        <time>2011-04-17T08:53:38Z</time>
      </trkpt>
      <trkpt lat="47.11997" lon="6.22668">
        <ele>585.009</ele>
        <time>2011-04-17T08:53:43Z</time>
      </trkpt>
      <trkpt lat="47.12008" lon="6.22691">
        <ele>586.325</ele>
        <time>2011-04-17T08:53:50Z</time>
      </trkpt>
      <trkpt lat="47.1202" lon="6.2271">
        <ele>586.517</ele>
        <time>2011-04-17T08:53:55Z</time>
      </trkpt>
      <trkpt lat="47.12026" lon="6.22718">
        <ele>586.311</ele>
        <time>2011-04-17T08:53:57Z</time>
      </trkpt>
      <trkpt lat="47.12042" lon="6.22741">
        <ele>586.402</ele>
        <time>2011-04-17T08:54:02Z</time>
      </trkpt>
      <trkpt lat="47.12057" lon="6.22762">
        <ele>586.46</ele>
        <time>2011-04-17T08:54:08Z</time>
      </trkpt>
      <trkpt lat="47.12067" lon="6.22779">
        <ele>586.988</ele>
        <time>2011-04-17T08:54:13Z</time>
      </trkpt>
      <trkpt lat="47.12077" lon="6.22795">
        <ele>586.92</ele>
        <time>2011-04-17T08:54:18Z</time>
      </trkpt>
      <trkpt lat="47.12087" lon="6.22813">
        <ele>587.52</ele>
        <time>2011-04-17T08:54:23Z</time>
      </trkpt>
      <trkpt lat="47.12093" lon="6.22827">
        <ele>588.023</ele>
        <time>2011-04-17T08:54:27Z</time>
      </trkpt>
      <trkpt lat="47.12101" lon="6.22848">
        <ele>588.538</ele>
        <time>2011-04-17T08:54:32Z</time>
      </trkpt>
      <trkpt lat="47.12103" lon="6.2286">
        <ele>588.572</ele>
        <time>2011-04-17T08:54:35Z</time>
      </trkpt>
      <trkpt lat="47.12106" lon="6.22875">
        <ele>588.221</ele>
        <time>2011-04-17T08:54:40Z</time>
      </trkpt>
      <trkpt lat="47.1211" lon="6.22884">
        <ele>588.954</ele>
        <time>2011-04-17T08:54:45Z</time>
      </trkpt>
      <trkpt lat="47.12115" lon="6.22894">
        <ele>590.037</ele>
        <time>2011-04-17T08:54:51Z</time>
      </trkpt>
      <trkpt lat="47.12117" lon="6.22898">
        <ele>590.489</ele>
        <time>2011-04-17T08:54:53Z</time>
      </trkpt>
      <trkpt lat="47.1212" lon="6.22906">
        <ele>591.457</ele>
        <time>2011-04-17T08:54:58Z</time>
      </trkpt>
      <trkpt lat="47.12127" lon="6.22916">
        <ele>592.115</ele>
        <time>2011-04-17T08:55:03Z</time>
      </trkpt>
      <trkpt lat="47.12135" lon="6.22938">
        <ele>593.31</ele>
        <time>2011-04-17T08:55:13Z</time>
      </trkpt>
      <trkpt lat="47.12144" lon="6.22951">
        <ele>594.253</ele>
        <time>2011-04-17T08:55:20Z</time>
      </trkpt>
      <trkpt lat="47.12155" lon="6.22966">
        <ele>595.529</ele>
        <time>2011-04-17T08:55:29Z</time>
      </trkpt>
      <trkpt lat="47.12164" lon="6.22975">
        <ele>596.925</ele>
        <time>2011-04-17T08:55:37Z</time>
      </trkpt>
      <trkpt lat="47.12173" lon="6.22984">
        <ele>599.202</ele>
        <time>2011-04-17T08:55:45Z</time>
      </trkpt>
      <trkpt lat="47.1218" lon="6.22987">
        <ele>600.678</ele>
        <time>2011-04-17T08:55:51Z</time>
      </trkpt>
      <trkpt lat="47.12192" lon="6.2298">
        <ele>602.05</ele>
        <time>2011-04-17T08:55:59Z</time>
      </trkpt>
      <trkpt lat="47.12206" lon="6.22965">
        <ele>602.744</ele>
        <time>2011-04-17T08:56:07Z</time>
      </trkpt>
      <trkpt lat="47.1222" lon="6.22945">
        <ele>603.16</ele>
        <time>2011-04-17T08:56:14Z</time>
      </trkpt>
      <trkpt lat="47.12234" lon="6.22924">
        <ele>603.011</ele>
        <time>2011-04-17T08:56:21Z</time>
      </trkpt>
      <trkpt lat="47.12238" lon="6.22918">
        <ele>603.046</ele>
        <time>2011-04-17T08:56:23Z</time>
      </trkpt>
      <trkpt lat="47.1225" lon="6.22914">
        <ele>602.814</ele>
        <time>2011-04-17T08:56:28Z</time>
      </trkpt>
      <trkpt lat="47.12254" lon="6.22919">
        <ele>602.664</ele>
        <time>2011-04-17T08:56:30Z</time>
      </trkpt>
      <trkpt lat="47.12259" lon="6.22957">
        <ele>603.472</ele>
        <time>2011-04-17T08:56:39Z</time>
      </trkpt>
      <trkpt lat="47.12266" lon="6.22979">
        <ele>604.114</ele>
        <time>2011-04-17T08:56:45Z</time>
      </trkpt>
      <trkpt lat="47.12272" lon="6.22985">
        <ele>604.539</ele>
        <time>2011-04-17T08:56:48Z</time>
      </trkpt>
      <trkpt lat="47.12281" lon="6.22979">
        <ele>604.802</ele>
        <time>2011-04-17T08:56:52Z</time>
      </trkpt>
      <trkpt lat="47.12299" lon="6.22962">
        <ele>604.466</ele>
        <time>2011-04-17T08:56:59Z</time>
      </trkpt>
      <trkpt lat="47.12315" lon="6.2294">
        <ele>604.393</ele>
        <time>2011-04-17T08:57:05Z</time>
      </trkpt>
      <trkpt lat="47.12327" lon="6.22923">
        <ele>603.947</ele>
        <time>2011-04-17T08:57:09Z</time>
      </trkpt>
      <trkpt lat="47.12352" lon="6.22873">
        <ele>603.642</ele>
        <time>2011-04-17T08:57:18Z</time>
      </trkpt>
      <trkpt lat="47.12364" lon="6.22841">
        <ele>603.491</ele>
        <time>2011-04-17T08:57:23Z</time>
      </trkpt>
      <trkpt lat="47.12387" lon="6.22769">
        <ele>603.29</ele>
        <time>2011-04-17T08:57:34Z</time>
      </trkpt>
      <trkpt lat="47.12404" lon="6.22735">
        <ele>603.514</ele>
        <time>2011-04-17T08:57:40Z</time>
      </trkpt>
      <trkpt lat="47.12418" lon="6.22706">
        <ele>603.489</ele>
        <time>2011-04-17T08:57:45Z</time>
      </trkpt>
      <trkpt lat="47.12426" lon="6.22665">
        <ele>604.163</ele>
        <time>2011-04-17T08:57:51Z</time>
      </trkpt>
      <trkpt lat="47.12427" lon="6.22614">
        <ele>604.217</ele>
        <time>2011-04-17T08:57:58Z</time>
      </trkpt>
      <trkpt lat="47.12429" lon="6.2252">
        <ele>604.814</ele>
        <time>2011-04-17T08:58:11Z</time>
      </trkpt>
      <trkpt lat="47.1243" lon="6.22453">
        <ele>604.867</ele>
        <time>2011-04-17T08:58:20Z</time>
      </trkpt>
      <trkpt lat="47.12431" lon="6.22371">
        <ele>604.822</ele>
        <time>2011-04-17T08:58:30Z</time>
      </trkpt>
      <trkpt lat="47.12425" lon="6.22284">
        <ele>603.938</ele>
        <time>2011-04-17T08:58:40Z</time>
      </trkpt>
      <trkpt lat="47.12419" lon="6.22225">
        <ele>603.432</ele>
        <time>2011-04-17T08:58:47Z</time>
      </trkpt>
      <trkpt lat="47.12413" lon="6.22152">
        <ele>602.816</ele>
        <time>2011-04-17T08:58:55Z</time>
      </trkpt>
      <trkpt lat="47.12412" lon="6.2205">
        <ele>601.964</ele>
        <time>2011-04-17T08:59:06Z</time>
      </trkpt>
      <trkpt lat="47.1241" lon="6.21977">
        <ele>600.953</ele>
        <time>2011-04-17T08:59:14Z</time>
      </trkpt>
      <trkpt lat="47.12408" lon="6.21918">
        <ele>600.49</ele>
        <time>2011-04-17T08:59:21Z</time>
      </trkpt>
      <trkpt lat="47.1241" lon="6.2184">
        <ele>599.977</ele>
        <time>2011-04-17T08:59:30Z</time>
      </trkpt>
      <trkpt lat="47.12417" lon="6.21798">
        <ele>599.827</ele>
        <time>2011-04-17T08:59:35Z</time>
      </trkpt>
      <trkpt lat="47.12425" lon="6.21776">
        <ele>599.874</ele>
        <time>2011-04-17T08:59:38Z</time>
      </trkpt>
      <trkpt lat="47.12452" lon="6.21734">
        <ele>600.319</ele>
        <time>2011-04-17T08:59:45Z</time>
      </trkpt>
      <trkpt lat="47.12472" lon="6.21707">
        <ele>600.828</ele>
        <time>2011-04-17T08:59:50Z</time>
      </trkpt>
      <trkpt lat="47.12475" lon="6.2168">
        <ele>600.987</ele>
        <time>2011-04-17T08:59:54Z</time>
      </trkpt>
      <trkpt lat="47.12468" lon="6.21678">
        <ele>601.053</ele>
        <time>2011-04-17T08:59:56Z</time>
      </trkpt>
      <trkpt lat="47.1246" lon="6.21678">
        <ele>601.45</ele>
        <time>2011-04-17T08:59:58Z</time>
      </trkpt>
      <trkpt lat="47.12443" lon="6.21663">
        <ele>601.614</ele>
        <time>2011-04-17T09:00:02Z</time>
      </trkpt>
      <trkpt lat="47.12439" lon="6.21658">
        <ele>601.567</ele>
        <time>2011-04-17T09:00:03Z</time>
      </trkpt>
      <trkpt lat="47.12411" lon="6.2162">
        <ele>602.031</ele>
        <time>2011-04-17T09:00:11Z</time>
      </trkpt>
      <trkpt lat="47.1239" lon="6.2159">
        <ele>602.056</ele>
        <time>2011-04-17T09:00:18Z</time>
      </trkpt>
      <trkpt lat="47.12378" lon="6.21573">
        <ele>602.003</ele>
        <time>2011-04-17T09:00:22Z</time>
      </trkpt>
      <trkpt lat="47.12367" lon="6.21562">
        <ele>601.801</ele>
        <time>2011-04-17T09:00:25Z</time>
      </trkpt>
      <trkpt lat="47.12329" lon="6.21533">
        <ele>600.248</ele>
        <time>2011-04-17T09:00:34Z</time>
      </trkpt>
      <trkpt lat="47.12295" lon="6.21505">
        <ele>598.902</ele>
        <time>2011-04-17T09:00:42Z</time>
      </trkpt>
      <trkpt lat="47.12291" lon="6.21501">
        <ele>598.872</ele>
        <time>2011-04-17T09:00:43Z</time>
      </trkpt>
      <trkpt lat="47.1227" lon="6.21496">
        <ele>598.711</ele>
        <time>2011-04-17T09:00:48Z</time>
      </trkpt>
      <trkpt lat="47.12247" lon="6.21502">
        <ele>598.017</ele>
        <time>2011-04-17T09:00:53Z</time>
      </trkpt>
      <trkpt lat="47.1223" lon="6.215">
        <ele>597.432</ele>
        <time>2011-04-17T09:00:57Z</time>
      </trkpt>
      <trkpt lat="47.12215" lon="6.21496">
        <ele>597.797</ele>
        <time>2011-04-17T09:01:01Z</time>
      </trkpt>
      <trkpt lat="47.12193" lon="6.21484">
        <ele>598.822</ele>
        <time>2011-04-17T09:01:06Z</time>
      </trkpt>
      <trkpt lat="47.1219" lon="6.2148">
        <ele>598.887</ele>
        <time>2011-04-17T09:01:07Z</time>
      </trkpt>
      <trkpt lat="47.12172" lon="6.2146">
        <ele>599.066</ele>
        <time>2011-04-17T09:01:12Z</time>
      </trkpt>
      <trkpt lat="47.12153" lon="6.21441">
        <ele>599.51</ele>
        <time>2011-04-17T09:01:18Z</time>
      </trkpt>
      <trkpt lat="47.12135" lon="6.21432">
        <ele>599.083</ele>
        <time>2011-04-17T09:01:23Z</time>
      </trkpt>
      <trkpt lat="47.12131" lon="6.21431">
        <ele>598.951</ele>
        <time>2011-04-17T09:01:24Z</time>
      </trkpt>
      <trkpt lat="47.12111" lon="6.21432">
        <ele>598.382</ele>
        <time>2011-04-17T09:01:30Z</time>
      </trkpt>
      <trkpt lat="47.121" lon="6.21428">
        <ele>597.807</ele>
        <time>2011-04-17T09:01:33Z</time>
      </trkpt>
      <trkpt lat="47.12076" lon="6.21399">
        <ele>597.242</ele>
        <time>2011-04-17T09:01:41Z</time>
      </trkpt>
      <trkpt lat="47.12071" lon="6.21389">
        <ele>597.097</ele>
        <time>2011-04-17T09:01:43Z</time>
      </trkpt>
      <trkpt lat="47.12062" lon="6.21366">
        <ele>597.014</ele>
        <time>2011-04-17T09:01:48Z</time>
      </trkpt>
      <trkpt lat="47.12049" lon="6.21339">
        <ele>596.247</ele>
        <time>2011-04-17T09:01:54Z</time>
      </trkpt>
      <trkpt lat="47.12039" lon="6.21316">
        <ele>595.509</ele>
        <time>2011-04-17T09:01:59Z</time>
      </trkpt>
      <trkpt lat="47.12038" lon="6.21289">
        <ele>595.268</ele>
        <time>2011-04-17T09:02:04Z</time>
      </trkpt>
      <trkpt lat="47.12037" lon="6.21283">
        <ele>595.404</ele>
        <time>2011-04-17T09:02:05Z</time>
      </trkpt>
      <trkpt lat="47.1203" lon="6.21269">
        <ele>595.681</ele>
        <time>2011-04-17T09:02:08Z</time>
      </trkpt>
      <trkpt lat="47.12008" lon="6.21228">
        <ele>593.228</ele>
        <time>2011-04-17T09:02:14Z</time>
      </trkpt>
      <trkpt lat="47.12005" lon="6.2122">
        <ele>592.683</ele>
        <time>2011-04-17T09:02:15Z</time>
      </trkpt>
      <trkpt lat="47.11987" lon="6.21161">
        <ele>591.46</ele>
        <time>2011-04-17T09:02:22Z</time>
      </trkpt>
      <trkpt lat="47.11974" lon="6.21102">
        <ele>591.25</ele>
        <time>2011-04-17T09:02:30Z</time>
      </trkpt>
      <trkpt lat="47.11962" lon="6.21061">
        <ele>590.733</ele>
        <time>2011-04-17T09:02:37Z</time>
      </trkpt>
      <trkpt lat="47.1196" lon="6.21037">
        <ele>590.617</ele>
        <time>2011-04-17T09:02:41Z</time>
      </trkpt>
      <trkpt lat="47.11965" lon="6.20999">
        <ele>590.741</ele>
        <time>2011-04-17T09:02:48Z</time>
      </trkpt>
      <trkpt lat="47.11955" lon="6.20985">
        <ele>590.373</ele>
        <time>2011-04-17T09:02:52Z</time>
      </trkpt>
      <trkpt lat="47.11938" lon="6.20974">
        <ele>589.201</ele>
        <time>2011-04-17T09:02:56Z</time>
      </trkpt>
      <trkpt lat="47.11908" lon="6.20961">
        <ele>587.717</ele>
        <time>2011-04-17T09:03:01Z</time>
      </trkpt>
      <trkpt lat="47.11888" lon="6.2095">
        <ele>586.263</ele>
        <time>2011-04-17T09:03:05Z</time>
      </trkpt>
      <trkpt lat="47.11885" lon="6.20949">
        <ele>585.837</ele>
        <time>2011-04-17T09:03:06Z</time>
      </trkpt>
      <trkpt lat="47.11878" lon="6.20939">
        <ele>584.346</ele>
        <time>2011-04-17T09:03:10Z</time>
      </trkpt>
      <trkpt lat="47.11866" lon="6.20909">
        <ele>581.195</ele>
        <time>2011-04-17T09:03:15Z</time>
      </trkpt>
      <trkpt lat="47.11865" lon="6.20903">
        <ele>580.964</ele>
        <time>2011-04-17T09:03:16Z</time>
      </trkpt>
      <trkpt lat="47.11868" lon="6.20888">
        <ele>581.161</ele>
        <time>2011-04-17T09:03:19Z</time>
      </trkpt>
      <trkpt lat="47.11868" lon="6.20884">
        <ele>581.552</ele>
        <time>2011-04-17T09:03:20Z</time>
      </trkpt>
      <trkpt lat="47.11867" lon="6.20862">
        <ele>583.721</ele>
        <time>2011-04-17T09:03:26Z</time>
      </trkpt>
      <trkpt lat="47.11873" lon="6.20848">
        <ele>585.122</ele>
        <time>2011-04-17T09:03:31Z</time>
      </trkpt>
      <trkpt lat="47.11874" lon="6.20832">
        <ele>585.363</ele>
        <time>2011-04-17T09:03:34Z</time>
      </trkpt>
      <trkpt lat="47.11863" lon="6.20814">
        <ele>585.723</ele>
        <time>2011-04-17T09:03:39Z</time>
      </trkpt>
      <trkpt lat="47.11855" lon="6.20788">
        <ele>585.167</ele>
        <time>2011-04-17T09:03:44Z</time>
      </trkpt>
      <trkpt lat="47.1185" lon="6.20762">
        <ele>584.722</ele>
        <time>2011-04-17T09:03:49Z</time>
      </trkpt>
      <trkpt lat="47.11846" lon="6.20724">
        <ele>585.028</ele>
        <time>2011-04-17T09:03:57Z</time>
      </trkpt>
      <trkpt lat="47.11845" lon="6.20715">
        <ele>584.875</ele>
        <time>2011-04-17T09:04:00Z</time>
      </trkpt>
      <trkpt lat="47.11842" lon="6.20688">
        <ele>584.759</ele>
        <time>2011-04-17T09:04:06Z</time>
      </trkpt>
      <trkpt lat="47.11838" lon="6.20654">
        <ele>584.567</ele>
        <time>2011-04-17T09:04:13Z</time>
      </trkpt>
      <trkpt lat="47.11838" lon="6.20634">
        <ele>584.531</ele>
        <time>2011-04-17T09:04:18Z</time>
      </trkpt>
      <trkpt lat="47.11837" lon="6.20623">
        <ele>584.68</ele>
        <time>2011-04-17T09:04:22Z</time>
      </trkpt>
      <trkpt lat="47.11838" lon="6.20621">
        <ele>584.94</ele>
        <time>2011-04-17T09:04:26Z</time>
      </trkpt>
      <trkpt lat="47.11837" lon="6.20612">
        <ele>585.111</ele>
        <time>2011-04-17T09:04:48Z</time>
      </trkpt>
      <trkpt lat="47.11836" lon="6.20611">
        <ele>584.991</ele>
        <time>2011-04-17T09:04:50Z</time>
      </trkpt>
      <trkpt lat="47.11834" lon="6.20602">
        <ele>585.129</ele>
        <time>2011-04-17T09:05:12Z</time>
      </trkpt>
      <trkpt lat="47.11832" lon="6.20595">
        <ele>584.681</ele>
        <time>2011-04-17T09:05:18Z</time>
      </trkpt>
      <trkpt lat="47.11831" lon="6.20592">
        <ele>584.595</ele>
        <time>2011-04-17T09:05:21Z</time>
      </trkpt>
      <trkpt lat="47.11831" lon="6.20591">
        <ele>584.535</ele>
        <time>2011-04-17T09:05:25Z</time>
      </trkpt>
      <trkpt lat="47.11824" lon="6.20584">
        <ele>584.335</ele>
        <time>2011-04-17T09:06:25Z</time>
      </trkpt>
      <trkpt lat="47.11815" lon="6.20574">
        <ele>582.736</ele>
        <time>2011-04-17T09:06:30Z</time>
      </trkpt>
      <trkpt lat="47.11813" lon="6.20573">
        <ele>581.754</ele>
        <time>2011-04-17T09:06:32Z</time>
      </trkpt>
      <trkpt lat="47.11809" lon="6.20562">
        <ele>579.798</ele>
        <time>2011-04-17T09:06:36Z</time>
      </trkpt>
      <trkpt lat="47.11808" lon="6.20558">
        <ele>579.8</ele>
        <time>2011-04-17T09:06:39Z</time>
      </trkpt>
      <trkpt lat="47.11807" lon="6.20553">
        <ele>580.507</ele>
        <time>2011-04-17T09:06:55Z</time>
      </trkpt>
      <trkpt lat="47.11807" lon="6.20551">
        <ele>580.686</ele>
        <time>2011-04-17T09:06:56Z</time>
      </trkpt>
      <trkpt lat="47.11806" lon="6.20543">
        <ele>581.542</ele>
        <time>2011-04-17T09:07:02Z</time>
      </trkpt>
      <trkpt lat="47.11805" lon="6.2054">
        <ele>581.539</ele>
        <time>2011-04-17T09:07:04Z</time>
      </trkpt>
      <trkpt lat="47.11805" lon="6.20539">
        <ele>581.049</ele>
        <time>2011-04-17T09:07:09Z</time>
      </trkpt>
      <trkpt lat="47.118" lon="6.20529">
        <ele>582.173</ele>
        <time>2011-04-17T09:08:28Z</time>
      </trkpt>
      <trkpt lat="47.11799" lon="6.20515">
        <ele>582.798</ele>
        <time>2011-04-17T09:08:34Z</time>
      </trkpt>
      <trkpt lat="47.11793" lon="6.20499">
        <ele>582.803</ele>
        <time>2011-04-17T09:08:40Z</time>
      </trkpt>
      <trkpt lat="47.1179" lon="6.20486">
        <ele>582.667</ele>
        <time>2011-04-17T09:08:44Z</time>
      </trkpt>
      <trkpt lat="47.11787" lon="6.20476">
        <ele>582.618</ele>
        <time>2011-04-17T09:08:48Z</time>
      </trkpt>
      <trkpt lat="47.11787" lon="6.20475">
        <ele>582.616</ele>
        <time>2011-04-17T09:08:49Z</time>
      </trkpt>
      <trkpt lat="47.11784" lon="6.20467">
        <ele>582.412</ele>
        <time>2011-04-17T09:08:56Z</time>
      </trkpt>
      <trkpt lat="47.11783" lon="6.20465">
        <ele>582.241</ele>
        <time>2011-04-17T09:08:57Z</time>
      </trkpt>
      <trkpt lat="47.11782" lon="6.20463">
        <ele>581.706</ele>
        <time>2011-04-17T09:08:59Z</time>
      </trkpt>
      <trkpt lat="47.11779" lon="6.20451">
        <ele>581.916</ele>
        <time>2011-04-17T09:09:05Z</time>
      </trkpt>
      <trkpt lat="47.11775" lon="6.20445">
        <ele>581.352</ele>
        <time>2011-04-17T09:09:07Z</time>
      </trkpt>
      <trkpt lat="47.11771" lon="6.20424">
        <ele>580.925</ele>
        <time>2011-04-17T09:09:14Z</time>
      </trkpt>
      <trkpt lat="47.1177" lon="6.20419">
        <ele>580.888</ele>
        <time>2011-04-17T09:09:16Z</time>
      </trkpt>
      <trkpt lat="47.11768" lon="6.20411">
        <ele>580.971</ele>
        <time>2011-04-17T09:09:20Z</time>
      </trkpt>
      <trkpt lat="47.11767" lon="6.20398">
        <ele>581.749</ele>
        <time>2011-04-17T09:09:34Z</time>
      </trkpt>
      <trkpt lat="47.11766" lon="6.20393">
        <ele>582.717</ele>
        <time>2011-04-17T09:09:38Z</time>
      </trkpt>
      <trkpt lat="47.11762" lon="6.20381">
        <ele>581.816</ele>
        <time>2011-04-17T09:09:42Z</time>
      </trkpt>
      <trkpt lat="47.1176" lon="6.20362">
        <ele>583.179</ele>
        <time>2011-04-17T09:09:48Z</time>
      </trkpt>
      <trkpt lat="47.11759" lon="6.20358">
        <ele>583.535</ele>
        <time>2011-04-17T09:09:49Z</time>
      </trkpt>
      <trkpt lat="47.11756" lon="6.20345">
        <ele>584.568</ele>
        <time>2011-04-17T09:09:53Z</time>
      </trkpt>
      <trkpt lat="47.11759" lon="6.2033">
        <ele>585.808</ele>
        <time>2011-04-17T09:09:59Z</time>
      </trkpt>
      <trkpt lat="47.11759" lon="6.20327">
        <ele>586.124</ele>
        <time>2011-04-17T09:10:00Z</time>
      </trkpt>
      <trkpt lat="47.11761" lon="6.20311">
        <ele>587.272</ele>
        <time>2011-04-17T09:10:07Z</time>
      </trkpt>
      <trkpt lat="47.11757" lon="6.20292">
        <ele>587.54</ele>
        <time>2011-04-17T09:10:14Z</time>
      </trkpt>
      <trkpt lat="47.11748" lon="6.20261">
        <ele>587.767</ele>
        <time>2011-04-17T09:10:22Z</time>
      </trkpt>
      <trkpt lat="47.11743" lon="6.20237">
        <ele>588.227</ele>
        <time>2011-04-17T09:10:28Z</time>
      </trkpt>
      <trkpt lat="47.11735" lon="6.2021">
        <ele>588.347</ele>
        <time>2011-04-17T09:10:34Z</time>
      </trkpt>
      <trkpt lat="47.11732" lon="6.20205">
        <ele>588.248</ele>
        <time>2011-04-17T09:10:35Z</time>
      </trkpt>
      <trkpt lat="47.11725" lon="6.20181">
        <ele>587.734</ele>
        <time>2011-04-17T09:10:40Z</time>
      </trkpt>
      <trkpt lat="47.11724" lon="6.20166">
        <ele>587.512</ele>
        <time>2011-04-17T09:10:43Z</time>
      </trkpt>
      <trkpt lat="47.11731" lon="6.20158">
        <ele>588.307</ele>
        <time>2011-04-17T09:10:47Z</time>
      </trkpt>
      <trkpt lat="47.11729" lon="6.20146">
        <ele>588.94</ele>
        <time>2011-04-17T09:10:50Z</time>
      </trkpt>
      <trkpt lat="47.11725" lon="6.20132">
        <ele>588.992</ele>
        <time>2011-04-17T09:10:53Z</time>
      </trkpt>
      <trkpt lat="47.11719" lon="6.20105">
        <ele>589.483</ele>
        <time>2011-04-17T09:10:59Z</time>
      </trkpt>
      <trkpt lat="47.11717" lon="6.201">
        <ele>589.51</ele>
        <time>2011-04-17T09:11:00Z</time>
      </trkpt>
      <trkpt lat="47.1171" lon="6.20077">
        <ele>589.157</ele>
        <time>2011-04-17T09:11:04Z</time>
      </trkpt>
      <trkpt lat="47.11696" lon="6.20042">
        <ele>588.202</ele>
        <time>2011-04-17T09:11:10Z</time>
      </trkpt>
      <trkpt lat="47.11693" lon="6.20036">
        <ele>588.015</ele>
        <time>2011-04-17T09:11:11Z</time>
      </trkpt>
      <trkpt lat="47.1168" lon="6.20006">
        <ele>586.857</ele>
        <time>2011-04-17T09:11:15Z</time>
      </trkpt>
      <trkpt lat="47.11674" lon="6.19967">
        <ele>585.066</ele>
        <time>2011-04-17T09:11:19Z</time>
      </trkpt>
      <trkpt lat="47.11673" lon="6.19941">
        <ele>584.771</ele>
        <time>2011-04-17T09:11:22Z</time>
      </trkpt>
      <trkpt lat="47.11675" lon="6.19908">
        <ele>584.473</ele>
        <time>2011-04-17T09:11:26Z</time>
      </trkpt>
      <trkpt lat="47.11676" lon="6.19899">
        <ele>584.393</ele>
        <time>2011-04-17T09:11:27Z</time>
      </trkpt>
      <trkpt lat="47.1168" lon="6.19844">
        <ele>583.304</ele>
        <time>2011-04-17T09:11:33Z</time>
      </trkpt>
      <trkpt lat="47.11684" lon="6.19811">
        <ele>583.495</ele>
        <time>2011-04-17T09:11:37Z</time>
      </trkpt>
      <trkpt lat="47.11683" lon="6.19763">
        <ele>583.694</ele>
        <time>2011-04-17T09:11:43Z</time>
      </trkpt>
      <trkpt lat="47.11685" lon="6.19719">
        <ele>583.889</ele>
        <time>2011-04-17T09:11:49Z</time>
      </trkpt>
      <trkpt lat="47.11686" lon="6.19714">
        <ele>584.21</ele>
        <time>2011-04-17T09:11:50Z</time>
      </trkpt>
      <trkpt lat="47.11686" lon="6.19701">
        <ele>585.261</ele>
        <time>2011-04-17T09:11:54Z</time>
      </trkpt>
      <trkpt lat="47.11688" lon="6.19681">
        <ele>586.773</ele>
        <time>2011-04-17T09:12:00Z</time>
      </trkpt>
      <trkpt lat="47.11691" lon="6.19659">
        <ele>588.795</ele>
        <time>2011-04-17T09:12:08Z</time>
      </trkpt>
      <trkpt lat="47.11692" lon="6.19654">
        <ele>589.401</ele>
        <time>2011-04-17T09:12:10Z</time>
      </trkpt>
      <trkpt lat="47.11693" lon="6.19636">
        <ele>591.201</ele>
        <time>2011-04-17T09:12:16Z</time>
      </trkpt>
      <trkpt lat="47.11693" lon="6.19627">
        <ele>591.876</ele>
        <time>2011-04-17T09:12:19Z</time>
      </trkpt>
      <trkpt lat="47.11702" lon="6.19612">
        <ele>593.514</ele>
        <time>2011-04-17T09:12:25Z</time>
      </trkpt>
      <trkpt lat="47.11712" lon="6.19601">
        <ele>593.076</ele>
        <time>2011-04-17T09:12:32Z</time>
      </trkpt>
      <trkpt lat="47.11715" lon="6.19597">
        <ele>592.892</ele>
        <time>2011-04-17T09:12:36Z</time>
      </trkpt>
      <trkpt lat="47.11717" lon="6.19596">
        <ele>592.887</ele>
        <time>2011-04-17T09:12:38Z</time>
      </trkpt>
      <trkpt lat="47.11722" lon="6.19595">
        <ele>592.63</ele>
        <time>2011-04-17T09:12:44Z</time>
      </trkpt>
      <trkpt lat="47.11725" lon="6.196">
        <ele>592.471</ele>
        <time>2011-04-17T09:12:49Z</time>
      </trkpt>
      <trkpt lat="47.11727" lon="6.196">
        <ele>592.379</ele>
        <time>2011-04-17T09:12:55Z</time>
      </trkpt>
      <trkpt lat="47.11731" lon="6.19602">
        <ele>592.439</ele>
        <time>2011-04-17T09:13:09Z</time>
      </trkpt>
      <trkpt lat="47.11732" lon="6.19603">
        <ele>592.471</ele>
        <time>2011-04-17T09:13:10Z</time>
      </trkpt>
      <trkpt lat="47.11732" lon="6.19602">
        <ele>592.502</ele>
        <time>2011-04-17T09:13:13Z</time>
      </trkpt>
      <trkpt lat="47.11732" lon="6.19606">
        <ele>593.943</ele>
        <time>2011-04-17T09:18:14Z</time>
      </trkpt>
      <trkpt lat="47.11728" lon="6.19603">
        <ele>593.688</ele>
        <time>2011-04-17T09:21:17Z</time>
      </trkpt>
      <trkpt lat="47.11726" lon="6.19601">
        <ele>593.659</ele>
        <time>2011-04-17T09:21:19Z</time>
      </trkpt>
      <trkpt lat="47.11725" lon="6.19598">
        <ele>593.774</ele>
        <time>2011-04-17T09:21:22Z</time>
      </trkpt>
      <trkpt lat="47.11724" lon="6.19597">
        <ele>593.818</ele>
        <time>2011-04-17T09:21:23Z</time>
      </trkpt>
      <trkpt lat="47.11723" lon="6.19595">
        <ele>593.675</ele>
        <time>2011-04-17T09:21:27Z</time>
      </trkpt>
      <trkpt lat="47.11719" lon="6.19589">
        <ele>593.651</ele>
        <time>2011-04-17T09:21:33Z</time>
      </trkpt>
      <trkpt lat="47.11718" lon="6.19589">
        <ele>593.677</ele>
        <time>2011-04-17T09:21:34Z</time>
      </trkpt>
      <trkpt lat="47.11714" lon="6.19587">
        <ele>593.63</ele>
        <time>2011-04-17T09:21:40Z</time>
      </trkpt>
      <trkpt lat="47.11711" lon="6.19589">
        <ele>593.921</ele>
        <time>2011-04-17T09:21:47Z</time>
      </trkpt>
      <trkpt lat="47.11711" lon="6.19589">
        <ele>594.335</ele>
        <time>2011-04-17T09:21:49Z</time>
      </trkpt>
      <trkpt lat="47.11717" lon="6.19583">
        <ele>593.835</ele>
        <time>2011-04-17T09:22:45Z</time>
      </trkpt>
      <trkpt lat="47.11714" lon="6.19573">
        <ele>593.776</ele>
        <time>2011-04-17T09:22:51Z</time>
      </trkpt>
      <trkpt lat="47.1171" lon="6.19564">
        <ele>593.833</ele>
        <time>2011-04-17T09:22:58Z</time>
      </trkpt>
      <trkpt lat="47.11706" lon="6.19564">
        <ele>593.927</ele>
        <time>2011-04-17T09:23:02Z</time>
      </trkpt>
      <trkpt lat="47.11703" lon="6.19563">
        <ele>593.747</ele>
        <time>2011-04-17T09:23:07Z</time>
      </trkpt>
      <trkpt lat="47.11705" lon="6.1956">
        <ele>594.187</ele>
        <time>2011-04-17T09:23:48Z</time>
      </trkpt>
      <trkpt lat="47.11706" lon="6.1956">
        <ele>594.187</ele>
        <time>2011-04-17T09:23:49Z</time>
      </trkpt>
      <trkpt lat="47.11711" lon="6.19564">
        <ele>594.119</ele>
        <time>2011-04-17T09:23:54Z</time>
      </trkpt>
      <trkpt lat="47.11715" lon="6.19575">
        <ele>593.61</ele>
        <time>2011-04-17T09:24:03Z</time>
      </trkpt>
      <trkpt lat="47.11715" lon="6.19575">
        <ele>593.914</ele>
        <time>2011-04-17T09:24:06Z</time>
      </trkpt>
      <trkpt lat="47.1172" lon="6.19585">
        <ele>594.004</ele>
        <time>2011-04-17T09:25:26Z</time>
      </trkpt>
      <trkpt lat="47.11722" lon="6.19588">
        <ele>593.742</ele>
        <time>2011-04-17T09:25:29Z</time>
      </trkpt>
      <trkpt lat="47.11727" lon="6.19596">
        <ele>593.688</ele>
        <time>2011-04-17T09:25:37Z</time>
      </trkpt>
      <trkpt lat="47.11734" lon="6.19606">
        <ele>593.556</ele>
        <time>2011-04-17T09:25:46Z</time>
      </trkpt>
      <trkpt lat="47.11735" lon="6.19606">
        <ele>593.362</ele>
        <time>2011-04-17T09:25:50Z</time>
      </trkpt>
      <trkpt lat="47.11734" lon="6.19608">
        <ele>592.82</ele>
        <time>2011-04-17T09:30:54Z</time>
      </trkpt>
      <trkpt lat="47.11734" lon="6.19606">
        <ele>593.405</ele>
        <time>2011-04-17T09:37:05Z</time>
      </trkpt>
      <trkpt lat="47.11734" lon="6.19607">
        <ele>593.497</ele>
        <time>2011-04-17T09:37:07Z</time>
      </trkpt>
      <trkpt lat="47.11735" lon="6.19607">
        <ele>593.324</ele>
        <time>2011-04-17T09:37:11Z</time>
      </trkpt>
      <trkpt lat="47.1173" lon="6.19602">
        <ele>593.66</ele>
        <time>2011-04-17T09:38:01Z</time>
      </trkpt>
      <trkpt lat="47.11729" lon="6.19601">
        <ele>593.538</ele>
        <time>2011-04-17T09:38:04Z</time>
      </trkpt>
      <trkpt lat="47.11727" lon="6.19595">
        <ele>593.708</ele>
        <time>2011-04-17T09:38:13Z</time>
      </trkpt>
      <trkpt lat="47.11725" lon="6.19593">
        <ele>593.756</ele>
        <time>2011-04-17T09:38:19Z</time>
      </trkpt>
      <trkpt lat="47.1172" lon="6.19589">
        <ele>594.711</ele>
        <time>2011-04-17T09:44:20Z</time>
      </trkpt>
      <trkpt lat="47.11715" lon="6.19587">
        <ele>594.871</ele>
        <time>2011-04-17T09:50:50Z</time>
      </trkpt>
      <trkpt lat="47.11715" lon="6.19586">
        <ele>594.889</ele>
        <time>2011-04-17T09:50:51Z</time>
      </trkpt>
      <trkpt lat="47.11715" lon="6.19584">
        <ele>594.917</ele>
        <time>2011-04-17T09:50:52Z</time>
      </trkpt>
      <trkpt lat="47.11713" lon="6.19577">
        <ele>594.796</ele>
        <time>2011-04-17T09:50:59Z</time>
      </trkpt>
      <trkpt lat="47.11713" lon="6.19576">
        <ele>594.822</ele>
        <time>2011-04-17T09:51:03Z</time>
      </trkpt>
      <trkpt lat="47.11711" lon="6.19567">
        <ele>594.706</ele>
        <time>2011-04-17T09:51:12Z</time>
      </trkpt>
      <trkpt lat="47.1171" lon="6.19563">
        <ele>594.886</ele>
        <time>2011-04-17T09:51:18Z</time>
      </trkpt>
      <trkpt lat="47.11709" lon="6.19558">
        <ele>594.817</ele>
        <time>2011-04-17T09:51:24Z</time>
      </trkpt>
      <trkpt lat="47.11709" lon="6.19554">
        <ele>594.906</ele>
        <time>2011-04-17T09:51:27Z</time>
      </trkpt>
      <trkpt lat="47.11708" lon="6.19548">
        <ele>595.137</ele>
        <time>2011-04-17T09:51:31Z</time>
      </trkpt>
      <trkpt lat="47.11707" lon="6.19543">
        <ele>595.119</ele>
        <time>2011-04-17T09:51:35Z</time>
      </trkpt>
      <trkpt lat="47.11704" lon="6.19537">
        <ele>595.22</ele>
        <time>2011-04-17T09:51:41Z</time>
      </trkpt>
      <trkpt lat="47.11703" lon="6.19535">
        <ele>595.154</ele>
        <time>2011-04-17T09:51:46Z</time>
      </trkpt>
      <trkpt lat="47.11706" lon="6.19525">
        <ele>595.286</ele>
        <time>2011-04-17T09:57:15Z</time>
      </trkpt>
      <trkpt lat="47.11705" lon="6.19508">
        <ele>595.407</ele>
        <time>2011-04-17T09:57:22Z</time>
      </trkpt>
      <trkpt lat="47.117" lon="6.19487">
        <ele>595.27</ele>
        <time>2011-04-17T09:57:29Z</time>
      </trkpt>
      <trkpt lat="47.11698" lon="6.19465">
        <ele>595.543</ele>
        <time>2011-04-17T09:57:33Z</time>
      </trkpt>
      <trkpt lat="47.11695" lon="6.19438">
        <ele>595.643</ele>
        <time>2011-04-17T09:57:38Z</time>
      </trkpt>
      <trkpt lat="47.11691" lon="6.19418">
        <ele>595.818</ele>
        <time>2011-04-17T09:57:42Z</time>
      </trkpt>
      <trkpt lat="47.11699" lon="6.194">
        <ele>596.075</ele>
        <time>2011-04-17T09:57:47Z</time>
      </trkpt>
      <trkpt lat="47.11713" lon="6.19377">
        <ele>596.467</ele>
        <time>2011-04-17T09:57:53Z</time>
      </trkpt>
      <trkpt lat="47.11725" lon="6.19355">
        <ele>597.096</ele>
        <time>2011-04-17T09:57:59Z</time>
      </trkpt>
      <trkpt lat="47.11736" lon="6.19334">
        <ele>597.755</ele>
        <time>2011-04-17T09:58:04Z</time>
      </trkpt>
      <trkpt lat="47.11751" lon="6.19309">
        <ele>598.112</ele>
        <time>2011-04-17T09:58:10Z</time>
      </trkpt>
      <trkpt lat="47.11764" lon="6.1929">
        <ele>598.05</ele>
        <time>2011-04-17T09:58:15Z</time>
      </trkpt>
      <trkpt lat="47.11779" lon="6.19263">
        <ele>598.004</ele>
        <time>2011-04-17T09:58:21Z</time>
      </trkpt>
      <trkpt lat="47.11794" lon="6.19236">
        <ele>596.867</ele>
        <time>2011-04-17T09:58:27Z</time>
      </trkpt>
      <trkpt lat="47.11805" lon="6.19225">
        <ele>596.553</ele>
        <time>2011-04-17T09:58:30Z</time>
      </trkpt>
      <trkpt lat="47.11818" lon="6.19201">
        <ele>596.031</ele>
        <time>2011-04-17T09:58:35Z</time>
      </trkpt>
      <trkpt lat="47.11833" lon="6.19179">
        <ele>595.709</ele>
        <time>2011-04-17T09:58:40Z</time>
      </trkpt>
      <trkpt lat="47.11843" lon="6.1916">
        <ele>595.783</ele>
        <time>2011-04-17T09:58:44Z</time>
      </trkpt>
      <trkpt lat="47.11863" lon="6.19127">
        <ele>596.297</ele>
        <time>2011-04-17T09:58:52Z</time>
      </trkpt>
      <trkpt lat="47.11874" lon="6.19109">
        <ele>597.333</ele>
        <time>2011-04-17T09:58:57Z</time>
      </trkpt>
      <trkpt lat="47.11887" lon="6.19085">
        <ele>597.838</ele>
        <time>2011-04-17T09:59:03Z</time>
      </trkpt>
      <trkpt lat="47.11899" lon="6.19068">
        <ele>597.801</ele>
        <time>2011-04-17T09:59:08Z</time>
      </trkpt>
      <trkpt lat="47.11906" lon="6.19054">
        <ele>597.981</ele>
        <time>2011-04-17T09:59:12Z</time>
      </trkpt>
      <trkpt lat="47.11918" lon="6.19034">
        <ele>597.96</ele>
        <time>2011-04-17T09:59:17Z</time>
      </trkpt>
      <trkpt lat="47.1193" lon="6.19014">
        <ele>597.36</ele>
        <time>2011-04-17T09:59:22Z</time>
      </trkpt>
      <trkpt lat="47.11944" lon="6.18992">
        <ele>596.397</ele>
        <time>2011-04-17T09:59:27Z</time>
      </trkpt>
      <trkpt lat="47.11956" lon="6.18973">
        <ele>595.524</ele>
        <time>2011-04-17T09:59:31Z</time>
      </trkpt>
      <trkpt lat="47.11979" lon="6.18934">
        <ele>593.116</ele>
        <time>2011-04-17T09:59:38Z</time>
      </trkpt>
      <trkpt lat="47.11995" lon="6.18906">
        <ele>591.859</ele>
        <time>2011-04-17T09:59:43Z</time>
      </trkpt>
      <trkpt lat="47.12006" lon="6.18888">
        <ele>590.075</ele>
        <time>2011-04-17T09:59:47Z</time>
      </trkpt>
      <trkpt lat="47.12017" lon="6.18872">
        <ele>587.233</ele>
        <time>2011-04-17T09:59:50Z</time>
      </trkpt>
      <trkpt lat="47.12022" lon="6.18859">
        <ele>586.049</ele>
        <time>2011-04-17T09:59:52Z</time>
      </trkpt>
      <trkpt lat="47.12025" lon="6.18854">
        <ele>586.044</ele>
        <time>2011-04-17T09:59:53Z</time>
      </trkpt>
      <trkpt lat="47.12031" lon="6.18846">
        <ele>585.744</ele>
        <time>2011-04-17T09:59:55Z</time>
      </trkpt>
      <trkpt lat="47.12033" lon="6.18842">
        <ele>586.101</ele>
        <time>2011-04-17T09:59:56Z</time>
      </trkpt>
      <trkpt lat="47.12042" lon="6.18828">
        <ele>586.397</ele>
        <time>2011-04-17T09:59:59Z</time>
      </trkpt>
      <trkpt lat="47.12058" lon="6.18809">
        <ele>586.179</ele>
        <time>2011-04-17T10:00:04Z</time>
      </trkpt>
      <trkpt lat="47.12071" lon="6.18809">
        <ele>585.386</ele>
        <time>2011-04-17T10:00:07Z</time>
      </trkpt>
      <trkpt lat="47.12075" lon="6.18812">
        <ele>585.103</ele>
        <time>2011-04-17T10:00:08Z</time>
      </trkpt>
      <trkpt lat="47.121" lon="6.18839">
        <ele>584.009</ele>
        <time>2011-04-17T10:00:14Z</time>
      </trkpt>
      <trkpt lat="47.12127" lon="6.18869">
        <ele>583.344</ele>
        <time>2011-04-17T10:00:20Z</time>
      </trkpt>
      <trkpt lat="47.12159" lon="6.18919">
        <ele>583.106</ele>
        <time>2011-04-17T10:00:28Z</time>
      </trkpt>
      <trkpt lat="47.12162" lon="6.18926">
        <ele>583.078</ele>
        <time>2011-04-17T10:00:29Z</time>
      </trkpt>
      <trkpt lat="47.12188" lon="6.18983">
        <ele>582.264</ele>
        <time>2011-04-17T10:00:37Z</time>
      </trkpt>
      <trkpt lat="47.12213" lon="6.19042">
        <ele>582.605</ele>
        <time>2011-04-17T10:00:45Z</time>
      </trkpt>
      <trkpt lat="47.12235" lon="6.19102">
        <ele>582.363</ele>
        <time>2011-04-17T10:00:53Z</time>
      </trkpt>
      <trkpt lat="47.12255" lon="6.1912">
        <ele>582.166</ele>
        <time>2011-04-17T10:00:57Z</time>
      </trkpt>
      <trkpt lat="47.12275" lon="6.19122">
        <ele>581.278</ele>
        <time>2011-04-17T10:01:00Z</time>
      </trkpt>
      <trkpt lat="47.1232" lon="6.19134">
        <ele>578.788</ele>
        <time>2011-04-17T10:01:06Z</time>
      </trkpt>
      <trkpt lat="47.12328" lon="6.19139">
        <ele>578.321</ele>
        <time>2011-04-17T10:01:07Z</time>
      </trkpt>
      <trkpt lat="47.1235" lon="6.1917">
        <ele>576.957</ele>
        <time>2011-04-17T10:01:11Z</time>
      </trkpt>
      <trkpt lat="47.12367" lon="6.19207">
        <ele>576.29</ele>
        <time>2011-04-17T10:01:15Z</time>
      </trkpt>
      <trkpt lat="47.12373" lon="6.19247">
        <ele>575.735</ele>
        <time>2011-04-17T10:01:19Z</time>
      </trkpt>
      <trkpt lat="47.12382" lon="6.1927">
        <ele>574.547</ele>
        <time>2011-04-17T10:01:23Z</time>
      </trkpt>
      <trkpt lat="47.12396" lon="6.19267">
        <ele>573.547</ele>
        <time>2011-04-17T10:01:26Z</time>
      </trkpt>
      <trkpt lat="47.124" lon="6.19264">
        <ele>572.38</ele>
        <time>2011-04-17T10:01:29Z</time>
      </trkpt>
      <trkpt lat="47.124" lon="6.19262">
        <ele>571.882</ele>
        <time>2011-04-17T10:01:34Z</time>
      </trkpt>
      <trkpt lat="47.124" lon="6.19261">
        <ele>571.837</ele>
        <time>2011-04-17T10:01:35Z</time>
      </trkpt>
      <trkpt lat="47.12406" lon="6.19256">
        <ele>571.789</ele>
        <time>2011-04-17T10:01:42Z</time>
      </trkpt>
      <trkpt lat="47.12409" lon="6.19253">
        <ele>571.691</ele>
        <time>2011-04-17T10:01:43Z</time>
      </trkpt>
      <trkpt lat="47.12422" lon="6.19228">
        <ele>571.555</ele>
        <time>2011-04-17T10:01:47Z</time>
      </trkpt>
      <trkpt lat="47.12433" lon="6.19206">
        <ele>571.131</ele>
        <time>2011-04-17T10:01:50Z</time>
      </trkpt>
      <trkpt lat="47.12437" lon="6.19199">
        <ele>570.846</ele>
        <time>2011-04-17T10:01:51Z</time>
      </trkpt>
      <trkpt lat="47.1247" lon="6.19138">
        <ele>568.019</ele>
        <time>2011-04-17T10:01:58Z</time>
      </trkpt>
      <trkpt lat="47.12509" lon="6.19064">
        <ele>564.247</ele>
        <time>2011-04-17T10:02:05Z</time>
      </trkpt>
      <trkpt lat="47.12528" lon="6.1903">
        <ele>562.847</ele>
        <time>2011-04-17T10:02:08Z</time>
      </trkpt>
      <trkpt lat="47.12535" lon="6.19018">
        <ele>562.244</ele>
        <time>2011-04-17T10:02:09Z</time>
      </trkpt>
      <trkpt lat="47.12584" lon="6.1893">
        <ele>556.204</ele>
        <time>2011-04-17T10:02:16Z</time>
      </trkpt>
      <trkpt lat="47.12634" lon="6.18837">
        <ele>552.522</ele>
        <time>2011-04-17T10:02:23Z</time>
      </trkpt>
      <trkpt lat="47.12641" lon="6.18823">
        <ele>552.522</ele>
        <time>2011-04-17T10:02:24Z</time>
      </trkpt>
      <trkpt lat="47.12695" lon="6.18721">
        <ele>546.125</ele>
        <time>2011-04-17T10:02:31Z</time>
      </trkpt>
      <trkpt lat="47.12757" lon="6.18606">
        <ele>540.436</ele>
        <time>2011-04-17T10:02:39Z</time>
      </trkpt>
      <trkpt lat="47.12801" lon="6.18535">
        <ele>538.481</ele>
        <time>2011-04-17T10:02:45Z</time>
      </trkpt>
      <trkpt lat="47.12854" lon="6.18448">
        <ele>534.935</ele>
        <time>2011-04-17T10:02:52Z</time>
      </trkpt>
      <trkpt lat="47.12861" lon="6.18434">
        <ele>534.457</ele>
        <time>2011-04-17T10:02:53Z</time>
      </trkpt>
      <trkpt lat="47.12876" lon="6.18374">
        <ele>533.643</ele>
        <time>2011-04-17T10:02:57Z</time>
      </trkpt>
      <trkpt lat="47.12883" lon="6.18308">
        <ele>533.632</ele>
        <time>2011-04-17T10:03:02Z</time>
      </trkpt>
      <trkpt lat="47.12884" lon="6.18298">
        <ele>533.986</ele>
        <time>2011-04-17T10:03:03Z</time>
      </trkpt>
      <trkpt lat="47.12882" lon="6.18257">
        <ele>536.035</ele>
        <time>2011-04-17T10:03:08Z</time>
      </trkpt>
      <trkpt lat="47.12878" lon="6.18238">
        <ele>536.925</ele>
        <time>2011-04-17T10:03:11Z</time>
      </trkpt>
      <trkpt lat="47.12875" lon="6.18228">
        <ele>537.257</ele>
        <time>2011-04-17T10:03:13Z</time>
      </trkpt>
      <trkpt lat="47.1288" lon="6.18216">
        <ele>537.575</ele>
        <time>2011-04-17T10:03:17Z</time>
      </trkpt>
      <trkpt lat="47.12886" lon="6.18215">
        <ele>537.89</ele>
        <time>2011-04-17T10:03:19Z</time>
      </trkpt>
      <trkpt lat="47.12889" lon="6.18214">
        <ele>538.146</ele>
        <time>2011-04-17T10:03:20Z</time>
      </trkpt>
      <trkpt lat="47.12895" lon="6.18203">
        <ele>539.744</ele>
        <time>2011-04-17T10:03:25Z</time>
      </trkpt>
      <trkpt lat="47.12898" lon="6.18198">
        <ele>540.961</ele>
        <time>2011-04-17T10:03:28Z</time>
      </trkpt>
      <trkpt lat="47.12906" lon="6.18191">
        <ele>541.914</ele>
        <time>2011-04-17T10:03:31Z</time>
      </trkpt>
      <trkpt lat="47.12914" lon="6.18189">
        <ele>542.299</ele>
        <time>2011-04-17T10:03:33Z</time>
      </trkpt>
      <trkpt lat="47.12933" lon="6.18202">
        <ele>542.815</ele>
        <time>2011-04-17T10:03:37Z</time>
      </trkpt>
      <trkpt lat="47.12937" lon="6.18205">
        <ele>542.861</ele>
        <time>2011-04-17T10:03:38Z</time>
      </trkpt>
      <trkpt lat="47.12953" lon="6.18223">
        <ele>542.897</ele>
        <time>2011-04-17T10:03:42Z</time>
      </trkpt>
      <trkpt lat="47.12962" lon="6.18231">
        <ele>542.817</ele>
        <time>2011-04-17T10:03:44Z</time>
      </trkpt>
      <trkpt lat="47.12977" lon="6.18236">
        <ele>542.698</ele>
        <time>2011-04-17T10:03:48Z</time>
      </trkpt>
      <trkpt lat="47.12994" lon="6.1824">
        <ele>542.578</ele>
        <time>2011-04-17T10:03:51Z</time>
      </trkpt>
      <trkpt lat="47.13026" lon="6.18263">
        <ele>539.535</ele>
        <time>2011-04-17T10:03:56Z</time>
      </trkpt>
      <trkpt lat="47.13032" lon="6.18268">
        <ele>539.236</ele>
        <time>2011-04-17T10:03:57Z</time>
      </trkpt>
      <trkpt lat="47.13062" lon="6.18294">
        <ele>536.955</ele>
        <time>2011-04-17T10:04:02Z</time>
      </trkpt>
      <trkpt lat="47.13074" lon="6.18302">
        <ele>536.312</ele>
        <time>2011-04-17T10:04:04Z</time>
      </trkpt>
      <trkpt lat="47.1308" lon="6.18305">
        <ele>535.426</ele>
        <time>2011-04-17T10:04:05Z</time>
      </trkpt>
      <trkpt lat="47.1311" lon="6.18336">
        <ele>529.632</ele>
        <time>2011-04-17T10:04:10Z</time>
      </trkpt>
      <trkpt lat="47.1314" lon="6.18387">
        <ele>523.334</ele>
        <time>2011-04-17T10:04:15Z</time>
      </trkpt>
      <trkpt lat="47.13164" lon="6.18442">
        <ele>519.962</ele>
        <time>2011-04-17T10:04:20Z</time>
      </trkpt>
      <trkpt lat="47.13173" lon="6.1846">
        <ele>519.066</ele>
        <time>2011-04-17T10:04:22Z</time>
      </trkpt>
      <trkpt lat="47.13187" lon="6.1848">
        <ele>516.901</ele>
        <time>2011-04-17T10:04:25Z</time>
      </trkpt>
      <trkpt lat="47.13206" lon="6.18499">
        <ele>513.708</ele>
        <time>2011-04-17T10:04:29Z</time>
      </trkpt>
      <trkpt lat="47.13219" lon="6.18517">
        <ele>508.804</ele>
        <time>2011-04-17T10:04:34Z</time>
      </trkpt>
      <trkpt lat="47.13222" lon="6.18522">
        <ele>508.005</ele>
        <time>2011-04-17T10:04:35Z</time>
      </trkpt>
      <trkpt lat="47.13232" lon="6.18532">
        <ele>506.217</ele>
        <time>2011-04-17T10:04:37Z</time>
      </trkpt>
      <trkpt lat="47.13247" lon="6.18541">
        <ele>503.267</ele>
        <time>2011-04-17T10:04:39Z</time>
      </trkpt>
      <trkpt lat="47.13255" lon="6.18546">
        <ele>501.204</ele>
        <time>2011-04-17T10:04:40Z</time>
      </trkpt>
      <trkpt lat="47.13268" lon="6.18557">
        <ele>497.132</ele>
        <time>2011-04-17T10:04:42Z</time>
      </trkpt>
      <trkpt lat="47.13286" lon="6.18585">
        <ele>490.097</ele>
        <time>2011-04-17T10:04:46Z</time>
      </trkpt>
      <trkpt lat="47.1329" lon="6.18592">
        <ele>488.688</ele>
        <time>2011-04-17T10:04:47Z</time>
      </trkpt>
      <trkpt lat="47.13297" lon="6.186">
        <ele>485.24</ele>
        <time>2011-04-17T10:04:50Z</time>
      </trkpt>
      <trkpt lat="47.13299" lon="6.18597">
        <ele>484.56</ele>
        <time>2011-04-17T10:04:51Z</time>
      </trkpt>
      <trkpt lat="47.13298" lon="6.18581">
        <ele>483.243</ele>
        <time>2011-04-17T10:04:54Z</time>
      </trkpt>
      <trkpt lat="47.13293" lon="6.18553">
        <ele>480.863</ele>
        <time>2011-04-17T10:04:57Z</time>
      </trkpt>
      <trkpt lat="47.13286" lon="6.18518">
        <ele>475.381</ele>
        <time>2011-04-17T10:05:02Z</time>
      </trkpt>
      <trkpt lat="47.13276" lon="6.18486">
        <ele>472.163</ele>
        <time>2011-04-17T10:05:07Z</time>
      </trkpt>
      <trkpt lat="47.13271" lon="6.18471">
        <ele>470.819</ele>
        <time>2011-04-17T10:05:09Z</time>
      </trkpt>
      <trkpt lat="47.13267" lon="6.18463">
        <ele>469.979</ele>
        <time>2011-04-17T10:05:10Z</time>
      </trkpt>
      <trkpt lat="47.13254" lon="6.18419">
        <ele>465.622</ele>
        <time>2011-04-17T10:05:14Z</time>
      </trkpt>
      <trkpt lat="47.1325" lon="6.18408">
        <ele>464.427</ele>
        <time>2011-04-17T10:05:15Z</time>
      </trkpt>
      <trkpt lat="47.13247" lon="6.18398">
        <ele>463.338</ele>
        <time>2011-04-17T10:05:16Z</time>
      </trkpt>
      <trkpt lat="47.13244" lon="6.1839">
        <ele>462.384</ele>
        <time>2011-04-17T10:05:17Z</time>
      </trkpt>
      <trkpt lat="47.13239" lon="6.18372">
        <ele>461.433</ele>
        <time>2011-04-17T10:05:19Z</time>
      </trkpt>
      <trkpt lat="47.13235" lon="6.18361">
        <ele>460.323</ele>
        <time>2011-04-17T10:05:20Z</time>
      </trkpt>
      <trkpt lat="47.13232" lon="6.1835">
        <ele>459.341</ele>
        <time>2011-04-17T10:05:21Z</time>
      </trkpt>
      <trkpt lat="47.1322" lon="6.18296">
        <ele>455.283</ele>
        <time>2011-04-17T10:05:25Z</time>
      </trkpt>
      <trkpt lat="47.13201" lon="6.18242">
        <ele>450.485</ele>
        <time>2011-04-17T10:05:30Z</time>
      </trkpt>
      <trkpt lat="47.13196" lon="6.18232">
        <ele>449.3</ele>
        <time>2011-04-17T10:05:31Z</time>
      </trkpt>
      <trkpt lat="47.13182" lon="6.18204">
        <ele>445.654</ele>
        <time>2011-04-17T10:05:34Z</time>
      </trkpt>
      <trkpt lat="47.13177" lon="6.18194">
        <ele>444.489</ele>
        <time>2011-04-17T10:05:35Z</time>
      </trkpt>
      <trkpt lat="47.13168" lon="6.18175">
        <ele>442.875</ele>
        <time>2011-04-17T10:05:37Z</time>
      </trkpt>
      <trkpt lat="47.13151" lon="6.18153">
        <ele>441.754</ele>
        <time>2011-04-17T10:05:40Z</time>
      </trkpt>
      <trkpt lat="47.13123" lon="6.18126">
        <ele>438.75</ele>
        <time>2011-04-17T10:05:44Z</time>
      </trkpt>
      <trkpt lat="47.13116" lon="6.18118">
        <ele>438.758</ele>
        <time>2011-04-17T10:05:45Z</time>
      </trkpt>
      <trkpt lat="47.1309" lon="6.18084">
        <ele>435.889</ele>
        <time>2011-04-17T10:05:49Z</time>
      </trkpt>
      <trkpt lat="47.13071" lon="6.1806">
        <ele>434.182</ele>
        <time>2011-04-17T10:05:52Z</time>
      </trkpt>
      <trkpt lat="47.13046" lon="6.18013">
        <ele>433.747</ele>
        <time>2011-04-17T10:05:58Z</time>
      </trkpt>
      <trkpt lat="47.13043" lon="6.18006">
        <ele>433.677</ele>
        <time>2011-04-17T10:05:59Z</time>
      </trkpt>
      <trkpt lat="47.13034" lon="6.17993">
        <ele>433.28</ele>
        <time>2011-04-17T10:06:01Z</time>
      </trkpt>
      <trkpt lat="47.13007" lon="6.17956">
        <ele>430.129</ele>
        <time>2011-04-17T10:06:07Z</time>
      </trkpt>
      <trkpt lat="47.12992" lon="6.17933">
        <ele>428.004</ele>
        <time>2011-04-17T10:06:10Z</time>
      </trkpt>
      <trkpt lat="47.12968" lon="6.17895">
        <ele>423.932</ele>
        <time>2011-04-17T10:06:15Z</time>
      </trkpt>
      <trkpt lat="47.12946" lon="6.17856">
        <ele>419.957</ele>
        <time>2011-04-17T10:06:21Z</time>
      </trkpt>
      <trkpt lat="47.12933" lon="6.17826">
        <ele>417.805</ele>
        <time>2011-04-17T10:06:25Z</time>
      </trkpt>
      <trkpt lat="47.1293" lon="6.1782">
        <ele>417.009</ele>
        <time>2011-04-17T10:06:26Z</time>
      </trkpt>
      <trkpt lat="47.12927" lon="6.17814">
        <ele>416.458</ele>
        <time>2011-04-17T10:06:27Z</time>
      </trkpt>
      <trkpt lat="47.12923" lon="6.17803">
        <ele>415.264</ele>
        <time>2011-04-17T10:06:29Z</time>
      </trkpt>
      <trkpt lat="47.12908" lon="6.17769">
        <ele>411.546</ele>
        <time>2011-04-17T10:06:35Z</time>
      </trkpt>
      <trkpt lat="47.12905" lon="6.17759">
        <ele>410.094</ele>
        <time>2011-04-17T10:06:37Z</time>
      </trkpt>
      <trkpt lat="47.12903" lon="6.17754">
        <ele>409.466</ele>
        <time>2011-04-17T10:06:38Z</time>
      </trkpt>
      <trkpt lat="47.12899" lon="6.17742">
        <ele>407.571</ele>
        <time>2011-04-17T10:06:41Z</time>
      </trkpt>
      <trkpt lat="47.12891" lon="6.17719">
        <ele>403.879</ele>
        <time>2011-04-17T10:06:45Z</time>
      </trkpt>
      <trkpt lat="47.12883" lon="6.17697">
        <ele>400.87</ele>
        <time>2011-04-17T10:06:50Z</time>
      </trkpt>
      <trkpt lat="47.12877" lon="6.17678">
        <ele>398.434</ele>
        <time>2011-04-17T10:06:55Z</time>
      </trkpt>
      <trkpt lat="47.1287" lon="6.17652">
        <ele>395.298</ele>
        <time>2011-04-17T10:07:00Z</time>
      </trkpt>
      <trkpt lat="47.12866" lon="6.1764">
        <ele>393.574</ele>
        <time>2011-04-17T10:07:02Z</time>
      </trkpt>
      <trkpt lat="47.12864" lon="6.17631">
        <ele>391.986</ele>
        <time>2011-04-17T10:07:04Z</time>
      </trkpt>
      <trkpt lat="47.12859" lon="6.17616">
        <ele>390.007</ele>
        <time>2011-04-17T10:07:07Z</time>
      </trkpt>
      <trkpt lat="47.1285" lon="6.17559">
        <ele>384.159</ele>
        <time>2011-04-17T10:07:15Z</time>
      </trkpt>
      <trkpt lat="47.1285" lon="6.17534">
        <ele>382.092</ele>
        <time>2011-04-17T10:07:19Z</time>
      </trkpt>
      <trkpt lat="47.12854" lon="6.17524">
        <ele>381.526</ele>
        <time>2011-04-17T10:07:21Z</time>
      </trkpt>
      <trkpt lat="47.12868" lon="6.17507">
        <ele>380.012</ele>
        <time>2011-04-17T10:07:25Z</time>
      </trkpt>
      <trkpt lat="47.12872" lon="6.17501">
        <ele>380.019</ele>
        <time>2011-04-17T10:07:26Z</time>
      </trkpt>
      <trkpt lat="47.12885" lon="6.17477">
        <ele>377.846</ele>
        <time>2011-04-17T10:07:30Z</time>
      </trkpt>
      <trkpt lat="47.12886" lon="6.17451">
        <ele>377.314</ele>
        <time>2011-04-17T10:07:34Z</time>
      </trkpt>
      <trkpt lat="47.12883" lon="6.17444">
        <ele>377.259</ele>
        <time>2011-04-17T10:07:35Z</time>
      </trkpt>
      <trkpt lat="47.12873" lon="6.17415">
        <ele>377.562</ele>
        <time>2011-04-17T10:07:39Z</time>
      </trkpt>
      <trkpt lat="47.12863" lon="6.17369">
        <ele>377.142</ele>
        <time>2011-04-17T10:07:44Z</time>
      </trkpt>
      <trkpt lat="47.12854" lon="6.1733">
        <ele>376.923</ele>
        <time>2011-04-17T10:07:48Z</time>
      </trkpt>
      <trkpt lat="47.12846" lon="6.17301">
        <ele>376.907</ele>
        <time>2011-04-17T10:07:51Z</time>
      </trkpt>
      <trkpt lat="47.12843" lon="6.17247">
        <ele>376.409</ele>
        <time>2011-04-17T10:07:56Z</time>
      </trkpt>
      <trkpt lat="47.12845" lon="6.17235">
        <ele>375.879</ele>
        <time>2011-04-17T10:07:57Z</time>
      </trkpt>
      <trkpt lat="47.12852" lon="6.17192">
        <ele>374.084</ele>
        <time>2011-04-17T10:08:01Z</time>
      </trkpt>
      <trkpt lat="47.12859" lon="6.17141">
        <ele>373.892</ele>
        <time>2011-04-17T10:08:06Z</time>
      </trkpt>
      <trkpt lat="47.12853" lon="6.17104">
        <ele>373.692</ele>
        <time>2011-04-17T10:08:10Z</time>
      </trkpt>
      <trkpt lat="47.12852" lon="6.17062">
        <ele>373.185</ele>
        <time>2011-04-17T10:08:14Z</time>
      </trkpt>
      <trkpt lat="47.12858" lon="6.17012">
        <ele>373.044</ele>
        <time>2011-04-17T10:08:19Z</time>
      </trkpt>
      <trkpt lat="47.12856" lon="6.16965">
        <ele>373.548</ele>
        <time>2011-04-17T10:08:24Z</time>
      </trkpt>
      <trkpt lat="47.12856" lon="6.169">
        <ele>374.777</ele>
        <time>2011-04-17T10:08:31Z</time>
      </trkpt>
      <trkpt lat="47.12864" lon="6.16841">
        <ele>373.673</ele>
        <time>2011-04-17T10:08:37Z</time>
      </trkpt>
      <trkpt lat="47.12879" lon="6.1677">
        <ele>372.242</ele>
        <time>2011-04-17T10:08:44Z</time>
      </trkpt>
      <trkpt lat="47.12898" lon="6.16672">
        <ele>370.969</ele>
        <time>2011-04-17T10:08:53Z</time>
      </trkpt>
      <trkpt lat="47.1292" lon="6.16591">
        <ele>370.008</ele>
        <time>2011-04-17T10:09:01Z</time>
      </trkpt>
      <trkpt lat="47.12943" lon="6.16502">
        <ele>369.172</ele>
        <time>2011-04-17T10:09:10Z</time>
      </trkpt>
      <trkpt lat="47.12946" lon="6.16492">
        <ele>369.119</ele>
        <time>2011-04-17T10:09:11Z</time>
      </trkpt>
      <trkpt lat="47.12966" lon="6.16462">
        <ele>368.423</ele>
        <time>2011-04-17T10:09:15Z</time>
      </trkpt>
      <trkpt lat="47.12991" lon="6.16451">
        <ele>368.369</ele>
        <time>2011-04-17T10:09:19Z</time>
      </trkpt>
      <trkpt lat="47.12998" lon="6.16452">
        <ele>368.857</ele>
        <time>2011-04-17T10:09:21Z</time>
      </trkpt>
      <trkpt lat="47.13008" lon="6.16447">
        <ele>368.841</ele>
        <time>2011-04-17T10:09:25Z</time>
      </trkpt>
      <trkpt lat="47.1302" lon="6.16438">
        <ele>368.333</ele>
        <time>2011-04-17T10:09:28Z</time>
      </trkpt>
      <trkpt lat="47.13028" lon="6.16407">
        <ele>368.334</ele>
        <time>2011-04-17T10:09:32Z</time>
      </trkpt>
      <trkpt lat="47.13035" lon="6.16379">
        <ele>368.304</ele>
        <time>2011-04-17T10:09:35Z</time>
      </trkpt>
      <trkpt lat="47.13046" lon="6.16331">
        <ele>368.006</ele>
        <time>2011-04-17T10:09:40Z</time>
      </trkpt>
      <trkpt lat="47.13066" lon="6.16258">
        <ele>367.196</ele>
        <time>2011-04-17T10:09:48Z</time>
      </trkpt>
      <trkpt lat="47.13078" lon="6.16214">
        <ele>366.269</ele>
        <time>2011-04-17T10:09:53Z</time>
      </trkpt>
      <trkpt lat="47.13082" lon="6.16168">
        <ele>365.943</ele>
        <time>2011-04-17T10:09:58Z</time>
      </trkpt>
      <trkpt lat="47.13084" lon="6.16125">
        <ele>365.506</ele>
        <time>2011-04-17T10:10:03Z</time>
      </trkpt>
      <trkpt lat="47.1309" lon="6.16112">
        <ele>365.369</ele>
        <time>2011-04-17T10:10:05Z</time>
      </trkpt>
      <trkpt lat="47.13106" lon="6.16082">
        <ele>365.043</ele>
        <time>2011-04-17T10:10:10Z</time>
      </trkpt>
      <trkpt lat="47.13119" lon="6.16043">
        <ele>365.09</ele>
        <time>2011-04-17T10:10:17Z</time>
      </trkpt>
      <trkpt lat="47.13131" lon="6.1602">
        <ele>365.21</ele>
        <time>2011-04-17T10:10:23Z</time>
      </trkpt>
      <trkpt lat="47.13133" lon="6.1602">
        <ele>365.475</ele>
        <time>2011-04-17T10:10:24Z</time>
      </trkpt>
      <trkpt lat="47.13146" lon="6.16031">
        <ele>366.76</ele>
        <time>2011-04-17T10:10:30Z</time>
      </trkpt>
      <trkpt lat="47.13158" lon="6.16042">
        <ele>368.427</ele>
        <time>2011-04-17T10:10:36Z</time>
      </trkpt>
      <trkpt lat="47.13174" lon="6.16054">
        <ele>370.648</ele>
        <time>2011-04-17T10:10:44Z</time>
      </trkpt>
      <trkpt lat="47.13195" lon="6.16066">
        <ele>372.176</ele>
        <time>2011-04-17T10:10:54Z</time>
      </trkpt>
      <trkpt lat="47.1321" lon="6.16073">
        <ele>373.902</ele>
        <time>2011-04-17T10:11:02Z</time>
      </trkpt>
      <trkpt lat="47.13217" lon="6.16078">
        <ele>374.641</ele>
        <time>2011-04-17T10:11:07Z</time>
      </trkpt>
      <trkpt lat="47.13229" lon="6.16088">
        <ele>375.936</ele>
        <time>2011-04-17T10:11:16Z</time>
      </trkpt>
      <trkpt lat="47.13242" lon="6.161">
        <ele>377.56</ele>
        <time>2011-04-17T10:11:26Z</time>
      </trkpt>
      <trkpt lat="47.13251" lon="6.16111">
        <ele>379.262</ele>
        <time>2011-04-17T10:11:36Z</time>
      </trkpt>
      <trkpt lat="47.13252" lon="6.16113">
        <ele>379.259</ele>
        <time>2011-04-17T10:11:37Z</time>
      </trkpt>
      <trkpt lat="47.13259" lon="6.1612">
        <ele>380.552</ele>
        <time>2011-04-17T10:11:45Z</time>
      </trkpt>
      <trkpt lat="47.13267" lon="6.16129">
        <ele>381.893</ele>
        <time>2011-04-17T10:11:54Z</time>
      </trkpt>
      <trkpt lat="47.13271" lon="6.16132">
        <ele>382.691</ele>
        <time>2011-04-17T10:12:01Z</time>
      </trkpt>
      <trkpt lat="47.13274" lon="6.16136">
        <ele>383.673</ele>
        <time>2011-04-17T10:12:07Z</time>
      </trkpt>
      <trkpt lat="47.13275" lon="6.16138">
        <ele>383.939</ele>
        <time>2011-04-17T10:12:09Z</time>
      </trkpt>
      <trkpt lat="47.1328" lon="6.16147">
        <ele>385.103</ele>
        <time>2011-04-17T10:12:16Z</time>
      </trkpt>
      <trkpt lat="47.1328" lon="6.16149">
        <ele>385.208</ele>
        <time>2011-04-17T10:12:17Z</time>
      </trkpt>
      <trkpt lat="47.13284" lon="6.16154">
        <ele>385.98</ele>
        <time>2011-04-17T10:12:23Z</time>
      </trkpt>
      <trkpt lat="47.13285" lon="6.16158">
        <ele>386.352</ele>
        <time>2011-04-17T10:12:30Z</time>
      </trkpt>
      <trkpt lat="47.13286" lon="6.16159">
        <ele>386.519</ele>
        <time>2011-04-17T10:12:32Z</time>
      </trkpt>
      <trkpt lat="47.1329" lon="6.16162">
        <ele>387.019</ele>
        <time>2011-04-17T10:12:36Z</time>
      </trkpt>
      <trkpt lat="47.13296" lon="6.16166">
        <ele>388.465</ele>
        <time>2011-04-17T10:12:45Z</time>
      </trkpt>
      <trkpt lat="47.13302" lon="6.1617">
        <ele>389.576</ele>
        <time>2011-04-17T10:12:52Z</time>
      </trkpt>
      <trkpt lat="47.13306" lon="6.16175">
        <ele>390.418</ele>
        <time>2011-04-17T10:12:58Z</time>
      </trkpt>
      <trkpt lat="47.13309" lon="6.16184">
        <ele>391.591</ele>
        <time>2011-04-17T10:13:06Z</time>
      </trkpt>
      <trkpt lat="47.13309" lon="6.16188">
        <ele>392.909</ele>
        <time>2011-04-17T10:13:13Z</time>
      </trkpt>
      <trkpt lat="47.13306" lon="6.16188">
        <ele>394.058</ele>
        <time>2011-04-17T10:13:20Z</time>
      </trkpt>
      <trkpt lat="47.13305" lon="6.16189">
        <ele>394.641</ele>
        <time>2011-04-17T10:13:28Z</time>
      </trkpt>
      <trkpt lat="47.13304" lon="6.1619">
        <ele>394.881</ele>
        <time>2011-04-17T10:13:29Z</time>
      </trkpt>
      <trkpt lat="47.13295" lon="6.16191">
        <ele>395.998</ele>
        <time>2011-04-17T10:13:35Z</time>
      </trkpt>
      <trkpt lat="47.13284" lon="6.16195">
        <ele>397.288</ele>
        <time>2011-04-17T10:13:43Z</time>
      </trkpt>
      <trkpt lat="47.13282" lon="6.16196">
        <ele>397.628</ele>
        <time>2011-04-17T10:13:45Z</time>
      </trkpt>
      <trkpt lat="47.13276" lon="6.16198">
        <ele>398.439</ele>
        <time>2011-04-17T10:13:50Z</time>
      </trkpt>
      <trkpt lat="47.13268" lon="6.16202">
        <ele>399.864</ele>
        <time>2011-04-17T10:13:57Z</time>
      </trkpt>
      <trkpt lat="47.13263" lon="6.16208">
        <ele>401.277</ele>
        <time>2011-04-17T10:14:04Z</time>
      </trkpt>
      <trkpt lat="47.13259" lon="6.16208">
        <ele>401.791</ele>
        <time>2011-04-17T10:14:09Z</time>
      </trkpt>
      <trkpt lat="47.13256" lon="6.1621">
        <ele>402.356</ele>
        <time>2011-04-17T10:14:16Z</time>
      </trkpt>
      <trkpt lat="47.13254" lon="6.16212">
        <ele>402.715</ele>
        <time>2011-04-17T10:14:18Z</time>
      </trkpt>
      <trkpt lat="47.1325" lon="6.1622">
        <ele>404.103</ele>
        <time>2011-04-17T10:14:26Z</time>
      </trkpt>
      <trkpt lat="47.13247" lon="6.16228">
        <ele>405.274</ele>
        <time>2011-04-17T10:14:35Z</time>
      </trkpt>
      <trkpt lat="47.13244" lon="6.16233">
        <ele>406.815</ele>
        <time>2011-04-17T10:14:44Z</time>
      </trkpt>
      <trkpt lat="47.13242" lon="6.16239">
        <ele>407.594</ele>
        <time>2011-04-17T10:14:50Z</time>
      </trkpt>
      <trkpt lat="47.13235" lon="6.16245">
        <ele>408.578</ele>
        <time>2011-04-17T10:14:58Z</time>
      </trkpt>
      <trkpt lat="47.13228" lon="6.16248">
        <ele>409.362</ele>
        <time>2011-04-17T10:15:05Z</time>
      </trkpt>
      <trkpt lat="47.13224" lon="6.16253">
        <ele>410.806</ele>
        <time>2011-04-17T10:15:13Z</time>
      </trkpt>
      <trkpt lat="47.13225" lon="6.16262">
        <ele>411.742</ele>
        <time>2011-04-17T10:15:21Z</time>
      </trkpt>
      <trkpt lat="47.13228" lon="6.16264">
        <ele>412.512</ele>
        <time>2011-04-17T10:15:27Z</time>
      </trkpt>
      <trkpt lat="47.1323" lon="6.16264">
        <ele>413.325</ele>
        <time>2011-04-17T10:15:34Z</time>
      </trkpt>
      <trkpt lat="47.13231" lon="6.16264">
        <ele>413.312</ele>
        <time>2011-04-17T10:15:35Z</time>
      </trkpt>
      <trkpt lat="47.13235" lon="6.16261">
        <ele>414.254</ele>
        <time>2011-04-17T10:15:43Z</time>
      </trkpt>
      <trkpt lat="47.13239" lon="6.16257">
        <ele>415.316</ele>
        <time>2011-04-17T10:15:52Z</time>
      </trkpt>
      <trkpt lat="47.13243" lon="6.16256">
        <ele>416.657</ele>
        <time>2011-04-17T10:16:00Z</time>
      </trkpt>
      <trkpt lat="47.13243" lon="6.16256">
        <ele>416.824</ele>
        <time>2011-04-17T10:16:01Z</time>
      </trkpt>
      <trkpt lat="47.13251" lon="6.16257">
        <ele>418.885</ele>
        <time>2011-04-17T10:16:11Z</time>
      </trkpt>
      <trkpt lat="47.13258" lon="6.16258">
        <ele>419.653</ele>
        <time>2011-04-17T10:16:20Z</time>
      </trkpt>
      <trkpt lat="47.13262" lon="6.16259">
        <ele>420.356</ele>
        <time>2011-04-17T10:16:25Z</time>
      </trkpt>
      <trkpt lat="47.13265" lon="6.16257">
        <ele>421.065</ele>
        <time>2011-04-17T10:16:44Z</time>
      </trkpt>
      <trkpt lat="47.1327" lon="6.16258">
        <ele>422.242</ele>
        <time>2011-04-17T10:16:52Z</time>
      </trkpt>
      <trkpt lat="47.13278" lon="6.1626">
        <ele>423.892</ele>
        <time>2011-04-17T10:17:04Z</time>
      </trkpt>
      <trkpt lat="47.13281" lon="6.16261">
        <ele>424.698</ele>
        <time>2011-04-17T10:17:08Z</time>
      </trkpt>
      <trkpt lat="47.13285" lon="6.16263">
        <ele>426.088</ele>
        <time>2011-04-17T10:17:17Z</time>
      </trkpt>
      <trkpt lat="47.1329" lon="6.16264">
        <ele>427.205</ele>
        <time>2011-04-17T10:17:25Z</time>
      </trkpt>
      <trkpt lat="47.13295" lon="6.16268">
        <ele>428.532</ele>
        <time>2011-04-17T10:17:32Z</time>
      </trkpt>
      <trkpt lat="47.13301" lon="6.1627">
        <ele>429.547</ele>
        <time>2011-04-17T10:17:40Z</time>
      </trkpt>
      <trkpt lat="47.13301" lon="6.16271">
        <ele>429.565</ele>
        <time>2011-04-17T10:17:41Z</time>
      </trkpt>
      <trkpt lat="47.13303" lon="6.1627">
        <ele>430.33</ele>
        <time>2011-04-17T10:17:57Z</time>
      </trkpt>
      <trkpt lat="47.13306" lon="6.16271">
        <ele>430.666</ele>
        <time>2011-04-17T10:18:02Z</time>
      </trkpt>
      <trkpt lat="47.1331" lon="6.16273">
        <ele>431.092</ele>
        <time>2011-04-17T10:18:08Z</time>
      </trkpt>
      <trkpt lat="47.13313" lon="6.16275">
        <ele>432.214</ele>
        <time>2011-04-17T10:18:15Z</time>
      </trkpt>
      <trkpt lat="47.13319" lon="6.1628">
        <ele>433.448</ele>
        <time>2011-04-17T10:18:24Z</time>
      </trkpt>
      <trkpt lat="47.1332" lon="6.16282">
        <ele>434.417</ele>
        <time>2011-04-17T10:18:30Z</time>
      </trkpt>
      <trkpt lat="47.13325" lon="6.16285">
        <ele>435.816</ele>
        <time>2011-04-17T10:18:39Z</time>
      </trkpt>
      <trkpt lat="47.13332" lon="6.16289">
        <ele>436.914</ele>
        <time>2011-04-17T10:18:48Z</time>
      </trkpt>
      <trkpt lat="47.13336" lon="6.16291">
        <ele>437.949</ele>
        <time>2011-04-17T10:18:55Z</time>
      </trkpt>
      <trkpt lat="47.13341" lon="6.16294">
        <ele>439.18</ele>
        <time>2011-04-17T10:19:02Z</time>
      </trkpt>
      <trkpt lat="47.13346" lon="6.16294">
        <ele>440.427</ele>
        <time>2011-04-17T10:19:12Z</time>
      </trkpt>
      <trkpt lat="47.13352" lon="6.16296">
        <ele>441.874</ele>
        <time>2011-04-17T10:19:21Z</time>
      </trkpt>
      <trkpt lat="47.13357" lon="6.16301">
        <ele>443.382</ele>
        <time>2011-04-17T10:19:29Z</time>
      </trkpt>
      <trkpt lat="47.13362" lon="6.16306">
        <ele>444.698</ele>
        <time>2011-04-17T10:19:38Z</time>
      </trkpt>
      <trkpt lat="47.13368" lon="6.16312">
        <ele>446.021</ele>
        <time>2011-04-17T10:19:46Z</time>
      </trkpt>
      <trkpt lat="47.13371" lon="6.16313">
        <ele>447.321</ele>
        <time>2011-04-17T10:19:54Z</time>
      </trkpt>
      <trkpt lat="47.13377" lon="6.16317">
        <ele>448.769</ele>
        <time>2011-04-17T10:20:03Z</time>
      </trkpt>
      <trkpt lat="47.1338" lon="6.1632">
        <ele>449.791</ele>
        <time>2011-04-17T10:20:09Z</time>
      </trkpt>
      <trkpt lat="47.1338" lon="6.16321">
        <ele>450.166</ele>
        <time>2011-04-17T10:20:11Z</time>
      </trkpt>
      <trkpt lat="47.13384" lon="6.16326">
        <ele>452.105</ele>
        <time>2011-04-17T10:20:20Z</time>
      </trkpt>
      <trkpt lat="47.13391" lon="6.16331">
        <ele>453.042</ele>
        <time>2011-04-17T10:20:28Z</time>
      </trkpt>
      <trkpt lat="47.13398" lon="6.16339">
        <ele>454.291</ele>
        <time>2011-04-17T10:20:36Z</time>
      </trkpt>
      <trkpt lat="47.13399" lon="6.1634">
        <ele>454.654</ele>
        <time>2011-04-17T10:20:38Z</time>
      </trkpt>
      <trkpt lat="47.13404" lon="6.16346">
        <ele>455.745</ele>
        <time>2011-04-17T10:20:45Z</time>
      </trkpt>
      <trkpt lat="47.13409" lon="6.16353">
        <ele>456.906</ele>
        <time>2011-04-17T10:20:53Z</time>
      </trkpt>
      <trkpt lat="47.13412" lon="6.16361">
        <ele>458.167</ele>
        <time>2011-04-17T10:21:02Z</time>
      </trkpt>
      <trkpt lat="47.13415" lon="6.16367">
        <ele>459.362</ele>
        <time>2011-04-17T10:21:09Z</time>
      </trkpt>
      <trkpt lat="47.13418" lon="6.16372">
        <ele>460.628</ele>
        <time>2011-04-17T10:21:16Z</time>
      </trkpt>
      <trkpt lat="47.13422" lon="6.16377">
        <ele>461.472</ele>
        <time>2011-04-17T10:21:23Z</time>
      </trkpt>
      <trkpt lat="47.13425" lon="6.16382">
        <ele>462.493</ele>
        <time>2011-04-17T10:21:29Z</time>
      </trkpt>
      <trkpt lat="47.13427" lon="6.16386">
        <ele>463.587</ele>
        <time>2011-04-17T10:21:36Z</time>
      </trkpt>
      <trkpt lat="47.13427" lon="6.16395">
        <ele>464.572</ele>
        <time>2011-04-17T10:21:43Z</time>
      </trkpt>
      <trkpt lat="47.13429" lon="6.16401">
        <ele>465.596</ele>
        <time>2011-04-17T10:21:50Z</time>
      </trkpt>
      <trkpt lat="47.1343" lon="6.16402">
        <ele>465.76</ele>
        <time>2011-04-17T10:21:51Z</time>
      </trkpt>
      <trkpt lat="47.13434" lon="6.16412">
        <ele>467.099</ele>
        <time>2011-04-17T10:22:00Z</time>
      </trkpt>
      <trkpt lat="47.13435" lon="6.16414">
        <ele>467.5</ele>
        <time>2011-04-17T10:22:02Z</time>
      </trkpt>
      <trkpt lat="47.13436" lon="6.16417">
        <ele>468.075</ele>
        <time>2011-04-17T10:22:05Z</time>
      </trkpt>
      <trkpt lat="47.13439" lon="6.16428">
        <ele>469.404</ele>
        <time>2011-04-17T10:22:14Z</time>
      </trkpt>
      <trkpt lat="47.13438" lon="6.16437">
        <ele>470.724</ele>
        <time>2011-04-17T10:22:22Z</time>
      </trkpt>
      <trkpt lat="47.1344" lon="6.1645">
        <ele>472.016</ele>
        <time>2011-04-17T10:22:32Z</time>
      </trkpt>
      <trkpt lat="47.13443" lon="6.16461">
        <ele>472.869</ele>
        <time>2011-04-17T10:22:41Z</time>
      </trkpt>
      <trkpt lat="47.13445" lon="6.1647">
        <ele>474.002</ele>
        <time>2011-04-17T10:22:49Z</time>
      </trkpt>
      <trkpt lat="47.13447" lon="6.16481">
        <ele>474.827</ele>
        <time>2011-04-17T10:22:58Z</time>
      </trkpt>
      <trkpt lat="47.13448" lon="6.16487">
        <ele>475.48</ele>
        <time>2011-04-17T10:23:03Z</time>
      </trkpt>
      <trkpt lat="47.13449" lon="6.16496">
        <ele>476.225</ele>
        <time>2011-04-17T10:23:11Z</time>
      </trkpt>
      <trkpt lat="47.13448" lon="6.16498">
        <ele>476.743</ele>
        <time>2011-04-17T10:23:16Z</time>
      </trkpt>
      <trkpt lat="47.1345" lon="6.16504">
        <ele>476.862</ele>
        <time>2011-04-17T10:23:22Z</time>
      </trkpt>
      <trkpt lat="47.13455" lon="6.16519">
        <ele>478.497</ele>
        <time>2011-04-17T10:23:31Z</time>
      </trkpt>
      <trkpt lat="47.13457" lon="6.16529">
        <ele>479.418</ele>
        <time>2011-04-17T10:23:37Z</time>
      </trkpt>
      <trkpt lat="47.13458" lon="6.16541">
        <ele>480.368</ele>
        <time>2011-04-17T10:23:44Z</time>
      </trkpt>
      <trkpt lat="47.1346" lon="6.16542">
        <ele>480.649</ele>
        <time>2011-04-17T10:23:47Z</time>
      </trkpt>
      <trkpt lat="47.13457" lon="6.16551">
        <ele>481.734</ele>
        <time>2011-04-17T10:24:00Z</time>
      </trkpt>
      <trkpt lat="47.13454" lon="6.16552">
        <ele>482.6</ele>
        <time>2011-04-17T10:24:07Z</time>
      </trkpt>
      <trkpt lat="47.13448" lon="6.1655">
        <ele>483.767</ele>
        <time>2011-04-17T10:24:16Z</time>
      </trkpt>
      <trkpt lat="47.1344" lon="6.16545">
        <ele>485.003</ele>
        <time>2011-04-17T10:24:25Z</time>
      </trkpt>
      <trkpt lat="47.13436" lon="6.1654">
        <ele>486.212</ele>
        <time>2011-04-17T10:24:33Z</time>
      </trkpt>
      <trkpt lat="47.13435" lon="6.1654">
        <ele>486.32</ele>
        <time>2011-04-17T10:24:34Z</time>
      </trkpt>
      <trkpt lat="47.13429" lon="6.16533">
        <ele>487.363</ele>
        <time>2011-04-17T10:24:43Z</time>
      </trkpt>
      <trkpt lat="47.13424" lon="6.16528">
        <ele>488.282</ele>
        <time>2011-04-17T10:24:51Z</time>
      </trkpt>
      <trkpt lat="47.13419" lon="6.16525">
        <ele>488.997</ele>
        <time>2011-04-17T10:24:56Z</time>
      </trkpt>
      <trkpt lat="47.13416" lon="6.16522">
        <ele>489.469</ele>
        <time>2011-04-17T10:25:00Z</time>
      </trkpt>
      <trkpt lat="47.13408" lon="6.16516">
        <ele>490.423</ele>
        <time>2011-04-17T10:25:10Z</time>
      </trkpt>
      <trkpt lat="47.13405" lon="6.16511">
        <ele>491.386</ele>
        <time>2011-04-17T10:25:16Z</time>
      </trkpt>
      <trkpt lat="47.134" lon="6.16508">
        <ele>491.97</ele>
        <time>2011-04-17T10:25:21Z</time>
      </trkpt>
      <trkpt lat="47.13398" lon="6.16506">
        <ele>492.29</ele>
        <time>2011-04-17T10:25:23Z</time>
      </trkpt>
      <trkpt lat="47.13394" lon="6.16499">
        <ele>493.446</ele>
        <time>2011-04-17T10:25:33Z</time>
      </trkpt>
      <trkpt lat="47.13391" lon="6.16494">
        <ele>494.66</ele>
        <time>2011-04-17T10:25:40Z</time>
      </trkpt>
      <trkpt lat="47.13385" lon="6.16488">
        <ele>495.465</ele>
        <time>2011-04-17T10:25:48Z</time>
      </trkpt>
      <trkpt lat="47.13378" lon="6.1648">
        <ele>496.255</ele>
        <time>2011-04-17T10:25:56Z</time>
      </trkpt>
      <trkpt lat="47.13373" lon="6.16475">
        <ele>497.394</ele>
        <time>2011-04-17T10:26:04Z</time>
      </trkpt>
      <trkpt lat="47.1337" lon="6.16473">
        <ele>498.178</ele>
        <time>2011-04-17T10:26:10Z</time>
      </trkpt>
      <trkpt lat="47.13363" lon="6.16472">
        <ele>499.063</ele>
        <time>2011-04-17T10:26:19Z</time>
      </trkpt>
      <trkpt lat="47.13359" lon="6.1647">
        <ele>499.75</ele>
        <time>2011-04-17T10:26:25Z</time>
      </trkpt>
      <trkpt lat="47.13355" lon="6.16469">
        <ele>501.016</ele>
        <time>2011-04-17T10:26:32Z</time>
      </trkpt>
      <trkpt lat="47.1335" lon="6.16468">
        <ele>502.125</ele>
        <time>2011-04-17T10:26:40Z</time>
      </trkpt>
      <trkpt lat="47.13344" lon="6.16467">
        <ele>502.719</ele>
        <time>2011-04-17T10:26:47Z</time>
      </trkpt>
      <trkpt lat="47.13339" lon="6.16467">
        <ele>503.264</ele>
        <time>2011-04-17T10:26:53Z</time>
      </trkpt>
      <trkpt lat="47.13332" lon="6.16468">
        <ele>504.691</ele>
        <time>2011-04-17T10:27:02Z</time>
      </trkpt>
      <trkpt lat="47.13329" lon="6.16468">
        <ele>505.548</ele>
        <time>2011-04-17T10:27:08Z</time>
      </trkpt>
      <trkpt lat="47.13327" lon="6.16469">
        <ele>506.027</ele>
        <time>2011-04-17T10:27:14Z</time>
      </trkpt>
      <trkpt lat="47.13326" lon="6.1647">
        <ele>506.418</ele>
        <time>2011-04-17T10:27:16Z</time>
      </trkpt>
      <trkpt lat="47.13323" lon="6.16475">
        <ele>507.804</ele>
        <time>2011-04-17T10:27:25Z</time>
      </trkpt>
      <trkpt lat="47.13321" lon="6.16476">
        <ele>508.309</ele>
        <time>2011-04-17T10:27:50Z</time>
      </trkpt>
      <trkpt lat="47.13318" lon="6.16483">
        <ele>509.242</ele>
        <time>2011-04-17T10:27:57Z</time>
      </trkpt>
      <trkpt lat="47.13319" lon="6.16491">
        <ele>510.111</ele>
        <time>2011-04-17T10:28:05Z</time>
      </trkpt>
      <trkpt lat="47.13323" lon="6.16498">
        <ele>511.178</ele>
        <time>2011-04-17T10:28:13Z</time>
      </trkpt>
      <trkpt lat="47.13323" lon="6.165">
        <ele>511.652</ele>
        <time>2011-04-17T10:28:15Z</time>
      </trkpt>
      <trkpt lat="47.13325" lon="6.16506">
        <ele>512.637</ele>
        <time>2011-04-17T10:28:23Z</time>
      </trkpt>
      <trkpt lat="47.13326" lon="6.16516">
        <ele>513.925</ele>
        <time>2011-04-17T10:28:31Z</time>
      </trkpt>
      <trkpt lat="47.13326" lon="6.16517">
        <ele>514.075</ele>
        <time>2011-04-17T10:28:32Z</time>
      </trkpt>
      <trkpt lat="47.13326" lon="6.1653">
        <ele>515.273</ele>
        <time>2011-04-17T10:28:42Z</time>
      </trkpt>
      <trkpt lat="47.13326" lon="6.16538">
        <ele>516.391</ele>
        <time>2011-04-17T10:28:49Z</time>
      </trkpt>
      <trkpt lat="47.13326" lon="6.1654">
        <ele>516.471</ele>
        <time>2011-04-17T10:28:50Z</time>
      </trkpt>
      <trkpt lat="47.13325" lon="6.16545">
        <ele>516.712</ele>
        <time>2011-04-17T10:28:54Z</time>
      </trkpt>
      <trkpt lat="47.13323" lon="6.16556">
        <ele>517.746</ele>
        <time>2011-04-17T10:29:03Z</time>
      </trkpt>
      <trkpt lat="47.13323" lon="6.16559">
        <ele>517.877</ele>
        <time>2011-04-17T10:29:05Z</time>
      </trkpt>
      <trkpt lat="47.13324" lon="6.16559">
        <ele>518.102</ele>
        <time>2011-04-17T10:29:11Z</time>
      </trkpt>
      <trkpt lat="47.13327" lon="6.16569">
        <ele>518.349</ele>
        <time>2011-04-17T10:29:37Z</time>
      </trkpt>
      <trkpt lat="47.13327" lon="6.1657">
        <ele>518.321</ele>
        <time>2011-04-17T10:29:38Z</time>
      </trkpt>
      <trkpt lat="47.13328" lon="6.16581">
        <ele>518.802</ele>
        <time>2011-04-17T10:29:47Z</time>
      </trkpt>
      <trkpt lat="47.13328" lon="6.16582">
        <ele>519.004</ele>
        <time>2011-04-17T10:29:50Z</time>
      </trkpt>
      <trkpt lat="47.13333" lon="6.16603">
        <ele>519.788</ele>
        <time>2011-04-17T10:30:04Z</time>
      </trkpt>
      <trkpt lat="47.13335" lon="6.16622">
        <ele>520.348</ele>
        <time>2011-04-17T10:30:13Z</time>
      </trkpt>
      <trkpt lat="47.13336" lon="6.16648">
        <ele>521.415</ele>
        <time>2011-04-17T10:30:23Z</time>
      </trkpt>
      <trkpt lat="47.13336" lon="6.16668">
        <ele>522.473</ele>
        <time>2011-04-17T10:30:31Z</time>
      </trkpt>
      <trkpt lat="47.13335" lon="6.16688">
        <ele>524.128</ele>
        <time>2011-04-17T10:30:39Z</time>
      </trkpt>
      <trkpt lat="47.13332" lon="6.16705">
        <ele>524.996</ele>
        <time>2011-04-17T10:30:46Z</time>
      </trkpt>
      <trkpt lat="47.13328" lon="6.16723">
        <ele>525.845</ele>
        <time>2011-04-17T10:30:54Z</time>
      </trkpt>
      <trkpt lat="47.13326" lon="6.16739">
        <ele>527.332</ele>
        <time>2011-04-17T10:31:02Z</time>
      </trkpt>
      <trkpt lat="47.13327" lon="6.16757">
        <ele>528.343</ele>
        <time>2011-04-17T10:31:11Z</time>
      </trkpt>
      <trkpt lat="47.13328" lon="6.16777">
        <ele>529.083</ele>
        <time>2011-04-17T10:31:19Z</time>
      </trkpt>
      <trkpt lat="47.13331" lon="6.16798">
        <ele>529.921</ele>
        <time>2011-04-17T10:31:27Z</time>
      </trkpt>
      <trkpt lat="47.13335" lon="6.16824">
        <ele>531.334</ele>
        <time>2011-04-17T10:31:37Z</time>
      </trkpt>
      <trkpt lat="47.13339" lon="6.16846">
        <ele>531.972</ele>
        <time>2011-04-17T10:31:45Z</time>
      </trkpt>
      <trkpt lat="47.13347" lon="6.1686">
        <ele>532.342</ele>
        <time>2011-04-17T10:31:51Z</time>
      </trkpt>
      <trkpt lat="47.13361" lon="6.16874">
        <ele>532.433</ele>
        <time>2011-04-17T10:31:57Z</time>
      </trkpt>
      <trkpt lat="47.13383" lon="6.16893">
        <ele>532.762</ele>
        <time>2011-04-17T10:32:06Z</time>
      </trkpt>
      <trkpt lat="47.13403" lon="6.16909">
        <ele>533.102</ele>
        <time>2011-04-17T10:32:14Z</time>
      </trkpt>
      <trkpt lat="47.13429" lon="6.1693">
        <ele>533.734</ele>
        <time>2011-04-17T10:32:24Z</time>
      </trkpt>
      <trkpt lat="47.13445" lon="6.16935">
        <ele>534.308</ele>
        <time>2011-04-17T10:32:30Z</time>
      </trkpt>
      <trkpt lat="47.13466" lon="6.16927">
        <ele>534.047</ele>
        <time>2011-04-17T10:32:36Z</time>
      </trkpt>
      <trkpt lat="47.1349" lon="6.1692">
        <ele>533.152</ele>
        <time>2011-04-17T10:32:41Z</time>
      </trkpt>
      <trkpt lat="47.13523" lon="6.16909">
        <ele>530.944</ele>
        <time>2011-04-17T10:32:46Z</time>
      </trkpt>
      <trkpt lat="47.13537" lon="6.16902">
        <ele>530.186</ele>
        <time>2011-04-17T10:32:48Z</time>
      </trkpt>
      <trkpt lat="47.13558" lon="6.16874">
        <ele>529.52</ele>
        <time>2011-04-17T10:32:52Z</time>
      </trkpt>
      <trkpt lat="47.13562" lon="6.16866">
        <ele>529.414</ele>
        <time>2011-04-17T10:32:53Z</time>
      </trkpt>
      <trkpt lat="47.1357" lon="6.16841">
        <ele>529.378</ele>
        <time>2011-04-17T10:32:56Z</time>
      </trkpt>
      <trkpt lat="47.13575" lon="6.16808">
        <ele>530.582</ele>
        <time>2011-04-17T10:33:02Z</time>
      </trkpt>
      <trkpt lat="47.13578" lon="6.16782">
        <ele>532.073</ele>
        <time>2011-04-17T10:33:09Z</time>
      </trkpt>
      <trkpt lat="47.13582" lon="6.16757">
        <ele>533.247</ele>
        <time>2011-04-17T10:33:16Z</time>
      </trkpt>
      <trkpt lat="47.13584" lon="6.16742">
        <ele>534.115</ele>
        <time>2011-04-17T10:33:20Z</time>
      </trkpt>
      <trkpt lat="47.13588" lon="6.16716">
        <ele>534.788</ele>
        <time>2011-04-17T10:33:27Z</time>
      </trkpt>
      <trkpt lat="47.13591" lon="6.16675">
        <ele>535.629</ele>
        <time>2011-04-17T10:33:37Z</time>
      </trkpt>
      <trkpt lat="47.13596" lon="6.16647">
        <ele>536.571</ele>
        <time>2011-04-17T10:33:44Z</time>
      </trkpt>
      <trkpt lat="47.13603" lon="6.16604">
        <ele>537.44</ele>
        <time>2011-04-17T10:33:55Z</time>
      </trkpt>
      <trkpt lat="47.13607" lon="6.16561">
        <ele>537.9</ele>
        <time>2011-04-17T10:34:05Z</time>
      </trkpt>
      <trkpt lat="47.13611" lon="6.16523">
        <ele>538.397</ele>
        <time>2011-04-17T10:34:14Z</time>
      </trkpt>
      <trkpt lat="47.13613" lon="6.16485">
        <ele>538.927</ele>
        <time>2011-04-17T10:34:23Z</time>
      </trkpt>
      <trkpt lat="47.13614" lon="6.16446">
        <ele>539.633</ele>
        <time>2011-04-17T10:34:32Z</time>
      </trkpt>
      <trkpt lat="47.13617" lon="6.16413">
        <ele>539.975</ele>
        <time>2011-04-17T10:34:40Z</time>
      </trkpt>
      <trkpt lat="47.13617" lon="6.16393">
        <ele>540.436</ele>
        <time>2011-04-17T10:34:46Z</time>
      </trkpt>
      <trkpt lat="47.13617" lon="6.1639">
        <ele>540.463</ele>
        <time>2011-04-17T10:34:47Z</time>
      </trkpt>
      <trkpt lat="47.13616" lon="6.16371">
        <ele>540.584</ele>
        <time>2011-04-17T10:34:52Z</time>
      </trkpt>
      <trkpt lat="47.13617" lon="6.16342">
        <ele>540.881</ele>
        <time>2011-04-17T10:34:59Z</time>
      </trkpt>
      <trkpt lat="47.13617" lon="6.16326">
        <ele>541.383</ele>
        <time>2011-04-17T10:35:03Z</time>
      </trkpt>
      <trkpt lat="47.13615" lon="6.16301">
        <ele>541.279</ele>
        <time>2011-04-17T10:35:08Z</time>
      </trkpt>
      <trkpt lat="47.13612" lon="6.16278">
        <ele>541.178</ele>
        <time>2011-04-17T10:35:13Z</time>
      </trkpt>
      <trkpt lat="47.13605" lon="6.16254">
        <ele>540.369</ele>
        <time>2011-04-17T10:35:18Z</time>
      </trkpt>
      <trkpt lat="47.13594" lon="6.16221">
        <ele>538.88</ele>
        <time>2011-04-17T10:35:24Z</time>
      </trkpt>
      <trkpt lat="47.13592" lon="6.16214">
        <ele>538.557</ele>
        <time>2011-04-17T10:35:25Z</time>
      </trkpt>
      <trkpt lat="47.13585" lon="6.16194">
        <ele>537.9</ele>
        <time>2011-04-17T10:35:29Z</time>
      </trkpt>
      <trkpt lat="47.1358" lon="6.1618">
        <ele>537.675</ele>
        <time>2011-04-17T10:35:32Z</time>
      </trkpt>
      <trkpt lat="47.1357" lon="6.16162">
        <ele>536.123</ele>
        <time>2011-04-17T10:35:35Z</time>
      </trkpt>
      <trkpt lat="47.13568" lon="6.16154">
        <ele>535.431</ele>
        <time>2011-04-17T10:35:36Z</time>
      </trkpt>
      <trkpt lat="47.13564" lon="6.16137">
        <ele>534.346</ele>
        <time>2011-04-17T10:35:38Z</time>
      </trkpt>
      <trkpt lat="47.13551" lon="6.16103">
        <ele>533.545</ele>
        <time>2011-04-17T10:35:44Z</time>
      </trkpt>
      <trkpt lat="47.13548" lon="6.16086">
        <ele>533.1</ele>
        <time>2011-04-17T10:35:49Z</time>
      </trkpt>
      <trkpt lat="47.13545" lon="6.16065">
        <ele>530.702</ele>
        <time>2011-04-17T10:35:54Z</time>
      </trkpt>
      <trkpt lat="47.13544" lon="6.16057">
        <ele>529.976</ele>
        <time>2011-04-17T10:35:56Z</time>
      </trkpt>
      <trkpt lat="47.13541" lon="6.16037">
        <ele>526.568</ele>
        <time>2011-04-17T10:36:01Z</time>
      </trkpt>
      <trkpt lat="47.13539" lon="6.16028">
        <ele>524.422</ele>
        <time>2011-04-17T10:36:04Z</time>
      </trkpt>
      <trkpt lat="47.13535" lon="6.16016">
        <ele>521.906</ele>
        <time>2011-04-17T10:36:09Z</time>
      </trkpt>
      <trkpt lat="47.13533" lon="6.16005">
        <ele>519.82</ele>
        <time>2011-04-17T10:36:13Z</time>
      </trkpt>
      <trkpt lat="47.13537" lon="6.16005">
        <ele>518.08</ele>
        <time>2011-04-17T10:36:18Z</time>
      </trkpt>
      <trkpt lat="47.13545" lon="6.16022">
        <ele>516.973</ele>
        <time>2011-04-17T10:36:23Z</time>
      </trkpt>
      <trkpt lat="47.13563" lon="6.16052">
        <ele>514.73</ele>
        <time>2011-04-17T10:36:29Z</time>
      </trkpt>
      <trkpt lat="47.13567" lon="6.16058">
        <ele>514.155</ele>
        <time>2011-04-17T10:36:30Z</time>
      </trkpt>
      <trkpt lat="47.13571" lon="6.16064">
        <ele>513.57</ele>
        <time>2011-04-17T10:36:31Z</time>
      </trkpt>
      <trkpt lat="47.13574" lon="6.16071">
        <ele>512.863</ele>
        <time>2011-04-17T10:36:32Z</time>
      </trkpt>
      <trkpt lat="47.13596" lon="6.16107">
        <ele>509.867</ele>
        <time>2011-04-17T10:36:38Z</time>
      </trkpt>
      <trkpt lat="47.13599" lon="6.16112">
        <ele>509.437</ele>
        <time>2011-04-17T10:36:39Z</time>
      </trkpt>
      <trkpt lat="47.1361" lon="6.16137">
        <ele>508.123</ele>
        <time>2011-04-17T10:36:45Z</time>
      </trkpt>
      <trkpt lat="47.13612" lon="6.16141">
        <ele>508.009</ele>
        <time>2011-04-17T10:36:46Z</time>
      </trkpt>
      <trkpt lat="47.13625" lon="6.16166">
        <ele>507.363</ele>
        <time>2011-04-17T10:36:53Z</time>
      </trkpt>
      <trkpt lat="47.13633" lon="6.1618">
        <ele>507.289</ele>
        <time>2011-04-17T10:36:58Z</time>
      </trkpt>
      <trkpt lat="47.13643" lon="6.16199">
        <ele>506.408</ele>
        <time>2011-04-17T10:37:03Z</time>
      </trkpt>
      <trkpt lat="47.13655" lon="6.1622">
        <ele>505.666</ele>
        <time>2011-04-17T10:37:08Z</time>
      </trkpt>
      <trkpt lat="47.13667" lon="6.16238">
        <ele>506.089</ele>
        <time>2011-04-17T10:37:14Z</time>
      </trkpt>
      <trkpt lat="47.13678" lon="6.16252">
        <ele>506.013</ele>
        <time>2011-04-17T10:37:20Z</time>
      </trkpt>
      <trkpt lat="47.13685" lon="6.1626">
        <ele>505.898</ele>
        <time>2011-04-17T10:37:27Z</time>
      </trkpt>
      <trkpt lat="47.13693" lon="6.1627">
        <ele>505.798</ele>
        <time>2011-04-17T10:37:33Z</time>
      </trkpt>
      <trkpt lat="47.13694" lon="6.16271">
        <ele>505.828</ele>
        <time>2011-04-17T10:37:34Z</time>
      </trkpt>
      <trkpt lat="47.13695" lon="6.16272">
        <ele>506.054</ele>
        <time>2011-04-17T10:37:38Z</time>
      </trkpt>
      <trkpt lat="47.13696" lon="6.16276">
        <ele>506.353</ele>
        <time>2011-04-17T10:37:44Z</time>
      </trkpt>
      <trkpt lat="47.137" lon="6.16287">
        <ele>506.889</ele>
        <time>2011-04-17T10:37:49Z</time>
      </trkpt>
      <trkpt lat="47.13709" lon="6.16306">
        <ele>508.11</ele>
        <time>2011-04-17T10:37:57Z</time>
      </trkpt>
      <trkpt lat="47.13715" lon="6.16316">
        <ele>508.528</ele>
        <time>2011-04-17T10:38:01Z</time>
      </trkpt>
      <trkpt lat="47.13724" lon="6.16334">
        <ele>508.441</ele>
        <time>2011-04-17T10:38:07Z</time>
      </trkpt>
      <trkpt lat="47.13737" lon="6.16352">
        <ele>507.909</ele>
        <time>2011-04-17T10:38:13Z</time>
      </trkpt>
      <trkpt lat="47.13748" lon="6.16371">
        <ele>508.032</ele>
        <time>2011-04-17T10:38:19Z</time>
      </trkpt>
      <trkpt lat="47.13755" lon="6.16385">
        <ele>508.912</ele>
        <time>2011-04-17T10:38:25Z</time>
      </trkpt>
      <trkpt lat="47.13769" lon="6.16404">
        <ele>509.312</ele>
        <time>2011-04-17T10:38:32Z</time>
      </trkpt>
      <trkpt lat="47.13777" lon="6.16417">
        <ele>509.995</ele>
        <time>2011-04-17T10:38:38Z</time>
      </trkpt>
      <trkpt lat="47.13784" lon="6.1643">
        <ele>510.757</ele>
        <time>2011-04-17T10:38:44Z</time>
      </trkpt>
      <trkpt lat="47.13787" lon="6.16436">
        <ele>510.564</ele>
        <time>2011-04-17T10:38:47Z</time>
      </trkpt>
      <trkpt lat="47.1379" lon="6.16441">
        <ele>510.428</ele>
        <time>2011-04-17T10:38:49Z</time>
      </trkpt>
      <trkpt lat="47.13798" lon="6.16453">
        <ele>510.445</ele>
        <time>2011-04-17T10:38:54Z</time>
      </trkpt>
      <trkpt lat="47.13811" lon="6.16472">
        <ele>510.921</ele>
        <time>2011-04-17T10:39:01Z</time>
      </trkpt>
      <trkpt lat="47.13823" lon="6.16486">
        <ele>510.869</ele>
        <time>2011-04-17T10:39:08Z</time>
      </trkpt>
      <trkpt lat="47.1384" lon="6.165">
        <ele>511.386</ele>
        <time>2011-04-17T10:39:15Z</time>
      </trkpt>
      <trkpt lat="47.13852" lon="6.16509">
        <ele>512.418</ele>
        <time>2011-04-17T10:39:21Z</time>
      </trkpt>
      <trkpt lat="47.13863" lon="6.16515">
        <ele>513.177</ele>
        <time>2011-04-17T10:39:27Z</time>
      </trkpt>
      <trkpt lat="47.13878" lon="6.16523">
        <ele>513.635</ele>
        <time>2011-04-17T10:39:33Z</time>
      </trkpt>
      <trkpt lat="47.13895" lon="6.16528">
        <ele>513.811</ele>
        <time>2011-04-17T10:39:39Z</time>
      </trkpt>
      <trkpt lat="47.13909" lon="6.16532">
        <ele>513.748</ele>
        <time>2011-04-17T10:39:45Z</time>
      </trkpt>
      <trkpt lat="47.13916" lon="6.16534">
        <ele>513.985</ele>
        <time>2011-04-17T10:39:48Z</time>
      </trkpt>
      <trkpt lat="47.13935" lon="6.16522">
        <ele>513.491</ele>
        <time>2011-04-17T10:39:54Z</time>
      </trkpt>
      <trkpt lat="47.13966" lon="6.16491">
        <ele>511.839</ele>
        <time>2011-04-17T10:40:01Z</time>
      </trkpt>
      <trkpt lat="47.13995" lon="6.16472">
        <ele>511.428</ele>
        <time>2011-04-17T10:40:08Z</time>
      </trkpt>
      <trkpt lat="47.14018" lon="6.16451">
        <ele>510.002</ele>
        <time>2011-04-17T10:40:13Z</time>
      </trkpt>
      <trkpt lat="47.14045" lon="6.16407">
        <ele>506.579</ele>
        <time>2011-04-17T10:40:19Z</time>
      </trkpt>
      <trkpt lat="47.14082" lon="6.16349">
        <ele>501.764</ele>
        <time>2011-04-17T10:40:27Z</time>
      </trkpt>
      <trkpt lat="47.14086" lon="6.16342">
        <ele>500.934</ele>
        <time>2011-04-17T10:40:28Z</time>
      </trkpt>
      <trkpt lat="47.14097" lon="6.16323">
        <ele>498.282</ele>
        <time>2011-04-17T10:40:31Z</time>
      </trkpt>
      <trkpt lat="47.14101" lon="6.16309">
        <ele>497.393</ele>
        <time>2011-04-17T10:40:33Z</time>
      </trkpt>
      <trkpt lat="47.14102" lon="6.16272">
        <ele>493.235</ele>
        <time>2011-04-17T10:40:37Z</time>
      </trkpt>
      <trkpt lat="47.14096" lon="6.16251">
        <ele>489.772</ele>
        <time>2011-04-17T10:40:41Z</time>
      </trkpt>
      <trkpt lat="47.14093" lon="6.16247">
        <ele>489.507</ele>
        <time>2011-04-17T10:40:42Z</time>
      </trkpt>
      <trkpt lat="47.14094" lon="6.16239">
        <ele>488.767</ele>
        <time>2011-04-17T10:40:45Z</time>
      </trkpt>
      <trkpt lat="47.14103" lon="6.16229">
        <ele>487.342</ele>
        <time>2011-04-17T10:40:51Z</time>
      </trkpt>
      <trkpt lat="47.14112" lon="6.16232">
        <ele>486.139</ele>
        <time>2011-04-17T10:40:55Z</time>
      </trkpt>
      <trkpt lat="47.14116" lon="6.16234">
        <ele>485.991</ele>
        <time>2011-04-17T10:40:56Z</time>
      </trkpt>
      <trkpt lat="47.14137" lon="6.16243">
        <ele>485.58</ele>
        <time>2011-04-17T10:41:02Z</time>
      </trkpt>
      <trkpt lat="47.14153" lon="6.16244">
        <ele>484.735</ele>
        <time>2011-04-17T10:41:07Z</time>
      </trkpt>
      <trkpt lat="47.14157" lon="6.16244">
        <ele>484.392</ele>
        <time>2011-04-17T10:41:08Z</time>
      </trkpt>
      <trkpt lat="47.14172" lon="6.16244">
        <ele>482.91</ele>
        <time>2011-04-17T10:41:11Z</time>
      </trkpt>
      <trkpt lat="47.1419" lon="6.16259">
        <ele>480.014</ele>
        <time>2011-04-17T10:41:15Z</time>
      </trkpt>
      <trkpt lat="47.14206" lon="6.16281">
        <ele>477.844</ele>
        <time>2011-04-17T10:41:20Z</time>
      </trkpt>
      <trkpt lat="47.14212" lon="6.16289">
        <ele>477.271</ele>
        <time>2011-04-17T10:41:24Z</time>
      </trkpt>
      <trkpt lat="47.14222" lon="6.16296">
        <ele>476.166</ele>
        <time>2011-04-17T10:41:30Z</time>
      </trkpt>
      <trkpt lat="47.14222" lon="6.16296">
        <ele>476.066</ele>
        <time>2011-04-17T10:41:31Z</time>
      </trkpt>
      <trkpt lat="47.14236" lon="6.16293">
        <ele>476.132</ele>
        <time>2011-04-17T10:42:16Z</time>
      </trkpt>
      <trkpt lat="47.14248" lon="6.16279">
        <ele>476.25</ele>
        <time>2011-04-17T10:42:22Z</time>
      </trkpt>
      <trkpt lat="47.14262" lon="6.16263">
        <ele>476.117</ele>
        <time>2011-04-17T10:42:28Z</time>
      </trkpt>
      <trkpt lat="47.14273" lon="6.16261">
        <ele>476.315</ele>
        <time>2011-04-17T10:42:32Z</time>
      </trkpt>
      <trkpt lat="47.14287" lon="6.16257">
        <ele>476.645</ele>
        <time>2011-04-17T10:42:37Z</time>
      </trkpt>
      <trkpt lat="47.143" lon="6.16248">
        <ele>477.349</ele>
        <time>2011-04-17T10:42:42Z</time>
      </trkpt>
      <trkpt lat="47.14315" lon="6.16228">
        <ele>477.606</ele>
        <time>2011-04-17T10:42:50Z</time>
      </trkpt>
      <trkpt lat="47.14328" lon="6.16208">
        <ele>477.853</ele>
        <time>2011-04-17T10:42:57Z</time>
      </trkpt>
      <trkpt lat="47.14335" lon="6.1619">
        <ele>478.164</ele>
        <time>2011-04-17T10:43:03Z</time>
      </trkpt>
      <trkpt lat="47.14346" lon="6.16177">
        <ele>478.552</ele>
        <time>2011-04-17T10:43:09Z</time>
      </trkpt>
      <trkpt lat="47.14358" lon="6.16164">
        <ele>479.42</ele>
        <time>2011-04-17T10:43:16Z</time>
      </trkpt>
      <trkpt lat="47.14371" lon="6.16161">
        <ele>481.122</ele>
        <time>2011-04-17T10:43:23Z</time>
      </trkpt>
      <trkpt lat="47.14383" lon="6.1616">
        <ele>482.498</ele>
        <time>2011-04-17T10:43:30Z</time>
      </trkpt>
      <trkpt lat="47.14385" lon="6.16161">
        <ele>482.786</ele>
        <time>2011-04-17T10:43:32Z</time>
      </trkpt>
      <trkpt lat="47.14398" lon="6.1616">
        <ele>483.822</ele>
        <time>2011-04-17T10:43:40Z</time>
      </trkpt>
      <trkpt lat="47.14408" lon="6.1616">
        <ele>484.297</ele>
        <time>2011-04-17T10:43:46Z</time>
      </trkpt>
      <trkpt lat="47.14422" lon="6.16158">
        <ele>484.934</ele>
        <time>2011-04-17T10:43:53Z</time>
      </trkpt>
      <trkpt lat="47.1443" lon="6.16156">
        <ele>484.963</ele>
        <time>2011-04-17T10:43:58Z</time>
      </trkpt>
      <trkpt lat="47.14437" lon="6.16152">
        <ele>485.566</ele>
        <time>2011-04-17T10:44:04Z</time>
      </trkpt>
      <trkpt lat="47.14441" lon="6.1615">
        <ele>485.55</ele>
        <time>2011-04-17T10:44:09Z</time>
      </trkpt>
      <trkpt lat="47.14444" lon="6.1614">
        <ele>485.988</ele>
        <time>2011-04-17T10:44:20Z</time>
      </trkpt>
      <trkpt lat="47.14442" lon="6.16134">
        <ele>486.323</ele>
        <time>2011-04-17T10:44:30Z</time>
      </trkpt>
      <trkpt lat="47.14442" lon="6.16127">
        <ele>488.103</ele>
        <time>2011-04-17T10:44:39Z</time>
      </trkpt>
      <trkpt lat="47.14441" lon="6.16125">
        <ele>488.628</ele>
        <time>2011-04-17T10:44:43Z</time>
      </trkpt>
      <trkpt lat="47.14439" lon="6.16122">
        <ele>489.289</ele>
        <time>2011-04-17T10:44:50Z</time>
      </trkpt>
      <trkpt lat="47.14439" lon="6.16122">
        <ele>489.717</ele>
        <time>2011-04-17T10:44:51Z</time>
      </trkpt>
      <trkpt lat="47.14438" lon="6.16117">
        <ele>491.373</ele>
        <time>2011-04-17T10:44:57Z</time>
      </trkpt>
      <trkpt lat="47.14435" lon="6.16112">
        <ele>493.561</ele>
        <time>2011-04-17T10:45:06Z</time>
      </trkpt>
      <trkpt lat="47.14433" lon="6.16108">
        <ele>494.376</ele>
        <time>2011-04-17T10:45:12Z</time>
      </trkpt>
      <trkpt lat="47.14431" lon="6.16104">
        <ele>496.027</ele>
        <time>2011-04-17T10:45:19Z</time>
      </trkpt>
      <trkpt lat="47.14427" lon="6.161">
        <ele>497.977</ele>
        <time>2011-04-17T10:45:27Z</time>
      </trkpt>
      <trkpt lat="47.14425" lon="6.16094">
        <ele>499.501</ele>
        <time>2011-04-17T10:45:34Z</time>
      </trkpt>
      <trkpt lat="47.14423" lon="6.16088">
        <ele>500.733</ele>
        <time>2011-04-17T10:45:42Z</time>
      </trkpt>
      <trkpt lat="47.14422" lon="6.16082">
        <ele>501.431</ele>
        <time>2011-04-17T10:45:49Z</time>
      </trkpt>
      <trkpt lat="47.14419" lon="6.1608">
        <ele>502.076</ele>
        <time>2011-04-17T10:46:13Z</time>
      </trkpt>
      <trkpt lat="47.14417" lon="6.16073">
        <ele>502.827</ele>
        <time>2011-04-17T10:46:20Z</time>
      </trkpt>
      <trkpt lat="47.14414" lon="6.16065">
        <ele>503.615</ele>
        <time>2011-04-17T10:46:28Z</time>
      </trkpt>
      <trkpt lat="47.1441" lon="6.16055">
        <ele>504.57</ele>
        <time>2011-04-17T10:46:38Z</time>
      </trkpt>
      <trkpt lat="47.14406" lon="6.16048">
        <ele>505.736</ele>
        <time>2011-04-17T10:46:47Z</time>
      </trkpt>
      <trkpt lat="47.14405" lon="6.16045">
        <ele>506.123</ele>
        <time>2011-04-17T10:46:50Z</time>
      </trkpt>
      <trkpt lat="47.14402" lon="6.16038">
        <ele>506.835</ele>
        <time>2011-04-17T10:46:56Z</time>
      </trkpt>
      <trkpt lat="47.14402" lon="6.16035">
        <ele>507.304</ele>
        <time>2011-04-17T10:47:01Z</time>
      </trkpt>
      <trkpt lat="47.14396" lon="6.16023">
        <ele>507.372</ele>
        <time>2011-04-17T10:47:45Z</time>
      </trkpt>
      <trkpt lat="47.14388" lon="6.16007">
        <ele>508.003</ele>
        <time>2011-04-17T10:47:52Z</time>
      </trkpt>
      <trkpt lat="47.14382" lon="6.15991">
        <ele>508.917</ele>
        <time>2011-04-17T10:47:58Z</time>
      </trkpt>
      <trkpt lat="47.14371" lon="6.1597">
        <ele>509.644</ele>
        <time>2011-04-17T10:48:06Z</time>
      </trkpt>
      <trkpt lat="47.14367" lon="6.1596">
        <ele>509.959</ele>
        <time>2011-04-17T10:48:09Z</time>
      </trkpt>
      <trkpt lat="47.1436" lon="6.15941">
        <ele>511.071</ele>
        <time>2011-04-17T10:48:15Z</time>
      </trkpt>
      <trkpt lat="47.14354" lon="6.15926">
        <ele>511.896</ele>
        <time>2011-04-17T10:48:20Z</time>
      </trkpt>
      <trkpt lat="47.14343" lon="6.15902">
        <ele>512.339</ele>
        <time>2011-04-17T10:48:27Z</time>
      </trkpt>
      <trkpt lat="47.14332" lon="6.15876">
        <ele>513.128</ele>
        <time>2011-04-17T10:48:35Z</time>
      </trkpt>
      <trkpt lat="47.1432" lon="6.1585">
        <ele>513.738</ele>
        <time>2011-04-17T10:48:43Z</time>
      </trkpt>
      <trkpt lat="47.1431" lon="6.15827">
        <ele>514.697</ele>
        <time>2011-04-17T10:48:51Z</time>
      </trkpt>
      <trkpt lat="47.14297" lon="6.158">
        <ele>516.139</ele>
        <time>2011-04-17T10:49:01Z</time>
      </trkpt>
      <trkpt lat="47.14286" lon="6.15775">
        <ele>516.792</ele>
        <time>2011-04-17T10:49:09Z</time>
      </trkpt>
      <trkpt lat="47.14274" lon="6.15748">
        <ele>517.001</ele>
        <time>2011-04-17T10:49:17Z</time>
      </trkpt>
      <trkpt lat="47.14261" lon="6.1572">
        <ele>516.591</ele>
        <time>2011-04-17T10:49:23Z</time>
      </trkpt>
      <trkpt lat="47.14249" lon="6.15694">
        <ele>516.54</ele>
        <time>2011-04-17T10:49:28Z</time>
      </trkpt>
      <trkpt lat="47.14239" lon="6.15671">
        <ele>515.759</ele>
        <time>2011-04-17T10:49:32Z</time>
      </trkpt>
      <trkpt lat="47.14231" lon="6.15652">
        <ele>515.454</ele>
        <time>2011-04-17T10:49:35Z</time>
      </trkpt>
      <trkpt lat="47.14226" lon="6.1564">
        <ele>515.22</ele>
        <time>2011-04-17T10:49:37Z</time>
      </trkpt>
      <trkpt lat="47.14209" lon="6.15606">
        <ele>513.976</ele>
        <time>2011-04-17T10:49:42Z</time>
      </trkpt>
      <trkpt lat="47.14199" lon="6.15582">
        <ele>514.302</ele>
        <time>2011-04-17T10:49:46Z</time>
      </trkpt>
      <trkpt lat="47.14182" lon="6.15544">
        <ele>513.982</ele>
        <time>2011-04-17T10:49:53Z</time>
      </trkpt>
      <trkpt lat="47.14175" lon="6.15528">
        <ele>513.718</ele>
        <time>2011-04-17T10:49:56Z</time>
      </trkpt>
      <trkpt lat="47.14153" lon="6.15476">
        <ele>512.254</ele>
        <time>2011-04-17T10:50:05Z</time>
      </trkpt>
      <trkpt lat="47.14149" lon="6.1547">
        <ele>512.074</ele>
        <time>2011-04-17T10:50:06Z</time>
      </trkpt>
      <trkpt lat="47.14143" lon="6.15455">
        <ele>511.761</ele>
        <time>2011-04-17T10:50:08Z</time>
      </trkpt>
      <trkpt lat="47.1414" lon="6.15448">
        <ele>511.803</ele>
        <time>2011-04-17T10:50:09Z</time>
      </trkpt>
      <trkpt lat="47.14133" lon="6.15435">
        <ele>512.792</ele>
        <time>2011-04-17T10:50:12Z</time>
      </trkpt>
      <trkpt lat="47.14128" lon="6.15417">
        <ele>516.359</ele>
        <time>2011-04-17T10:50:17Z</time>
      </trkpt>
      <trkpt lat="47.14123" lon="6.15404">
        <ele>517.483</ele>
        <time>2011-04-17T10:50:21Z</time>
      </trkpt>
      <trkpt lat="47.14118" lon="6.15391">
        <ele>518.223</ele>
        <time>2011-04-17T10:50:25Z</time>
      </trkpt>
      <trkpt lat="47.14107" lon="6.15363">
        <ele>518.879</ele>
        <time>2011-04-17T10:50:32Z</time>
      </trkpt>
      <trkpt lat="47.14095" lon="6.15335">
        <ele>519.297</ele>
        <time>2011-04-17T10:50:39Z</time>
      </trkpt>
      <trkpt lat="47.1408" lon="6.153">
        <ele>518.892</ele>
        <time>2011-04-17T10:50:47Z</time>
      </trkpt>
      <trkpt lat="47.14067" lon="6.15268">
        <ele>518.292</ele>
        <time>2011-04-17T10:50:53Z</time>
      </trkpt>
      <trkpt lat="47.14051" lon="6.15232">
        <ele>517.495</ele>
        <time>2011-04-17T10:51:00Z</time>
      </trkpt>
      <trkpt lat="47.14048" lon="6.15227">
        <ele>517.37</ele>
        <time>2011-04-17T10:51:01Z</time>
      </trkpt>
      <trkpt lat="47.14024" lon="6.15172">
        <ele>516.175</ele>
        <time>2011-04-17T10:51:11Z</time>
      </trkpt>
      <trkpt lat="47.14014" lon="6.15151">
        <ele>515.792</ele>
        <time>2011-04-17T10:51:15Z</time>
      </trkpt>
      <trkpt lat="47.13991" lon="6.15097">
        <ele>514.842</ele>
        <time>2011-04-17T10:51:24Z</time>
      </trkpt>
      <trkpt lat="47.13972" lon="6.15054">
        <ele>514.255</ele>
        <time>2011-04-17T10:51:30Z</time>
      </trkpt>
      <trkpt lat="47.1396" lon="6.15026">
        <ele>514.45</ele>
        <time>2011-04-17T10:51:34Z</time>
      </trkpt>
      <trkpt lat="47.13959" lon="6.1502">
        <ele>515.943</ele>
        <time>2011-04-17T10:51:36Z</time>
      </trkpt>
      <trkpt lat="47.13959" lon="6.15017">
        <ele>517.377</ele>
        <time>2011-04-17T10:51:38Z</time>
      </trkpt>
      <trkpt lat="47.13957" lon="6.15012">
        <ele>518.483</ele>
        <time>2011-04-17T10:51:41Z</time>
      </trkpt>
      <trkpt lat="47.13955" lon="6.15005">
        <ele>519.393</ele>
        <time>2011-04-17T10:51:45Z</time>
      </trkpt>
      <trkpt lat="47.1395" lon="6.1499">
        <ele>520.158</ele>
        <time>2011-04-17T10:51:51Z</time>
      </trkpt>
      <trkpt lat="47.13941" lon="6.14969">
        <ele>519.887</ele>
        <time>2011-04-17T10:51:57Z</time>
      </trkpt>
      <trkpt lat="47.1393" lon="6.14943">
        <ele>519.7</ele>
        <time>2011-04-17T10:52:03Z</time>
      </trkpt>
      <trkpt lat="47.13919" lon="6.14916">
        <ele>519.32</ele>
        <time>2011-04-17T10:52:09Z</time>
      </trkpt>
      <trkpt lat="47.13905" lon="6.14886">
        <ele>518.428</ele>
        <time>2011-04-17T10:52:15Z</time>
      </trkpt>
      <trkpt lat="47.13887" lon="6.14847">
        <ele>517.078</ele>
        <time>2011-04-17T10:52:21Z</time>
      </trkpt>
      <trkpt lat="47.13869" lon="6.14807">
        <ele>515.073</ele>
        <time>2011-04-17T10:52:26Z</time>
      </trkpt>
      <trkpt lat="47.13853" lon="6.14774">
        <ele>513.558</ele>
        <time>2011-04-17T10:52:30Z</time>
      </trkpt>
      <trkpt lat="47.13848" lon="6.14745">
        <ele>512.649</ele>
        <time>2011-04-17T10:52:34Z</time>
      </trkpt>
      <trkpt lat="47.13851" lon="6.14741">
        <ele>512.715</ele>
        <time>2011-04-17T10:52:35Z</time>
      </trkpt>
      <trkpt lat="47.13853" lon="6.14737">
        <ele>512.697</ele>
        <time>2011-04-17T10:52:36Z</time>
      </trkpt>
      <trkpt lat="47.13866" lon="6.14726">
        <ele>512.826</ele>
        <time>2011-04-17T10:52:40Z</time>
      </trkpt>
      <trkpt lat="47.13872" lon="6.14718">
        <ele>512.84</ele>
        <time>2011-04-17T10:52:42Z</time>
      </trkpt>
      <trkpt lat="47.1389" lon="6.14695">
        <ele>513.159</ele>
        <time>2011-04-17T10:52:48Z</time>
      </trkpt>
      <trkpt lat="47.13906" lon="6.14682">
        <ele>514.02</ele>
        <time>2011-04-17T10:52:53Z</time>
      </trkpt>
      <trkpt lat="47.13917" lon="6.14676">
        <ele>514.652</ele>
        <time>2011-04-17T10:52:57Z</time>
      </trkpt>
      <trkpt lat="47.13934" lon="6.14662">
        <ele>515.416</ele>
        <time>2011-04-17T10:53:03Z</time>
      </trkpt>
      <trkpt lat="47.13948" lon="6.14637">
        <ele>515.273</ele>
        <time>2011-04-17T10:53:09Z</time>
      </trkpt>
      <trkpt lat="47.13959" lon="6.14615">
        <ele>514.939</ele>
        <time>2011-04-17T10:53:14Z</time>
      </trkpt>
      <trkpt lat="47.13971" lon="6.14604">
        <ele>515.087</ele>
        <time>2011-04-17T10:53:18Z</time>
      </trkpt>
      <trkpt lat="47.13981" lon="6.1461">
        <ele>515.017</ele>
        <time>2011-04-17T10:53:22Z</time>
      </trkpt>
      <trkpt lat="47.13992" lon="6.14624">
        <ele>515.539</ele>
        <time>2011-04-17T10:53:27Z</time>
      </trkpt>
      <trkpt lat="47.14002" lon="6.14632">
        <ele>515.755</ele>
        <time>2011-04-17T10:53:31Z</time>
      </trkpt>
      <trkpt lat="47.14005" lon="6.14633">
        <ele>515.848</ele>
        <time>2011-04-17T10:53:32Z</time>
      </trkpt>
      <trkpt lat="47.14024" lon="6.14631">
        <ele>516.081</ele>
        <time>2011-04-17T10:53:37Z</time>
      </trkpt>
      <trkpt lat="47.14028" lon="6.14631">
        <ele>516.001</ele>
        <time>2011-04-17T10:53:38Z</time>
      </trkpt>
      <trkpt lat="47.14055" lon="6.14631">
        <ele>515.579</ele>
        <time>2011-04-17T10:53:45Z</time>
      </trkpt>
      <trkpt lat="47.14061" lon="6.14633">
        <ele>515.348</ele>
        <time>2011-04-17T10:53:47Z</time>
      </trkpt>
      <trkpt lat="47.14075" lon="6.14626">
        <ele>514.265</ele>
        <time>2011-04-17T10:53:51Z</time>
      </trkpt>
      <trkpt lat="47.14077" lon="6.14622">
        <ele>513.991</ele>
        <time>2011-04-17T10:53:52Z</time>
      </trkpt>
      <trkpt lat="47.14078" lon="6.14618">
        <ele>513.701</ele>
        <time>2011-04-17T10:53:53Z</time>
      </trkpt>
      <trkpt lat="47.14072" lon="6.14609">
        <ele>513.296</ele>
        <time>2011-04-17T10:53:56Z</time>
      </trkpt>
      <trkpt lat="47.1407" lon="6.14606">
        <ele>513.195</ele>
        <time>2011-04-17T10:53:57Z</time>
      </trkpt>
      <trkpt lat="47.14052" lon="6.14576">
        <ele>513.045</ele>
        <time>2011-04-17T10:54:04Z</time>
      </trkpt>
      <trkpt lat="47.14047" lon="6.14565">
        <ele>512.734</ele>
        <time>2011-04-17T10:54:06Z</time>
      </trkpt>
      <trkpt lat="47.14044" lon="6.14537">
        <ele>511.701</ele>
        <time>2011-04-17T10:54:10Z</time>
      </trkpt>
      <trkpt lat="47.14049" lon="6.14519">
        <ele>510.722</ele>
        <time>2011-04-17T10:54:12Z</time>
      </trkpt>
      <trkpt lat="47.1406" lon="6.14473">
        <ele>507.483</ele>
        <time>2011-04-17T10:54:16Z</time>
      </trkpt>
      <trkpt lat="47.14062" lon="6.14451">
        <ele>506.833</ele>
        <time>2011-04-17T10:54:18Z</time>
      </trkpt>
      <trkpt lat="47.14066" lon="6.14427">
        <ele>507.777</ele>
        <time>2011-04-17T10:54:21Z</time>
      </trkpt>
      <trkpt lat="47.14071" lon="6.14414">
        <ele>508.021</ele>
        <time>2011-04-17T10:54:23Z</time>
      </trkpt>
      <trkpt lat="47.14085" lon="6.14387">
        <ele>508.429</ele>
        <time>2011-04-17T10:54:28Z</time>
      </trkpt>
      <trkpt lat="47.14098" lon="6.14373">
        <ele>508.742</ele>
        <time>2011-04-17T10:54:32Z</time>
      </trkpt>
      <trkpt lat="47.14105" lon="6.1436">
        <ele>508.949</ele>
        <time>2011-04-17T10:54:35Z</time>
      </trkpt>
      <trkpt lat="47.14116" lon="6.14343">
        <ele>509.084</ele>
        <time>2011-04-17T10:54:40Z</time>
      </trkpt>
      <trkpt lat="47.14127" lon="6.14328">
        <ele>508.444</ele>
        <time>2011-04-17T10:54:45Z</time>
      </trkpt>
      <trkpt lat="47.1413" lon="6.14323">
        <ele>508.241</ele>
        <time>2011-04-17T10:54:46Z</time>
      </trkpt>
      <trkpt lat="47.14147" lon="6.1431">
        <ele>508.529</ele>
        <time>2011-04-17T10:54:51Z</time>
      </trkpt>
      <trkpt lat="47.14155" lon="6.14308">
        <ele>509.561</ele>
        <time>2011-04-17T10:54:54Z</time>
      </trkpt>
      <trkpt lat="47.14163" lon="6.14305">
        <ele>510.841</ele>
        <time>2011-04-17T10:54:58Z</time>
      </trkpt>
      <trkpt lat="47.1417" lon="6.14299">
        <ele>511.827</ele>
        <time>2011-04-17T10:55:03Z</time>
      </trkpt>
      <trkpt lat="47.14174" lon="6.14297">
        <ele>512.474</ele>
        <time>2011-04-17T10:55:06Z</time>
      </trkpt>
      <trkpt lat="47.14185" lon="6.14294">
        <ele>513.945</ele>
        <time>2011-04-17T10:55:13Z</time>
      </trkpt>
      <trkpt lat="47.14192" lon="6.14288">
        <ele>514.743</ele>
        <time>2011-04-17T10:55:18Z</time>
      </trkpt>
      <trkpt lat="47.14199" lon="6.14282">
        <ele>515.978</ele>
        <time>2011-04-17T10:55:24Z</time>
      </trkpt>
      <trkpt lat="47.14207" lon="6.14273">
        <ele>516.916</ele>
        <time>2011-04-17T10:55:31Z</time>
      </trkpt>
      <trkpt lat="47.1421" lon="6.14267">
        <ele>517.262</ele>
        <time>2011-04-17T10:55:34Z</time>
      </trkpt>
      <trkpt lat="47.14215" lon="6.14249">
        <ele>517.531</ele>
        <time>2011-04-17T10:55:39Z</time>
      </trkpt>
      <trkpt lat="47.14222" lon="6.14226">
        <ele>517.077</ele>
        <time>2011-04-17T10:55:44Z</time>
      </trkpt>
      <trkpt lat="47.1423" lon="6.1419">
        <ele>516.058</ele>
        <time>2011-04-17T10:55:50Z</time>
      </trkpt>
      <trkpt lat="47.14231" lon="6.14184">
        <ele>515.902</ele>
        <time>2011-04-17T10:55:51Z</time>
      </trkpt>
      <trkpt lat="47.14227" lon="6.14166">
        <ele>515.042</ele>
        <time>2011-04-17T10:55:55Z</time>
      </trkpt>
      <trkpt lat="47.1422" lon="6.14163">
        <ele>514.807</ele>
        <time>2011-04-17T10:55:57Z</time>
      </trkpt>
      <trkpt lat="47.14212" lon="6.14158">
        <ele>514.776</ele>
        <time>2011-04-17T10:55:59Z</time>
      </trkpt>
      <trkpt lat="47.14195" lon="6.14152">
        <ele>514.523</ele>
        <time>2011-04-17T10:56:03Z</time>
      </trkpt>
      <trkpt lat="47.14161" lon="6.14146">
        <ele>514.174</ele>
        <time>2011-04-17T10:56:10Z</time>
      </trkpt>
      <trkpt lat="47.14138" lon="6.14142">
        <ele>513.055</ele>
        <time>2011-04-17T10:56:15Z</time>
      </trkpt>
      <trkpt lat="47.14118" lon="6.14127">
        <ele>511.46</ele>
        <time>2011-04-17T10:56:19Z</time>
      </trkpt>
      <trkpt lat="47.14095" lon="6.14107">
        <ele>509.912</ele>
        <time>2011-04-17T10:56:23Z</time>
      </trkpt>
      <trkpt lat="47.14071" lon="6.14086">
        <ele>507.318</ele>
        <time>2011-04-17T10:56:27Z</time>
      </trkpt>
      <trkpt lat="47.14061" lon="6.14073">
        <ele>506.643</ele>
        <time>2011-04-17T10:56:29Z</time>
      </trkpt>
      <trkpt lat="47.14057" lon="6.14051">
        <ele>504.731</ele>
        <time>2011-04-17T10:56:32Z</time>
      </trkpt>
      <trkpt lat="47.14063" lon="6.14017">
        <ele>503.546</ele>
        <time>2011-04-17T10:56:36Z</time>
      </trkpt>
      <trkpt lat="47.14075" lon="6.14004">
        <ele>503.555</ele>
        <time>2011-04-17T10:56:39Z</time>
      </trkpt>
      <trkpt lat="47.14096" lon="6.13985">
        <ele>504.92</ele>
        <time>2011-04-17T10:56:45Z</time>
      </trkpt>
      <trkpt lat="47.14112" lon="6.13964">
        <ele>506.331</ele>
        <time>2011-04-17T10:56:51Z</time>
      </trkpt>
      <trkpt lat="47.14125" lon="6.13949">
        <ele>506.658</ele>
        <time>2011-04-17T10:56:56Z</time>
      </trkpt>
      <trkpt lat="47.14128" lon="6.13944">
        <ele>506.582</ele>
        <time>2011-04-17T10:56:57Z</time>
      </trkpt>
      <trkpt lat="47.14142" lon="6.13901">
        <ele>505.074</ele>
        <time>2011-04-17T10:57:04Z</time>
      </trkpt>
      <trkpt lat="47.14161" lon="6.13883">
        <ele>504.331</ele>
        <time>2011-04-17T10:57:09Z</time>
      </trkpt>
      <trkpt lat="47.14166" lon="6.13882">
        <ele>504.205</ele>
        <time>2011-04-17T10:57:10Z</time>
      </trkpt>
      <trkpt lat="47.14195" lon="6.13877">
        <ele>504.053</ele>
        <time>2011-04-17T10:57:17Z</time>
      </trkpt>
      <trkpt lat="47.14219" lon="6.13872">
        <ele>505.273</ele>
        <time>2011-04-17T10:57:25Z</time>
      </trkpt>
      <trkpt lat="47.14239" lon="6.13868">
        <ele>506.639</ele>
        <time>2011-04-17T10:57:33Z</time>
      </trkpt>
      <trkpt lat="47.14251" lon="6.13864">
        <ele>507.51</ele>
        <time>2011-04-17T10:57:38Z</time>
      </trkpt>
      <trkpt lat="47.14275" lon="6.13859">
        <ele>509.45</ele>
        <time>2011-04-17T10:57:49Z</time>
      </trkpt>
      <trkpt lat="47.14293" lon="6.13855">
        <ele>511.543</ele>
        <time>2011-04-17T10:57:58Z</time>
      </trkpt>
      <trkpt lat="47.14307" lon="6.13851">
        <ele>513.105</ele>
        <time>2011-04-17T10:58:06Z</time>
      </trkpt>
      <trkpt lat="47.1432" lon="6.13854">
        <ele>513.928</ele>
        <time>2011-04-17T10:58:13Z</time>
      </trkpt>
      <trkpt lat="47.14335" lon="6.13857">
        <ele>515.555</ele>
        <time>2011-04-17T10:58:22Z</time>
      </trkpt>
      <trkpt lat="47.14352" lon="6.13862">
        <ele>517.576</ele>
        <time>2011-04-17T10:58:32Z</time>
      </trkpt>
      <trkpt lat="47.14364" lon="6.13863">
        <ele>519.146</ele>
        <time>2011-04-17T10:58:40Z</time>
      </trkpt>
      <trkpt lat="47.14365" lon="6.13863">
        <ele>519.34</ele>
        <time>2011-04-17T10:58:41Z</time>
      </trkpt>
      <trkpt lat="47.14374" lon="6.13863">
        <ele>520.752</ele>
        <time>2011-04-17T10:58:47Z</time>
      </trkpt>
      <trkpt lat="47.14391" lon="6.13861">
        <ele>522.31</ele>
        <time>2011-04-17T10:58:56Z</time>
      </trkpt>
      <trkpt lat="47.14412" lon="6.1386">
        <ele>523.805</ele>
        <time>2011-04-17T10:59:06Z</time>
      </trkpt>
      <trkpt lat="47.14431" lon="6.13859">
        <ele>524.433</ele>
        <time>2011-04-17T10:59:14Z</time>
      </trkpt>
      <trkpt lat="47.14454" lon="6.13861">
        <ele>524.632</ele>
        <time>2011-04-17T10:59:20Z</time>
      </trkpt>
      <trkpt lat="47.1448" lon="6.13866">
        <ele>524.456</ele>
        <time>2011-04-17T10:59:27Z</time>
      </trkpt>
      <trkpt lat="47.14497" lon="6.13869">
        <ele>524.874</ele>
        <time>2011-04-17T10:59:32Z</time>
      </trkpt>
      <trkpt lat="47.14522" lon="6.13868">
        <ele>525.393</ele>
        <time>2011-04-17T10:59:39Z</time>
      </trkpt>
      <trkpt lat="47.14552" lon="6.13864">
        <ele>524.44</ele>
        <time>2011-04-17T10:59:47Z</time>
      </trkpt>
      <trkpt lat="47.14581" lon="6.13862">
        <ele>523.685</ele>
        <time>2011-04-17T10:59:53Z</time>
      </trkpt>
      <trkpt lat="47.14605" lon="6.1386">
        <ele>522.241</ele>
        <time>2011-04-17T10:59:57Z</time>
      </trkpt>
      <trkpt lat="47.14651" lon="6.13859">
        <ele>519.772</ele>
        <time>2011-04-17T11:00:03Z</time>
      </trkpt>
      <trkpt lat="47.1469" lon="6.13858">
        <ele>519.469</ele>
        <time>2011-04-17T11:00:09Z</time>
      </trkpt>
      <trkpt lat="47.14717" lon="6.13858">
        <ele>521.09</ele>
        <time>2011-04-17T11:00:15Z</time>
      </trkpt>
      <trkpt lat="47.14746" lon="6.13857">
        <ele>522.872</ele>
        <time>2011-04-17T11:00:23Z</time>
      </trkpt>
      <trkpt lat="47.14781" lon="6.13855">
        <ele>523.686</ele>
        <time>2011-04-17T11:00:33Z</time>
      </trkpt>
      <trkpt lat="47.14816" lon="6.13853">
        <ele>524.196</ele>
        <time>2011-04-17T11:00:43Z</time>
      </trkpt>
      <trkpt lat="47.14861" lon="6.13852">
        <ele>524.141</ele>
        <time>2011-04-17T11:00:55Z</time>
      </trkpt>
      <trkpt lat="47.14898" lon="6.1385">
        <ele>524.199</ele>
        <time>2011-04-17T11:01:05Z</time>
      </trkpt>
      <trkpt lat="47.14934" lon="6.1385">
        <ele>524.912</ele>
        <time>2011-04-17T11:01:15Z</time>
      </trkpt>
      <trkpt lat="47.14974" lon="6.13853">
        <ele>525.079</ele>
        <time>2011-04-17T11:01:26Z</time>
      </trkpt>
      <trkpt lat="47.14994" lon="6.13857">
        <ele>526.337</ele>
        <time>2011-04-17T11:01:33Z</time>
      </trkpt>
      <trkpt lat="47.15018" lon="6.13858">
        <ele>527.532</ele>
        <time>2011-04-17T11:01:41Z</time>
      </trkpt>
      <trkpt lat="47.15048" lon="6.13855">
        <ele>528.343</ele>
        <time>2011-04-17T11:01:51Z</time>
      </trkpt>
      <trkpt lat="47.15074" lon="6.13852">
        <ele>528.733</ele>
        <time>2011-04-17T11:02:00Z</time>
      </trkpt>
      <trkpt lat="47.15083" lon="6.13849">
        <ele>528.887</ele>
        <time>2011-04-17T11:02:03Z</time>
      </trkpt>
      <trkpt lat="47.15108" lon="6.13843">
        <ele>529.126</ele>
        <time>2011-04-17T11:02:11Z</time>
      </trkpt>
      <trkpt lat="47.15147" lon="6.13832">
        <ele>529.599</ele>
        <time>2011-04-17T11:02:23Z</time>
      </trkpt>
      <trkpt lat="47.15179" lon="6.13821">
        <ele>529.966</ele>
        <time>2011-04-17T11:02:33Z</time>
      </trkpt>
      <trkpt lat="47.15207" lon="6.13809">
        <ele>530.481</ele>
        <time>2011-04-17T11:02:42Z</time>
      </trkpt>
      <trkpt lat="47.15246" lon="6.13793">
        <ele>531.435</ele>
        <time>2011-04-17T11:02:54Z</time>
      </trkpt>
      <trkpt lat="47.15278" lon="6.13784">
        <ele>532.774</ele>
        <time>2011-04-17T11:03:04Z</time>
      </trkpt>
      <trkpt lat="47.15318" lon="6.13775">
        <ele>534.679</ele>
        <time>2011-04-17T11:03:17Z</time>
      </trkpt>
      <trkpt lat="47.15345" lon="6.13768">
        <ele>535.95</ele>
        <time>2011-04-17T11:03:27Z</time>
      </trkpt>
      <trkpt lat="47.15376" lon="6.13762">
        <ele>537.212</ele>
        <time>2011-04-17T11:03:39Z</time>
      </trkpt>
      <trkpt lat="47.15405" lon="6.13756">
        <ele>538.305</ele>
        <time>2011-04-17T11:03:50Z</time>
      </trkpt>
      <trkpt lat="47.15433" lon="6.13748">
        <ele>538.739</ele>
        <time>2011-04-17T11:04:00Z</time>
      </trkpt>
      <trkpt lat="47.15458" lon="6.13736">
        <ele>539.595</ele>
        <time>2011-04-17T11:04:10Z</time>
      </trkpt>
      <trkpt lat="47.15479" lon="6.13723">
        <ele>540.949</ele>
        <time>2011-04-17T11:04:19Z</time>
      </trkpt>
      <trkpt lat="47.15503" lon="6.13707">
        <ele>541.949</ele>
        <time>2011-04-17T11:04:29Z</time>
      </trkpt>
      <trkpt lat="47.15522" lon="6.13694">
        <ele>543.48</ele>
        <time>2011-04-17T11:04:38Z</time>
      </trkpt>
      <trkpt lat="47.15536" lon="6.13685">
        <ele>544.768</ele>
        <time>2011-04-17T11:04:45Z</time>
      </trkpt>
      <trkpt lat="47.15553" lon="6.13678">
        <ele>546.27</ele>
        <time>2011-04-17T11:04:54Z</time>
      </trkpt>
      <trkpt lat="47.15572" lon="6.13672">
        <ele>547.556</ele>
        <time>2011-04-17T11:05:04Z</time>
      </trkpt>
      <trkpt lat="47.15587" lon="6.13671">
        <ele>548.387</ele>
        <time>2011-04-17T11:05:13Z</time>
      </trkpt>
      <trkpt lat="47.15588" lon="6.13671">
        <ele>548.573</ele>
        <time>2011-04-17T11:05:16Z</time>
      </trkpt>
      <trkpt lat="47.15588" lon="6.13662">
        <ele>548.919</ele>
        <time>2011-04-17T11:05:31Z</time>
      </trkpt>
      <trkpt lat="47.15592" lon="6.13659">
        <ele>550.319</ele>
        <time>2011-04-17T11:05:39Z</time>
      </trkpt>
      <trkpt lat="47.15597" lon="6.13656">
        <ele>550.683</ele>
        <time>2011-04-17T11:05:45Z</time>
      </trkpt>
      <trkpt lat="47.15597" lon="6.13655">
        <ele>550.883</ele>
        <time>2011-04-17T11:05:51Z</time>
      </trkpt>
      <trkpt lat="47.15599" lon="6.13662">
        <ele>550.473</ele>
        <time>2011-04-17T11:10:51Z</time>
      </trkpt>
      <trkpt lat="47.15596" lon="6.13664">
        <ele>551.256</ele>
        <time>2011-04-17T11:18:04Z</time>
      </trkpt>
      <trkpt lat="47.15596" lon="6.13664">
        <ele>551.233</ele>
        <time>2011-04-17T11:18:05Z</time>
      </trkpt>
      <trkpt lat="47.15591" lon="6.13662">
        <ele>551.369</ele>
        <time>2011-04-17T11:35:50Z</time>
      </trkpt>
      <trkpt lat="47.1559" lon="6.13662">
        <ele>551.119</ele>
        <time>2011-04-17T11:35:53Z</time>
      </trkpt>
      <trkpt lat="47.15589" lon="6.13662">
        <ele>550.899</ele>
        <time>2011-04-17T11:35:55Z</time>
      </trkpt>
      <trkpt lat="47.15589" lon="6.13663">
        <ele>550.78</ele>
        <time>2011-04-17T11:35:58Z</time>
      </trkpt>
      <trkpt lat="47.15586" lon="6.13667">
        <ele>549.427</ele>
        <time>2011-04-17T11:40:58Z</time>
      </trkpt>
      <trkpt lat="47.15586" lon="6.13661">
        <ele>548.033</ele>
        <time>2011-04-17T11:55:25Z</time>
      </trkpt>
      <trkpt lat="47.15587" lon="6.13661">
        <ele>547.873</ele>
        <time>2011-04-17T11:55:26Z</time>
      </trkpt>
      <trkpt lat="47.15587" lon="6.13662">
        <ele>547.7</ele>
        <time>2011-04-17T11:55:27Z</time>
      </trkpt>
      <trkpt lat="47.1559" lon="6.13664">
        <ele>547.476</ele>
        <time>2011-04-17T11:55:33Z</time>
      </trkpt>
      <trkpt lat="47.15592" lon="6.13667">
        <ele>547.361</ele>
        <time>2011-04-17T11:55:35Z</time>
      </trkpt>
      <trkpt lat="47.15594" lon="6.13669">
        <ele>547.032</ele>
        <time>2011-04-17T11:55:41Z</time>
      </trkpt>
      <trkpt lat="47.15595" lon="6.1367">
        <ele>547.52</ele>
        <time>2011-04-17T11:55:55Z</time>
      </trkpt>
      <trkpt lat="47.15594" lon="6.13671">
        <ele>549.309</ele>
        <time>2011-04-17T12:01:14Z</time>
      </trkpt>
      <trkpt lat="47.15594" lon="6.13671">
        <ele>549.209</ele>
        <time>2011-04-17T12:01:15Z</time>
      </trkpt>
      <trkpt lat="47.15595" lon="6.13671">
        <ele>549.375</ele>
        <time>2011-04-17T12:01:18Z</time>
      </trkpt>
      <trkpt lat="47.15601" lon="6.13672">
        <ele>549.587</ele>
        <time>2011-04-17T12:01:23Z</time>
      </trkpt>
      <trkpt lat="47.15608" lon="6.13672">
        <ele>550.132</ele>
        <time>2011-04-17T12:01:27Z</time>
      </trkpt>
      <trkpt lat="47.15615" lon="6.13672">
        <ele>550.642</ele>
        <time>2011-04-17T12:01:31Z</time>
      </trkpt>
      <trkpt lat="47.15618" lon="6.13674">
        <ele>551.013</ele>
        <time>2011-04-17T12:01:33Z</time>
      </trkpt>
      <trkpt lat="47.15625" lon="6.13677">
        <ele>551.407</ele>
        <time>2011-04-17T12:01:36Z</time>
      </trkpt>
      <trkpt lat="47.15637" lon="6.13681">
        <ele>552.133</ele>
        <time>2011-04-17T12:01:40Z</time>
      </trkpt>
      <trkpt lat="47.15647" lon="6.13685">
        <ele>552.811</ele>
        <time>2011-04-17T12:01:44Z</time>
      </trkpt>
      <trkpt lat="47.1566" lon="6.13685">
        <ele>553.649</ele>
        <time>2011-04-17T12:01:49Z</time>
      </trkpt>
      <trkpt lat="47.15678" lon="6.13686">
        <ele>554.239</ele>
        <time>2011-04-17T12:01:55Z</time>
      </trkpt>
      <trkpt lat="47.15704" lon="6.13692">
        <ele>553.539</ele>
        <time>2011-04-17T12:02:02Z</time>
      </trkpt>
      <trkpt lat="47.15716" lon="6.13694">
        <ele>553.384</ele>
        <time>2011-04-17T12:02:05Z</time>
      </trkpt>
      <trkpt lat="47.15742" lon="6.13708">
        <ele>552.613</ele>
        <time>2011-04-17T12:02:12Z</time>
      </trkpt>
      <trkpt lat="47.15746" lon="6.1371">
        <ele>552.614</ele>
        <time>2011-04-17T12:02:13Z</time>
      </trkpt>
      <trkpt lat="47.15774" lon="6.13715">
        <ele>551.974</ele>
        <time>2011-04-17T12:02:20Z</time>
      </trkpt>
      <trkpt lat="47.15811" lon="6.13714">
        <ele>550.907</ele>
        <time>2011-04-17T12:02:28Z</time>
      </trkpt>
      <trkpt lat="47.15816" lon="6.13713">
        <ele>550.726</ele>
        <time>2011-04-17T12:02:29Z</time>
      </trkpt>
      <trkpt lat="47.15836" lon="6.13703">
        <ele>549.82</ele>
        <time>2011-04-17T12:02:33Z</time>
      </trkpt>
      <trkpt lat="47.15877" lon="6.1367">
        <ele>548.304</ele>
        <time>2011-04-17T12:02:41Z</time>
      </trkpt>
      <trkpt lat="47.15903" lon="6.13649">
        <ele>547.742</ele>
        <time>2011-04-17T12:02:46Z</time>
      </trkpt>
      <trkpt lat="47.15926" lon="6.13632">
        <ele>547.754</ele>
        <time>2011-04-17T12:02:51Z</time>
      </trkpt>
      <trkpt lat="47.15947" lon="6.13603">
        <ele>547.592</ele>
        <time>2011-04-17T12:02:57Z</time>
      </trkpt>
      <trkpt lat="47.15962" lon="6.13577">
        <ele>546.396</ele>
        <time>2011-04-17T12:03:01Z</time>
      </trkpt>
      <trkpt lat="47.15979" lon="6.13569">
        <ele>545.513</ele>
        <time>2011-04-17T12:03:05Z</time>
      </trkpt>
      <trkpt lat="47.15983" lon="6.13571">
        <ele>545.431</ele>
        <time>2011-04-17T12:03:06Z</time>
      </trkpt>
      <trkpt lat="47.16005" lon="6.13594">
        <ele>546.464</ele>
        <time>2011-04-17T12:03:13Z</time>
      </trkpt>
      <trkpt lat="47.16016" lon="6.13605">
        <ele>546.423</ele>
        <time>2011-04-17T12:03:16Z</time>
      </trkpt>
      <trkpt lat="47.16042" lon="6.13627">
        <ele>545.352</ele>
        <time>2011-04-17T12:03:23Z</time>
      </trkpt>
      <trkpt lat="47.16046" lon="6.1363">
        <ele>545.205</ele>
        <time>2011-04-17T12:03:24Z</time>
      </trkpt>
      <trkpt lat="47.16063" lon="6.13635">
        <ele>543.814</ele>
        <time>2011-04-17T12:03:28Z</time>
      </trkpt>
      <trkpt lat="47.16088" lon="6.1365">
        <ele>540.575</ele>
        <time>2011-04-17T12:03:33Z</time>
      </trkpt>
      <trkpt lat="47.1612" lon="6.13696">
        <ele>536.005</ele>
        <time>2011-04-17T12:03:39Z</time>
      </trkpt>
      <trkpt lat="47.1614" lon="6.13727">
        <ele>534.498</ele>
        <time>2011-04-17T12:03:42Z</time>
      </trkpt>
      <trkpt lat="47.16196" lon="6.13811">
        <ele>528.881</ele>
        <time>2011-04-17T12:03:50Z</time>
      </trkpt>
      <trkpt lat="47.16242" lon="6.13873">
        <ele>527.255</ele>
        <time>2011-04-17T12:03:57Z</time>
      </trkpt>
      <trkpt lat="47.1627" lon="6.13911">
        <ele>527.308</ele>
        <time>2011-04-17T12:04:02Z</time>
      </trkpt>
      <trkpt lat="47.16284" lon="6.13929">
        <ele>527.231</ele>
        <time>2011-04-17T12:04:05Z</time>
      </trkpt>
      <trkpt lat="47.16299" lon="6.13949">
        <ele>527.259</ele>
        <time>2011-04-17T12:04:08Z</time>
      </trkpt>
      <trkpt lat="47.16309" lon="6.13964">
        <ele>527.38</ele>
        <time>2011-04-17T12:04:10Z</time>
      </trkpt>
      <trkpt lat="47.16326" lon="6.13994">
        <ele>527.709</ele>
        <time>2011-04-17T12:04:14Z</time>
      </trkpt>
      <trkpt lat="47.16334" lon="6.14008">
        <ele>527.782</ele>
        <time>2011-04-17T12:04:16Z</time>
      </trkpt>
      <trkpt lat="47.16338" lon="6.14016">
        <ele>527.641</ele>
        <time>2011-04-17T12:04:17Z</time>
      </trkpt>
      <trkpt lat="47.16375" lon="6.14083">
        <ele>526.321</ele>
        <time>2011-04-17T12:04:26Z</time>
      </trkpt>
      <trkpt lat="47.16412" lon="6.14149">
        <ele>526.031</ele>
        <time>2011-04-17T12:04:35Z</time>
      </trkpt>
      <trkpt lat="47.16454" lon="6.14224">
        <ele>525.301</ele>
        <time>2011-04-17T12:04:45Z</time>
      </trkpt>
      <trkpt lat="47.16491" lon="6.14291">
        <ele>524.198</ele>
        <time>2011-04-17T12:04:54Z</time>
      </trkpt>
      <trkpt lat="47.16523" lon="6.14348">
        <ele>524.461</ele>
        <time>2011-04-17T12:05:02Z</time>
      </trkpt>
      <trkpt lat="47.16555" lon="6.14403">
        <ele>524.225</ele>
        <time>2011-04-17T12:05:10Z</time>
      </trkpt>
      <trkpt lat="47.16584" lon="6.14454">
        <ele>525.521</ele>
        <time>2011-04-17T12:05:18Z</time>
      </trkpt>
      <trkpt lat="47.16608" lon="6.14496">
        <ele>526.039</ele>
        <time>2011-04-17T12:05:26Z</time>
      </trkpt>
      <trkpt lat="47.16626" lon="6.14527">
        <ele>527.222</ele>
        <time>2011-04-17T12:05:34Z</time>
      </trkpt>
      <trkpt lat="47.16641" lon="6.14561">
        <ele>528.156</ele>
        <time>2011-04-17T12:05:43Z</time>
      </trkpt>
      <trkpt lat="47.16643" lon="6.14564">
        <ele>528.168</ele>
        <time>2011-04-17T12:05:44Z</time>
      </trkpt>
      <trkpt lat="47.16656" lon="6.14558">
        <ele>528.276</ele>
        <time>2011-04-17T12:05:48Z</time>
      </trkpt>
      <trkpt lat="47.16667" lon="6.14538">
        <ele>528</ele>
        <time>2011-04-17T12:05:52Z</time>
      </trkpt>
      <trkpt lat="47.16691" lon="6.14504">
        <ele>528.347</ele>
        <time>2011-04-17T12:06:00Z</time>
      </trkpt>
      <trkpt lat="47.16704" lon="6.14472">
        <ele>528.751</ele>
        <time>2011-04-17T12:06:06Z</time>
      </trkpt>
      <trkpt lat="47.16709" lon="6.14432">
        <ele>530.018</ele>
        <time>2011-04-17T12:06:13Z</time>
      </trkpt>
      <trkpt lat="47.16709" lon="6.14408">
        <ele>531.094</ele>
        <time>2011-04-17T12:06:19Z</time>
      </trkpt>
      <trkpt lat="47.16704" lon="6.14384">
        <ele>531.009</ele>
        <time>2011-04-17T12:06:25Z</time>
      </trkpt>
      <trkpt lat="47.16695" lon="6.14357">
        <ele>530.629</ele>
        <time>2011-04-17T12:06:32Z</time>
      </trkpt>
      <trkpt lat="47.16683" lon="6.14331">
        <ele>530.688</ele>
        <time>2011-04-17T12:06:39Z</time>
      </trkpt>
      <trkpt lat="47.1667" lon="6.14308">
        <ele>530.78</ele>
        <time>2011-04-17T12:06:47Z</time>
      </trkpt>
      <trkpt lat="47.16661" lon="6.14282">
        <ele>530.442</ele>
        <time>2011-04-17T12:06:55Z</time>
      </trkpt>
      <trkpt lat="47.16656" lon="6.14245">
        <ele>529.553</ele>
        <time>2011-04-17T12:07:02Z</time>
      </trkpt>
      <trkpt lat="47.1665" lon="6.14207">
        <ele>528.54</ele>
        <time>2011-04-17T12:07:07Z</time>
      </trkpt>
      <trkpt lat="47.16641" lon="6.14156">
        <ele>526.157</ele>
        <time>2011-04-17T12:07:12Z</time>
      </trkpt>
      <trkpt lat="47.16628" lon="6.14094">
        <ele>523.1</ele>
        <time>2011-04-17T12:07:17Z</time>
      </trkpt>
      <trkpt lat="47.16615" lon="6.14011">
        <ele>519.092</ele>
        <time>2011-04-17T12:07:23Z</time>
      </trkpt>
      <trkpt lat="47.16613" lon="6.13945">
        <ele>517.506</ele>
        <time>2011-04-17T12:07:28Z</time>
      </trkpt>
      <trkpt lat="47.16611" lon="6.13891">
        <ele>516.352</ele>
        <time>2011-04-17T12:07:33Z</time>
      </trkpt>
      <trkpt lat="47.1662" lon="6.13868">
        <ele>515.224</ele>
        <time>2011-04-17T12:07:37Z</time>
      </trkpt>
      <trkpt lat="47.16627" lon="6.13871">
        <ele>514.838</ele>
        <time>2011-04-17T12:07:39Z</time>
      </trkpt>
      <trkpt lat="47.1663" lon="6.13875">
        <ele>514.756</ele>
        <time>2011-04-17T12:07:40Z</time>
      </trkpt>
      <trkpt lat="47.16643" lon="6.13902">
        <ele>514.434</ele>
        <time>2011-04-17T12:07:46Z</time>
      </trkpt>
      <trkpt lat="47.16648" lon="6.13905">
        <ele>514.503</ele>
        <time>2011-04-17T12:07:48Z</time>
      </trkpt>
      <trkpt lat="47.16656" lon="6.13908">
        <ele>515.153</ele>
        <time>2011-04-17T12:07:51Z</time>
      </trkpt>
      <trkpt lat="47.16663" lon="6.13908">
        <ele>516.1</ele>
        <time>2011-04-17T12:07:55Z</time>
      </trkpt>
      <trkpt lat="47.16671" lon="6.1391">
        <ele>516.948</ele>
        <time>2011-04-17T12:07:59Z</time>
      </trkpt>
      <trkpt lat="47.1668" lon="6.13913">
        <ele>517.744</ele>
        <time>2011-04-17T12:08:03Z</time>
      </trkpt>
      <trkpt lat="47.16685" lon="6.13916">
        <ele>518.431</ele>
        <time>2011-04-17T12:08:06Z</time>
      </trkpt>
      <trkpt lat="47.16691" lon="6.13916">
        <ele>519.391</ele>
        <time>2011-04-17T12:08:09Z</time>
      </trkpt>
      <trkpt lat="47.16699" lon="6.13919">
        <ele>520.347</ele>
        <time>2011-04-17T12:08:13Z</time>
      </trkpt>
      <trkpt lat="47.16718" lon="6.1393">
        <ele>521.601</ele>
        <time>2011-04-17T12:08:23Z</time>
      </trkpt>
      <trkpt lat="47.16726" lon="6.13939">
        <ele>522.396</ele>
        <time>2011-04-17T12:08:29Z</time>
      </trkpt>
      <trkpt lat="47.16733" lon="6.13951">
        <ele>523.157</ele>
        <time>2011-04-17T12:08:35Z</time>
      </trkpt>
      <trkpt lat="47.16734" lon="6.13953">
        <ele>523.285</ele>
        <time>2011-04-17T12:08:36Z</time>
      </trkpt>
      <trkpt lat="47.1674" lon="6.13962">
        <ele>523.749</ele>
        <time>2011-04-17T12:08:41Z</time>
      </trkpt>
      <trkpt lat="47.16742" lon="6.13966">
        <ele>523.771</ele>
        <time>2011-04-17T12:08:43Z</time>
      </trkpt>
      <trkpt lat="47.16755" lon="6.13971">
        <ele>524.906</ele>
        <time>2011-04-17T12:08:50Z</time>
      </trkpt>
      <trkpt lat="47.16766" lon="6.13973">
        <ele>526.272</ele>
        <time>2011-04-17T12:08:56Z</time>
      </trkpt>
      <trkpt lat="47.16775" lon="6.13975">
        <ele>527.485</ele>
        <time>2011-04-17T12:09:02Z</time>
      </trkpt>
      <trkpt lat="47.16782" lon="6.13978">
        <ele>528.189</ele>
        <time>2011-04-17T12:09:07Z</time>
      </trkpt>
      <trkpt lat="47.16788" lon="6.13981">
        <ele>528.819</ele>
        <time>2011-04-17T12:09:12Z</time>
      </trkpt>
      <trkpt lat="47.16793" lon="6.13984">
        <ele>529.74</ele>
        <time>2011-04-17T12:09:18Z</time>
      </trkpt>
      <trkpt lat="47.16799" lon="6.13986">
        <ele>530.424</ele>
        <time>2011-04-17T12:09:25Z</time>
      </trkpt>
      <trkpt lat="47.16806" lon="6.13981">
        <ele>531.279</ele>
        <time>2011-04-17T12:09:32Z</time>
      </trkpt>
      <trkpt lat="47.16817" lon="6.13973">
        <ele>532.352</ele>
        <time>2011-04-17T12:09:42Z</time>
      </trkpt>
      <trkpt lat="47.16829" lon="6.13974">
        <ele>533.836</ele>
        <time>2011-04-17T12:09:51Z</time>
      </trkpt>
      <trkpt lat="47.16833" lon="6.13978">
        <ele>534.324</ele>
        <time>2011-04-17T12:09:55Z</time>
      </trkpt>
      <trkpt lat="47.16841" lon="6.13984">
        <ele>534.914</ele>
        <time>2011-04-17T12:10:02Z</time>
      </trkpt>
      <trkpt lat="47.16844" lon="6.13984">
        <ele>535.208</ele>
        <time>2011-04-17T12:10:04Z</time>
      </trkpt>
      <trkpt lat="47.1685" lon="6.13979">
        <ele>535.985</ele>
        <time>2011-04-17T12:10:10Z</time>
      </trkpt>
      <trkpt lat="47.16853" lon="6.13976">
        <ele>536.366</ele>
        <time>2011-04-17T12:10:13Z</time>
      </trkpt>
      <trkpt lat="47.1686" lon="6.13975">
        <ele>536.867</ele>
        <time>2011-04-17T12:10:20Z</time>
      </trkpt>
      <trkpt lat="47.1687" lon="6.13973">
        <ele>537.653</ele>
        <time>2011-04-17T12:10:28Z</time>
      </trkpt>
      <trkpt lat="47.16873" lon="6.13972">
        <ele>537.978</ele>
        <time>2011-04-17T12:10:30Z</time>
      </trkpt>
      <trkpt lat="47.16887" lon="6.13971">
        <ele>539.52</ele>
        <time>2011-04-17T12:10:40Z</time>
      </trkpt>
      <trkpt lat="47.1689" lon="6.13971">
        <ele>539.765</ele>
        <time>2011-04-17T12:10:42Z</time>
      </trkpt>
      <trkpt lat="47.16899" lon="6.13972">
        <ele>540.117</ele>
        <time>2011-04-17T12:10:48Z</time>
      </trkpt>
      <trkpt lat="47.16912" lon="6.13977">
        <ele>540.892</ele>
        <time>2011-04-17T12:10:56Z</time>
      </trkpt>
      <trkpt lat="47.16923" lon="6.13978">
        <ele>541.408</ele>
        <time>2011-04-17T12:11:03Z</time>
      </trkpt>
      <trkpt lat="47.16935" lon="6.13978">
        <ele>542.39</ele>
        <time>2011-04-17T12:11:10Z</time>
      </trkpt>
      <trkpt lat="47.16947" lon="6.13977">
        <ele>542.842</ele>
        <time>2011-04-17T12:11:16Z</time>
      </trkpt>
      <trkpt lat="47.16957" lon="6.13968">
        <ele>543.651</ele>
        <time>2011-04-17T12:11:22Z</time>
      </trkpt>
      <trkpt lat="47.16965" lon="6.13957">
        <ele>544.838</ele>
        <time>2011-04-17T12:11:29Z</time>
      </trkpt>
      <trkpt lat="47.16967" lon="6.13954">
        <ele>545.579</ele>
        <time>2011-04-17T12:11:34Z</time>
      </trkpt>
      <trkpt lat="47.16971" lon="6.13947">
        <ele>546.324</ele>
        <time>2011-04-17T12:11:38Z</time>
      </trkpt>
      <trkpt lat="47.16982" lon="6.13939">
        <ele>547.749</ele>
        <time>2011-04-17T12:11:44Z</time>
      </trkpt>
      <trkpt lat="47.16994" lon="6.13931">
        <ele>548.674</ele>
        <time>2011-04-17T12:11:49Z</time>
      </trkpt>
      <trkpt lat="47.17004" lon="6.13918">
        <ele>549.633</ele>
        <time>2011-04-17T12:11:54Z</time>
      </trkpt>
      <trkpt lat="47.17015" lon="6.13905">
        <ele>550.124</ele>
        <time>2011-04-17T12:11:59Z</time>
      </trkpt>
      <trkpt lat="47.17017" lon="6.13903">
        <ele>550.268</ele>
        <time>2011-04-17T12:12:00Z</time>
      </trkpt>
      <trkpt lat="47.17034" lon="6.13877">
        <ele>550.639</ele>
        <time>2011-04-17T12:12:08Z</time>
      </trkpt>
      <trkpt lat="47.17038" lon="6.13863">
        <ele>550.99</ele>
        <time>2011-04-17T12:12:12Z</time>
      </trkpt>
      <trkpt lat="47.17039" lon="6.13859">
        <ele>551.073</ele>
        <time>2011-04-17T12:12:13Z</time>
      </trkpt>
      <trkpt lat="47.17033" lon="6.13837">
        <ele>550.876</ele>
        <time>2011-04-17T12:12:18Z</time>
      </trkpt>
      <trkpt lat="47.17037" lon="6.13819">
        <ele>551.172</ele>
        <time>2011-04-17T12:12:22Z</time>
      </trkpt>
      <trkpt lat="47.17045" lon="6.13797">
        <ele>552.001</ele>
        <time>2011-04-17T12:12:27Z</time>
      </trkpt>
      <trkpt lat="47.17054" lon="6.13767">
        <ele>552.35</ele>
        <time>2011-04-17T12:12:33Z</time>
      </trkpt>
      <trkpt lat="47.17063" lon="6.13736">
        <ele>551.003</ele>
        <time>2011-04-17T12:12:38Z</time>
      </trkpt>
      <trkpt lat="47.17073" lon="6.13717">
        <ele>549.931</ele>
        <time>2011-04-17T12:12:42Z</time>
      </trkpt>
      <trkpt lat="47.17082" lon="6.13719">
        <ele>549.841</ele>
        <time>2011-04-17T12:12:45Z</time>
      </trkpt>
      <trkpt lat="47.17103" lon="6.13736">
        <ele>551.286</ele>
        <time>2011-04-17T12:12:55Z</time>
      </trkpt>
      <trkpt lat="47.17115" lon="6.13742">
        <ele>552.373</ele>
        <time>2011-04-17T12:13:02Z</time>
      </trkpt>
      <trkpt lat="47.17127" lon="6.13751">
        <ele>553.229</ele>
        <time>2011-04-17T12:13:09Z</time>
      </trkpt>
      <trkpt lat="47.17135" lon="6.13759">
        <ele>554.307</ele>
        <time>2011-04-17T12:13:14Z</time>
      </trkpt>
      <trkpt lat="47.17143" lon="6.13768">
        <ele>555.258</ele>
        <time>2011-04-17T12:13:20Z</time>
      </trkpt>
      <trkpt lat="47.1715" lon="6.13776">
        <ele>556.215</ele>
        <time>2011-04-17T12:13:26Z</time>
      </trkpt>
      <trkpt lat="47.17153" lon="6.13778">
        <ele>556.673</ele>
        <time>2011-04-17T12:13:28Z</time>
      </trkpt>
      <trkpt lat="47.17159" lon="6.13786">
        <ele>557.71</ele>
        <time>2011-04-17T12:13:34Z</time>
      </trkpt>
      <trkpt lat="47.17166" lon="6.13796">
        <ele>558.685</ele>
        <time>2011-04-17T12:13:40Z</time>
      </trkpt>
      <trkpt lat="47.17173" lon="6.13804">
        <ele>559.181</ele>
        <time>2011-04-17T12:13:46Z</time>
      </trkpt>
      <trkpt lat="47.17175" lon="6.13806">
        <ele>559.558</ele>
        <time>2011-04-17T12:13:48Z</time>
      </trkpt>
      <trkpt lat="47.17177" lon="6.13811">
        <ele>560.193</ele>
        <time>2011-04-17T12:13:51Z</time>
      </trkpt>
      <trkpt lat="47.17188" lon="6.13821">
        <ele>561.463</ele>
        <time>2011-04-17T12:13:59Z</time>
      </trkpt>
      <trkpt lat="47.17194" lon="6.13827">
        <ele>562.168</ele>
        <time>2011-04-17T12:14:05Z</time>
      </trkpt>
      <trkpt lat="47.17203" lon="6.13837">
        <ele>563.145</ele>
        <time>2011-04-17T12:14:13Z</time>
      </trkpt>
      <trkpt lat="47.17212" lon="6.13845">
        <ele>564.077</ele>
        <time>2011-04-17T12:14:19Z</time>
      </trkpt>
      <trkpt lat="47.17218" lon="6.13853">
        <ele>565.082</ele>
        <time>2011-04-17T12:14:25Z</time>
      </trkpt>
      <trkpt lat="47.17224" lon="6.13864">
        <ele>566.299</ele>
        <time>2011-04-17T12:14:32Z</time>
      </trkpt>
      <trkpt lat="47.17231" lon="6.13874">
        <ele>567.239</ele>
        <time>2011-04-17T12:14:39Z</time>
      </trkpt>
      <trkpt lat="47.17236" lon="6.13885">
        <ele>567.945</ele>
        <time>2011-04-17T12:14:45Z</time>
      </trkpt>
      <trkpt lat="47.17241" lon="6.13897">
        <ele>569.068</ele>
        <time>2011-04-17T12:14:52Z</time>
      </trkpt>
      <trkpt lat="47.17248" lon="6.13913">
        <ele>570.029</ele>
        <time>2011-04-17T12:15:00Z</time>
      </trkpt>
      <trkpt lat="47.17255" lon="6.13929">
        <ele>571.048</ele>
        <time>2011-04-17T12:15:08Z</time>
      </trkpt>
      <trkpt lat="47.17263" lon="6.13944">
        <ele>571.965</ele>
        <time>2011-04-17T12:15:16Z</time>
      </trkpt>
      <trkpt lat="47.17271" lon="6.13954">
        <ele>572.963</ele>
        <time>2011-04-17T12:15:23Z</time>
      </trkpt>
      <trkpt lat="47.1728" lon="6.13967">
        <ele>573.774</ele>
        <time>2011-04-17T12:15:31Z</time>
      </trkpt>
      <trkpt lat="47.17282" lon="6.1397">
        <ele>573.928</ele>
        <time>2011-04-17T12:15:33Z</time>
      </trkpt>
      <trkpt lat="47.17288" lon="6.13975">
        <ele>574.548</ele>
        <time>2011-04-17T12:15:37Z</time>
      </trkpt>
      <trkpt lat="47.17297" lon="6.13985">
        <ele>575.469</ele>
        <time>2011-04-17T12:15:44Z</time>
      </trkpt>
      <trkpt lat="47.17307" lon="6.13997">
        <ele>576.487</ele>
        <time>2011-04-17T12:15:52Z</time>
      </trkpt>
      <trkpt lat="47.17314" lon="6.14007">
        <ele>577.109</ele>
        <time>2011-04-17T12:15:58Z</time>
      </trkpt>
      <trkpt lat="47.17324" lon="6.14017">
        <ele>578.121</ele>
        <time>2011-04-17T12:16:05Z</time>
      </trkpt>
      <trkpt lat="47.17337" lon="6.14027">
        <ele>579.35</ele>
        <time>2011-04-17T12:16:13Z</time>
      </trkpt>
      <trkpt lat="47.17351" lon="6.14029">
        <ele>579.9</ele>
        <time>2011-04-17T12:16:19Z</time>
      </trkpt>
      <trkpt lat="47.1736" lon="6.14032">
        <ele>579.837</ele>
        <time>2011-04-17T12:16:22Z</time>
      </trkpt>
      <trkpt lat="47.17374" lon="6.14045">
        <ele>580.014</ele>
        <time>2011-04-17T12:16:27Z</time>
      </trkpt>
      <trkpt lat="47.17388" lon="6.14061">
        <ele>580.263</ele>
        <time>2011-04-17T12:16:32Z</time>
      </trkpt>
      <trkpt lat="47.17395" lon="6.14075">
        <ele>580.638</ele>
        <time>2011-04-17T12:16:35Z</time>
      </trkpt>
      <trkpt lat="47.17398" lon="6.14079">
        <ele>580.626</ele>
        <time>2011-04-17T12:16:36Z</time>
      </trkpt>
      <trkpt lat="47.17411" lon="6.14102">
        <ele>580.563</ele>
        <time>2011-04-17T12:16:41Z</time>
      </trkpt>
      <trkpt lat="47.17418" lon="6.14111">
        <ele>580.463</ele>
        <time>2011-04-17T12:16:43Z</time>
      </trkpt>
      <trkpt lat="47.17432" lon="6.14126">
        <ele>579.953</ele>
        <time>2011-04-17T12:16:47Z</time>
      </trkpt>
      <trkpt lat="47.17455" lon="6.1415">
        <ele>579.64</ele>
        <time>2011-04-17T12:16:53Z</time>
      </trkpt>
      <trkpt lat="47.17481" lon="6.14166">
        <ele>578.4</ele>
        <time>2011-04-17T12:16:58Z</time>
      </trkpt>
      <trkpt lat="47.17484" lon="6.14168">
        <ele>578.047</ele>
        <time>2011-04-17T12:16:59Z</time>
      </trkpt>
      <trkpt lat="47.17491" lon="6.14171">
        <ele>576.989</ele>
        <time>2011-04-17T12:17:01Z</time>
      </trkpt>
      <trkpt lat="47.17505" lon="6.14178">
        <ele>574.73</ele>
        <time>2011-04-17T12:17:04Z</time>
      </trkpt>
      <trkpt lat="47.17519" lon="6.14186">
        <ele>572.945</ele>
        <time>2011-04-17T12:17:06Z</time>
      </trkpt>
      <trkpt lat="47.17525" lon="6.1419">
        <ele>572.944</ele>
        <time>2011-04-17T12:17:07Z</time>
      </trkpt>
      <trkpt lat="47.17546" lon="6.14206">
        <ele>570.33</ele>
        <time>2011-04-17T12:17:11Z</time>
      </trkpt>
      <trkpt lat="47.17556" lon="6.14212">
        <ele>569.243</ele>
        <time>2011-04-17T12:17:13Z</time>
      </trkpt>
      <trkpt lat="47.1757" lon="6.14223">
        <ele>567.026</ele>
        <time>2011-04-17T12:17:16Z</time>
      </trkpt>
      <trkpt lat="47.17574" lon="6.14227">
        <ele>566.241</ele>
        <time>2011-04-17T12:17:17Z</time>
      </trkpt>
      <trkpt lat="47.17578" lon="6.1423">
        <ele>565.504</ele>
        <time>2011-04-17T12:17:18Z</time>
      </trkpt>
      <trkpt lat="47.176" lon="6.14252">
        <ele>562.542</ele>
        <time>2011-04-17T12:17:23Z</time>
      </trkpt>
      <trkpt lat="47.17606" lon="6.14259">
        <ele>561.835</ele>
        <time>2011-04-17T12:17:24Z</time>
      </trkpt>
      <trkpt lat="47.17613" lon="6.14267">
        <ele>561.05</ele>
        <time>2011-04-17T12:17:25Z</time>
      </trkpt>
      <trkpt lat="47.17633" lon="6.14291">
        <ele>558.479</ele>
        <time>2011-04-17T12:17:28Z</time>
      </trkpt>
      <trkpt lat="47.17663" lon="6.14327">
        <ele>555.522</ele>
        <time>2011-04-17T12:17:32Z</time>
      </trkpt>
      <trkpt lat="47.17698" lon="6.1437">
        <ele>551.607</ele>
        <time>2011-04-17T12:17:37Z</time>
      </trkpt>
      <trkpt lat="47.17703" lon="6.14382">
        <ele>550.653</ele>
        <time>2011-04-17T12:17:38Z</time>
      </trkpt>
      <trkpt lat="47.1773" lon="6.14437">
        <ele>547.346</ele>
        <time>2011-04-17T12:17:43Z</time>
      </trkpt>
      <trkpt lat="47.17733" lon="6.14447">
        <ele>547.589</ele>
        <time>2011-04-17T12:17:44Z</time>
      </trkpt>
      <trkpt lat="47.17737" lon="6.14458">
        <ele>548.2</ele>
        <time>2011-04-17T12:17:45Z</time>
      </trkpt>
      <trkpt lat="47.17745" lon="6.14468">
        <ele>549.092</ele>
        <time>2011-04-17T12:17:49Z</time>
      </trkpt>
      <trkpt lat="47.17753" lon="6.14479">
        <ele>549.503</ele>
        <time>2011-04-17T12:17:53Z</time>
      </trkpt>
      <trkpt lat="47.17765" lon="6.14494">
        <ele>549.921</ele>
        <time>2011-04-17T12:17:58Z</time>
      </trkpt>
      <trkpt lat="47.17776" lon="6.14511">
        <ele>550.976</ele>
        <time>2011-04-17T12:18:03Z</time>
      </trkpt>
      <trkpt lat="47.17784" lon="6.14522">
        <ele>551.691</ele>
        <time>2011-04-17T12:18:09Z</time>
      </trkpt>
      <trkpt lat="47.17794" lon="6.14535">
        <ele>552.668</ele>
        <time>2011-04-17T12:18:16Z</time>
      </trkpt>
      <trkpt lat="47.17796" lon="6.14537">
        <ele>552.802</ele>
        <time>2011-04-17T12:18:17Z</time>
      </trkpt>
      <trkpt lat="47.17803" lon="6.14542">
        <ele>553.116</ele>
        <time>2011-04-17T12:18:21Z</time>
      </trkpt>
      <trkpt lat="47.17812" lon="6.14532">
        <ele>552.906</ele>
        <time>2011-04-17T12:18:26Z</time>
      </trkpt>
      <trkpt lat="47.17828" lon="6.14495">
        <ele>550.393</ele>
        <time>2011-04-17T12:18:31Z</time>
      </trkpt>
      <trkpt lat="47.1785" lon="6.14453">
        <ele>546.485</ele>
        <time>2011-04-17T12:18:36Z</time>
      </trkpt>
      <trkpt lat="47.17863" lon="6.14423">
        <ele>544.284</ele>
        <time>2011-04-17T12:18:40Z</time>
      </trkpt>
      <trkpt lat="47.17864" lon="6.14417">
        <ele>543.673</ele>
        <time>2011-04-17T12:18:41Z</time>
      </trkpt>
      <trkpt lat="47.17859" lon="6.14393">
        <ele>541.737</ele>
        <time>2011-04-17T12:18:44Z</time>
      </trkpt>
      <trkpt lat="47.17857" lon="6.14384">
        <ele>541.024</ele>
        <time>2011-04-17T12:18:45Z</time>
      </trkpt>
      <trkpt lat="47.17853" lon="6.1437">
        <ele>540.2</ele>
        <time>2011-04-17T12:18:47Z</time>
      </trkpt>
      <trkpt lat="47.17846" lon="6.1435">
        <ele>536.991</ele>
        <time>2011-04-17T12:18:51Z</time>
      </trkpt>
      <trkpt lat="47.17841" lon="6.14344">
        <ele>535.673</ele>
        <time>2011-04-17T12:18:53Z</time>
      </trkpt>
      <trkpt lat="47.17824" lon="6.14315">
        <ele>531.403</ele>
        <time>2011-04-17T12:18:58Z</time>
      </trkpt>
      <trkpt lat="47.1781" lon="6.14293">
        <ele>527.332</ele>
        <time>2011-04-17T12:19:02Z</time>
      </trkpt>
      <trkpt lat="47.17806" lon="6.14286">
        <ele>526.42</ele>
        <time>2011-04-17T12:19:03Z</time>
      </trkpt>
      <trkpt lat="47.17802" lon="6.14281">
        <ele>525.515</ele>
        <time>2011-04-17T12:19:04Z</time>
      </trkpt>
      <trkpt lat="47.17784" lon="6.14251">
        <ele>520.516</ele>
        <time>2011-04-17T12:19:09Z</time>
      </trkpt>
      <trkpt lat="47.1777" lon="6.14241">
        <ele>518.9</ele>
        <time>2011-04-17T12:19:12Z</time>
      </trkpt>
      <trkpt lat="47.17765" lon="6.14236">
        <ele>518.276</ele>
        <time>2011-04-17T12:19:13Z</time>
      </trkpt>
      <trkpt lat="47.17752" lon="6.14222">
        <ele>515.897</ele>
        <time>2011-04-17T12:19:16Z</time>
      </trkpt>
      <trkpt lat="47.1775" lon="6.14216">
        <ele>515.021</ele>
        <time>2011-04-17T12:19:17Z</time>
      </trkpt>
      <trkpt lat="47.17761" lon="6.1419">
        <ele>511.039</ele>
        <time>2011-04-17T12:19:21Z</time>
      </trkpt>
      <trkpt lat="47.17769" lon="6.14181">
        <ele>508.59</ele>
        <time>2011-04-17T12:19:23Z</time>
      </trkpt>
      <trkpt lat="47.17775" lon="6.14179">
        <ele>507.317</ele>
        <time>2011-04-17T12:19:24Z</time>
      </trkpt>
      <trkpt lat="47.17797" lon="6.14181">
        <ele>503.734</ele>
        <time>2011-04-17T12:19:27Z</time>
      </trkpt>
      <trkpt lat="47.17814" lon="6.14182">
        <ele>501.308</ele>
        <time>2011-04-17T12:19:29Z</time>
      </trkpt>
      <trkpt lat="47.1785" lon="6.14181">
        <ele>496.155</ele>
        <time>2011-04-17T12:19:33Z</time>
      </trkpt>
      <trkpt lat="47.17883" lon="6.14184">
        <ele>492.725</ele>
        <time>2011-04-17T12:19:37Z</time>
      </trkpt>
      <trkpt lat="47.17918" lon="6.14184">
        <ele>488.291</ele>
        <time>2011-04-17T12:19:41Z</time>
      </trkpt>
      <trkpt lat="47.17935" lon="6.14185">
        <ele>486.1</ele>
        <time>2011-04-17T12:19:43Z</time>
      </trkpt>
      <trkpt lat="47.17941" lon="6.14187">
        <ele>485.443</ele>
        <time>2011-04-17T12:19:44Z</time>
      </trkpt>
      <trkpt lat="47.17947" lon="6.14187">
        <ele>484.794</ele>
        <time>2011-04-17T12:19:45Z</time>
      </trkpt>
      <trkpt lat="47.17955" lon="6.14169">
        <ele>482.674</ele>
        <time>2011-04-17T12:19:48Z</time>
      </trkpt>
      <trkpt lat="47.17943" lon="6.14149">
        <ele>480.705</ele>
        <time>2011-04-17T12:19:51Z</time>
      </trkpt>
      <trkpt lat="47.17939" lon="6.14141">
        <ele>480.162</ele>
        <time>2011-04-17T12:19:52Z</time>
      </trkpt>
      <trkpt lat="47.17918" lon="6.14089">
        <ele>475.851</ele>
        <time>2011-04-17T12:19:57Z</time>
      </trkpt>
      <trkpt lat="47.1791" lon="6.14029">
        <ele>470.589</ele>
        <time>2011-04-17T12:20:01Z</time>
      </trkpt>
      <trkpt lat="47.17912" lon="6.14013">
        <ele>470.587</ele>
        <time>2011-04-17T12:20:02Z</time>
      </trkpt>
      <trkpt lat="47.17932" lon="6.1392">
        <ele>467.123</ele>
        <time>2011-04-17T12:20:09Z</time>
      </trkpt>
      <trkpt lat="47.17947" lon="6.13839">
        <ele>462.936</ele>
        <time>2011-04-17T12:20:15Z</time>
      </trkpt>
      <trkpt lat="47.17955" lon="6.13804">
        <ele>464.337</ele>
        <time>2011-04-17T12:20:19Z</time>
      </trkpt>
      <trkpt lat="47.17964" lon="6.13761">
        <ele>466.725</ele>
        <time>2011-04-17T12:20:25Z</time>
      </trkpt>
      <trkpt lat="47.17969" lon="6.13735">
        <ele>467.415</ele>
        <time>2011-04-17T12:20:29Z</time>
      </trkpt>
      <trkpt lat="47.17977" lon="6.13689">
        <ele>466.628</ele>
        <time>2011-04-17T12:20:35Z</time>
      </trkpt>
      <trkpt lat="47.17989" lon="6.13614">
        <ele>463.589</ele>
        <time>2011-04-17T12:20:43Z</time>
      </trkpt>
      <trkpt lat="47.17999" lon="6.13555">
        <ele>460.919</ele>
        <time>2011-04-17T12:20:48Z</time>
      </trkpt>
      <trkpt lat="47.18006" lon="6.1352">
        <ele>459.75</ele>
        <time>2011-04-17T12:20:51Z</time>
      </trkpt>
      <trkpt lat="47.18009" lon="6.13511">
        <ele>459.743</ele>
        <time>2011-04-17T12:20:52Z</time>
      </trkpt>
      <trkpt lat="47.1802" lon="6.13504">
        <ele>459.04</ele>
        <time>2011-04-17T12:20:54Z</time>
      </trkpt>
      <trkpt lat="47.18031" lon="6.13508">
        <ele>458.722</ele>
        <time>2011-04-17T12:20:56Z</time>
      </trkpt>
      <trkpt lat="47.18075" lon="6.13523">
        <ele>458.031</ele>
        <time>2011-04-17T12:21:03Z</time>
      </trkpt>
      <trkpt lat="47.18112" lon="6.13522">
        <ele>458.576</ele>
        <time>2011-04-17T12:21:09Z</time>
      </trkpt>
      <trkpt lat="47.18151" lon="6.13526">
        <ele>459.267</ele>
        <time>2011-04-17T12:21:16Z</time>
      </trkpt>
      <trkpt lat="47.18174" lon="6.13545">
        <ele>459.42</ele>
        <time>2011-04-17T12:21:21Z</time>
      </trkpt>
      <trkpt lat="47.18211" lon="6.13607">
        <ele>458.08</ele>
        <time>2011-04-17T12:21:30Z</time>
      </trkpt>
      <trkpt lat="47.18223" lon="6.13649">
        <ele>458.21</ele>
        <time>2011-04-17T12:21:35Z</time>
      </trkpt>
      <trkpt lat="47.18234" lon="6.13705">
        <ele>458.329</ele>
        <time>2011-04-17T12:21:42Z</time>
      </trkpt>
      <trkpt lat="47.18239" lon="6.1372">
        <ele>458.227</ele>
        <time>2011-04-17T12:21:44Z</time>
      </trkpt>
      <trkpt lat="47.18264" lon="6.13759">
        <ele>457.319</ele>
        <time>2011-04-17T12:21:50Z</time>
      </trkpt>
      <trkpt lat="47.18288" lon="6.13786">
        <ele>458.163</ele>
        <time>2011-04-17T12:21:56Z</time>
      </trkpt>
      <trkpt lat="47.18312" lon="6.13807">
        <ele>459.71</ele>
        <time>2011-04-17T12:22:03Z</time>
      </trkpt>
      <trkpt lat="47.18333" lon="6.13827">
        <ele>461.522</ele>
        <time>2011-04-17T12:22:10Z</time>
      </trkpt>
      <trkpt lat="47.18342" lon="6.13849">
        <ele>461.359</ele>
        <time>2011-04-17T12:22:14Z</time>
      </trkpt>
      <trkpt lat="47.18351" lon="6.13893">
        <ele>460.785</ele>
        <time>2011-04-17T12:22:21Z</time>
      </trkpt>
      <trkpt lat="47.18352" lon="6.13913">
        <ele>460.654</ele>
        <time>2011-04-17T12:22:24Z</time>
      </trkpt>
      <trkpt lat="47.18361" lon="6.13936">
        <ele>460.432</ele>
        <time>2011-04-17T12:22:28Z</time>
      </trkpt>
      <trkpt lat="47.1837" lon="6.13939">
        <ele>460.413</ele>
        <time>2011-04-17T12:22:30Z</time>
      </trkpt>
      <trkpt lat="47.18391" lon="6.13938">
        <ele>461.203</ele>
        <time>2011-04-17T12:22:35Z</time>
      </trkpt>
      <trkpt lat="47.18408" lon="6.13926">
        <ele>461.884</ele>
        <time>2011-04-17T12:22:40Z</time>
      </trkpt>
      <trkpt lat="47.18411" lon="6.13923">
        <ele>462.172</ele>
        <time>2011-04-17T12:22:41Z</time>
      </trkpt>
      <trkpt lat="47.18431" lon="6.139">
        <ele>464.286</ele>
        <time>2011-04-17T12:22:50Z</time>
      </trkpt>
      <trkpt lat="47.18451" lon="6.13877">
        <ele>465.669</ele>
        <time>2011-04-17T12:22:59Z</time>
      </trkpt>
      <trkpt lat="47.18471" lon="6.13861">
        <ele>466.637</ele>
        <time>2011-04-17T12:23:07Z</time>
      </trkpt>
      <trkpt lat="47.18487" lon="6.13852">
        <ele>467.039</ele>
        <time>2011-04-17T12:23:14Z</time>
      </trkpt>
      <trkpt lat="47.18495" lon="6.13846">
        <ele>467.142</ele>
        <time>2011-04-17T12:23:18Z</time>
      </trkpt>
      <trkpt lat="47.18501" lon="6.13841">
        <ele>467.416</ele>
        <time>2011-04-17T12:23:23Z</time>
      </trkpt>
      <trkpt lat="47.18503" lon="6.13844">
        <ele>467.598</ele>
        <time>2011-04-17T12:23:27Z</time>
      </trkpt>
      <trkpt lat="47.18503" lon="6.13844">
        <ele>467.547</ele>
        <time>2011-04-17T12:23:29Z</time>
      </trkpt>
      <trkpt lat="47.18504" lon="6.13847">
        <ele>469.193</ele>
        <time>2011-04-17T12:28:29Z</time>
      </trkpt>
      <trkpt lat="47.18509" lon="6.13847">
        <ele>469.822</ele>
        <time>2011-04-17T12:28:57Z</time>
      </trkpt>
      <trkpt lat="47.18513" lon="6.13842">
        <ele>469.474</ele>
        <time>2011-04-17T12:29:03Z</time>
      </trkpt>
      <trkpt lat="47.18513" lon="6.13836">
        <ele>469.91</ele>
        <time>2011-04-17T12:33:44Z</time>
      </trkpt>
      <trkpt lat="47.18513" lon="6.13836">
        <ele>469.872</ele>
        <time>2011-04-17T12:33:45Z</time>
      </trkpt>
      <trkpt lat="47.18516" lon="6.13835">
        <ele>469.668</ele>
        <time>2011-04-17T12:33:48Z</time>
      </trkpt>
      <trkpt lat="47.18529" lon="6.13828">
        <ele>470.082</ele>
        <time>2011-04-17T12:33:53Z</time>
      </trkpt>
      <trkpt lat="47.18543" lon="6.13816">
        <ele>469.847</ele>
        <time>2011-04-17T12:33:58Z</time>
      </trkpt>
      <trkpt lat="47.18571" lon="6.13795">
        <ele>468.293</ele>
        <time>2011-04-17T12:34:05Z</time>
      </trkpt>
      <trkpt lat="47.18602" lon="6.13772">
        <ele>465.074</ele>
        <time>2011-04-17T12:34:10Z</time>
      </trkpt>
      <trkpt lat="47.18638" lon="6.13744">
        <ele>461.263</ele>
        <time>2011-04-17T12:34:15Z</time>
      </trkpt>
      <trkpt lat="47.18649" lon="6.13735">
        <ele>460.463</ele>
        <time>2011-04-17T12:34:17Z</time>
      </trkpt>
      <trkpt lat="47.18656" lon="6.13711">
        <ele>459.765</ele>
        <time>2011-04-17T12:34:21Z</time>
      </trkpt>
      <trkpt lat="47.18655" lon="6.13706">
        <ele>459.769</ele>
        <time>2011-04-17T12:34:22Z</time>
      </trkpt>
      <trkpt lat="47.18649" lon="6.1368">
        <ele>461.225</ele>
        <time>2011-04-17T12:34:28Z</time>
      </trkpt>
      <trkpt lat="47.18648" lon="6.13668">
        <ele>462.017</ele>
        <time>2011-04-17T12:34:31Z</time>
      </trkpt>
      <trkpt lat="47.18646" lon="6.13655">
        <ele>462.748</ele>
        <time>2011-04-17T12:34:34Z</time>
      </trkpt>
      <trkpt lat="47.18644" lon="6.13642">
        <ele>463.299</ele>
        <time>2011-04-17T12:34:37Z</time>
      </trkpt>
      <trkpt lat="47.18644" lon="6.13633">
        <ele>463.823</ele>
        <time>2011-04-17T12:34:39Z</time>
      </trkpt>
      <trkpt lat="47.18641" lon="6.13605">
        <ele>464.512</ele>
        <time>2011-04-17T12:34:45Z</time>
      </trkpt>
      <trkpt lat="47.18638" lon="6.13564">
        <ele>465.006</ele>
        <time>2011-04-17T12:34:54Z</time>
      </trkpt>
      <trkpt lat="47.18636" lon="6.13521">
        <ele>466.171</ele>
        <time>2011-04-17T12:35:05Z</time>
      </trkpt>
      <trkpt lat="47.18634" lon="6.13494">
        <ele>467.253</ele>
        <time>2011-04-17T12:35:13Z</time>
      </trkpt>
      <trkpt lat="47.18631" lon="6.13469">
        <ele>468.668</ele>
        <time>2011-04-17T12:35:21Z</time>
      </trkpt>
      <trkpt lat="47.18627" lon="6.13448">
        <ele>469.491</ele>
        <time>2011-04-17T12:35:28Z</time>
      </trkpt>
      <trkpt lat="47.18626" lon="6.13417">
        <ele>470.939</ele>
        <time>2011-04-17T12:35:37Z</time>
      </trkpt>
      <trkpt lat="47.18627" lon="6.13382">
        <ele>472.297</ele>
        <time>2011-04-17T12:35:47Z</time>
      </trkpt>
      <trkpt lat="47.18624" lon="6.13355">
        <ele>473.727</ele>
        <time>2011-04-17T12:35:54Z</time>
      </trkpt>
      <trkpt lat="47.18623" lon="6.13322">
        <ele>475.156</ele>
        <time>2011-04-17T12:36:02Z</time>
      </trkpt>
      <trkpt lat="47.18623" lon="6.13295">
        <ele>476.639</ele>
        <time>2011-04-17T12:36:10Z</time>
      </trkpt>
      <trkpt lat="47.1862" lon="6.13273">
        <ele>478.255</ele>
        <time>2011-04-17T12:36:17Z</time>
      </trkpt>
      <trkpt lat="47.18618" lon="6.13247">
        <ele>478.735</ele>
        <time>2011-04-17T12:36:24Z</time>
      </trkpt>
      <trkpt lat="47.18616" lon="6.13219">
        <ele>479.627</ele>
        <time>2011-04-17T12:36:32Z</time>
      </trkpt>
      <trkpt lat="47.18617" lon="6.13197">
        <ele>480.06</ele>
        <time>2011-04-17T12:36:37Z</time>
      </trkpt>
      <trkpt lat="47.18615" lon="6.13167">
        <ele>480.52</ele>
        <time>2011-04-17T12:36:43Z</time>
      </trkpt>
      <trkpt lat="47.18613" lon="6.13149">
        <ele>480.229</ele>
        <time>2011-04-17T12:36:46Z</time>
      </trkpt>
      <trkpt lat="47.18617" lon="6.13124">
        <ele>480.202</ele>
        <time>2011-04-17T12:36:51Z</time>
      </trkpt>
      <trkpt lat="47.18621" lon="6.13103">
        <ele>480.391</ele>
        <time>2011-04-17T12:36:55Z</time>
      </trkpt>
      <trkpt lat="47.18624" lon="6.13071">
        <ele>479.671</ele>
        <time>2011-04-17T12:37:01Z</time>
      </trkpt>
      <trkpt lat="47.18627" lon="6.13049">
        <ele>479.586</ele>
        <time>2011-04-17T12:37:06Z</time>
      </trkpt>
      <trkpt lat="47.18626" lon="6.13037">
        <ele>479.457</ele>
        <time>2011-04-17T12:37:10Z</time>
      </trkpt>
      <trkpt lat="47.18625" lon="6.13027">
        <ele>479.26</ele>
        <time>2011-04-17T12:37:15Z</time>
      </trkpt>
      <trkpt lat="47.1862" lon="6.13012">
        <ele>479.136</ele>
        <time>2011-04-17T12:37:25Z</time>
      </trkpt>
      <trkpt lat="47.18619" lon="6.13004">
        <ele>479.068</ele>
        <time>2011-04-17T12:37:28Z</time>
      </trkpt>
      <trkpt lat="47.18627" lon="6.12983">
        <ele>479.645</ele>
        <time>2011-04-17T12:37:34Z</time>
      </trkpt>
      <trkpt lat="47.18628" lon="6.12973">
        <ele>479.726</ele>
        <time>2011-04-17T12:37:36Z</time>
      </trkpt>
      <trkpt lat="47.18624" lon="6.12949">
        <ele>479.817</ele>
        <time>2011-04-17T12:37:41Z</time>
      </trkpt>
      <trkpt lat="47.1862" lon="6.12923">
        <ele>480.283</ele>
        <time>2011-04-17T12:37:46Z</time>
      </trkpt>
      <trkpt lat="47.18617" lon="6.12902">
        <ele>480.348</ele>
        <time>2011-04-17T12:37:51Z</time>
      </trkpt>
      <trkpt lat="47.18614" lon="6.12888">
        <ele>480.444</ele>
        <time>2011-04-17T12:37:55Z</time>
      </trkpt>
      <trkpt lat="47.18612" lon="6.12872">
        <ele>480.815</ele>
        <time>2011-04-17T12:37:59Z</time>
      </trkpt>
      <trkpt lat="47.18608" lon="6.12852">
        <ele>481.253</ele>
        <time>2011-04-17T12:38:04Z</time>
      </trkpt>
      <trkpt lat="47.18602" lon="6.12826">
        <ele>481.663</ele>
        <time>2011-04-17T12:38:10Z</time>
      </trkpt>
      <trkpt lat="47.186" lon="6.12806">
        <ele>482.439</ele>
        <time>2011-04-17T12:38:15Z</time>
      </trkpt>
      <trkpt lat="47.18597" lon="6.12789">
        <ele>482.576</ele>
        <time>2011-04-17T12:38:19Z</time>
      </trkpt>
      <trkpt lat="47.18606" lon="6.12781">
        <ele>483.968</ele>
        <time>2011-04-17T12:38:24Z</time>
      </trkpt>
      <trkpt lat="47.18618" lon="6.1278">
        <ele>484.376</ele>
        <time>2011-04-17T12:38:28Z</time>
      </trkpt>
      <trkpt lat="47.18641" lon="6.12776">
        <ele>484.138</ele>
        <time>2011-04-17T12:38:35Z</time>
      </trkpt>
      <trkpt lat="47.18665" lon="6.12773">
        <ele>482.72</ele>
        <time>2011-04-17T12:38:40Z</time>
      </trkpt>
      <trkpt lat="47.18698" lon="6.12769">
        <ele>479.55</ele>
        <time>2011-04-17T12:38:45Z</time>
      </trkpt>
      <trkpt lat="47.1873" lon="6.12764">
        <ele>474.074</ele>
        <time>2011-04-17T12:38:50Z</time>
      </trkpt>
      <trkpt lat="47.18736" lon="6.12764">
        <ele>472.543</ele>
        <time>2011-04-17T12:38:51Z</time>
      </trkpt>
      <trkpt lat="47.18743" lon="6.12763">
        <ele>470.982</ele>
        <time>2011-04-17T12:38:52Z</time>
      </trkpt>
      <trkpt lat="47.18756" lon="6.12757">
        <ele>469.257</ele>
        <time>2011-04-17T12:38:54Z</time>
      </trkpt>
      <trkpt lat="47.1877" lon="6.1275">
        <ele>466.365</ele>
        <time>2011-04-17T12:38:56Z</time>
      </trkpt>
      <trkpt lat="47.18785" lon="6.12745">
        <ele>463.125</ele>
        <time>2011-04-17T12:38:58Z</time>
      </trkpt>
      <trkpt lat="47.18793" lon="6.12742">
        <ele>461.578</ele>
        <time>2011-04-17T12:38:59Z</time>
      </trkpt>
      <trkpt lat="47.18807" lon="6.12735">
        <ele>457.862</ele>
        <time>2011-04-17T12:39:01Z</time>
      </trkpt>
      <trkpt lat="47.18819" lon="6.12728">
        <ele>454.355</ele>
        <time>2011-04-17T12:39:03Z</time>
      </trkpt>
      <trkpt lat="47.18841" lon="6.12718">
        <ele>449.565</ele>
        <time>2011-04-17T12:39:06Z</time>
      </trkpt>
      <trkpt lat="47.18856" lon="6.12713">
        <ele>446.666</ele>
        <time>2011-04-17T12:39:08Z</time>
      </trkpt>
      <trkpt lat="47.18893" lon="6.12699">
        <ele>440.508</ele>
        <time>2011-04-17T12:39:13Z</time>
      </trkpt>
      <trkpt lat="47.189" lon="6.12696">
        <ele>439.802</ele>
        <time>2011-04-17T12:39:14Z</time>
      </trkpt>
      <trkpt lat="47.18931" lon="6.12684">
        <ele>438.441</ele>
        <time>2011-04-17T12:39:19Z</time>
      </trkpt>
      <trkpt lat="47.18939" lon="6.12682">
        <ele>438.579</ele>
        <time>2011-04-17T12:39:21Z</time>
      </trkpt>
      <trkpt lat="47.18944" lon="6.12679">
        <ele>438.995</ele>
        <time>2011-04-17T12:39:23Z</time>
      </trkpt>
      <trkpt lat="47.18959" lon="6.12685">
        <ele>439.382</ele>
        <time>2011-04-17T12:39:29Z</time>
      </trkpt>
      <trkpt lat="47.18966" lon="6.12712">
        <ele>438.433</ele>
        <time>2011-04-17T12:39:33Z</time>
      </trkpt>
      <trkpt lat="47.18971" lon="6.12728">
        <ele>437.282</ele>
        <time>2011-04-17T12:39:36Z</time>
      </trkpt>
      <trkpt lat="47.18973" lon="6.1273">
        <ele>437.087</ele>
        <time>2011-04-17T12:39:37Z</time>
      </trkpt>
      <trkpt lat="47.18992" lon="6.12721">
        <ele>437.572</ele>
        <time>2011-04-17T12:39:42Z</time>
      </trkpt>
      <trkpt lat="47.1902" lon="6.127">
        <ele>436.42</ele>
        <time>2011-04-17T12:39:48Z</time>
      </trkpt>
      <trkpt lat="47.19033" lon="6.12694">
        <ele>435.428</ele>
        <time>2011-04-17T12:39:50Z</time>
      </trkpt>
      <trkpt lat="47.19062" lon="6.12694">
        <ele>432.555</ele>
        <time>2011-04-17T12:39:54Z</time>
      </trkpt>
      <trkpt lat="47.19078" lon="6.12699">
        <ele>430.64</ele>
        <time>2011-04-17T12:39:56Z</time>
      </trkpt>
      <trkpt lat="47.19108" lon="6.12707">
        <ele>427.942</ele>
        <time>2011-04-17T12:40:00Z</time>
      </trkpt>
      <trkpt lat="47.19124" lon="6.12721">
        <ele>427.02</ele>
        <time>2011-04-17T12:40:04Z</time>
      </trkpt>
      <trkpt lat="47.19163" lon="6.12739">
        <ele>426.259</ele>
        <time>2011-04-17T12:40:13Z</time>
      </trkpt>
      <trkpt lat="47.19177" lon="6.12745">
        <ele>425.959</ele>
        <time>2011-04-17T12:40:17Z</time>
      </trkpt>
      <trkpt lat="47.19193" lon="6.12749">
        <ele>426.24</ele>
        <time>2011-04-17T12:40:22Z</time>
      </trkpt>
      <trkpt lat="47.19205" lon="6.12753">
        <ele>426.058</ele>
        <time>2011-04-17T12:40:25Z</time>
      </trkpt>
      <trkpt lat="47.19229" lon="6.12757">
        <ele>425.628</ele>
        <time>2011-04-17T12:40:32Z</time>
      </trkpt>
      <trkpt lat="47.19248" lon="6.12756">
        <ele>425.786</ele>
        <time>2011-04-17T12:40:37Z</time>
      </trkpt>
      <trkpt lat="47.19265" lon="6.12756">
        <ele>425.309</ele>
        <time>2011-04-17T12:40:41Z</time>
      </trkpt>
      <trkpt lat="47.19278" lon="6.12752">
        <ele>424.18</ele>
        <time>2011-04-17T12:40:44Z</time>
      </trkpt>
      <trkpt lat="47.19295" lon="6.12739">
        <ele>423.346</ele>
        <time>2011-04-17T12:40:49Z</time>
      </trkpt>
      <trkpt lat="47.19297" lon="6.12721">
        <ele>423.087</ele>
        <time>2011-04-17T12:40:54Z</time>
      </trkpt>
      <trkpt lat="47.19299" lon="6.12713">
        <ele>423.125</ele>
        <time>2011-04-17T12:40:59Z</time>
      </trkpt>
      <trkpt lat="47.19319" lon="6.12701">
        <ele>422.375</ele>
        <time>2011-04-17T12:41:07Z</time>
      </trkpt>
      <trkpt lat="47.19359" lon="6.12681">
        <ele>421.668</ele>
        <time>2011-04-17T12:41:16Z</time>
      </trkpt>
      <trkpt lat="47.19382" lon="6.1268">
        <ele>421.263</ele>
        <time>2011-04-17T12:41:22Z</time>
      </trkpt>
      <trkpt lat="47.19388" lon="6.12683">
        <ele>421.172</ele>
        <time>2011-04-17T12:41:24Z</time>
      </trkpt>
      <trkpt lat="47.19396" lon="6.12689">
        <ele>420.947</ele>
        <time>2011-04-17T12:41:27Z</time>
      </trkpt>
      <trkpt lat="47.19403" lon="6.12689">
        <ele>420.944</ele>
        <time>2011-04-17T12:41:29Z</time>
      </trkpt>
      <trkpt lat="47.19412" lon="6.12694">
        <ele>421.742</ele>
        <time>2011-04-17T12:41:33Z</time>
      </trkpt>
      <trkpt lat="47.19423" lon="6.12701">
        <ele>422.172</ele>
        <time>2011-04-17T12:41:39Z</time>
      </trkpt>
      <trkpt lat="47.19435" lon="6.12705">
        <ele>422.226</ele>
        <time>2011-04-17T12:41:44Z</time>
      </trkpt>
      <trkpt lat="47.19439" lon="6.12706">
        <ele>422.435</ele>
        <time>2011-04-17T12:41:47Z</time>
      </trkpt>
      <trkpt lat="47.19451" lon="6.12704">
        <ele>422.51</ele>
        <time>2011-04-17T12:41:52Z</time>
      </trkpt>
      <trkpt lat="47.19462" lon="6.12709">
        <ele>422.164</ele>
        <time>2011-04-17T12:41:56Z</time>
      </trkpt>
      <trkpt lat="47.19474" lon="6.12719">
        <ele>422.553</ele>
        <time>2011-04-17T12:42:01Z</time>
      </trkpt>
      <trkpt lat="47.19483" lon="6.1272">
        <ele>422.794</ele>
        <time>2011-04-17T12:42:05Z</time>
      </trkpt>
      <trkpt lat="47.19488" lon="6.12722">
        <ele>423.016</ele>
        <time>2011-04-17T12:42:10Z</time>
      </trkpt>
      <trkpt lat="47.19497" lon="6.12732">
        <ele>423.326</ele>
        <time>2011-04-17T12:42:16Z</time>
      </trkpt>
      <trkpt lat="47.19501" lon="6.12735">
        <ele>423.592</ele>
        <time>2011-04-17T12:42:18Z</time>
      </trkpt>
      <trkpt lat="47.19515" lon="6.12736">
        <ele>423.885</ele>
        <time>2011-04-17T12:42:23Z</time>
      </trkpt>
      <trkpt lat="47.19531" lon="6.12746">
        <ele>424.138</ele>
        <time>2011-04-17T12:42:29Z</time>
      </trkpt>
      <trkpt lat="47.19538" lon="6.12744">
        <ele>424.057</ele>
        <time>2011-04-17T12:42:33Z</time>
      </trkpt>
      <trkpt lat="47.19542" lon="6.12742">
        <ele>423.83</ele>
        <time>2011-04-17T12:42:35Z</time>
      </trkpt>
      <trkpt lat="47.19546" lon="6.12743">
        <ele>423.722</ele>
        <time>2011-04-17T12:42:37Z</time>
      </trkpt>
      <trkpt lat="47.19556" lon="6.12741">
        <ele>423.587</ele>
        <time>2011-04-17T12:42:42Z</time>
      </trkpt>
      <trkpt lat="47.19567" lon="6.12744">
        <ele>423.537</ele>
        <time>2011-04-17T12:42:47Z</time>
      </trkpt>
      <trkpt lat="47.19578" lon="6.12739">
        <ele>423.362</ele>
        <time>2011-04-17T12:42:52Z</time>
      </trkpt>
      <trkpt lat="47.19588" lon="6.12737">
        <ele>423.117</ele>
        <time>2011-04-17T12:42:56Z</time>
      </trkpt>
      <trkpt lat="47.19603" lon="6.12737">
        <ele>422.477</ele>
        <time>2011-04-17T12:43:01Z</time>
      </trkpt>
      <trkpt lat="47.19622" lon="6.12734">
        <ele>421.786</ele>
        <time>2011-04-17T12:43:06Z</time>
      </trkpt>
      <trkpt lat="47.19642" lon="6.1273">
        <ele>421.4</ele>
        <time>2011-04-17T12:43:11Z</time>
      </trkpt>
      <trkpt lat="47.19666" lon="6.12732">
        <ele>421.068</ele>
        <time>2011-04-17T12:43:17Z</time>
      </trkpt>
      <trkpt lat="47.1968" lon="6.12733">
        <ele>421.549</ele>
        <time>2011-04-17T12:43:22Z</time>
      </trkpt>
      <trkpt lat="47.19693" lon="6.12736">
        <ele>422.218</ele>
        <time>2011-04-17T12:43:27Z</time>
      </trkpt>
      <trkpt lat="47.1971" lon="6.12735">
        <ele>423.141</ele>
        <time>2011-04-17T12:43:35Z</time>
      </trkpt>
      <trkpt lat="47.19719" lon="6.12736">
        <ele>423.484</ele>
        <time>2011-04-17T12:43:40Z</time>
      </trkpt>
      <trkpt lat="47.19732" lon="6.12734">
        <ele>424.016</ele>
        <time>2011-04-17T12:43:47Z</time>
      </trkpt>
      <trkpt lat="47.19742" lon="6.12734">
        <ele>424.242</ele>
        <time>2011-04-17T12:43:53Z</time>
      </trkpt>
      <trkpt lat="47.1975" lon="6.12734">
        <ele>424.332</ele>
        <time>2011-04-17T12:43:56Z</time>
      </trkpt>
      <trkpt lat="47.19764" lon="6.12735">
        <ele>424.641</ele>
        <time>2011-04-17T12:44:02Z</time>
      </trkpt>
      <trkpt lat="47.19782" lon="6.12735">
        <ele>424.976</ele>
        <time>2011-04-17T12:44:09Z</time>
      </trkpt>
      <trkpt lat="47.19794" lon="6.12737">
        <ele>425.404</ele>
        <time>2011-04-17T12:44:14Z</time>
      </trkpt>
      <trkpt lat="47.19806" lon="6.12738">
        <ele>425.227</ele>
        <time>2011-04-17T12:44:20Z</time>
      </trkpt>
      <trkpt lat="47.19814" lon="6.12738">
        <ele>425.305</ele>
        <time>2011-04-17T12:44:24Z</time>
      </trkpt>
      <trkpt lat="47.19825" lon="6.12739">
        <ele>424.862</ele>
        <time>2011-04-17T12:44:29Z</time>
      </trkpt>
      <trkpt lat="47.19838" lon="6.1274">
        <ele>424.67</ele>
        <time>2011-04-17T12:44:34Z</time>
      </trkpt>
      <trkpt lat="47.19853" lon="6.12744">
        <ele>424.368</ele>
        <time>2011-04-17T12:44:40Z</time>
      </trkpt>
      <trkpt lat="47.19868" lon="6.12746">
        <ele>424.449</ele>
        <time>2011-04-17T12:44:45Z</time>
      </trkpt>
      <trkpt lat="47.19882" lon="6.12749">
        <ele>424.254</ele>
        <time>2011-04-17T12:44:50Z</time>
      </trkpt>
      <trkpt lat="47.19899" lon="6.12753">
        <ele>424.001</ele>
        <time>2011-04-17T12:44:56Z</time>
      </trkpt>
      <trkpt lat="47.19918" lon="6.12758">
        <ele>424.184</ele>
        <time>2011-04-17T12:45:02Z</time>
      </trkpt>
      <trkpt lat="47.1993" lon="6.12763">
        <ele>424.312</ele>
        <time>2011-04-17T12:45:06Z</time>
      </trkpt>
      <trkpt lat="47.19938" lon="6.12763">
        <ele>424.648</ele>
        <time>2011-04-17T12:45:10Z</time>
      </trkpt>
      <trkpt lat="47.19951" lon="6.1277">
        <ele>425.221</ele>
        <time>2011-04-17T12:45:15Z</time>
      </trkpt>
      <trkpt lat="47.19967" lon="6.12774">
        <ele>425.335</ele>
        <time>2011-04-17T12:45:21Z</time>
      </trkpt>
      <trkpt lat="47.19985" lon="6.1278">
        <ele>425.71</ele>
        <time>2011-04-17T12:45:27Z</time>
      </trkpt>
      <trkpt lat="47.20004" lon="6.12787">
        <ele>425.604</ele>
        <time>2011-04-17T12:45:33Z</time>
      </trkpt>
      <trkpt lat="47.20022" lon="6.12794">
        <ele>425.281</ele>
        <time>2011-04-17T12:45:39Z</time>
      </trkpt>
      <trkpt lat="47.2003" lon="6.12797">
        <ele>424.811</ele>
        <time>2011-04-17T12:45:44Z</time>
      </trkpt>
      <trkpt lat="47.20037" lon="6.12799">
        <ele>424.393</ele>
        <time>2011-04-17T12:45:47Z</time>
      </trkpt>
      <trkpt lat="47.20044" lon="6.12802">
        <ele>423.856</ele>
        <time>2011-04-17T12:45:49Z</time>
      </trkpt>
      <trkpt lat="47.20068" lon="6.12811">
        <ele>422.041</ele>
        <time>2011-04-17T12:45:54Z</time>
      </trkpt>
      <trkpt lat="47.2008" lon="6.12817">
        <ele>422.092</ele>
        <time>2011-04-17T12:45:58Z</time>
      </trkpt>
      <trkpt lat="47.20097" lon="6.12824">
        <ele>421.66</ele>
        <time>2011-04-17T12:46:03Z</time>
      </trkpt>
      <trkpt lat="47.20114" lon="6.12832">
        <ele>420.798</ele>
        <time>2011-04-17T12:46:09Z</time>
      </trkpt>
      <trkpt lat="47.20131" lon="6.12836">
        <ele>420.101</ele>
        <time>2011-04-17T12:46:15Z</time>
      </trkpt>
      <trkpt lat="47.20152" lon="6.1284">
        <ele>419.848</ele>
        <time>2011-04-17T12:46:22Z</time>
      </trkpt>
      <trkpt lat="47.20158" lon="6.12841">
        <ele>419.994</ele>
        <time>2011-04-17T12:46:24Z</time>
      </trkpt>
      <trkpt lat="47.2018" lon="6.12853">
        <ele>420.101</ele>
        <time>2011-04-17T12:46:31Z</time>
      </trkpt>
      <trkpt lat="47.20199" lon="6.12864">
        <ele>419.943</ele>
        <time>2011-04-17T12:46:37Z</time>
      </trkpt>
      <trkpt lat="47.20201" lon="6.12866">
        <ele>419.978</ele>
        <time>2011-04-17T12:46:38Z</time>
      </trkpt>
      <trkpt lat="47.20209" lon="6.12878">
        <ele>419.725</ele>
        <time>2011-04-17T12:46:42Z</time>
      </trkpt>
      <trkpt lat="47.20227" lon="6.12896">
        <ele>419.982</ele>
        <time>2011-04-17T12:46:49Z</time>
      </trkpt>
      <trkpt lat="47.20244" lon="6.12913">
        <ele>419.212</ele>
        <time>2011-04-17T12:46:56Z</time>
      </trkpt>
      <trkpt lat="47.20254" lon="6.12926">
        <ele>417.936</ele>
        <time>2011-04-17T12:47:01Z</time>
      </trkpt>
      <trkpt lat="47.20257" lon="6.12929">
        <ele>417.377</ele>
        <time>2011-04-17T12:47:02Z</time>
      </trkpt>
      <trkpt lat="47.20273" lon="6.12946">
        <ele>415.237</ele>
        <time>2011-04-17T12:47:07Z</time>
      </trkpt>
      <trkpt lat="47.20287" lon="6.12958">
        <ele>415.244</ele>
        <time>2011-04-17T12:47:12Z</time>
      </trkpt>
      <trkpt lat="47.20297" lon="6.12969">
        <ele>416.225</ele>
        <time>2011-04-17T12:47:16Z</time>
      </trkpt>
      <trkpt lat="47.20304" lon="6.12978">
        <ele>416.793</ele>
        <time>2011-04-17T12:47:20Z</time>
      </trkpt>
      <trkpt lat="47.20313" lon="6.12987">
        <ele>417.283</ele>
        <time>2011-04-17T12:47:24Z</time>
      </trkpt>
      <trkpt lat="47.20322" lon="6.13">
        <ele>417.794</ele>
        <time>2011-04-17T12:47:28Z</time>
      </trkpt>
      <trkpt lat="47.2033" lon="6.1301">
        <ele>417.85</ele>
        <time>2011-04-17T12:47:32Z</time>
      </trkpt>
      <trkpt lat="47.20342" lon="6.13025">
        <ele>418.297</ele>
        <time>2011-04-17T12:47:37Z</time>
      </trkpt>
      <trkpt lat="47.20353" lon="6.13041">
        <ele>418.839</ele>
        <time>2011-04-17T12:47:43Z</time>
      </trkpt>
      <trkpt lat="47.2036" lon="6.13055">
        <ele>419.299</ele>
        <time>2011-04-17T12:47:48Z</time>
      </trkpt>
      <trkpt lat="47.20367" lon="6.13065">
        <ele>419.834</ele>
        <time>2011-04-17T12:47:53Z</time>
      </trkpt>
      <trkpt lat="47.20371" lon="6.13068">
        <ele>419.719</ele>
        <time>2011-04-17T12:47:57Z</time>
      </trkpt>
      <trkpt lat="47.20378" lon="6.13075">
        <ele>420.003</ele>
        <time>2011-04-17T12:48:03Z</time>
      </trkpt>
      <trkpt lat="47.2038" lon="6.13079">
        <ele>420.052</ele>
        <time>2011-04-17T12:48:05Z</time>
      </trkpt>
      <trkpt lat="47.2038" lon="6.13092">
        <ele>420.238</ele>
        <time>2011-04-17T12:48:10Z</time>
      </trkpt>
      <trkpt lat="47.20375" lon="6.13105">
        <ele>420.396</ele>
        <time>2011-04-17T12:48:15Z</time>
      </trkpt>
      <trkpt lat="47.2037" lon="6.13112">
        <ele>420.72</ele>
        <time>2011-04-17T12:48:19Z</time>
      </trkpt>
      <trkpt lat="47.2037" lon="6.13112">
        <ele>420.874</ele>
        <time>2011-04-17T12:48:22Z</time>
      </trkpt>
      <trkpt lat="47.20371" lon="6.13128">
        <ele>422.136</ele>
        <time>2011-04-17T12:51:14Z</time>
      </trkpt>
      <trkpt lat="47.20363" lon="6.13148">
        <ele>422.351</ele>
        <time>2011-04-17T12:51:19Z</time>
      </trkpt>
      <trkpt lat="47.20351" lon="6.13182">
        <ele>422.504</ele>
        <time>2011-04-17T12:51:26Z</time>
      </trkpt>
      <trkpt lat="47.20338" lon="6.13231">
        <ele>422.953</ele>
        <time>2011-04-17T12:51:35Z</time>
      </trkpt>
      <trkpt lat="47.20331" lon="6.13263">
        <ele>424.085</ele>
        <time>2011-04-17T12:51:41Z</time>
      </trkpt>
      <trkpt lat="47.20321" lon="6.13304">
        <ele>425.015</ele>
        <time>2011-04-17T12:51:49Z</time>
      </trkpt>
      <trkpt lat="47.20311" lon="6.13341">
        <ele>425.873</ele>
        <time>2011-04-17T12:51:56Z</time>
      </trkpt>
      <trkpt lat="47.20297" lon="6.13394">
        <ele>426.809</ele>
        <time>2011-04-17T12:52:06Z</time>
      </trkpt>
      <trkpt lat="47.20285" lon="6.1345">
        <ele>426.34</ele>
        <time>2011-04-17T12:52:15Z</time>
      </trkpt>
      <trkpt lat="47.20276" lon="6.13495">
        <ele>426.432</ele>
        <time>2011-04-17T12:52:22Z</time>
      </trkpt>
      <trkpt lat="47.20266" lon="6.13542">
        <ele>425.604</ele>
        <time>2011-04-17T12:52:29Z</time>
      </trkpt>
      <trkpt lat="47.20255" lon="6.13581">
        <ele>423.41</ele>
        <time>2011-04-17T12:52:34Z</time>
      </trkpt>
      <trkpt lat="47.20247" lon="6.13607">
        <ele>420.296</ele>
        <time>2011-04-17T12:52:38Z</time>
      </trkpt>
      <trkpt lat="47.20271" lon="6.13644">
        <ele>418.982</ele>
        <time>2011-04-17T12:52:48Z</time>
      </trkpt>
      <trkpt lat="47.20283" lon="6.1364">
        <ele>419.56</ele>
        <time>2011-04-17T12:52:52Z</time>
      </trkpt>
      <trkpt lat="47.20285" lon="6.13636">
        <ele>419.56</ele>
        <time>2011-04-17T12:52:53Z</time>
      </trkpt>
      <trkpt lat="47.20293" lon="6.13607">
        <ele>419.235</ele>
        <time>2011-04-17T12:52:59Z</time>
      </trkpt>
      <trkpt lat="47.20295" lon="6.13594">
        <ele>420.087</ele>
        <time>2011-04-17T12:53:02Z</time>
      </trkpt>
      <trkpt lat="47.203" lon="6.13582">
        <ele>421.714</ele>
        <time>2011-04-17T12:53:05Z</time>
      </trkpt>
      <trkpt lat="47.20304" lon="6.13571">
        <ele>422.95</ele>
        <time>2011-04-17T12:53:08Z</time>
      </trkpt>
      <trkpt lat="47.20308" lon="6.13558">
        <ele>423.451</ele>
        <time>2011-04-17T12:53:11Z</time>
      </trkpt>
      <trkpt lat="47.2031" lon="6.1355">
        <ele>424.011</ele>
        <time>2011-04-17T12:53:13Z</time>
      </trkpt>
      <trkpt lat="47.20311" lon="6.13545">
        <ele>424.226</ele>
        <time>2011-04-17T12:53:14Z</time>
      </trkpt>
      <trkpt lat="47.20313" lon="6.13536">
        <ele>424.73</ele>
        <time>2011-04-17T12:53:16Z</time>
      </trkpt>
      <trkpt lat="47.20316" lon="6.13527">
        <ele>424.749</ele>
        <time>2011-04-17T12:53:18Z</time>
      </trkpt>
      <trkpt lat="47.20323" lon="6.13488">
        <ele>423.957</ele>
        <time>2011-04-17T12:53:25Z</time>
      </trkpt>
      <trkpt lat="47.20327" lon="6.13444">
        <ele>423.09</ele>
        <time>2011-04-17T12:53:31Z</time>
      </trkpt>
      <trkpt lat="47.20336" lon="6.13415">
        <ele>423.215</ele>
        <time>2011-04-17T12:53:36Z</time>
      </trkpt>
      <trkpt lat="47.20345" lon="6.13387">
        <ele>424.293</ele>
        <time>2011-04-17T12:53:44Z</time>
      </trkpt>
      <trkpt lat="47.20352" lon="6.13364">
        <ele>424.379</ele>
        <time>2011-04-17T12:53:51Z</time>
      </trkpt>
      <trkpt lat="47.2036" lon="6.13343">
        <ele>424.109</ele>
        <time>2011-04-17T12:53:57Z</time>
      </trkpt>
      <trkpt lat="47.20371" lon="6.13322">
        <ele>423.122</ele>
        <time>2011-04-17T12:54:02Z</time>
      </trkpt>
      <trkpt lat="47.20374" lon="6.13305">
        <ele>421.706</ele>
        <time>2011-04-17T12:54:07Z</time>
      </trkpt>
      <trkpt lat="47.20374" lon="6.13291">
        <ele>420.598</ele>
        <time>2011-04-17T12:54:11Z</time>
      </trkpt>
      <trkpt lat="47.20374" lon="6.13274">
        <ele>421.034</ele>
        <time>2011-04-17T12:54:15Z</time>
      </trkpt>
      <trkpt lat="47.20374" lon="6.1327">
        <ele>421.236</ele>
        <time>2011-04-17T12:54:16Z</time>
      </trkpt>
      <trkpt lat="47.20384" lon="6.13258">
        <ele>421.23</ele>
        <time>2011-04-17T12:54:20Z</time>
      </trkpt>
      <trkpt lat="47.20391" lon="6.13253">
        <ele>420.762</ele>
        <time>2011-04-17T12:54:22Z</time>
      </trkpt>
      <trkpt lat="47.20401" lon="6.1324">
        <ele>420.139</ele>
        <time>2011-04-17T12:54:25Z</time>
      </trkpt>
      <trkpt lat="47.20423" lon="6.13226">
        <ele>419.449</ele>
        <time>2011-04-17T12:54:31Z</time>
      </trkpt>
      <trkpt lat="47.20427" lon="6.13224">
        <ele>419.338</ele>
        <time>2011-04-17T12:54:32Z</time>
      </trkpt>
      <trkpt lat="47.2045" lon="6.13215">
        <ele>418.799</ele>
        <time>2011-04-17T12:54:38Z</time>
      </trkpt>
      <trkpt lat="47.20469" lon="6.1321">
        <ele>418.293</ele>
        <time>2011-04-17T12:54:43Z</time>
      </trkpt>
      <trkpt lat="47.20472" lon="6.13209">
        <ele>418.218</ele>
        <time>2011-04-17T12:54:46Z</time>
      </trkpt>
      <trkpt lat="47.20486" lon="6.13207">
        <ele>417.978</ele>
        <time>2011-04-17T12:54:50Z</time>
      </trkpt>
      <trkpt lat="47.20495" lon="6.13204">
        <ele>417.756</ele>
        <time>2011-04-17T12:54:52Z</time>
      </trkpt>
      <trkpt lat="47.20499" lon="6.13202">
        <ele>417.682</ele>
        <time>2011-04-17T12:54:53Z</time>
      </trkpt>
      <trkpt lat="47.2051" lon="6.13199">
        <ele>417.552</ele>
        <time>2011-04-17T12:54:56Z</time>
      </trkpt>
      <trkpt lat="47.20512" lon="6.13199">
        <ele>417.567</ele>
        <time>2011-04-17T12:54:57Z</time>
      </trkpt>
      <trkpt lat="47.20516" lon="6.13197">
        <ele>417.225</ele>
        <time>2011-04-17T12:55:00Z</time>
      </trkpt>
      <trkpt lat="47.20517" lon="6.13196">
        <ele>417.115</ele>
        <time>2011-04-17T12:55:01Z</time>
      </trkpt>
      <trkpt lat="47.2053" lon="6.13188">
        <ele>416.991</ele>
        <time>2011-04-17T12:55:08Z</time>
      </trkpt>
      <trkpt lat="47.20533" lon="6.13186">
        <ele>416.866</ele>
        <time>2011-04-17T12:55:09Z</time>
      </trkpt>
      <trkpt lat="47.20548" lon="6.13183">
        <ele>416.894</ele>
        <time>2011-04-17T12:55:14Z</time>
      </trkpt>
      <trkpt lat="47.20573" lon="6.13179">
        <ele>416.708</ele>
        <time>2011-04-17T12:55:20Z</time>
      </trkpt>
      <trkpt lat="47.20582" lon="6.13176">
        <ele>416.609</ele>
        <time>2011-04-17T12:55:22Z</time>
      </trkpt>
      <trkpt lat="47.20591" lon="6.13173">
        <ele>416.348</ele>
        <time>2011-04-17T12:55:24Z</time>
      </trkpt>
      <trkpt lat="47.206" lon="6.13171">
        <ele>416.02</ele>
        <time>2011-04-17T12:55:26Z</time>
      </trkpt>
      <trkpt lat="47.20635" lon="6.13155">
        <ele>415.809</ele>
        <time>2011-04-17T12:55:33Z</time>
      </trkpt>
      <trkpt lat="47.20663" lon="6.13144">
        <ele>415.313</ele>
        <time>2011-04-17T12:55:39Z</time>
      </trkpt>
      <trkpt lat="47.20668" lon="6.13143">
        <ele>415.265</ele>
        <time>2011-04-17T12:55:40Z</time>
      </trkpt>
      <trkpt lat="47.207" lon="6.1314">
        <ele>414.433</ele>
        <time>2011-04-17T12:55:47Z</time>
      </trkpt>
      <trkpt lat="47.20712" lon="6.13141">
        <ele>413.758</ele>
        <time>2011-04-17T12:55:50Z</time>
      </trkpt>
      <trkpt lat="47.2074" lon="6.13141">
        <ele>413.116</ele>
        <time>2011-04-17T12:55:56Z</time>
      </trkpt>
      <trkpt lat="47.20744" lon="6.13139">
        <ele>413.131</ele>
        <time>2011-04-17T12:55:57Z</time>
      </trkpt>
      <trkpt lat="47.20754" lon="6.13133">
        <ele>413.304</ele>
        <time>2011-04-17T12:55:59Z</time>
      </trkpt>
      <trkpt lat="47.20771" lon="6.13115">
        <ele>413.155</ele>
        <time>2011-04-17T12:56:03Z</time>
      </trkpt>
      <trkpt lat="47.20772" lon="6.13109">
        <ele>413.094</ele>
        <time>2011-04-17T12:56:06Z</time>
      </trkpt>
      <trkpt lat="47.20769" lon="6.13104">
        <ele>412.416</ele>
        <time>2011-04-17T12:56:11Z</time>
      </trkpt>
      <trkpt lat="47.20763" lon="6.13086">
        <ele>411.792</ele>
        <time>2011-04-17T12:56:21Z</time>
      </trkpt>
      <trkpt lat="47.20763" lon="6.13063">
        <ele>410.734</ele>
        <time>2011-04-17T12:56:26Z</time>
      </trkpt>
      <trkpt lat="47.20756" lon="6.13049">
        <ele>410.872</ele>
        <time>2011-04-17T12:56:30Z</time>
      </trkpt>
      <trkpt lat="47.20746" lon="6.13034">
        <ele>411.389</ele>
        <time>2011-04-17T12:56:34Z</time>
      </trkpt>
      <trkpt lat="47.20735" lon="6.13003">
        <ele>411.387</ele>
        <time>2011-04-17T12:56:39Z</time>
      </trkpt>
      <trkpt lat="47.20732" lon="6.12981">
        <ele>412.252</ele>
        <time>2011-04-17T12:56:43Z</time>
      </trkpt>
      <trkpt lat="47.20736" lon="6.12959">
        <ele>411.886</ele>
        <time>2011-04-17T12:56:46Z</time>
      </trkpt>
      <trkpt lat="47.20741" lon="6.12944">
        <ele>411.246</ele>
        <time>2011-04-17T12:56:48Z</time>
      </trkpt>
      <trkpt lat="47.20743" lon="6.12908">
        <ele>409.517</ele>
        <time>2011-04-17T12:56:52Z</time>
      </trkpt>
      <trkpt lat="47.20743" lon="6.12898">
        <ele>408.964</ele>
        <time>2011-04-17T12:56:53Z</time>
      </trkpt>
      <trkpt lat="47.20742" lon="6.12886">
        <ele>408.586</ele>
        <time>2011-04-17T12:56:54Z</time>
      </trkpt>
      <trkpt lat="47.2074" lon="6.12874">
        <ele>408.588</ele>
        <time>2011-04-17T12:56:55Z</time>
      </trkpt>
      <trkpt lat="47.20732" lon="6.12802">
        <ele>407.055</ele>
        <time>2011-04-17T12:57:02Z</time>
      </trkpt>
      <trkpt lat="47.20732" lon="6.12795">
        <ele>407.536</ele>
        <time>2011-04-17T12:57:03Z</time>
      </trkpt>
      <trkpt lat="47.20733" lon="6.12791">
        <ele>408.064</ele>
        <time>2011-04-17T12:57:04Z</time>
      </trkpt>
      <trkpt lat="47.20735" lon="6.12789">
        <ele>408.861</ele>
        <time>2011-04-17T12:57:05Z</time>
      </trkpt>
      <trkpt lat="47.20754" lon="6.12774">
        <ele>410.929</ele>
        <time>2011-04-17T12:57:12Z</time>
      </trkpt>
      <trkpt lat="47.20766" lon="6.12762">
        <ele>412.214</ele>
        <time>2011-04-17T12:57:17Z</time>
      </trkpt>
      <trkpt lat="47.20779" lon="6.12752">
        <ele>412.978</ele>
        <time>2011-04-17T12:57:22Z</time>
      </trkpt>
      <trkpt lat="47.2079" lon="6.12742">
        <ele>413.692</ele>
        <time>2011-04-17T12:57:27Z</time>
      </trkpt>
      <trkpt lat="47.20807" lon="6.12727">
        <ele>414.04</ele>
        <time>2011-04-17T12:57:34Z</time>
      </trkpt>
      <trkpt lat="47.20826" lon="6.12712">
        <ele>414.195</ele>
        <time>2011-04-17T12:57:41Z</time>
      </trkpt>
      <trkpt lat="47.20837" lon="6.12704">
        <ele>413.943</ele>
        <time>2011-04-17T12:57:44Z</time>
      </trkpt>
      <trkpt lat="47.20857" lon="6.12675">
        <ele>413.42</ele>
        <time>2011-04-17T12:57:50Z</time>
      </trkpt>
      <trkpt lat="47.20877" lon="6.12656">
        <ele>412.57</ele>
        <time>2011-04-17T12:57:55Z</time>
      </trkpt>
      <trkpt lat="47.2088" lon="6.12653">
        <ele>412.464</ele>
        <time>2011-04-17T12:57:56Z</time>
      </trkpt>
      <trkpt lat="47.20878" lon="6.12637">
        <ele>412.266</ele>
        <time>2011-04-17T12:58:00Z</time>
      </trkpt>
      <trkpt lat="47.20877" lon="6.12622">
        <ele>412.074</ele>
        <time>2011-04-17T12:58:02Z</time>
      </trkpt>
      <trkpt lat="47.20871" lon="6.12583">
        <ele>410.784</ele>
        <time>2011-04-17T12:58:07Z</time>
      </trkpt>
      <trkpt lat="47.20867" lon="6.12566">
        <ele>410.101</ele>
        <time>2011-04-17T12:58:09Z</time>
      </trkpt>
      <trkpt lat="47.20858" lon="6.1252">
        <ele>408.933</ele>
        <time>2011-04-17T12:58:14Z</time>
      </trkpt>
      <trkpt lat="47.20859" lon="6.12502">
        <ele>408.348</ele>
        <time>2011-04-17T12:58:16Z</time>
      </trkpt>
      <trkpt lat="47.20877" lon="6.12453">
        <ele>405.79</ele>
        <time>2011-04-17T12:58:23Z</time>
      </trkpt>
      <trkpt lat="47.20884" lon="6.12408">
        <ele>404.005</ele>
        <time>2011-04-17T12:58:29Z</time>
      </trkpt>
      <trkpt lat="47.2088" lon="6.12392">
        <ele>403.059</ele>
        <time>2011-04-17T12:58:31Z</time>
      </trkpt>
      <trkpt lat="47.20875" lon="6.12387">
        <ele>402.706</ele>
        <time>2011-04-17T12:58:32Z</time>
      </trkpt>
      <trkpt lat="47.20871" lon="6.12381">
        <ele>402.457</ele>
        <time>2011-04-17T12:58:33Z</time>
      </trkpt>
      <trkpt lat="47.20868" lon="6.12376">
        <ele>402.511</ele>
        <time>2011-04-17T12:58:34Z</time>
      </trkpt>
      <trkpt lat="47.20859" lon="6.12363">
        <ele>403.231</ele>
        <time>2011-04-17T12:58:37Z</time>
      </trkpt>
      <trkpt lat="47.20854" lon="6.12335">
        <ele>403.939</ele>
        <time>2011-04-17T12:58:42Z</time>
      </trkpt>
      <trkpt lat="47.20856" lon="6.12329">
        <ele>403.874</ele>
        <time>2011-04-17T12:58:43Z</time>
      </trkpt>
      <trkpt lat="47.20866" lon="6.12304">
        <ele>402.975</ele>
        <time>2011-04-17T12:58:47Z</time>
      </trkpt>
      <trkpt lat="47.20873" lon="6.12282">
        <ele>401.904</ele>
        <time>2011-04-17T12:58:50Z</time>
      </trkpt>
      <trkpt lat="47.20868" lon="6.12268">
        <ele>401.391</ele>
        <time>2011-04-17T12:58:52Z</time>
      </trkpt>
      <trkpt lat="47.20865" lon="6.12261">
        <ele>401.211</ele>
        <time>2011-04-17T12:58:53Z</time>
      </trkpt>
      <trkpt lat="47.20861" lon="6.12254">
        <ele>401.2</ele>
        <time>2011-04-17T12:58:54Z</time>
      </trkpt>
      <trkpt lat="47.20856" lon="6.12229">
        <ele>400.422</ele>
        <time>2011-04-17T12:58:58Z</time>
      </trkpt>
      <trkpt lat="47.2087" lon="6.12205">
        <ele>399.977</ele>
        <time>2011-04-17T12:59:03Z</time>
      </trkpt>
      <trkpt lat="47.20875" lon="6.12198">
        <ele>400.186</ele>
        <time>2011-04-17T12:59:05Z</time>
      </trkpt>
      <trkpt lat="47.20879" lon="6.12175">
        <ele>401.384</ele>
        <time>2011-04-17T12:59:11Z</time>
      </trkpt>
      <trkpt lat="47.20879" lon="6.1215">
        <ele>402.036</ele>
        <time>2011-04-17T12:59:16Z</time>
      </trkpt>
      <trkpt lat="47.20887" lon="6.12126">
        <ele>402.188</ele>
        <time>2011-04-17T12:59:21Z</time>
      </trkpt>
      <trkpt lat="47.20888" lon="6.12099">
        <ele>402.019</ele>
        <time>2011-04-17T12:59:26Z</time>
      </trkpt>
      <trkpt lat="47.2089" lon="6.12066">
        <ele>401.252</ele>
        <time>2011-04-17T12:59:32Z</time>
      </trkpt>
      <trkpt lat="47.2089" lon="6.1205">
        <ele>400.68</ele>
        <time>2011-04-17T12:59:35Z</time>
      </trkpt>
      <trkpt lat="47.20886" lon="6.1204">
        <ele>400.499</ele>
        <time>2011-04-17T12:59:38Z</time>
      </trkpt>
      <trkpt lat="47.20885" lon="6.12009">
        <ele>400.031</ele>
        <time>2011-04-17T12:59:44Z</time>
      </trkpt>
      <trkpt lat="47.2088" lon="6.11991">
        <ele>399.067</ele>
        <time>2011-04-17T12:59:48Z</time>
      </trkpt>
      <trkpt lat="47.2088" lon="6.11975">
        <ele>398.564</ele>
        <time>2011-04-17T12:59:51Z</time>
      </trkpt>
      <trkpt lat="47.20886" lon="6.11945">
        <ele>395.771</ele>
        <time>2011-04-17T12:59:55Z</time>
      </trkpt>
      <trkpt lat="47.20887" lon="6.11939">
        <ele>395.48</ele>
        <time>2011-04-17T12:59:56Z</time>
      </trkpt>
      <trkpt lat="47.20888" lon="6.11934">
        <ele>395.53</ele>
        <time>2011-04-17T12:59:57Z</time>
      </trkpt>
      <trkpt lat="47.20888" lon="6.11934">
        <ele>395.822</ele>
        <time>2011-04-17T12:59:58Z</time>
      </trkpt>
      <trkpt lat="47.20889" lon="6.11927">
        <ele>397.348</ele>
        <time>2011-04-17T13:00:04Z</time>
      </trkpt>
      <trkpt lat="47.20889" lon="6.11918">
        <ele>398.341</ele>
        <time>2011-04-17T13:00:09Z</time>
      </trkpt>
      <trkpt lat="47.20888" lon="6.11916">
        <ele>398.537</ele>
        <time>2011-04-17T13:00:10Z</time>
      </trkpt>
      <trkpt lat="47.20889" lon="6.11902">
        <ele>398.649</ele>
        <time>2011-04-17T13:00:14Z</time>
      </trkpt>
      <trkpt lat="47.20897" lon="6.11872">
        <ele>398.31</ele>
        <time>2011-04-17T13:00:19Z</time>
      </trkpt>
      <trkpt lat="47.20901" lon="6.11857">
        <ele>397.613</ele>
        <time>2011-04-17T13:00:21Z</time>
      </trkpt>
      <trkpt lat="47.20898" lon="6.1183">
        <ele>395.834</ele>
        <time>2011-04-17T13:00:25Z</time>
      </trkpt>
      <trkpt lat="47.20893" lon="6.11809">
        <ele>395.584</ele>
        <time>2011-04-17T13:00:28Z</time>
      </trkpt>
      <trkpt lat="47.20888" lon="6.11776">
        <ele>396.211</ele>
        <time>2011-04-17T13:00:33Z</time>
      </trkpt>
      <trkpt lat="47.20885" lon="6.11745">
        <ele>395.161</ele>
        <time>2011-04-17T13:00:39Z</time>
      </trkpt>
      <trkpt lat="47.20885" lon="6.11739">
        <ele>394.882</ele>
        <time>2011-04-17T13:00:42Z</time>
      </trkpt>
      <trkpt lat="47.20885" lon="6.11738">
        <ele>394.75</ele>
        <time>2011-04-17T13:00:43Z</time>
      </trkpt>
      <trkpt lat="47.20885" lon="6.11729">
        <ele>394.598</ele>
        <time>2011-04-17T13:00:47Z</time>
      </trkpt>
      <trkpt lat="47.20886" lon="6.11722">
        <ele>394.304</ele>
        <time>2011-04-17T13:00:48Z</time>
      </trkpt>
      <trkpt lat="47.20892" lon="6.11684">
        <ele>391.511</ele>
        <time>2011-04-17T13:00:52Z</time>
      </trkpt>
      <trkpt lat="47.20885" lon="6.11674">
        <ele>392.198</ele>
        <time>2011-04-17T13:00:55Z</time>
      </trkpt>
      <trkpt lat="47.20881" lon="6.11671">
        <ele>393.093</ele>
        <time>2011-04-17T13:00:57Z</time>
      </trkpt>
      <trkpt lat="47.20868" lon="6.11664">
        <ele>394.398</ele>
        <time>2011-04-17T13:01:03Z</time>
      </trkpt>
      <trkpt lat="47.20864" lon="6.11653">
        <ele>395.507</ele>
        <time>2011-04-17T13:01:07Z</time>
      </trkpt>
      <trkpt lat="47.20859" lon="6.11645">
        <ele>396.23</ele>
        <time>2011-04-17T13:01:12Z</time>
      </trkpt>
      <trkpt lat="47.20857" lon="6.1164">
        <ele>396.505</ele>
        <time>2011-04-17T13:01:14Z</time>
      </trkpt>
      <trkpt lat="47.20856" lon="6.11625">
        <ele>397.133</ele>
        <time>2011-04-17T13:01:18Z</time>
      </trkpt>
      <trkpt lat="47.20861" lon="6.11604">
        <ele>396.771</ele>
        <time>2011-04-17T13:01:24Z</time>
      </trkpt>
      <trkpt lat="47.20861" lon="6.11582">
        <ele>396.931</ele>
        <time>2011-04-17T13:01:29Z</time>
      </trkpt>
      <trkpt lat="47.20861" lon="6.11577">
        <ele>396.961</ele>
        <time>2011-04-17T13:01:30Z</time>
      </trkpt>
      <trkpt lat="47.20857" lon="6.11558">
        <ele>397.289</ele>
        <time>2011-04-17T13:01:35Z</time>
      </trkpt>
      <trkpt lat="47.20854" lon="6.11551">
        <ele>397.203</ele>
        <time>2011-04-17T13:01:37Z</time>
      </trkpt>
      <trkpt lat="47.20852" lon="6.11545">
        <ele>397.166</ele>
        <time>2011-04-17T13:01:39Z</time>
      </trkpt>
      <trkpt lat="47.20842" lon="6.11541">
        <ele>397.286</ele>
        <time>2011-04-17T13:01:43Z</time>
      </trkpt>
      <trkpt lat="47.20816" lon="6.11549">
        <ele>395.657</ele>
        <time>2011-04-17T13:01:50Z</time>
      </trkpt>
      <trkpt lat="47.20812" lon="6.11549">
        <ele>395.354</ele>
        <time>2011-04-17T13:01:51Z</time>
      </trkpt>
      <trkpt lat="47.20793" lon="6.11545">
        <ele>394.178</ele>
        <time>2011-04-17T13:01:56Z</time>
      </trkpt>
      <trkpt lat="47.20779" lon="6.11523">
        <ele>392.882</ele>
        <time>2011-04-17T13:02:01Z</time>
      </trkpt>
      <trkpt lat="47.20776" lon="6.11519">
        <ele>392.454</ele>
        <time>2011-04-17T13:02:02Z</time>
      </trkpt>
      <trkpt lat="47.20766" lon="6.11511">
        <ele>391.524</ele>
        <time>2011-04-17T13:02:06Z</time>
      </trkpt>
      <trkpt lat="47.20761" lon="6.115">
        <ele>391.399</ele>
        <time>2011-04-17T13:02:09Z</time>
      </trkpt>
      <trkpt lat="47.20758" lon="6.11492">
        <ele>391.342</ele>
        <time>2011-04-17T13:02:11Z</time>
      </trkpt>
      <trkpt lat="47.20756" lon="6.11469">
        <ele>391.042</ele>
        <time>2011-04-17T13:02:15Z</time>
      </trkpt>
      <trkpt lat="47.20759" lon="6.11447">
        <ele>391.406</ele>
        <time>2011-04-17T13:02:20Z</time>
      </trkpt>
      <trkpt lat="47.20761" lon="6.11439">
        <ele>391.558</ele>
        <time>2011-04-17T13:02:22Z</time>
      </trkpt>
      <trkpt lat="47.2076" lon="6.11428">
        <ele>391.987</ele>
        <time>2011-04-17T13:02:24Z</time>
      </trkpt>
      <trkpt lat="47.20761" lon="6.11399">
        <ele>391.853</ele>
        <time>2011-04-17T13:02:28Z</time>
      </trkpt>
      <trkpt lat="47.20759" lon="6.11375">
        <ele>391.902</ele>
        <time>2011-04-17T13:02:32Z</time>
      </trkpt>
      <trkpt lat="47.20752" lon="6.11336">
        <ele>392.351</ele>
        <time>2011-04-17T13:02:37Z</time>
      </trkpt>
      <trkpt lat="47.20748" lon="6.11321">
        <ele>392.224</ele>
        <time>2011-04-17T13:02:39Z</time>
      </trkpt>
      <trkpt lat="47.2074" lon="6.11299">
        <ele>392.014</ele>
        <time>2011-04-17T13:02:43Z</time>
      </trkpt>
      <trkpt lat="47.20731" lon="6.11285">
        <ele>391.642</ele>
        <time>2011-04-17T13:02:47Z</time>
      </trkpt>
      <trkpt lat="47.20731" lon="6.11284">
        <ele>391.764</ele>
        <time>2011-04-17T13:02:49Z</time>
      </trkpt>
      <trkpt lat="47.20739" lon="6.11275">
        <ele>392.532</ele>
        <time>2011-04-17T13:06:33Z</time>
      </trkpt>
      <trkpt lat="47.20738" lon="6.1126">
        <ele>392.324</ele>
        <time>2011-04-17T13:06:36Z</time>
      </trkpt>
      <trkpt lat="47.20738" lon="6.11243">
        <ele>392.247</ele>
        <time>2011-04-17T13:06:39Z</time>
      </trkpt>
      <trkpt lat="47.2074" lon="6.11197">
        <ele>391.629</ele>
        <time>2011-04-17T13:06:47Z</time>
      </trkpt>
      <trkpt lat="47.20747" lon="6.11139">
        <ele>390.907</ele>
        <time>2011-04-17T13:06:56Z</time>
      </trkpt>
      <trkpt lat="47.20752" lon="6.11086">
        <ele>390.584</ele>
        <time>2011-04-17T13:07:04Z</time>
      </trkpt>
      <trkpt lat="47.20758" lon="6.11044">
        <ele>390.013</ele>
        <time>2011-04-17T13:07:11Z</time>
      </trkpt>
      <trkpt lat="47.2077" lon="6.1103">
        <ele>389.89</ele>
        <time>2011-04-17T13:07:15Z</time>
      </trkpt>
      <trkpt lat="47.20778" lon="6.11017">
        <ele>390.229</ele>
        <time>2011-04-17T13:07:19Z</time>
      </trkpt>
      <trkpt lat="47.20786" lon="6.11011">
        <ele>389.882</ele>
        <time>2011-04-17T13:07:22Z</time>
      </trkpt>
      <trkpt lat="47.20794" lon="6.11013">
        <ele>389.626</ele>
        <time>2011-04-17T13:07:24Z</time>
      </trkpt>
      <trkpt lat="47.20828" lon="6.11024">
        <ele>389.066</ele>
        <time>2011-04-17T13:07:33Z</time>
      </trkpt>
      <trkpt lat="47.20863" lon="6.11034">
        <ele>389.02</ele>
        <time>2011-04-17T13:07:42Z</time>
      </trkpt>
      <trkpt lat="47.20899" lon="6.11045">
        <ele>388.869</ele>
        <time>2011-04-17T13:07:51Z</time>
      </trkpt>
      <trkpt lat="47.20921" lon="6.11051">
        <ele>389.089</ele>
        <time>2011-04-17T13:07:56Z</time>
      </trkpt>
      <trkpt lat="47.20963" lon="6.11064">
        <ele>389.285</ele>
        <time>2011-04-17T13:08:05Z</time>
      </trkpt>
      <trkpt lat="47.2102" lon="6.11083">
        <ele>389.861</ele>
        <time>2011-04-17T13:08:17Z</time>
      </trkpt>
      <trkpt lat="47.21053" lon="6.11095">
        <ele>390.535</ele>
        <time>2011-04-17T13:08:24Z</time>
      </trkpt>
      <trkpt lat="47.2108" lon="6.11102">
        <ele>391.406</ele>
        <time>2011-04-17T13:08:30Z</time>
      </trkpt>
      <trkpt lat="47.21111" lon="6.11112">
        <ele>392.395</ele>
        <time>2011-04-17T13:08:37Z</time>
      </trkpt>
      <trkpt lat="47.21152" lon="6.11135">
        <ele>393.709</ele>
        <time>2011-04-17T13:08:46Z</time>
      </trkpt>
      <trkpt lat="47.2119" lon="6.11159">
        <ele>393.623</ele>
        <time>2011-04-17T13:08:54Z</time>
      </trkpt>
      <trkpt lat="47.21223" lon="6.11171">
        <ele>393.033</ele>
        <time>2011-04-17T13:09:00Z</time>
      </trkpt>
      <trkpt lat="47.2127" lon="6.11178">
        <ele>391.976</ele>
        <time>2011-04-17T13:09:07Z</time>
      </trkpt>
      <trkpt lat="47.21306" lon="6.11181">
        <ele>393.017</ele>
        <time>2011-04-17T13:09:13Z</time>
      </trkpt>
      <trkpt lat="47.21338" lon="6.11181">
        <ele>394.893</ele>
        <time>2011-04-17T13:09:19Z</time>
      </trkpt>
      <trkpt lat="47.21342" lon="6.11181">
        <ele>395.177</ele>
        <time>2011-04-17T13:09:20Z</time>
      </trkpt>
      <trkpt lat="47.2138" lon="6.11178">
        <ele>396.186</ele>
        <time>2011-04-17T13:09:28Z</time>
      </trkpt>
      <trkpt lat="47.21426" lon="6.11177">
        <ele>396.56</ele>
        <time>2011-04-17T13:09:37Z</time>
      </trkpt>
      <trkpt lat="47.21474" lon="6.11166">
        <ele>396.797</ele>
        <time>2011-04-17T13:09:46Z</time>
      </trkpt>
      <trkpt lat="47.21508" lon="6.11164">
        <ele>397.364</ele>
        <time>2011-04-17T13:09:53Z</time>
      </trkpt>
      <trkpt lat="47.21544" lon="6.11171">
        <ele>398.094</ele>
        <time>2011-04-17T13:10:00Z</time>
      </trkpt>
      <trkpt lat="47.21589" lon="6.11191">
        <ele>397.66</ele>
        <time>2011-04-17T13:10:09Z</time>
      </trkpt>
      <trkpt lat="47.21603" lon="6.11198">
        <ele>397.691</ele>
        <time>2011-04-17T13:10:12Z</time>
      </trkpt>
      <trkpt lat="47.21622" lon="6.11193">
        <ele>398.124</ele>
        <time>2011-04-17T13:10:16Z</time>
      </trkpt>
      <trkpt lat="47.21626" lon="6.11189">
        <ele>398.096</ele>
        <time>2011-04-17T13:10:17Z</time>
      </trkpt>
      <trkpt lat="47.21662" lon="6.11146">
        <ele>398.05</ele>
        <time>2011-04-17T13:10:26Z</time>
      </trkpt>
      <trkpt lat="47.2167" lon="6.11135">
        <ele>397.901</ele>
        <time>2011-04-17T13:10:28Z</time>
      </trkpt>
      <trkpt lat="47.21685" lon="6.11115">
        <ele>397.713</ele>
        <time>2011-04-17T13:10:32Z</time>
      </trkpt>
      <trkpt lat="47.21701" lon="6.11099">
        <ele>397.607</ele>
        <time>2011-04-17T13:10:36Z</time>
      </trkpt>
      <trkpt lat="47.21734" lon="6.11082">
        <ele>396.412</ele>
        <time>2011-04-17T13:10:42Z</time>
      </trkpt>
      <trkpt lat="47.21756" lon="6.11088">
        <ele>394.827</ele>
        <time>2011-04-17T13:10:46Z</time>
      </trkpt>
      <trkpt lat="47.21778" lon="6.11097">
        <ele>393.252</ele>
        <time>2011-04-17T13:10:51Z</time>
      </trkpt>
      <trkpt lat="47.21784" lon="6.11093">
        <ele>392.877</ele>
        <time>2011-04-17T13:10:52Z</time>
      </trkpt>
      <trkpt lat="47.21828" lon="6.11064">
        <ele>388.886</ele>
        <time>2011-04-17T13:10:58Z</time>
      </trkpt>
      <trkpt lat="47.21836" lon="6.11059">
        <ele>388.62</ele>
        <time>2011-04-17T13:10:59Z</time>
      </trkpt>
      <trkpt lat="47.21889" lon="6.11009">
        <ele>387.016</ele>
        <time>2011-04-17T13:11:07Z</time>
      </trkpt>
      <trkpt lat="47.21921" lon="6.10984">
        <ele>386.426</ele>
        <time>2011-04-17T13:11:12Z</time>
      </trkpt>
      <trkpt lat="47.21928" lon="6.10981">
        <ele>386.25</ele>
        <time>2011-04-17T13:11:13Z</time>
      </trkpt>
      <trkpt lat="47.21965" lon="6.10979">
        <ele>384.595</ele>
        <time>2011-04-17T13:11:18Z</time>
      </trkpt>
      <trkpt lat="47.21981" lon="6.10979">
        <ele>384.127</ele>
        <time>2011-04-17T13:11:20Z</time>
      </trkpt>
      <trkpt lat="47.22005" lon="6.11001">
        <ele>382.721</ele>
        <time>2011-04-17T13:11:24Z</time>
      </trkpt>
      <trkpt lat="47.22013" lon="6.11017">
        <ele>382.31</ele>
        <time>2011-04-17T13:11:26Z</time>
      </trkpt>
      <trkpt lat="47.22018" lon="6.11033">
        <ele>382.598</ele>
        <time>2011-04-17T13:11:28Z</time>
      </trkpt>
      <trkpt lat="47.22031" lon="6.11043">
        <ele>383.525</ele>
        <time>2011-04-17T13:11:32Z</time>
      </trkpt>
      <trkpt lat="47.22054" lon="6.11036">
        <ele>382.666</ele>
        <time>2011-04-17T13:11:36Z</time>
      </trkpt>
      <trkpt lat="47.2207" lon="6.1105">
        <ele>381.209</ele>
        <time>2011-04-17T13:11:39Z</time>
      </trkpt>
      <trkpt lat="47.22084" lon="6.11071">
        <ele>379.705</ele>
        <time>2011-04-17T13:11:44Z</time>
      </trkpt>
      <trkpt lat="47.22084" lon="6.11071">
        <ele>379.398</ele>
        <time>2011-04-17T13:11:46Z</time>
      </trkpt>
      <trkpt lat="47.22091" lon="6.11071">
        <ele>378.999</ele>
        <time>2011-04-17T13:12:27Z</time>
      </trkpt>
      <trkpt lat="47.22098" lon="6.11068">
        <ele>378.699</ele>
        <time>2011-04-17T13:12:29Z</time>
      </trkpt>
      <trkpt lat="47.22127" lon="6.1106">
        <ele>377.522</ele>
        <time>2011-04-17T13:12:35Z</time>
      </trkpt>
      <trkpt lat="47.22159" lon="6.11052">
        <ele>376.364</ele>
        <time>2011-04-17T13:12:41Z</time>
      </trkpt>
      <trkpt lat="47.22204" lon="6.11039">
        <ele>375.819</ele>
        <time>2011-04-17T13:12:50Z</time>
      </trkpt>
      <trkpt lat="47.22226" lon="6.11046">
        <ele>375.859</ele>
        <time>2011-04-17T13:12:55Z</time>
      </trkpt>
      <trkpt lat="47.22251" lon="6.11071">
        <ele>375.819</ele>
        <time>2011-04-17T13:13:01Z</time>
      </trkpt>
      <trkpt lat="47.22272" lon="6.11091">
        <ele>375.736</ele>
        <time>2011-04-17T13:13:06Z</time>
      </trkpt>
      <trkpt lat="47.22308" lon="6.11127">
        <ele>376.024</ele>
        <time>2011-04-17T13:13:15Z</time>
      </trkpt>
      <trkpt lat="47.22344" lon="6.1116">
        <ele>375.988</ele>
        <time>2011-04-17T13:13:24Z</time>
      </trkpt>
      <trkpt lat="47.22384" lon="6.112">
        <ele>376.251</ele>
        <time>2011-04-17T13:13:34Z</time>
      </trkpt>
      <trkpt lat="47.22425" lon="6.1124">
        <ele>376.144</ele>
        <time>2011-04-17T13:13:44Z</time>
      </trkpt>
      <trkpt lat="47.2246" lon="6.11274">
        <ele>376.73</ele>
        <time>2011-04-17T13:13:53Z</time>
      </trkpt>
      <trkpt lat="47.22471" lon="6.11285">
        <ele>376.758</ele>
        <time>2011-04-17T13:13:56Z</time>
      </trkpt>
      <trkpt lat="47.22492" lon="6.11297">
        <ele>376.811</ele>
        <time>2011-04-17T13:14:01Z</time>
      </trkpt>
      <trkpt lat="47.22525" lon="6.11295">
        <ele>376.785</ele>
        <time>2011-04-17T13:14:09Z</time>
      </trkpt>
      <trkpt lat="47.22564" lon="6.11282">
        <ele>376.439</ele>
        <time>2011-04-17T13:14:18Z</time>
      </trkpt>
      <trkpt lat="47.22595" lon="6.11271">
        <ele>376.571</ele>
        <time>2011-04-17T13:14:25Z</time>
      </trkpt>
      <trkpt lat="47.22615" lon="6.11279">
        <ele>376.908</ele>
        <time>2011-04-17T13:14:30Z</time>
      </trkpt>
      <trkpt lat="47.22628" lon="6.11293">
        <ele>376.865</ele>
        <time>2011-04-17T13:14:34Z</time>
      </trkpt>
      <trkpt lat="47.22639" lon="6.11283">
        <ele>376.822</ele>
        <time>2011-04-17T13:14:38Z</time>
      </trkpt>
      <trkpt lat="47.22642" lon="6.11272">
        <ele>376.597</ele>
        <time>2011-04-17T13:14:40Z</time>
      </trkpt>
      <trkpt lat="47.22665" lon="6.11205">
        <ele>376.628</ele>
        <time>2011-04-17T13:14:51Z</time>
      </trkpt>
      <trkpt lat="47.22675" lon="6.11182">
        <ele>376.7</ele>
        <time>2011-04-17T13:14:55Z</time>
      </trkpt>
      <trkpt lat="47.22692" lon="6.11152">
        <ele>376.475</ele>
        <time>2011-04-17T13:15:02Z</time>
      </trkpt>
      <trkpt lat="47.22703" lon="6.11124">
        <ele>376.634</ele>
        <time>2011-04-17T13:15:08Z</time>
      </trkpt>
      <trkpt lat="47.22715" lon="6.11118">
        <ele>376.682</ele>
        <time>2011-04-17T13:15:12Z</time>
      </trkpt>
      <trkpt lat="47.22719" lon="6.11122">
        <ele>376.598</ele>
        <time>2011-04-17T13:15:13Z</time>
      </trkpt>
      <trkpt lat="47.22735" lon="6.11134">
        <ele>376.441</ele>
        <time>2011-04-17T13:15:17Z</time>
      </trkpt>
      <trkpt lat="47.22749" lon="6.11135">
        <ele>376.526</ele>
        <time>2011-04-17T13:15:21Z</time>
      </trkpt>
      <trkpt lat="47.2275" lon="6.1113">
        <ele>376.562</ele>
        <time>2011-04-17T13:15:22Z</time>
      </trkpt>
      <trkpt lat="47.2276" lon="6.11096">
        <ele>376.589</ele>
        <time>2011-04-17T13:15:28Z</time>
      </trkpt>
      <trkpt lat="47.22762" lon="6.1109">
        <ele>376.619</ele>
        <time>2011-04-17T13:15:29Z</time>
      </trkpt>
      <trkpt lat="47.22771" lon="6.1108">
        <ele>376.544</ele>
        <time>2011-04-17T13:15:32Z</time>
      </trkpt>
      <trkpt lat="47.22774" lon="6.11082">
        <ele>376.608</ele>
        <time>2011-04-17T13:15:33Z</time>
      </trkpt>
      <trkpt lat="47.22807" lon="6.11108">
        <ele>376.493</ele>
        <time>2011-04-17T13:15:42Z</time>
      </trkpt>
      <trkpt lat="47.22827" lon="6.11122">
        <ele>376.559</ele>
        <time>2011-04-17T13:15:48Z</time>
      </trkpt>
      <trkpt lat="47.22843" lon="6.1114">
        <ele>376.729</ele>
        <time>2011-04-17T13:15:54Z</time>
      </trkpt>
      <trkpt lat="47.22859" lon="6.11161">
        <ele>376.808</ele>
        <time>2011-04-17T13:16:01Z</time>
      </trkpt>
      <trkpt lat="47.2287" lon="6.11173">
        <ele>376.971</ele>
        <time>2011-04-17T13:16:06Z</time>
      </trkpt>
      <trkpt lat="47.22876" lon="6.11184">
        <ele>377.31</ele>
        <time>2011-04-17T13:16:11Z</time>
      </trkpt>
      <trkpt lat="47.22881" lon="6.112">
        <ele>377.329</ele>
        <time>2011-04-17T13:16:18Z</time>
      </trkpt>
      <trkpt lat="47.22882" lon="6.11202">
        <ele>377.341</ele>
        <time>2011-04-17T13:16:21Z</time>
      </trkpt>
      <trkpt lat="47.22883" lon="6.11206">
        <ele>377.215</ele>
        <time>2011-04-17T13:16:29Z</time>
      </trkpt>
      <trkpt lat="47.22882" lon="6.11206">
        <ele>377.053</ele>
        <time>2011-04-17T13:16:31Z</time>
      </trkpt>
      <trkpt lat="47.22874" lon="6.11287">
        <ele>382.795</ele>
        <time>2011-04-17T15:08:52Z</time>
      </trkpt>
      <trkpt lat="47.22874" lon="6.11287">
        <ele>382.681</ele>
        <time>2011-04-17T15:08:53Z</time>
      </trkpt>
      <trkpt lat="47.22887" lon="6.11288">
        <ele>382.769</ele>
        <time>2011-04-17T15:09:01Z</time>
      </trkpt>
      <trkpt lat="47.22896" lon="6.11278">
        <ele>382.657</ele>
        <time>2011-04-17T15:09:04Z</time>
      </trkpt>
      <trkpt lat="47.22916" lon="6.11251">
        <ele>381.909</ele>
        <time>2011-04-17T15:09:12Z</time>
      </trkpt>
      <trkpt lat="47.22941" lon="6.11219">
        <ele>381.548</ele>
        <time>2011-04-17T15:09:21Z</time>
      </trkpt>
      <trkpt lat="47.22967" lon="6.11184">
        <ele>381.428</ele>
        <time>2011-04-17T15:09:30Z</time>
      </trkpt>
      <trkpt lat="47.22988" lon="6.11158">
        <ele>381.473</ele>
        <time>2011-04-17T15:09:37Z</time>
      </trkpt>
      <trkpt lat="47.2302" lon="6.11119">
        <ele>381.322</ele>
        <time>2011-04-17T15:09:47Z</time>
      </trkpt>
      <trkpt lat="47.23058" lon="6.11072">
        <ele>380.947</ele>
        <time>2011-04-17T15:09:59Z</time>
      </trkpt>
      <trkpt lat="47.23077" lon="6.11049">
        <ele>381.13</ele>
        <time>2011-04-17T15:10:06Z</time>
      </trkpt>
      <trkpt lat="47.23104" lon="6.1101">
        <ele>381.145</ele>
        <time>2011-04-17T15:10:15Z</time>
      </trkpt>
      <trkpt lat="47.23128" lon="6.10974">
        <ele>380.716</ele>
        <time>2011-04-17T15:10:23Z</time>
      </trkpt>
      <trkpt lat="47.23147" lon="6.10943">
        <ele>380.641</ele>
        <time>2011-04-17T15:10:30Z</time>
      </trkpt>
      <trkpt lat="47.23168" lon="6.10907">
        <ele>380.558</ele>
        <time>2011-04-17T15:10:38Z</time>
      </trkpt>
      <trkpt lat="47.23179" lon="6.1089">
        <ele>380.493</ele>
        <time>2011-04-17T15:10:42Z</time>
      </trkpt>
      <trkpt lat="47.23209" lon="6.1084">
        <ele>380.775</ele>
        <time>2011-04-17T15:10:53Z</time>
      </trkpt>
      <trkpt lat="47.23234" lon="6.10798">
        <ele>381.05</ele>
        <time>2011-04-17T15:11:02Z</time>
      </trkpt>
      <trkpt lat="47.23254" lon="6.10758">
        <ele>381.342</ele>
        <time>2011-04-17T15:11:11Z</time>
      </trkpt>
      <trkpt lat="47.23271" lon="6.10713">
        <ele>381.144</ele>
        <time>2011-04-17T15:11:20Z</time>
      </trkpt>
      <trkpt lat="47.23288" lon="6.10664">
        <ele>381.005</ele>
        <time>2011-04-17T15:11:28Z</time>
      </trkpt>
      <trkpt lat="47.23301" lon="6.10616">
        <ele>380.956</ele>
        <time>2011-04-17T15:11:36Z</time>
      </trkpt>
      <trkpt lat="47.23303" lon="6.10614">
        <ele>380.918</ele>
        <time>2011-04-17T15:11:38Z</time>
      </trkpt>
      <trkpt lat="47.23307" lon="6.10613">
        <ele>381.881</ele>
        <time>2011-04-17T15:17:53Z</time>
      </trkpt>
      <trkpt lat="47.23304" lon="6.10605">
        <ele>382.611</ele>
        <time>2011-04-17T15:23:03Z</time>
      </trkpt>
      <trkpt lat="47.23308" lon="6.10591">
        <ele>382.733</ele>
        <time>2011-04-17T15:23:10Z</time>
      </trkpt>
      <trkpt lat="47.23315" lon="6.10563">
        <ele>382.88</ele>
        <time>2011-04-17T15:23:17Z</time>
      </trkpt>
      <trkpt lat="47.23331" lon="6.10501">
        <ele>383.021</ele>
        <time>2011-04-17T15:23:30Z</time>
      </trkpt>
      <trkpt lat="47.23342" lon="6.1046">
        <ele>383.089</ele>
        <time>2011-04-17T15:23:37Z</time>
      </trkpt>
      <trkpt lat="47.23359" lon="6.104">
        <ele>383.321</ele>
        <time>2011-04-17T15:23:47Z</time>
      </trkpt>
      <trkpt lat="47.23372" lon="6.10351">
        <ele>383.528</ele>
        <time>2011-04-17T15:23:54Z</time>
      </trkpt>
      <trkpt lat="47.23392" lon="6.10274">
        <ele>384.116</ele>
        <time>2011-04-17T15:24:05Z</time>
      </trkpt>
      <trkpt lat="47.23405" lon="6.10225">
        <ele>384.444</ele>
        <time>2011-04-17T15:24:13Z</time>
      </trkpt>
      <trkpt lat="47.23419" lon="6.10172">
        <ele>385.073</ele>
        <time>2011-04-17T15:24:22Z</time>
      </trkpt>
      <trkpt lat="47.23433" lon="6.10114">
        <ele>385.6</ele>
        <time>2011-04-17T15:24:32Z</time>
      </trkpt>
      <trkpt lat="47.23442" lon="6.10068">
        <ele>386.252</ele>
        <time>2011-04-17T15:24:39Z</time>
      </trkpt>
      <trkpt lat="47.23451" lon="6.10011">
        <ele>388.106</ele>
        <time>2011-04-17T15:24:48Z</time>
      </trkpt>
      <trkpt lat="47.23457" lon="6.09959">
        <ele>389.605</ele>
        <time>2011-04-17T15:24:58Z</time>
      </trkpt>
      <trkpt lat="47.23463" lon="6.09908">
        <ele>391.052</ele>
        <time>2011-04-17T15:25:07Z</time>
      </trkpt>
      <trkpt lat="47.2347" lon="6.09855">
        <ele>391.736</ele>
        <time>2011-04-17T15:25:16Z</time>
      </trkpt>
      <trkpt lat="47.23478" lon="6.09797">
        <ele>392.421</ele>
        <time>2011-04-17T15:25:25Z</time>
      </trkpt>
      <trkpt lat="47.23482" lon="6.09741">
        <ele>393.134</ele>
        <time>2011-04-17T15:25:34Z</time>
      </trkpt>
      <trkpt lat="47.23479" lon="6.09675">
        <ele>394.832</ele>
        <time>2011-04-17T15:25:45Z</time>
      </trkpt>
      <trkpt lat="47.23471" lon="6.09619">
        <ele>396.152</ele>
        <time>2011-04-17T15:25:55Z</time>
      </trkpt>
      <trkpt lat="47.23461" lon="6.09561">
        <ele>397.861</ele>
        <time>2011-04-17T15:26:06Z</time>
      </trkpt>
      <trkpt lat="47.23456" lon="6.09527">
        <ele>399.722</ele>
        <time>2011-04-17T15:26:14Z</time>
      </trkpt>
      <trkpt lat="47.23452" lon="6.09493">
        <ele>401.806</ele>
        <time>2011-04-17T15:26:23Z</time>
      </trkpt>
      <trkpt lat="47.23455" lon="6.09479">
        <ele>402.983</ele>
        <time>2011-04-17T15:26:27Z</time>
      </trkpt>
      <trkpt lat="47.23465" lon="6.09473">
        <ele>403.776</ele>
        <time>2011-04-17T15:26:31Z</time>
      </trkpt>
      <trkpt lat="47.23472" lon="6.09471">
        <ele>403.95</ele>
        <time>2011-04-17T15:26:33Z</time>
      </trkpt>
      <trkpt lat="47.23484" lon="6.09457">
        <ele>404.721</ele>
        <time>2011-04-17T15:26:38Z</time>
      </trkpt>
      <trkpt lat="47.23482" lon="6.09435">
        <ele>405.272</ele>
        <time>2011-04-17T15:26:43Z</time>
      </trkpt>
      <trkpt lat="47.23467" lon="6.09422">
        <ele>405.353</ele>
        <time>2011-04-17T15:26:48Z</time>
      </trkpt>
      <trkpt lat="47.23463" lon="6.0942">
        <ele>405.262</ele>
        <time>2011-04-17T15:26:49Z</time>
      </trkpt>
      <trkpt lat="47.2345" lon="6.09404">
        <ele>404.675</ele>
        <time>2011-04-17T15:26:53Z</time>
      </trkpt>
      <trkpt lat="47.23423" lon="6.0935">
        <ele>404.151</ele>
        <time>2011-04-17T15:27:03Z</time>
      </trkpt>
      <trkpt lat="47.23397" lon="6.09305">
        <ele>404.2</ele>
        <time>2011-04-17T15:27:11Z</time>
      </trkpt>
      <trkpt lat="47.23363" lon="6.09246">
        <ele>404.519</ele>
        <time>2011-04-17T15:27:22Z</time>
      </trkpt>
      <trkpt lat="47.23338" lon="6.09202">
        <ele>405.675</ele>
        <time>2011-04-17T15:27:31Z</time>
      </trkpt>
      <trkpt lat="47.23318" lon="6.09166">
        <ele>406.99</ele>
        <time>2011-04-17T15:27:39Z</time>
      </trkpt>
      <trkpt lat="47.23287" lon="6.09111">
        <ele>408.797</ele>
        <time>2011-04-17T15:27:51Z</time>
      </trkpt>
      <trkpt lat="47.23263" lon="6.09063">
        <ele>410.154</ele>
        <time>2011-04-17T15:28:01Z</time>
      </trkpt>
      <trkpt lat="47.23244" lon="6.09016">
        <ele>411.579</ele>
        <time>2011-04-17T15:28:10Z</time>
      </trkpt>
      <trkpt lat="47.23226" lon="6.08958">
        <ele>412.941</ele>
        <time>2011-04-17T15:28:21Z</time>
      </trkpt>
      <trkpt lat="47.2321" lon="6.08905">
        <ele>414.677</ele>
        <time>2011-04-17T15:28:31Z</time>
      </trkpt>
      <trkpt lat="47.23192" lon="6.08861">
        <ele>415.913</ele>
        <time>2011-04-17T15:28:40Z</time>
      </trkpt>
      <trkpt lat="47.23168" lon="6.08825">
        <ele>417.131</ele>
        <time>2011-04-17T15:28:49Z</time>
      </trkpt>
      <trkpt lat="47.23139" lon="6.08796">
        <ele>418.351</ele>
        <time>2011-04-17T15:28:58Z</time>
      </trkpt>
      <trkpt lat="47.23118" lon="6.08784">
        <ele>419.618</ele>
        <time>2011-04-17T15:29:04Z</time>
      </trkpt>
      <trkpt lat="47.23094" lon="6.08766">
        <ele>420.111</ele>
        <time>2011-04-17T15:29:11Z</time>
      </trkpt>
      <trkpt lat="47.23068" lon="6.08735">
        <ele>421.621</ele>
        <time>2011-04-17T15:29:20Z</time>
      </trkpt>
      <trkpt lat="47.23044" lon="6.08698">
        <ele>422.877</ele>
        <time>2011-04-17T15:29:29Z</time>
      </trkpt>
      <trkpt lat="47.23029" lon="6.08663">
        <ele>423.786</ele>
        <time>2011-04-17T15:29:35Z</time>
      </trkpt>
      <trkpt lat="47.23005" lon="6.08612">
        <ele>425.404</ele>
        <time>2011-04-17T15:29:44Z</time>
      </trkpt>
      <trkpt lat="47.22986" lon="6.08573">
        <ele>426.966</ele>
        <time>2011-04-17T15:29:51Z</time>
      </trkpt>
      <trkpt lat="47.22966" lon="6.08537">
        <ele>428.072</ele>
        <time>2011-04-17T15:29:58Z</time>
      </trkpt>
      <trkpt lat="47.22948" lon="6.08508">
        <ele>429.266</ele>
        <time>2011-04-17T15:30:04Z</time>
      </trkpt>
      <trkpt lat="47.22922" lon="6.08472">
        <ele>430.557</ele>
        <time>2011-04-17T15:30:11Z</time>
      </trkpt>
      <trkpt lat="47.22898" lon="6.08443">
        <ele>431.39</ele>
        <time>2011-04-17T15:30:17Z</time>
      </trkpt>
      <trkpt lat="47.22859" lon="6.08393">
        <ele>432.577</ele>
        <time>2011-04-17T15:30:27Z</time>
      </trkpt>
      <trkpt lat="47.22834" lon="6.08342">
        <ele>431.709</ele>
        <time>2011-04-17T15:30:34Z</time>
      </trkpt>
      <trkpt lat="47.2282" lon="6.08294">
        <ele>430.423</ele>
        <time>2011-04-17T15:30:39Z</time>
      </trkpt>
      <trkpt lat="47.22806" lon="6.08218">
        <ele>429.935</ele>
        <time>2011-04-17T15:30:46Z</time>
      </trkpt>
      <trkpt lat="47.22787" lon="6.08157">
        <ele>429.803</ele>
        <time>2011-04-17T15:30:52Z</time>
      </trkpt>
      <trkpt lat="47.22755" lon="6.08097">
        <ele>429.965</ele>
        <time>2011-04-17T15:30:59Z</time>
      </trkpt>
      <trkpt lat="47.2272" lon="6.08058">
        <ele>430.069</ele>
        <time>2011-04-17T15:31:05Z</time>
      </trkpt>
      <trkpt lat="47.22676" lon="6.08022">
        <ele>430.146</ele>
        <time>2011-04-17T15:31:12Z</time>
      </trkpt>
      <trkpt lat="47.22657" lon="6.07993">
        <ele>429.871</ele>
        <time>2011-04-17T15:31:16Z</time>
      </trkpt>
      <trkpt lat="47.22657" lon="6.07983">
        <ele>429.684</ele>
        <time>2011-04-17T15:31:17Z</time>
      </trkpt>
      <trkpt lat="47.22662" lon="6.07933">
        <ele>431.415</ele>
        <time>2011-04-17T15:31:23Z</time>
      </trkpt>
      <trkpt lat="47.22664" lon="6.07926">
        <ele>431.81</ele>
        <time>2011-04-17T15:31:24Z</time>
      </trkpt>
      <trkpt lat="47.2266" lon="6.07904">
        <ele>433.191</ele>
        <time>2011-04-17T15:31:28Z</time>
      </trkpt>
      <trkpt lat="47.22644" lon="6.07899">
        <ele>432.765</ele>
        <time>2011-04-17T15:31:31Z</time>
      </trkpt>
      <trkpt lat="47.22606" lon="6.07885">
        <ele>431.214</ele>
        <time>2011-04-17T15:31:37Z</time>
      </trkpt>
      <trkpt lat="47.22599" lon="6.0788">
        <ele>430.888</ele>
        <time>2011-04-17T15:31:38Z</time>
      </trkpt>
      <trkpt lat="47.22578" lon="6.07843">
        <ele>429.174</ele>
        <time>2011-04-17T15:31:42Z</time>
      </trkpt>
      <trkpt lat="47.22569" lon="6.07807">
        <ele>426.79</ele>
        <time>2011-04-17T15:31:45Z</time>
      </trkpt>
      <trkpt lat="47.22564" lon="6.07788">
        <ele>424.508</ele>
        <time>2011-04-17T15:31:48Z</time>
      </trkpt>
      <trkpt lat="47.22564" lon="6.07786">
        <ele>424.068</ele>
        <time>2011-04-17T15:31:49Z</time>
      </trkpt>
      <trkpt lat="47.22565" lon="6.07784">
        <ele>423.722</ele>
        <time>2011-04-17T15:31:51Z</time>
      </trkpt>
      <trkpt lat="47.22566" lon="6.07784">
        <ele>423.785</ele>
        <time>2011-04-17T15:31:53Z</time>
      </trkpt>
      <trkpt lat="47.22568" lon="6.07785">
        <ele>423.907</ele>
        <time>2011-04-17T15:32:10Z</time>
      </trkpt>
      <trkpt lat="47.22569" lon="6.07785">
        <ele>423.907</ele>
        <time>2011-04-17T15:32:11Z</time>
      </trkpt>
      <trkpt lat="47.22576" lon="6.07792">
        <ele>424.169</ele>
        <time>2011-04-17T15:34:35Z</time>
      </trkpt>
      <trkpt lat="47.22574" lon="6.07791">
        <ele>424.127</ele>
        <time>2011-04-17T15:34:39Z</time>
      </trkpt>
    </trkseg>
  </trk>
</gpx>